<?xml version="1.0" encoding="UTF-8" standalone="no" ?>
<gpx xmlns="http://www.topografix.com/GPX/1/1" xmlns:xsi="http://www.w3.org/2001/XMLSchema-instance" xsi:schemaLocation="http://www.topografix.com/GPX/1/1 http://www.topografix.com/GPX/1/1/gpx.xsd" version="1.1" creator="VisuGPX - https://www.visugpx.com">
  <metadata>
    <name>Vacances Avril 2019 Grenoble Camargue</name>
    <desc><![CDATA[Deuxième partie du voyage après le but dans le Nord, direction le Sud. 
Pas de pluie mais Mistral d'enfer]]></desc>
  </metadata>
  <trk>
    <name><![CDATA[20190502221855-rGymn]]></name>
    <trkseg>
      <trkpt lat="43.67656" lon="4.6311">
        <ele>111.094</ele>
        <time>2019-04-30T06:54:52Z</time>
      </trkpt>
      <trkpt lat="43.6766" lon="4.63101">
        <ele>99.577</ele>
        <time>2019-04-30T06:55:02Z</time>
      </trkpt>
      <trkpt lat="43.67661" lon="4.63099">
        <ele>97.905</ele>
        <time>2019-04-30T06:55:12Z</time>
      </trkpt>
      <trkpt lat="43.67661" lon="4.63099">
        <ele>91.493</ele>
        <time>2019-04-30T06:55:22Z</time>
      </trkpt>
      <trkpt lat="43.67664" lon="4.63098">
        <ele>91.346</ele>
        <time>2019-04-30T06:55:33Z</time>
      </trkpt>
      <trkpt lat="43.67672" lon="4.63095">
        <ele>90.972</ele>
        <time>2019-04-30T06:55:44Z</time>
      </trkpt>
      <trkpt lat="43.67671" lon="4.63097">
        <ele>90.86</ele>
        <time>2019-04-30T06:55:54Z</time>
      </trkpt>
      <trkpt lat="43.67668" lon="4.63101">
        <ele>90.832</ele>
        <time>2019-04-30T06:56:04Z</time>
      </trkpt>
      <trkpt lat="43.67667" lon="4.63102">
        <ele>90.92</ele>
        <time>2019-04-30T06:56:15Z</time>
      </trkpt>
      <trkpt lat="43.67665" lon="4.63105">
        <ele>91.097</ele>
        <time>2019-04-30T06:56:26Z</time>
      </trkpt>
      <trkpt lat="43.67663" lon="4.63104">
        <ele>91.652</ele>
        <time>2019-04-30T06:56:37Z</time>
      </trkpt>
      <trkpt lat="43.67663" lon="4.63105">
        <ele>92.125</ele>
        <time>2019-04-30T06:56:48Z</time>
      </trkpt>
      <trkpt lat="43.67664" lon="4.63106">
        <ele>92.599</ele>
        <time>2019-04-30T06:56:58Z</time>
      </trkpt>
      <trkpt lat="43.67665" lon="4.63106">
        <ele>93.052</ele>
        <time>2019-04-30T06:57:08Z</time>
      </trkpt>
      <trkpt lat="43.67667" lon="4.63106">
        <ele>93.423</ele>
        <time>2019-04-30T06:57:18Z</time>
      </trkpt>
      <trkpt lat="43.67668" lon="4.63105">
        <ele>93.758</ele>
        <time>2019-04-30T06:57:29Z</time>
      </trkpt>
      <trkpt lat="43.67668" lon="4.63104">
        <ele>94.099</ele>
        <time>2019-04-30T06:57:39Z</time>
      </trkpt>
      <trkpt lat="43.67668" lon="4.63103">
        <ele>94.457</ele>
        <time>2019-04-30T06:57:50Z</time>
      </trkpt>
      <trkpt lat="43.6767" lon="4.63102">
        <ele>94.713</ele>
        <time>2019-04-30T06:58:01Z</time>
      </trkpt>
      <trkpt lat="43.67671" lon="4.631">
        <ele>94.909</ele>
        <time>2019-04-30T06:58:12Z</time>
      </trkpt>
      <trkpt lat="43.67671" lon="4.63099">
        <ele>95.022</ele>
        <time>2019-04-30T06:58:23Z</time>
      </trkpt>
      <trkpt lat="43.67671" lon="4.63097">
        <ele>95.067</ele>
        <time>2019-04-30T06:58:33Z</time>
      </trkpt>
      <trkpt lat="43.67671" lon="4.63096">
        <ele>95.089</ele>
        <time>2019-04-30T06:58:44Z</time>
      </trkpt>
      <trkpt lat="43.67672" lon="4.63096">
        <ele>95.178</ele>
        <time>2019-04-30T06:58:55Z</time>
      </trkpt>
      <trkpt lat="43.67672" lon="4.63094">
        <ele>95.484</ele>
        <time>2019-04-30T06:59:05Z</time>
      </trkpt>
      <trkpt lat="43.67671" lon="4.63088">
        <ele>95.335</ele>
        <time>2019-04-30T06:59:16Z</time>
      </trkpt>
      <trkpt lat="43.67665" lon="4.63058">
        <ele>94.215</ele>
        <time>2019-04-30T06:59:27Z</time>
      </trkpt>
      <trkpt lat="43.67677" lon="4.63037">
        <ele>92.648</ele>
        <time>2019-04-30T06:59:37Z</time>
      </trkpt>
      <trkpt lat="43.677" lon="4.63033">
        <ele>90.718</ele>
        <time>2019-04-30T06:59:48Z</time>
      </trkpt>
      <trkpt lat="43.67704" lon="4.62981">
        <ele>87.172</ele>
        <time>2019-04-30T06:59:59Z</time>
      </trkpt>
      <trkpt lat="43.67707" lon="4.62952">
        <ele>83.972</ele>
        <time>2019-04-30T07:00:09Z</time>
      </trkpt>
      <trkpt lat="43.67699" lon="4.62919">
        <ele>81.014</ele>
        <time>2019-04-30T07:00:20Z</time>
      </trkpt>
      <trkpt lat="43.67693" lon="4.62865">
        <ele>76.298</ele>
        <time>2019-04-30T07:00:30Z</time>
      </trkpt>
      <trkpt lat="43.67689" lon="4.62811">
        <ele>62.2</ele>
        <time>2019-04-30T07:00:40Z</time>
      </trkpt>
      <trkpt lat="43.67687" lon="4.62776">
        <ele>59.855</ele>
        <time>2019-04-30T07:00:50Z</time>
      </trkpt>
      <trkpt lat="43.67687" lon="4.62723">
        <ele>58.455</ele>
        <time>2019-04-30T07:01:01Z</time>
      </trkpt>
      <trkpt lat="43.67716" lon="4.6272">
        <ele>58.746</ele>
        <time>2019-04-30T07:01:12Z</time>
      </trkpt>
      <trkpt lat="43.67748" lon="4.62718">
        <ele>59.983</ele>
        <time>2019-04-30T07:01:22Z</time>
      </trkpt>
      <trkpt lat="43.67774" lon="4.62717">
        <ele>61.167</ele>
        <time>2019-04-30T07:01:33Z</time>
      </trkpt>
      <trkpt lat="43.67779" lon="4.62695">
        <ele>62.289</ele>
        <time>2019-04-30T07:01:44Z</time>
      </trkpt>
      <trkpt lat="43.67779" lon="4.62687">
        <ele>62.252</ele>
        <time>2019-04-30T07:01:55Z</time>
      </trkpt>
      <trkpt lat="43.67779" lon="4.62687">
        <ele>62.806</ele>
        <time>2019-04-30T07:02:05Z</time>
      </trkpt>
      <trkpt lat="43.67775" lon="4.62684">
        <ele>63.549</ele>
        <time>2019-04-30T07:02:16Z</time>
      </trkpt>
      <trkpt lat="43.67775" lon="4.62684">
        <ele>63.747</ele>
        <time>2019-04-30T07:02:26Z</time>
      </trkpt>
      <trkpt lat="43.67775" lon="4.62684">
        <ele>64.003</ele>
        <time>2019-04-30T07:02:37Z</time>
      </trkpt>
      <trkpt lat="43.67776" lon="4.62684">
        <ele>64.216</ele>
        <time>2019-04-30T07:02:47Z</time>
      </trkpt>
      <trkpt lat="43.67777" lon="4.62684">
        <ele>64.581</ele>
        <time>2019-04-30T07:02:58Z</time>
      </trkpt>
      <trkpt lat="43.67777" lon="4.62684">
        <ele>64.734</ele>
        <time>2019-04-30T07:03:08Z</time>
      </trkpt>
      <trkpt lat="43.67777" lon="4.62684">
        <ele>64.908</ele>
        <time>2019-04-30T07:03:19Z</time>
      </trkpt>
      <trkpt lat="43.67777" lon="4.62684">
        <ele>65.095</ele>
        <time>2019-04-30T07:03:30Z</time>
      </trkpt>
      <trkpt lat="43.67776" lon="4.62684">
        <ele>65.277</ele>
        <time>2019-04-30T07:03:40Z</time>
      </trkpt>
      <trkpt lat="43.67776" lon="4.62684">
        <ele>65.466</ele>
        <time>2019-04-30T07:03:51Z</time>
      </trkpt>
      <trkpt lat="43.67777" lon="4.62683">
        <ele>65.645</ele>
        <time>2019-04-30T07:04:02Z</time>
      </trkpt>
      <trkpt lat="43.67777" lon="4.62683">
        <ele>65.808</ele>
        <time>2019-04-30T07:04:12Z</time>
      </trkpt>
      <trkpt lat="43.67777" lon="4.62682">
        <ele>65.979</ele>
        <time>2019-04-30T07:04:23Z</time>
      </trkpt>
      <trkpt lat="43.67777" lon="4.62682">
        <ele>66.138</ele>
        <time>2019-04-30T07:04:34Z</time>
      </trkpt>
      <trkpt lat="43.67775" lon="4.62682">
        <ele>66.403</ele>
        <time>2019-04-30T07:04:44Z</time>
      </trkpt>
      <trkpt lat="43.67775" lon="4.62682">
        <ele>66.528</ele>
        <time>2019-04-30T07:04:55Z</time>
      </trkpt>
      <trkpt lat="43.67775" lon="4.62681">
        <ele>66.591</ele>
        <time>2019-04-30T07:05:05Z</time>
      </trkpt>
      <trkpt lat="43.67775" lon="4.62681">
        <ele>66.628</ele>
        <time>2019-04-30T07:05:15Z</time>
      </trkpt>
      <trkpt lat="43.67775" lon="4.62681">
        <ele>66.642</ele>
        <time>2019-04-30T07:05:26Z</time>
      </trkpt>
      <trkpt lat="43.67775" lon="4.62681">
        <ele>66.637</ele>
        <time>2019-04-30T07:05:37Z</time>
      </trkpt>
      <trkpt lat="43.67774" lon="4.6268">
        <ele>66.628</ele>
        <time>2019-04-30T07:05:47Z</time>
      </trkpt>
      <trkpt lat="43.67774" lon="4.6268">
        <ele>66.628</ele>
        <time>2019-04-30T07:05:57Z</time>
      </trkpt>
      <trkpt lat="43.67774" lon="4.6268">
        <ele>66.672</ele>
        <time>2019-04-30T07:06:07Z</time>
      </trkpt>
      <trkpt lat="43.67774" lon="4.62679">
        <ele>66.742</ele>
        <time>2019-04-30T07:06:18Z</time>
      </trkpt>
      <trkpt lat="43.67774" lon="4.62679">
        <ele>66.801</ele>
        <time>2019-04-30T07:06:28Z</time>
      </trkpt>
      <trkpt lat="43.67773" lon="4.62679">
        <ele>66.804</ele>
        <time>2019-04-30T07:06:38Z</time>
      </trkpt>
      <trkpt lat="43.67773" lon="4.62679">
        <ele>66.754</ele>
        <time>2019-04-30T07:06:49Z</time>
      </trkpt>
      <trkpt lat="43.67773" lon="4.62679">
        <ele>66.656</ele>
        <time>2019-04-30T07:06:59Z</time>
      </trkpt>
      <trkpt lat="43.67772" lon="4.62678">
        <ele>66.537</ele>
        <time>2019-04-30T07:07:10Z</time>
      </trkpt>
      <trkpt lat="43.67772" lon="4.62678">
        <ele>66.466</ele>
        <time>2019-04-30T07:07:20Z</time>
      </trkpt>
      <trkpt lat="43.67772" lon="4.62678">
        <ele>66.37</ele>
        <time>2019-04-30T07:07:30Z</time>
      </trkpt>
      <trkpt lat="43.67772" lon="4.62678">
        <ele>66.279</ele>
        <time>2019-04-30T07:07:41Z</time>
      </trkpt>
      <trkpt lat="43.67772" lon="4.62678">
        <ele>66.19</ele>
        <time>2019-04-30T07:07:51Z</time>
      </trkpt>
      <trkpt lat="43.67772" lon="4.62677">
        <ele>66.059</ele>
        <time>2019-04-30T07:08:02Z</time>
      </trkpt>
      <trkpt lat="43.67771" lon="4.62677">
        <ele>65.954</ele>
        <time>2019-04-30T07:08:13Z</time>
      </trkpt>
      <trkpt lat="43.67771" lon="4.62677">
        <ele>65.872</ele>
        <time>2019-04-30T07:08:24Z</time>
      </trkpt>
      <trkpt lat="43.67771" lon="4.62677">
        <ele>65.821</ele>
        <time>2019-04-30T07:08:35Z</time>
      </trkpt>
      <trkpt lat="43.67771" lon="4.62677">
        <ele>65.793</ele>
        <time>2019-04-30T07:08:45Z</time>
      </trkpt>
      <trkpt lat="43.67771" lon="4.62678">
        <ele>65.796</ele>
        <time>2019-04-30T07:08:56Z</time>
      </trkpt>
      <trkpt lat="43.67771" lon="4.62678">
        <ele>65.819</ele>
        <time>2019-04-30T07:09:06Z</time>
      </trkpt>
      <trkpt lat="43.67772" lon="4.62679">
        <ele>65.844</ele>
        <time>2019-04-30T07:09:17Z</time>
      </trkpt>
      <trkpt lat="43.67772" lon="4.62679">
        <ele>65.901</ele>
        <time>2019-04-30T07:09:28Z</time>
      </trkpt>
      <trkpt lat="43.67773" lon="4.62679">
        <ele>65.97</ele>
        <time>2019-04-30T07:09:39Z</time>
      </trkpt>
      <trkpt lat="43.67773" lon="4.6268">
        <ele>66.019</ele>
        <time>2019-04-30T07:09:50Z</time>
      </trkpt>
      <trkpt lat="43.67773" lon="4.6268">
        <ele>66.089</ele>
        <time>2019-04-30T07:10:01Z</time>
      </trkpt>
      <trkpt lat="43.67772" lon="4.62681">
        <ele>66.124</ele>
        <time>2019-04-30T07:10:11Z</time>
      </trkpt>
      <trkpt lat="43.67773" lon="4.62681">
        <ele>66.136</ele>
        <time>2019-04-30T07:10:22Z</time>
      </trkpt>
      <trkpt lat="43.67773" lon="4.62681">
        <ele>66.108</ele>
        <time>2019-04-30T07:10:32Z</time>
      </trkpt>
      <trkpt lat="43.67773" lon="4.62681">
        <ele>66.047</ele>
        <time>2019-04-30T07:10:43Z</time>
      </trkpt>
      <trkpt lat="43.67773" lon="4.62682">
        <ele>66.006</ele>
        <time>2019-04-30T07:10:54Z</time>
      </trkpt>
      <trkpt lat="43.67773" lon="4.62681">
        <ele>65.984</ele>
        <time>2019-04-30T07:11:04Z</time>
      </trkpt>
      <trkpt lat="43.67773" lon="4.6268">
        <ele>66.033</ele>
        <time>2019-04-30T07:11:15Z</time>
      </trkpt>
      <trkpt lat="43.67774" lon="4.62678">
        <ele>66.666</ele>
        <time>2019-04-30T07:11:26Z</time>
      </trkpt>
      <trkpt lat="43.67775" lon="4.62676">
        <ele>66.7</ele>
        <time>2019-04-30T07:11:37Z</time>
      </trkpt>
      <trkpt lat="43.67782" lon="4.6268">
        <ele>66.924</ele>
        <time>2019-04-30T07:11:47Z</time>
      </trkpt>
      <trkpt lat="43.67782" lon="4.62681">
        <ele>66.927</ele>
        <time>2019-04-30T07:11:58Z</time>
      </trkpt>
      <trkpt lat="43.67781" lon="4.62681">
        <ele>66.897</ele>
        <time>2019-04-30T07:12:08Z</time>
      </trkpt>
      <trkpt lat="43.6778" lon="4.62682">
        <ele>66.805</ele>
        <time>2019-04-30T07:12:19Z</time>
      </trkpt>
      <trkpt lat="43.6778" lon="4.62682">
        <ele>66.682</ele>
        <time>2019-04-30T07:12:30Z</time>
      </trkpt>
      <trkpt lat="43.6778" lon="4.62682">
        <ele>66.572</ele>
        <time>2019-04-30T07:12:40Z</time>
      </trkpt>
      <trkpt lat="43.6778" lon="4.62682">
        <ele>66.471</ele>
        <time>2019-04-30T07:12:51Z</time>
      </trkpt>
      <trkpt lat="43.6778" lon="4.62682">
        <ele>66.436</ele>
        <time>2019-04-30T07:13:02Z</time>
      </trkpt>
      <trkpt lat="43.67781" lon="4.62682">
        <ele>66.454</ele>
        <time>2019-04-30T07:13:13Z</time>
      </trkpt>
      <trkpt lat="43.67781" lon="4.62682">
        <ele>66.522</ele>
        <time>2019-04-30T07:13:23Z</time>
      </trkpt>
      <trkpt lat="43.67781" lon="4.62682">
        <ele>66.626</ele>
        <time>2019-04-30T07:13:33Z</time>
      </trkpt>
      <trkpt lat="43.67782" lon="4.62682">
        <ele>66.723</ele>
        <time>2019-04-30T07:13:44Z</time>
      </trkpt>
      <trkpt lat="43.67778" lon="4.62682">
        <ele>68.552</ele>
        <time>2019-04-30T07:13:54Z</time>
      </trkpt>
      <trkpt lat="43.67776" lon="4.62681">
        <ele>68.631</ele>
        <time>2019-04-30T07:14:05Z</time>
      </trkpt>
      <trkpt lat="43.67762" lon="4.62682">
        <ele>68.842</ele>
        <time>2019-04-30T07:14:15Z</time>
      </trkpt>
      <trkpt lat="43.67762" lon="4.62682">
        <ele>68.873</ele>
        <time>2019-04-30T07:14:25Z</time>
      </trkpt>
      <trkpt lat="43.67763" lon="4.62682">
        <ele>68.91</ele>
        <time>2019-04-30T07:14:36Z</time>
      </trkpt>
      <trkpt lat="43.67764" lon="4.62682">
        <ele>68.89</ele>
        <time>2019-04-30T07:14:46Z</time>
      </trkpt>
      <trkpt lat="43.67765" lon="4.62682">
        <ele>68.843</ele>
        <time>2019-04-30T07:14:56Z</time>
      </trkpt>
      <trkpt lat="43.67766" lon="4.62682">
        <ele>68.814</ele>
        <time>2019-04-30T07:15:07Z</time>
      </trkpt>
      <trkpt lat="43.67766" lon="4.62681">
        <ele>68.825</ele>
        <time>2019-04-30T07:15:18Z</time>
      </trkpt>
      <trkpt lat="43.67767" lon="4.62681">
        <ele>68.831</ele>
        <time>2019-04-30T07:15:29Z</time>
      </trkpt>
      <trkpt lat="43.67768" lon="4.62681">
        <ele>68.804</ele>
        <time>2019-04-30T07:15:40Z</time>
      </trkpt>
      <trkpt lat="43.67769" lon="4.62682">
        <ele>68.789</ele>
        <time>2019-04-30T07:15:51Z</time>
      </trkpt>
      <trkpt lat="43.6777" lon="4.62681">
        <ele>68.781</ele>
        <time>2019-04-30T07:16:02Z</time>
      </trkpt>
      <trkpt lat="43.67769" lon="4.62682">
        <ele>68.719</ele>
        <time>2019-04-30T07:16:13Z</time>
      </trkpt>
      <trkpt lat="43.67769" lon="4.62682">
        <ele>68.666</ele>
        <time>2019-04-30T07:16:23Z</time>
      </trkpt>
      <trkpt lat="43.67775" lon="4.62666">
        <ele>69.279</ele>
        <time>2019-04-30T07:16:34Z</time>
      </trkpt>
      <trkpt lat="43.67777" lon="4.6263">
        <ele>72.033</ele>
        <time>2019-04-30T07:16:44Z</time>
      </trkpt>
      <trkpt lat="43.67778" lon="4.62605">
        <ele>72.061</ele>
        <time>2019-04-30T07:16:55Z</time>
      </trkpt>
      <trkpt lat="43.67776" lon="4.62602">
        <ele>71.747</ele>
        <time>2019-04-30T07:17:05Z</time>
      </trkpt>
      <trkpt lat="43.67764" lon="4.62592">
        <ele>71.716</ele>
        <time>2019-04-30T07:17:15Z</time>
      </trkpt>
      <trkpt lat="43.67764" lon="4.62556">
        <ele>69.839</ele>
        <time>2019-04-30T07:17:26Z</time>
      </trkpt>
      <trkpt lat="43.67761" lon="4.62504">
        <ele>63.916</ele>
        <time>2019-04-30T07:17:36Z</time>
      </trkpt>
      <trkpt lat="43.67754" lon="4.62459">
        <ele>50.566</ele>
        <time>2019-04-30T07:17:46Z</time>
      </trkpt>
      <trkpt lat="43.67738" lon="4.62432">
        <ele>50.284</ele>
        <time>2019-04-30T07:17:57Z</time>
      </trkpt>
      <trkpt lat="43.67764" lon="4.62418">
        <ele>54.589</ele>
        <time>2019-04-30T07:18:07Z</time>
      </trkpt>
      <trkpt lat="43.67798" lon="4.62407">
        <ele>60.971</ele>
        <time>2019-04-30T07:18:18Z</time>
      </trkpt>
      <trkpt lat="43.67821" lon="4.62383">
        <ele>65.89</ele>
        <time>2019-04-30T07:18:28Z</time>
      </trkpt>
      <trkpt lat="43.67843" lon="4.62358">
        <ele>70.751</ele>
        <time>2019-04-30T07:18:39Z</time>
      </trkpt>
      <trkpt lat="43.67866" lon="4.62334">
        <ele>71.678</ele>
        <time>2019-04-30T07:18:50Z</time>
      </trkpt>
      <trkpt lat="43.67891" lon="4.62311">
        <ele>71.111</ele>
        <time>2019-04-30T07:19:00Z</time>
      </trkpt>
      <trkpt lat="43.6792" lon="4.62284">
        <ele>69.002</ele>
        <time>2019-04-30T07:19:10Z</time>
      </trkpt>
      <trkpt lat="43.67965" lon="4.6224">
        <ele>66.668</ele>
        <time>2019-04-30T07:19:21Z</time>
      </trkpt>
      <trkpt lat="43.6802" lon="4.62193">
        <ele>61.545</ele>
        <time>2019-04-30T07:19:32Z</time>
      </trkpt>
      <trkpt lat="43.68041" lon="4.62108">
        <ele>62.178</ele>
        <time>2019-04-30T07:19:43Z</time>
      </trkpt>
      <trkpt lat="43.68038" lon="4.62038">
        <ele>65.496</ele>
        <time>2019-04-30T07:19:54Z</time>
      </trkpt>
      <trkpt lat="43.68019" lon="4.62029">
        <ele>65.867</ele>
        <time>2019-04-30T07:20:05Z</time>
      </trkpt>
      <trkpt lat="43.68019" lon="4.62029">
        <ele>65.995</ele>
        <time>2019-04-30T07:20:15Z</time>
      </trkpt>
      <trkpt lat="43.68005" lon="4.62022">
        <ele>66.944</ele>
        <time>2019-04-30T07:20:26Z</time>
      </trkpt>
      <trkpt lat="43.67971" lon="4.62004">
        <ele>70.223</ele>
        <time>2019-04-30T07:20:36Z</time>
      </trkpt>
      <trkpt lat="43.67956" lon="4.61919">
        <ele>62.749</ele>
        <time>2019-04-30T07:20:47Z</time>
      </trkpt>
      <trkpt lat="43.67958" lon="4.61841">
        <ele>57.664</ele>
        <time>2019-04-30T07:20:58Z</time>
      </trkpt>
      <trkpt lat="43.67944" lon="4.61778">
        <ele>53.336</ele>
        <time>2019-04-30T07:21:09Z</time>
      </trkpt>
      <trkpt lat="43.67895" lon="4.61754">
        <ele>55.566</ele>
        <time>2019-04-30T07:21:20Z</time>
      </trkpt>
      <trkpt lat="43.6785" lon="4.61738">
        <ele>57.008</ele>
        <time>2019-04-30T07:21:30Z</time>
      </trkpt>
      <trkpt lat="43.67809" lon="4.61693">
        <ele>57.641</ele>
        <time>2019-04-30T07:21:41Z</time>
      </trkpt>
      <trkpt lat="43.67764" lon="4.61649">
        <ele>56.756</ele>
        <time>2019-04-30T07:21:52Z</time>
      </trkpt>
      <trkpt lat="43.67727" lon="4.61608">
        <ele>58.969</ele>
        <time>2019-04-30T07:22:03Z</time>
      </trkpt>
      <trkpt lat="43.6769" lon="4.61556">
        <ele>56.101</ele>
        <time>2019-04-30T07:22:14Z</time>
      </trkpt>
      <trkpt lat="43.67666" lon="4.61514">
        <ele>56.604</ele>
        <time>2019-04-30T07:22:24Z</time>
      </trkpt>
      <trkpt lat="43.67643" lon="4.61458">
        <ele>56.929</ele>
        <time>2019-04-30T07:22:34Z</time>
      </trkpt>
      <trkpt lat="43.67617" lon="4.61405">
        <ele>57.358</ele>
        <time>2019-04-30T07:22:44Z</time>
      </trkpt>
      <trkpt lat="43.67593" lon="4.61344">
        <ele>58.845</ele>
        <time>2019-04-30T07:22:55Z</time>
      </trkpt>
      <trkpt lat="43.67559" lon="4.61278">
        <ele>59.411</ele>
        <time>2019-04-30T07:23:06Z</time>
      </trkpt>
      <trkpt lat="43.67531" lon="4.6122">
        <ele>60.815</ele>
        <time>2019-04-30T07:23:17Z</time>
      </trkpt>
      <trkpt lat="43.67509" lon="4.6117">
        <ele>62.947</ele>
        <time>2019-04-30T07:23:27Z</time>
      </trkpt>
      <trkpt lat="43.67483" lon="4.61109">
        <ele>59.092</ele>
        <time>2019-04-30T07:23:37Z</time>
      </trkpt>
      <trkpt lat="43.67453" lon="4.61037">
        <ele>58.666</ele>
        <time>2019-04-30T07:23:48Z</time>
      </trkpt>
      <trkpt lat="43.67436" lon="4.60973">
        <ele>57.039</ele>
        <time>2019-04-30T07:23:58Z</time>
      </trkpt>
      <trkpt lat="43.67426" lon="4.60908">
        <ele>59.739</ele>
        <time>2019-04-30T07:24:09Z</time>
      </trkpt>
      <trkpt lat="43.67409" lon="4.60835">
        <ele>60.528</ele>
        <time>2019-04-30T07:24:20Z</time>
      </trkpt>
      <trkpt lat="43.67397" lon="4.60776">
        <ele>61.116</ele>
        <time>2019-04-30T07:24:30Z</time>
      </trkpt>
      <trkpt lat="43.67375" lon="4.60711">
        <ele>57.643</ele>
        <time>2019-04-30T07:24:40Z</time>
      </trkpt>
      <trkpt lat="43.6737" lon="4.60647">
        <ele>56.79</ele>
        <time>2019-04-30T07:24:52Z</time>
      </trkpt>
      <trkpt lat="43.67367" lon="4.60588">
        <ele>57.091</ele>
        <time>2019-04-30T07:25:02Z</time>
      </trkpt>
      <trkpt lat="43.67312" lon="4.60594">
        <ele>56.733</ele>
        <time>2019-04-30T07:25:13Z</time>
      </trkpt>
      <trkpt lat="43.67259" lon="4.60562">
        <ele>58.008</ele>
        <time>2019-04-30T07:25:24Z</time>
      </trkpt>
      <trkpt lat="43.67206" lon="4.6053">
        <ele>56.437</ele>
        <time>2019-04-30T07:25:35Z</time>
      </trkpt>
      <trkpt lat="43.67158" lon="4.605">
        <ele>60.515</ele>
        <time>2019-04-30T07:25:45Z</time>
      </trkpt>
      <trkpt lat="43.67161" lon="4.60501">
        <ele>60.338</ele>
        <time>2019-04-30T07:25:56Z</time>
      </trkpt>
      <trkpt lat="43.67155" lon="4.605">
        <ele>60.129</ele>
        <time>2019-04-30T07:26:06Z</time>
      </trkpt>
      <trkpt lat="43.67123" lon="4.60477">
        <ele>59.747</ele>
        <time>2019-04-30T07:26:16Z</time>
      </trkpt>
      <trkpt lat="43.67076" lon="4.60432">
        <ele>57.718</ele>
        <time>2019-04-30T07:26:27Z</time>
      </trkpt>
      <trkpt lat="43.6704" lon="4.60377">
        <ele>59.555</ele>
        <time>2019-04-30T07:26:38Z</time>
      </trkpt>
      <trkpt lat="43.67009" lon="4.60304">
        <ele>56.708</ele>
        <time>2019-04-30T07:26:49Z</time>
      </trkpt>
      <trkpt lat="43.66985" lon="4.60231">
        <ele>56.777</ele>
        <time>2019-04-30T07:27:00Z</time>
      </trkpt>
      <trkpt lat="43.66967" lon="4.60168">
        <ele>59.888</ele>
        <time>2019-04-30T07:27:10Z</time>
      </trkpt>
      <trkpt lat="43.66948" lon="4.60102">
        <ele>59.109</ele>
        <time>2019-04-30T07:27:21Z</time>
      </trkpt>
      <trkpt lat="43.66929" lon="4.60031">
        <ele>57.398</ele>
        <time>2019-04-30T07:27:32Z</time>
      </trkpt>
      <trkpt lat="43.6691" lon="4.59959">
        <ele>56.75</ele>
        <time>2019-04-30T07:27:43Z</time>
      </trkpt>
      <trkpt lat="43.66889" lon="4.59887">
        <ele>56.998</ele>
        <time>2019-04-30T07:27:54Z</time>
      </trkpt>
      <trkpt lat="43.66874" lon="4.59821">
        <ele>58.295</ele>
        <time>2019-04-30T07:28:04Z</time>
      </trkpt>
      <trkpt lat="43.66855" lon="4.5975">
        <ele>57.356</ele>
        <time>2019-04-30T07:28:15Z</time>
      </trkpt>
      <trkpt lat="43.66835" lon="4.59683">
        <ele>54.94</ele>
        <time>2019-04-30T07:28:25Z</time>
      </trkpt>
      <trkpt lat="43.66818" lon="4.59612">
        <ele>54.584</ele>
        <time>2019-04-30T07:28:36Z</time>
      </trkpt>
      <trkpt lat="43.66801" lon="4.5955">
        <ele>55.953</ele>
        <time>2019-04-30T07:28:46Z</time>
      </trkpt>
      <trkpt lat="43.66776" lon="4.59476">
        <ele>56.285</ele>
        <time>2019-04-30T07:28:57Z</time>
      </trkpt>
      <trkpt lat="43.66752" lon="4.59408">
        <ele>55.372</ele>
        <time>2019-04-30T07:29:07Z</time>
      </trkpt>
      <trkpt lat="43.66727" lon="4.59336">
        <ele>54.874</ele>
        <time>2019-04-30T07:29:18Z</time>
      </trkpt>
      <trkpt lat="43.66704" lon="4.59263">
        <ele>55.751</ele>
        <time>2019-04-30T07:29:29Z</time>
      </trkpt>
      <trkpt lat="43.66683" lon="4.59198">
        <ele>56.29</ele>
        <time>2019-04-30T07:29:39Z</time>
      </trkpt>
      <trkpt lat="43.66658" lon="4.59129">
        <ele>57.207</ele>
        <time>2019-04-30T07:29:50Z</time>
      </trkpt>
      <trkpt lat="43.66632" lon="4.59062">
        <ele>54.927</ele>
        <time>2019-04-30T07:30:01Z</time>
      </trkpt>
      <trkpt lat="43.66603" lon="4.59003">
        <ele>55.092</ele>
        <time>2019-04-30T07:30:12Z</time>
      </trkpt>
      <trkpt lat="43.66576" lon="4.58941">
        <ele>56.287</ele>
        <time>2019-04-30T07:30:23Z</time>
      </trkpt>
      <trkpt lat="43.66537" lon="4.58887">
        <ele>57.809</ele>
        <time>2019-04-30T07:30:34Z</time>
      </trkpt>
      <trkpt lat="43.66502" lon="4.58842">
        <ele>60.505</ele>
        <time>2019-04-30T07:30:44Z</time>
      </trkpt>
      <trkpt lat="43.66459" lon="4.58796">
        <ele>59.765</ele>
        <time>2019-04-30T07:30:55Z</time>
      </trkpt>
      <trkpt lat="43.66417" lon="4.58756">
        <ele>57.392</ele>
        <time>2019-04-30T07:31:05Z</time>
      </trkpt>
      <trkpt lat="43.66378" lon="4.58716">
        <ele>57.268</ele>
        <time>2019-04-30T07:31:15Z</time>
      </trkpt>
      <trkpt lat="43.66334" lon="4.58671">
        <ele>57.586</ele>
        <time>2019-04-30T07:31:26Z</time>
      </trkpt>
      <trkpt lat="43.6629" lon="4.58624">
        <ele>58.198</ele>
        <time>2019-04-30T07:31:36Z</time>
      </trkpt>
      <trkpt lat="43.66247" lon="4.58582">
        <ele>60.259</ele>
        <time>2019-04-30T07:31:46Z</time>
      </trkpt>
      <trkpt lat="43.66207" lon="4.58548">
        <ele>61.698</ele>
        <time>2019-04-30T07:31:56Z</time>
      </trkpt>
      <trkpt lat="43.6616" lon="4.58506">
        <ele>62.873</ele>
        <time>2019-04-30T07:32:07Z</time>
      </trkpt>
      <trkpt lat="43.66109" lon="4.58467">
        <ele>60.354</ele>
        <time>2019-04-30T07:32:18Z</time>
      </trkpt>
      <trkpt lat="43.66056" lon="4.58423">
        <ele>59.239</ele>
        <time>2019-04-30T07:32:29Z</time>
      </trkpt>
      <trkpt lat="43.66004" lon="4.58373">
        <ele>57.331</ele>
        <time>2019-04-30T07:32:39Z</time>
      </trkpt>
      <trkpt lat="43.65954" lon="4.58332">
        <ele>56.462</ele>
        <time>2019-04-30T07:32:49Z</time>
      </trkpt>
      <trkpt lat="43.65898" lon="4.58341">
        <ele>56.53</ele>
        <time>2019-04-30T07:33:00Z</time>
      </trkpt>
      <trkpt lat="43.65839" lon="4.5833">
        <ele>56.434</ele>
        <time>2019-04-30T07:33:11Z</time>
      </trkpt>
      <trkpt lat="43.65786" lon="4.58322">
        <ele>57.033</ele>
        <time>2019-04-30T07:33:21Z</time>
      </trkpt>
      <trkpt lat="43.6573" lon="4.58302">
        <ele>58.268</ele>
        <time>2019-04-30T07:33:31Z</time>
      </trkpt>
      <trkpt lat="43.65673" lon="4.58251">
        <ele>58.993</ele>
        <time>2019-04-30T07:33:42Z</time>
      </trkpt>
      <trkpt lat="43.65616" lon="4.58203">
        <ele>59.113</ele>
        <time>2019-04-30T07:33:53Z</time>
      </trkpt>
      <trkpt lat="43.65552" lon="4.5817">
        <ele>58.984</ele>
        <time>2019-04-30T07:34:04Z</time>
      </trkpt>
      <trkpt lat="43.65498" lon="4.58165">
        <ele>57.55</ele>
        <time>2019-04-30T07:34:14Z</time>
      </trkpt>
      <trkpt lat="43.65439" lon="4.58158">
        <ele>57.055</ele>
        <time>2019-04-30T07:34:25Z</time>
      </trkpt>
      <trkpt lat="43.65379" lon="4.58164">
        <ele>57.323</ele>
        <time>2019-04-30T07:34:36Z</time>
      </trkpt>
      <trkpt lat="43.65324" lon="4.58171">
        <ele>58.933</ele>
        <time>2019-04-30T07:34:46Z</time>
      </trkpt>
      <trkpt lat="43.65261" lon="4.58186">
        <ele>60.291</ele>
        <time>2019-04-30T07:34:57Z</time>
      </trkpt>
      <trkpt lat="43.65203" lon="4.58213">
        <ele>59.923</ele>
        <time>2019-04-30T07:35:08Z</time>
      </trkpt>
      <trkpt lat="43.65148" lon="4.58236">
        <ele>60.238</ele>
        <time>2019-04-30T07:35:18Z</time>
      </trkpt>
      <trkpt lat="43.65083" lon="4.58249">
        <ele>60.002</ele>
        <time>2019-04-30T07:35:29Z</time>
      </trkpt>
      <trkpt lat="43.65035" lon="4.58256">
        <ele>59.097</ele>
        <time>2019-04-30T07:35:39Z</time>
      </trkpt>
      <trkpt lat="43.64976" lon="4.58271">
        <ele>58.226</ele>
        <time>2019-04-30T07:35:50Z</time>
      </trkpt>
      <trkpt lat="43.64914" lon="4.58294">
        <ele>57.686</ele>
        <time>2019-04-30T07:36:01Z</time>
      </trkpt>
      <trkpt lat="43.64855" lon="4.58323">
        <ele>57.241</ele>
        <time>2019-04-30T07:36:11Z</time>
      </trkpt>
      <trkpt lat="43.64792" lon="4.58349">
        <ele>61.474</ele>
        <time>2019-04-30T07:36:21Z</time>
      </trkpt>
      <trkpt lat="43.64734" lon="4.58366">
        <ele>60.741</ele>
        <time>2019-04-30T07:36:32Z</time>
      </trkpt>
      <trkpt lat="43.64731" lon="4.583">
        <ele>59.904</ele>
        <time>2019-04-30T07:36:42Z</time>
      </trkpt>
      <trkpt lat="43.64733" lon="4.58226">
        <ele>59.181</ele>
        <time>2019-04-30T07:36:53Z</time>
      </trkpt>
      <trkpt lat="43.64728" lon="4.58166">
        <ele>58.225</ele>
        <time>2019-04-30T07:37:03Z</time>
      </trkpt>
      <trkpt lat="43.64726" lon="4.58095">
        <ele>56.959</ele>
        <time>2019-04-30T07:37:14Z</time>
      </trkpt>
      <trkpt lat="43.64723" lon="4.58031">
        <ele>56.467</ele>
        <time>2019-04-30T07:37:24Z</time>
      </trkpt>
      <trkpt lat="43.6472" lon="4.57959">
        <ele>55.767</ele>
        <time>2019-04-30T07:37:35Z</time>
      </trkpt>
      <trkpt lat="43.64731" lon="4.57897">
        <ele>56.039</ele>
        <time>2019-04-30T07:37:46Z</time>
      </trkpt>
      <trkpt lat="43.64724" lon="4.57836">
        <ele>57.401</ele>
        <time>2019-04-30T07:37:56Z</time>
      </trkpt>
      <trkpt lat="43.64724" lon="4.57778">
        <ele>57.93</ele>
        <time>2019-04-30T07:38:07Z</time>
      </trkpt>
      <trkpt lat="43.64708" lon="4.57724">
        <ele>58.76</ele>
        <time>2019-04-30T07:38:18Z</time>
      </trkpt>
      <trkpt lat="43.64664" lon="4.57714">
        <ele>58.554</ele>
        <time>2019-04-30T07:38:28Z</time>
      </trkpt>
      <trkpt lat="43.64618" lon="4.57669">
        <ele>59.299</ele>
        <time>2019-04-30T07:38:39Z</time>
      </trkpt>
      <trkpt lat="43.64571" lon="4.57634">
        <ele>60.065</ele>
        <time>2019-04-30T07:38:50Z</time>
      </trkpt>
      <trkpt lat="43.64526" lon="4.57602">
        <ele>60.787</ele>
        <time>2019-04-30T07:39:00Z</time>
      </trkpt>
      <trkpt lat="43.64485" lon="4.57571">
        <ele>60.783</ele>
        <time>2019-04-30T07:39:10Z</time>
      </trkpt>
      <trkpt lat="43.64432" lon="4.57544">
        <ele>60.183</ele>
        <time>2019-04-30T07:39:21Z</time>
      </trkpt>
      <trkpt lat="43.64372" lon="4.57513">
        <ele>59.329</ele>
        <time>2019-04-30T07:39:32Z</time>
      </trkpt>
      <trkpt lat="43.64316" lon="4.57485">
        <ele>58.766</ele>
        <time>2019-04-30T07:39:42Z</time>
      </trkpt>
      <trkpt lat="43.64253" lon="4.57464">
        <ele>59.782</ele>
        <time>2019-04-30T07:39:53Z</time>
      </trkpt>
      <trkpt lat="43.64189" lon="4.5747">
        <ele>57.951</ele>
        <time>2019-04-30T07:40:04Z</time>
      </trkpt>
      <trkpt lat="43.64126" lon="4.57443">
        <ele>56.545</ele>
        <time>2019-04-30T07:40:15Z</time>
      </trkpt>
      <trkpt lat="43.64069" lon="4.57412">
        <ele>56.067</ele>
        <time>2019-04-30T07:40:26Z</time>
      </trkpt>
      <trkpt lat="43.64018" lon="4.57395">
        <ele>56.058</ele>
        <time>2019-04-30T07:40:36Z</time>
      </trkpt>
      <trkpt lat="43.63964" lon="4.57373">
        <ele>55.268</ele>
        <time>2019-04-30T07:40:47Z</time>
      </trkpt>
      <trkpt lat="43.63914" lon="4.57349">
        <ele>55.174</ele>
        <time>2019-04-30T07:40:58Z</time>
      </trkpt>
      <trkpt lat="43.63867" lon="4.57327">
        <ele>54.328</ele>
        <time>2019-04-30T07:41:08Z</time>
      </trkpt>
      <trkpt lat="43.63823" lon="4.57311">
        <ele>53.495</ele>
        <time>2019-04-30T07:41:18Z</time>
      </trkpt>
      <trkpt lat="43.63821" lon="4.5731">
        <ele>53.469</ele>
        <time>2019-04-30T07:41:29Z</time>
      </trkpt>
      <trkpt lat="43.63821" lon="4.5731">
        <ele>53.464</ele>
        <time>2019-04-30T07:41:39Z</time>
      </trkpt>
      <trkpt lat="43.63821" lon="4.5731">
        <ele>53.458</ele>
        <time>2019-04-30T07:41:50Z</time>
      </trkpt>
      <trkpt lat="43.63821" lon="4.5731">
        <ele>53.46</ele>
        <time>2019-04-30T07:42:01Z</time>
      </trkpt>
      <trkpt lat="43.63821" lon="4.5731">
        <ele>53.465</ele>
        <time>2019-04-30T07:42:11Z</time>
      </trkpt>
      <trkpt lat="43.63821" lon="4.5731">
        <ele>53.475</ele>
        <time>2019-04-30T07:42:22Z</time>
      </trkpt>
      <trkpt lat="43.63821" lon="4.5731">
        <ele>53.489</ele>
        <time>2019-04-30T07:42:33Z</time>
      </trkpt>
      <trkpt lat="43.63821" lon="4.5731">
        <ele>53.498</ele>
        <time>2019-04-30T07:42:44Z</time>
      </trkpt>
      <trkpt lat="43.63821" lon="4.5731">
        <ele>53.504</ele>
        <time>2019-04-30T07:42:55Z</time>
      </trkpt>
      <trkpt lat="43.63821" lon="4.5731">
        <ele>53.514</ele>
        <time>2019-04-30T07:43:05Z</time>
      </trkpt>
      <trkpt lat="43.63821" lon="4.5731">
        <ele>53.53</ele>
        <time>2019-04-30T07:43:16Z</time>
      </trkpt>
      <trkpt lat="43.63821" lon="4.5731">
        <ele>53.549</ele>
        <time>2019-04-30T07:43:27Z</time>
      </trkpt>
      <trkpt lat="43.63821" lon="4.5731">
        <ele>53.571</ele>
        <time>2019-04-30T07:43:38Z</time>
      </trkpt>
      <trkpt lat="43.63811" lon="4.57307">
        <ele>53.696</ele>
        <time>2019-04-30T07:43:48Z</time>
      </trkpt>
      <trkpt lat="43.63773" lon="4.57292">
        <ele>54.085</ele>
        <time>2019-04-30T07:43:59Z</time>
      </trkpt>
      <trkpt lat="43.63729" lon="4.57273">
        <ele>54.125</ele>
        <time>2019-04-30T07:44:09Z</time>
      </trkpt>
      <trkpt lat="43.63684" lon="4.57266">
        <ele>54.242</ele>
        <time>2019-04-30T07:44:20Z</time>
      </trkpt>
      <trkpt lat="43.63634" lon="4.57251">
        <ele>52.469</ele>
        <time>2019-04-30T07:44:30Z</time>
      </trkpt>
      <trkpt lat="43.63589" lon="4.57242">
        <ele>52.035</ele>
        <time>2019-04-30T07:44:40Z</time>
      </trkpt>
      <trkpt lat="43.63532" lon="4.5723">
        <ele>53.605</ele>
        <time>2019-04-30T07:44:51Z</time>
      </trkpt>
      <trkpt lat="43.63477" lon="4.57222">
        <ele>54.504</ele>
        <time>2019-04-30T07:45:02Z</time>
      </trkpt>
      <trkpt lat="43.63425" lon="4.57223">
        <ele>54.044</ele>
        <time>2019-04-30T07:45:13Z</time>
      </trkpt>
      <trkpt lat="43.63367" lon="4.57223">
        <ele>53.219</ele>
        <time>2019-04-30T07:45:24Z</time>
      </trkpt>
      <trkpt lat="43.63312" lon="4.57226">
        <ele>52.549</ele>
        <time>2019-04-30T07:45:34Z</time>
      </trkpt>
      <trkpt lat="43.63255" lon="4.57229">
        <ele>52.546</ele>
        <time>2019-04-30T07:45:44Z</time>
      </trkpt>
      <trkpt lat="43.63194" lon="4.57229">
        <ele>52.547</ele>
        <time>2019-04-30T07:45:55Z</time>
      </trkpt>
      <trkpt lat="43.63127" lon="4.57231">
        <ele>52.128</ele>
        <time>2019-04-30T07:46:06Z</time>
      </trkpt>
      <trkpt lat="43.63066" lon="4.57233">
        <ele>52.315</ele>
        <time>2019-04-30T07:46:16Z</time>
      </trkpt>
      <trkpt lat="43.62997" lon="4.57233">
        <ele>52.329</ele>
        <time>2019-04-30T07:46:27Z</time>
      </trkpt>
      <trkpt lat="43.62932" lon="4.57234">
        <ele>52.677</ele>
        <time>2019-04-30T07:46:37Z</time>
      </trkpt>
      <trkpt lat="43.62853" lon="4.57237">
        <ele>53.607</ele>
        <time>2019-04-30T07:46:48Z</time>
      </trkpt>
      <trkpt lat="43.6278" lon="4.57236">
        <ele>52.486</ele>
        <time>2019-04-30T07:46:59Z</time>
      </trkpt>
      <trkpt lat="43.62715" lon="4.5724">
        <ele>53.346</ele>
        <time>2019-04-30T07:47:09Z</time>
      </trkpt>
      <trkpt lat="43.62641" lon="4.57241">
        <ele>53.772</ele>
        <time>2019-04-30T07:47:20Z</time>
      </trkpt>
      <trkpt lat="43.62566" lon="4.57241">
        <ele>53.173</ele>
        <time>2019-04-30T07:47:31Z</time>
      </trkpt>
      <trkpt lat="43.62498" lon="4.57242">
        <ele>53.025</ele>
        <time>2019-04-30T07:47:41Z</time>
      </trkpt>
      <trkpt lat="43.62431" lon="4.57243">
        <ele>52.946</ele>
        <time>2019-04-30T07:47:51Z</time>
      </trkpt>
      <trkpt lat="43.62356" lon="4.57244">
        <ele>52.954</ele>
        <time>2019-04-30T07:48:02Z</time>
      </trkpt>
      <trkpt lat="43.62279" lon="4.57243">
        <ele>52.99</ele>
        <time>2019-04-30T07:48:13Z</time>
      </trkpt>
      <trkpt lat="43.62202" lon="4.57236">
        <ele>53.049</ele>
        <time>2019-04-30T07:48:24Z</time>
      </trkpt>
      <trkpt lat="43.62133" lon="4.57223">
        <ele>53.075</ele>
        <time>2019-04-30T07:48:34Z</time>
      </trkpt>
      <trkpt lat="43.62069" lon="4.57186">
        <ele>52.998</ele>
        <time>2019-04-30T07:48:44Z</time>
      </trkpt>
      <trkpt lat="43.62002" lon="4.57136">
        <ele>52.993</ele>
        <time>2019-04-30T07:48:55Z</time>
      </trkpt>
      <trkpt lat="43.61932" lon="4.57088">
        <ele>52.872</ele>
        <time>2019-04-30T07:49:06Z</time>
      </trkpt>
      <trkpt lat="43.61863" lon="4.57056">
        <ele>52.776</ele>
        <time>2019-04-30T07:49:17Z</time>
      </trkpt>
      <trkpt lat="43.61797" lon="4.57044">
        <ele>52.8</ele>
        <time>2019-04-30T07:49:27Z</time>
      </trkpt>
      <trkpt lat="43.6173" lon="4.57026">
        <ele>53.548</ele>
        <time>2019-04-30T07:49:38Z</time>
      </trkpt>
      <trkpt lat="43.61669" lon="4.57032">
        <ele>53.577</ele>
        <time>2019-04-30T07:49:49Z</time>
      </trkpt>
      <trkpt lat="43.61605" lon="4.57043">
        <ele>53.27</ele>
        <time>2019-04-30T07:50:00Z</time>
      </trkpt>
      <trkpt lat="43.61549" lon="4.5704">
        <ele>53.192</ele>
        <time>2019-04-30T07:50:11Z</time>
      </trkpt>
      <trkpt lat="43.61529" lon="4.56957">
        <ele>53.019</ele>
        <time>2019-04-30T07:50:21Z</time>
      </trkpt>
      <trkpt lat="43.61533" lon="4.56871">
        <ele>52.133</ele>
        <time>2019-04-30T07:50:32Z</time>
      </trkpt>
      <trkpt lat="43.6152" lon="4.56798">
        <ele>51.992</ele>
        <time>2019-04-30T07:50:42Z</time>
      </trkpt>
      <trkpt lat="43.61485" lon="4.56731">
        <ele>51.971</ele>
        <time>2019-04-30T07:50:53Z</time>
      </trkpt>
      <trkpt lat="43.61448" lon="4.56678">
        <ele>52.133</ele>
        <time>2019-04-30T07:51:03Z</time>
      </trkpt>
      <trkpt lat="43.61409" lon="4.56623">
        <ele>52.439</ele>
        <time>2019-04-30T07:51:13Z</time>
      </trkpt>
      <trkpt lat="43.61365" lon="4.5656">
        <ele>53.15</ele>
        <time>2019-04-30T07:51:24Z</time>
      </trkpt>
      <trkpt lat="43.61327" lon="4.56504">
        <ele>51.807</ele>
        <time>2019-04-30T07:51:34Z</time>
      </trkpt>
      <trkpt lat="43.61284" lon="4.56438">
        <ele>51.704</ele>
        <time>2019-04-30T07:51:45Z</time>
      </trkpt>
      <trkpt lat="43.61242" lon="4.56378">
        <ele>51.831</ele>
        <time>2019-04-30T07:51:55Z</time>
      </trkpt>
      <trkpt lat="43.61189" lon="4.56318">
        <ele>52.268</ele>
        <time>2019-04-30T07:52:06Z</time>
      </trkpt>
      <trkpt lat="43.61131" lon="4.56268">
        <ele>52.47</ele>
        <time>2019-04-30T07:52:17Z</time>
      </trkpt>
      <trkpt lat="43.6108" lon="4.56216">
        <ele>52.435</ele>
        <time>2019-04-30T07:52:27Z</time>
      </trkpt>
      <trkpt lat="43.61022" lon="4.56162">
        <ele>51.922</ele>
        <time>2019-04-30T07:52:38Z</time>
      </trkpt>
      <trkpt lat="43.6097" lon="4.56112">
        <ele>51.716</ele>
        <time>2019-04-30T07:52:48Z</time>
      </trkpt>
      <trkpt lat="43.6092" lon="4.56059">
        <ele>51.574</ele>
        <time>2019-04-30T07:52:59Z</time>
      </trkpt>
      <trkpt lat="43.60919" lon="4.56058">
        <ele>51.576</ele>
        <time>2019-04-30T07:53:10Z</time>
      </trkpt>
      <trkpt lat="43.60919" lon="4.56058">
        <ele>51.601</ele>
        <time>2019-04-30T07:53:20Z</time>
      </trkpt>
      <trkpt lat="43.60919" lon="4.56058">
        <ele>51.569</ele>
        <time>2019-04-30T07:53:31Z</time>
      </trkpt>
      <trkpt lat="43.60919" lon="4.56058">
        <ele>51.563</ele>
        <time>2019-04-30T07:53:41Z</time>
      </trkpt>
      <trkpt lat="43.60904" lon="4.56043">
        <ele>51.579</ele>
        <time>2019-04-30T07:53:52Z</time>
      </trkpt>
      <trkpt lat="43.60864" lon="4.56002">
        <ele>51.716</ele>
        <time>2019-04-30T07:54:03Z</time>
      </trkpt>
      <trkpt lat="43.60808" lon="4.55958">
        <ele>51.656</ele>
        <time>2019-04-30T07:54:14Z</time>
      </trkpt>
      <trkpt lat="43.60757" lon="4.55912">
        <ele>51.845</ele>
        <time>2019-04-30T07:54:24Z</time>
      </trkpt>
      <trkpt lat="43.60703" lon="4.5586">
        <ele>52.068</ele>
        <time>2019-04-30T07:54:35Z</time>
      </trkpt>
      <trkpt lat="43.60648" lon="4.55805">
        <ele>52.427</ele>
        <time>2019-04-30T07:54:46Z</time>
      </trkpt>
      <trkpt lat="43.606" lon="4.55748">
        <ele>52.693</ele>
        <time>2019-04-30T07:54:56Z</time>
      </trkpt>
      <trkpt lat="43.60546" lon="4.55687">
        <ele>52.747</ele>
        <time>2019-04-30T07:55:07Z</time>
      </trkpt>
      <trkpt lat="43.60495" lon="4.55629">
        <ele>52.633</ele>
        <time>2019-04-30T07:55:17Z</time>
      </trkpt>
      <trkpt lat="43.60446" lon="4.5557">
        <ele>52.516</ele>
        <time>2019-04-30T07:55:27Z</time>
      </trkpt>
      <trkpt lat="43.60392" lon="4.55506">
        <ele>52.431</ele>
        <time>2019-04-30T07:55:38Z</time>
      </trkpt>
      <trkpt lat="43.60344" lon="4.55449">
        <ele>52.395</ele>
        <time>2019-04-30T07:55:48Z</time>
      </trkpt>
      <trkpt lat="43.60292" lon="4.55389">
        <ele>52.408</ele>
        <time>2019-04-30T07:55:59Z</time>
      </trkpt>
      <trkpt lat="43.6024" lon="4.55327">
        <ele>52.358</ele>
        <time>2019-04-30T07:56:10Z</time>
      </trkpt>
      <trkpt lat="43.60187" lon="4.55265">
        <ele>52.316</ele>
        <time>2019-04-30T07:56:21Z</time>
      </trkpt>
      <trkpt lat="43.60137" lon="4.55208">
        <ele>52.217</ele>
        <time>2019-04-30T07:56:31Z</time>
      </trkpt>
      <trkpt lat="43.60085" lon="4.55145">
        <ele>52.163</ele>
        <time>2019-04-30T07:56:42Z</time>
      </trkpt>
      <trkpt lat="43.60039" lon="4.55092">
        <ele>52.016</ele>
        <time>2019-04-30T07:56:52Z</time>
      </trkpt>
      <trkpt lat="43.59988" lon="4.55031">
        <ele>51.884</ele>
        <time>2019-04-30T07:57:03Z</time>
      </trkpt>
      <trkpt lat="43.59938" lon="4.54973">
        <ele>51.84</ele>
        <time>2019-04-30T07:57:14Z</time>
      </trkpt>
      <trkpt lat="43.59892" lon="4.54919">
        <ele>51.887</ele>
        <time>2019-04-30T07:57:24Z</time>
      </trkpt>
      <trkpt lat="43.59841" lon="4.54861">
        <ele>51.948</ele>
        <time>2019-04-30T07:57:35Z</time>
      </trkpt>
      <trkpt lat="43.59792" lon="4.54801">
        <ele>52.064</ele>
        <time>2019-04-30T07:57:46Z</time>
      </trkpt>
      <trkpt lat="43.59768" lon="4.54771">
        <ele>52.053</ele>
        <time>2019-04-30T07:57:56Z</time>
      </trkpt>
      <trkpt lat="43.59768" lon="4.54771">
        <ele>52.043</ele>
        <time>2019-04-30T07:58:07Z</time>
      </trkpt>
      <trkpt lat="43.59768" lon="4.54771">
        <ele>52.031</ele>
        <time>2019-04-30T07:58:18Z</time>
      </trkpt>
      <trkpt lat="43.59768" lon="4.54771">
        <ele>51.989</ele>
        <time>2019-04-30T07:58:28Z</time>
      </trkpt>
      <trkpt lat="43.59768" lon="4.54771">
        <ele>51.949</ele>
        <time>2019-04-30T07:58:39Z</time>
      </trkpt>
      <trkpt lat="43.59768" lon="4.54771">
        <ele>51.917</ele>
        <time>2019-04-30T07:58:50Z</time>
      </trkpt>
      <trkpt lat="43.59759" lon="4.54765">
        <ele>50.815</ele>
        <time>2019-04-30T07:59:02Z</time>
      </trkpt>
      <trkpt lat="43.59747" lon="4.54745">
        <ele>51.545</ele>
        <time>2019-04-30T07:59:12Z</time>
      </trkpt>
      <trkpt lat="43.59717" lon="4.54706">
        <ele>54.751</ele>
        <time>2019-04-30T07:59:23Z</time>
      </trkpt>
      <trkpt lat="43.59672" lon="4.54651">
        <ele>55.474</ele>
        <time>2019-04-30T07:59:34Z</time>
      </trkpt>
      <trkpt lat="43.59625" lon="4.54611">
        <ele>55.319</ele>
        <time>2019-04-30T07:59:44Z</time>
      </trkpt>
      <trkpt lat="43.59569" lon="4.5457">
        <ele>54.488</ele>
        <time>2019-04-30T07:59:55Z</time>
      </trkpt>
      <trkpt lat="43.59515" lon="4.54531">
        <ele>54.212</ele>
        <time>2019-04-30T08:00:05Z</time>
      </trkpt>
      <trkpt lat="43.59461" lon="4.54492">
        <ele>53.271</ele>
        <time>2019-04-30T08:00:15Z</time>
      </trkpt>
      <trkpt lat="43.59402" lon="4.54452">
        <ele>52.687</ele>
        <time>2019-04-30T08:00:26Z</time>
      </trkpt>
      <trkpt lat="43.59362" lon="4.54424">
        <ele>52.321</ele>
        <time>2019-04-30T08:00:36Z</time>
      </trkpt>
      <trkpt lat="43.59332" lon="4.544">
        <ele>52.221</ele>
        <time>2019-04-30T08:00:47Z</time>
      </trkpt>
      <trkpt lat="43.593" lon="4.54377">
        <ele>52.072</ele>
        <time>2019-04-30T08:00:57Z</time>
      </trkpt>
      <trkpt lat="43.59256" lon="4.54344">
        <ele>52.054</ele>
        <time>2019-04-30T08:01:08Z</time>
      </trkpt>
      <trkpt lat="43.59205" lon="4.54308">
        <ele>52.349</ele>
        <time>2019-04-30T08:01:19Z</time>
      </trkpt>
      <trkpt lat="43.59157" lon="4.54268">
        <ele>52.046</ele>
        <time>2019-04-30T08:01:29Z</time>
      </trkpt>
      <trkpt lat="43.59116" lon="4.54214">
        <ele>51.828</ele>
        <time>2019-04-30T08:01:39Z</time>
      </trkpt>
      <trkpt lat="43.5907" lon="4.54157">
        <ele>51.673</ele>
        <time>2019-04-30T08:01:50Z</time>
      </trkpt>
      <trkpt lat="43.59025" lon="4.541">
        <ele>52.239</ele>
        <time>2019-04-30T08:02:01Z</time>
      </trkpt>
      <trkpt lat="43.58962" lon="4.54078">
        <ele>51.943</ele>
        <time>2019-04-30T08:02:12Z</time>
      </trkpt>
      <trkpt lat="43.58906" lon="4.54087">
        <ele>50.94</ele>
        <time>2019-04-30T08:02:22Z</time>
      </trkpt>
      <trkpt lat="43.58847" lon="4.54095">
        <ele>50.691</ele>
        <time>2019-04-30T08:02:32Z</time>
      </trkpt>
      <trkpt lat="43.58786" lon="4.54109">
        <ele>51.679</ele>
        <time>2019-04-30T08:02:42Z</time>
      </trkpt>
      <trkpt lat="43.5872" lon="4.54123">
        <ele>53.049</ele>
        <time>2019-04-30T08:02:53Z</time>
      </trkpt>
      <trkpt lat="43.58656" lon="4.54144">
        <ele>53.601</ele>
        <time>2019-04-30T08:03:04Z</time>
      </trkpt>
      <trkpt lat="43.58598" lon="4.54163">
        <ele>53.946</ele>
        <time>2019-04-30T08:03:14Z</time>
      </trkpt>
      <trkpt lat="43.5853" lon="4.54184">
        <ele>54.413</ele>
        <time>2019-04-30T08:03:25Z</time>
      </trkpt>
      <trkpt lat="43.58466" lon="4.54204">
        <ele>53.943</ele>
        <time>2019-04-30T08:03:35Z</time>
      </trkpt>
      <trkpt lat="43.58392" lon="4.5422">
        <ele>53.852</ele>
        <time>2019-04-30T08:03:46Z</time>
      </trkpt>
      <trkpt lat="43.58315" lon="4.54229">
        <ele>53.655</ele>
        <time>2019-04-30T08:03:57Z</time>
      </trkpt>
      <trkpt lat="43.58239" lon="4.54237">
        <ele>53.86</ele>
        <time>2019-04-30T08:04:08Z</time>
      </trkpt>
      <trkpt lat="43.58183" lon="4.5424">
        <ele>52.333</ele>
        <time>2019-04-30T08:04:18Z</time>
      </trkpt>
      <trkpt lat="43.58117" lon="4.54258">
        <ele>51.386</ele>
        <time>2019-04-30T08:04:29Z</time>
      </trkpt>
      <trkpt lat="43.58047" lon="4.54281">
        <ele>52.977</ele>
        <time>2019-04-30T08:04:40Z</time>
      </trkpt>
      <trkpt lat="43.5798" lon="4.54307">
        <ele>53.731</ele>
        <time>2019-04-30T08:04:51Z</time>
      </trkpt>
      <trkpt lat="43.57919" lon="4.54331">
        <ele>54.066</ele>
        <time>2019-04-30T08:05:02Z</time>
      </trkpt>
      <trkpt lat="43.57859" lon="4.54346">
        <ele>54.612</ele>
        <time>2019-04-30T08:05:13Z</time>
      </trkpt>
      <trkpt lat="43.57801" lon="4.54364">
        <ele>54.772</ele>
        <time>2019-04-30T08:05:23Z</time>
      </trkpt>
      <trkpt lat="43.57739" lon="4.54382">
        <ele>54.302</ele>
        <time>2019-04-30T08:05:33Z</time>
      </trkpt>
      <trkpt lat="43.57668" lon="4.54402">
        <ele>53.798</ele>
        <time>2019-04-30T08:05:44Z</time>
      </trkpt>
      <trkpt lat="43.57603" lon="4.5442">
        <ele>53.458</ele>
        <time>2019-04-30T08:05:54Z</time>
      </trkpt>
      <trkpt lat="43.5753" lon="4.54442">
        <ele>54.113</ele>
        <time>2019-04-30T08:06:05Z</time>
      </trkpt>
      <trkpt lat="43.5746" lon="4.5446">
        <ele>53.127</ele>
        <time>2019-04-30T08:06:15Z</time>
      </trkpt>
      <trkpt lat="43.57382" lon="4.54485">
        <ele>52.537</ele>
        <time>2019-04-30T08:06:26Z</time>
      </trkpt>
      <trkpt lat="43.57308" lon="4.54502">
        <ele>52.142</ele>
        <time>2019-04-30T08:06:37Z</time>
      </trkpt>
      <trkpt lat="43.57239" lon="4.54525">
        <ele>52.079</ele>
        <time>2019-04-30T08:06:48Z</time>
      </trkpt>
      <trkpt lat="43.57226" lon="4.54522">
        <ele>52.024</ele>
        <time>2019-04-30T08:06:58Z</time>
      </trkpt>
      <trkpt lat="43.57222" lon="4.54492">
        <ele>51.958</ele>
        <time>2019-04-30T08:07:09Z</time>
      </trkpt>
      <trkpt lat="43.57216" lon="4.54439">
        <ele>51.77</ele>
        <time>2019-04-30T08:07:19Z</time>
      </trkpt>
      <trkpt lat="43.57208" lon="4.54372">
        <ele>52.554</ele>
        <time>2019-04-30T08:07:30Z</time>
      </trkpt>
      <trkpt lat="43.57196" lon="4.54294">
        <ele>52.958</ele>
        <time>2019-04-30T08:07:41Z</time>
      </trkpt>
      <trkpt lat="43.57185" lon="4.54216">
        <ele>53.37</ele>
        <time>2019-04-30T08:07:52Z</time>
      </trkpt>
      <trkpt lat="43.57174" lon="4.54139">
        <ele>53.337</ele>
        <time>2019-04-30T08:08:03Z</time>
      </trkpt>
      <trkpt lat="43.57165" lon="4.54067">
        <ele>53.372</ele>
        <time>2019-04-30T08:08:13Z</time>
      </trkpt>
      <trkpt lat="43.57154" lon="4.53997">
        <ele>53.562</ele>
        <time>2019-04-30T08:08:23Z</time>
      </trkpt>
      <trkpt lat="43.57144" lon="4.53924">
        <ele>53.839</ele>
        <time>2019-04-30T08:08:34Z</time>
      </trkpt>
      <trkpt lat="43.57136" lon="4.53854">
        <ele>53.202</ele>
        <time>2019-04-30T08:08:44Z</time>
      </trkpt>
      <trkpt lat="43.57126" lon="4.53789">
        <ele>52.263</ele>
        <time>2019-04-30T08:08:54Z</time>
      </trkpt>
      <trkpt lat="43.57112" lon="4.53708">
        <ele>52.03</ele>
        <time>2019-04-30T08:09:06Z</time>
      </trkpt>
      <trkpt lat="43.57095" lon="4.53645">
        <ele>52.177</ele>
        <time>2019-04-30T08:09:16Z</time>
      </trkpt>
      <trkpt lat="43.5708" lon="4.53568">
        <ele>52.797</ele>
        <time>2019-04-30T08:09:27Z</time>
      </trkpt>
      <trkpt lat="43.57068" lon="4.53498">
        <ele>53.151</ele>
        <time>2019-04-30T08:09:37Z</time>
      </trkpt>
      <trkpt lat="43.5706" lon="4.53428">
        <ele>53.289</ele>
        <time>2019-04-30T08:09:48Z</time>
      </trkpt>
      <trkpt lat="43.57053" lon="4.53361">
        <ele>53.192</ele>
        <time>2019-04-30T08:09:58Z</time>
      </trkpt>
      <trkpt lat="43.57055" lon="4.53286">
        <ele>52.879</ele>
        <time>2019-04-30T08:10:09Z</time>
      </trkpt>
      <trkpt lat="43.57069" lon="4.53217">
        <ele>53.392</ele>
        <time>2019-04-30T08:10:20Z</time>
      </trkpt>
      <trkpt lat="43.5709" lon="4.53155">
        <ele>53.923</ele>
        <time>2019-04-30T08:10:31Z</time>
      </trkpt>
      <trkpt lat="43.57114" lon="4.53107">
        <ele>54.196</ele>
        <time>2019-04-30T08:10:41Z</time>
      </trkpt>
      <trkpt lat="43.57145" lon="4.53058">
        <ele>54.491</ele>
        <time>2019-04-30T08:10:52Z</time>
      </trkpt>
      <trkpt lat="43.57179" lon="4.53008">
        <ele>54.429</ele>
        <time>2019-04-30T08:11:03Z</time>
      </trkpt>
      <trkpt lat="43.57208" lon="4.52962">
        <ele>53.983</ele>
        <time>2019-04-30T08:11:14Z</time>
      </trkpt>
      <trkpt lat="43.57234" lon="4.52921">
        <ele>54.138</ele>
        <time>2019-04-30T08:11:24Z</time>
      </trkpt>
      <trkpt lat="43.57263" lon="4.5287">
        <ele>54.632</ele>
        <time>2019-04-30T08:11:35Z</time>
      </trkpt>
      <trkpt lat="43.57292" lon="4.52821">
        <ele>55.092</ele>
        <time>2019-04-30T08:11:46Z</time>
      </trkpt>
      <trkpt lat="43.57317" lon="4.52772">
        <ele>56.367</ele>
        <time>2019-04-30T08:11:57Z</time>
      </trkpt>
      <trkpt lat="43.57339" lon="4.52726">
        <ele>57.214</ele>
        <time>2019-04-30T08:12:07Z</time>
      </trkpt>
      <trkpt lat="43.5736" lon="4.52677">
        <ele>57.992</ele>
        <time>2019-04-30T08:12:18Z</time>
      </trkpt>
      <trkpt lat="43.57386" lon="4.52625">
        <ele>54.6</ele>
        <time>2019-04-30T08:12:28Z</time>
      </trkpt>
      <trkpt lat="43.57419" lon="4.52558">
        <ele>54.459</ele>
        <time>2019-04-30T08:12:39Z</time>
      </trkpt>
      <trkpt lat="43.57451" lon="4.52493">
        <ele>51.956</ele>
        <time>2019-04-30T08:12:50Z</time>
      </trkpt>
      <trkpt lat="43.57482" lon="4.52429">
        <ele>54.115</ele>
        <time>2019-04-30T08:13:01Z</time>
      </trkpt>
      <trkpt lat="43.5751" lon="4.52369">
        <ele>54.664</ele>
        <time>2019-04-30T08:13:11Z</time>
      </trkpt>
      <trkpt lat="43.57538" lon="4.52307">
        <ele>52.727</ele>
        <time>2019-04-30T08:13:21Z</time>
      </trkpt>
      <trkpt lat="43.57571" lon="4.52241">
        <ele>58.844</ele>
        <time>2019-04-30T08:13:32Z</time>
      </trkpt>
      <trkpt lat="43.57604" lon="4.52172">
        <ele>58.729</ele>
        <time>2019-04-30T08:13:43Z</time>
      </trkpt>
      <trkpt lat="43.57637" lon="4.52103">
        <ele>58.569</ele>
        <time>2019-04-30T08:13:54Z</time>
      </trkpt>
      <trkpt lat="43.57666" lon="4.52043">
        <ele>57.773</ele>
        <time>2019-04-30T08:14:04Z</time>
      </trkpt>
      <trkpt lat="43.57697" lon="4.51977">
        <ele>57.561</ele>
        <time>2019-04-30T08:14:15Z</time>
      </trkpt>
      <trkpt lat="43.57725" lon="4.51919">
        <ele>57.249</ele>
        <time>2019-04-30T08:14:25Z</time>
      </trkpt>
      <trkpt lat="43.57757" lon="4.51853">
        <ele>56.212</ele>
        <time>2019-04-30T08:14:36Z</time>
      </trkpt>
      <trkpt lat="43.57786" lon="4.51791">
        <ele>56.229</ele>
        <time>2019-04-30T08:14:47Z</time>
      </trkpt>
      <trkpt lat="43.57815" lon="4.51731">
        <ele>56.373</ele>
        <time>2019-04-30T08:14:58Z</time>
      </trkpt>
      <trkpt lat="43.57841" lon="4.51677">
        <ele>55.969</ele>
        <time>2019-04-30T08:15:08Z</time>
      </trkpt>
      <trkpt lat="43.5787" lon="4.51614">
        <ele>55.784</ele>
        <time>2019-04-30T08:15:19Z</time>
      </trkpt>
      <trkpt lat="43.57898" lon="4.51552">
        <ele>51.445</ele>
        <time>2019-04-30T08:15:30Z</time>
      </trkpt>
      <trkpt lat="43.57928" lon="4.51491">
        <ele>52.034</ele>
        <time>2019-04-30T08:15:41Z</time>
      </trkpt>
      <trkpt lat="43.57954" lon="4.51437">
        <ele>53.587</ele>
        <time>2019-04-30T08:15:51Z</time>
      </trkpt>
      <trkpt lat="43.57983" lon="4.51378">
        <ele>55.157</ele>
        <time>2019-04-30T08:16:02Z</time>
      </trkpt>
      <trkpt lat="43.58008" lon="4.51324">
        <ele>55.267</ele>
        <time>2019-04-30T08:16:12Z</time>
      </trkpt>
      <trkpt lat="43.5803" lon="4.51273">
        <ele>55.456</ele>
        <time>2019-04-30T08:16:22Z</time>
      </trkpt>
      <trkpt lat="43.58047" lon="4.5121">
        <ele>56.526</ele>
        <time>2019-04-30T08:16:33Z</time>
      </trkpt>
      <trkpt lat="43.58055" lon="4.51144">
        <ele>53.87</ele>
        <time>2019-04-30T08:16:44Z</time>
      </trkpt>
      <trkpt lat="43.58055" lon="4.51078">
        <ele>51.667</ele>
        <time>2019-04-30T08:16:54Z</time>
      </trkpt>
      <trkpt lat="43.58054" lon="4.51009">
        <ele>51.907</ele>
        <time>2019-04-30T08:17:04Z</time>
      </trkpt>
      <trkpt lat="43.58054" lon="4.50928">
        <ele>54.406</ele>
        <time>2019-04-30T08:17:15Z</time>
      </trkpt>
      <trkpt lat="43.58055" lon="4.50855">
        <ele>54.906</ele>
        <time>2019-04-30T08:17:25Z</time>
      </trkpt>
      <trkpt lat="43.58053" lon="4.50773">
        <ele>54.563</ele>
        <time>2019-04-30T08:17:36Z</time>
      </trkpt>
      <trkpt lat="43.58052" lon="4.50699">
        <ele>55.676</ele>
        <time>2019-04-30T08:17:46Z</time>
      </trkpt>
      <trkpt lat="43.58048" lon="4.50623">
        <ele>52.808</ele>
        <time>2019-04-30T08:17:57Z</time>
      </trkpt>
      <trkpt lat="43.58049" lon="4.50542">
        <ele>53.739</ele>
        <time>2019-04-30T08:18:07Z</time>
      </trkpt>
      <trkpt lat="43.58049" lon="4.50461">
        <ele>56.035</ele>
        <time>2019-04-30T08:18:18Z</time>
      </trkpt>
      <trkpt lat="43.5804" lon="4.50386">
        <ele>56.623</ele>
        <time>2019-04-30T08:18:29Z</time>
      </trkpt>
      <trkpt lat="43.57989" lon="4.50389">
        <ele>57.828</ele>
        <time>2019-04-30T08:18:40Z</time>
      </trkpt>
      <trkpt lat="43.57987" lon="4.50387">
        <ele>57.577</ele>
        <time>2019-04-30T08:18:51Z</time>
      </trkpt>
      <trkpt lat="43.57987" lon="4.50387">
        <ele>57.545</ele>
        <time>2019-04-30T08:19:01Z</time>
      </trkpt>
      <trkpt lat="43.57987" lon="4.50387">
        <ele>57.494</ele>
        <time>2019-04-30T08:19:12Z</time>
      </trkpt>
      <trkpt lat="43.57987" lon="4.50388">
        <ele>57.432</ele>
        <time>2019-04-30T08:19:23Z</time>
      </trkpt>
      <trkpt lat="43.57986" lon="4.50387">
        <ele>56.684</ele>
        <time>2019-04-30T08:19:35Z</time>
      </trkpt>
      <trkpt lat="43.57993" lon="4.50386">
        <ele>56.516</ele>
        <time>2019-04-30T08:19:46Z</time>
      </trkpt>
      <trkpt lat="43.5799" lon="4.50385">
        <ele>56.779</ele>
        <time>2019-04-30T08:19:57Z</time>
      </trkpt>
      <trkpt lat="43.57989" lon="4.50386">
        <ele>56.831</ele>
        <time>2019-04-30T08:20:07Z</time>
      </trkpt>
      <trkpt lat="43.57989" lon="4.50387">
        <ele>56.837</ele>
        <time>2019-04-30T08:20:17Z</time>
      </trkpt>
      <trkpt lat="43.57988" lon="4.50386">
        <ele>56.853</ele>
        <time>2019-04-30T08:20:28Z</time>
      </trkpt>
      <trkpt lat="43.57986" lon="4.5039">
        <ele>56.669</ele>
        <time>2019-04-30T08:20:39Z</time>
      </trkpt>
      <trkpt lat="43.57987" lon="4.5039">
        <ele>56.623</ele>
        <time>2019-04-30T08:20:50Z</time>
      </trkpt>
      <trkpt lat="43.57986" lon="4.5039">
        <ele>56.099</ele>
        <time>2019-04-30T08:21:00Z</time>
      </trkpt>
      <trkpt lat="43.57986" lon="4.5039">
        <ele>55.974</ele>
        <time>2019-04-30T08:21:11Z</time>
      </trkpt>
      <trkpt lat="43.57985" lon="4.50391">
        <ele>55.895</ele>
        <time>2019-04-30T08:21:21Z</time>
      </trkpt>
      <trkpt lat="43.57953" lon="4.50389">
        <ele>55.984</ele>
        <time>2019-04-30T08:21:32Z</time>
      </trkpt>
      <trkpt lat="43.57909" lon="4.50395">
        <ele>56.249</ele>
        <time>2019-04-30T08:21:42Z</time>
      </trkpt>
      <trkpt lat="43.57854" lon="4.504">
        <ele>53.399</ele>
        <time>2019-04-30T08:21:52Z</time>
      </trkpt>
      <trkpt lat="43.57793" lon="4.50409">
        <ele>53.169</ele>
        <time>2019-04-30T08:22:03Z</time>
      </trkpt>
      <trkpt lat="43.5773" lon="4.50418">
        <ele>55.527</ele>
        <time>2019-04-30T08:22:14Z</time>
      </trkpt>
      <trkpt lat="43.57661" lon="4.50424">
        <ele>54.277</ele>
        <time>2019-04-30T08:22:25Z</time>
      </trkpt>
      <trkpt lat="43.57597" lon="4.50442">
        <ele>53.125</ele>
        <time>2019-04-30T08:22:35Z</time>
      </trkpt>
      <trkpt lat="43.57537" lon="4.5044">
        <ele>53.06</ele>
        <time>2019-04-30T08:22:45Z</time>
      </trkpt>
      <trkpt lat="43.57472" lon="4.50445">
        <ele>52.078</ele>
        <time>2019-04-30T08:22:56Z</time>
      </trkpt>
      <trkpt lat="43.57417" lon="4.50428">
        <ele>52.91</ele>
        <time>2019-04-30T08:23:06Z</time>
      </trkpt>
      <trkpt lat="43.57361" lon="4.5041">
        <ele>52.153</ele>
        <time>2019-04-30T08:23:16Z</time>
      </trkpt>
      <trkpt lat="43.5731" lon="4.50391">
        <ele>52.976</ele>
        <time>2019-04-30T08:23:27Z</time>
      </trkpt>
      <trkpt lat="43.57302" lon="4.5038">
        <ele>53.013</ele>
        <time>2019-04-30T08:23:37Z</time>
      </trkpt>
      <trkpt lat="43.57288" lon="4.50365">
        <ele>53.274</ele>
        <time>2019-04-30T08:23:48Z</time>
      </trkpt>
      <trkpt lat="43.57263" lon="4.50329">
        <ele>53.453</ele>
        <time>2019-04-30T08:23:59Z</time>
      </trkpt>
      <trkpt lat="43.57225" lon="4.5029">
        <ele>52.803</ele>
        <time>2019-04-30T08:24:10Z</time>
      </trkpt>
      <trkpt lat="43.57197" lon="4.5025">
        <ele>50.842</ele>
        <time>2019-04-30T08:24:20Z</time>
      </trkpt>
      <trkpt lat="43.57163" lon="4.50213">
        <ele>49.338</ele>
        <time>2019-04-30T08:24:30Z</time>
      </trkpt>
      <trkpt lat="43.57109" lon="4.50151">
        <ele>47.984</ele>
        <time>2019-04-30T08:24:41Z</time>
      </trkpt>
      <trkpt lat="43.57064" lon="4.50075">
        <ele>47.472</ele>
        <time>2019-04-30T08:24:51Z</time>
      </trkpt>
      <trkpt lat="43.5703" lon="4.50014">
        <ele>46.132</ele>
        <time>2019-04-30T08:25:02Z</time>
      </trkpt>
      <trkpt lat="43.57001" lon="4.4995">
        <ele>49.357</ele>
        <time>2019-04-30T08:25:13Z</time>
      </trkpt>
      <trkpt lat="43.56972" lon="4.49896">
        <ele>50.836</ele>
        <time>2019-04-30T08:25:23Z</time>
      </trkpt>
      <trkpt lat="43.56935" lon="4.49841">
        <ele>55.62</ele>
        <time>2019-04-30T08:25:34Z</time>
      </trkpt>
      <trkpt lat="43.56896" lon="4.49793">
        <ele>51.957</ele>
        <time>2019-04-30T08:25:44Z</time>
      </trkpt>
      <trkpt lat="43.5686" lon="4.49754">
        <ele>52.203</ele>
        <time>2019-04-30T08:25:54Z</time>
      </trkpt>
      <trkpt lat="43.56822" lon="4.49727">
        <ele>53.526</ele>
        <time>2019-04-30T08:26:05Z</time>
      </trkpt>
      <trkpt lat="43.5677" lon="4.49703">
        <ele>55.366</ele>
        <time>2019-04-30T08:26:15Z</time>
      </trkpt>
      <trkpt lat="43.56711" lon="4.49688">
        <ele>55.943</ele>
        <time>2019-04-30T08:26:26Z</time>
      </trkpt>
      <trkpt lat="43.56659" lon="4.49689">
        <ele>56.913</ele>
        <time>2019-04-30T08:26:37Z</time>
      </trkpt>
      <trkpt lat="43.566" lon="4.49696">
        <ele>55.898</ele>
        <time>2019-04-30T08:26:47Z</time>
      </trkpt>
      <trkpt lat="43.5654" lon="4.49687">
        <ele>55.099</ele>
        <time>2019-04-30T08:26:58Z</time>
      </trkpt>
      <trkpt lat="43.56481" lon="4.49664">
        <ele>54.668</ele>
        <time>2019-04-30T08:27:09Z</time>
      </trkpt>
      <trkpt lat="43.56429" lon="4.49632">
        <ele>56.221</ele>
        <time>2019-04-30T08:27:19Z</time>
      </trkpt>
      <trkpt lat="43.56372" lon="4.49592">
        <ele>57.029</ele>
        <time>2019-04-30T08:27:30Z</time>
      </trkpt>
      <trkpt lat="43.56317" lon="4.49554">
        <ele>56.346</ele>
        <time>2019-04-30T08:27:40Z</time>
      </trkpt>
      <trkpt lat="43.56259" lon="4.49515">
        <ele>55.479</ele>
        <time>2019-04-30T08:27:50Z</time>
      </trkpt>
      <trkpt lat="43.56198" lon="4.49472">
        <ele>54.495</ele>
        <time>2019-04-30T08:28:01Z</time>
      </trkpt>
      <trkpt lat="43.56138" lon="4.49433">
        <ele>54.045</ele>
        <time>2019-04-30T08:28:12Z</time>
      </trkpt>
      <trkpt lat="43.56078" lon="4.4939">
        <ele>53.281</ele>
        <time>2019-04-30T08:28:23Z</time>
      </trkpt>
      <trkpt lat="43.56036" lon="4.49356">
        <ele>52.702</ele>
        <time>2019-04-30T08:28:33Z</time>
      </trkpt>
      <trkpt lat="43.55991" lon="4.4931">
        <ele>52.404</ele>
        <time>2019-04-30T08:28:44Z</time>
      </trkpt>
      <trkpt lat="43.55947" lon="4.49265">
        <ele>52.643</ele>
        <time>2019-04-30T08:28:55Z</time>
      </trkpt>
      <trkpt lat="43.55904" lon="4.49227">
        <ele>53.506</ele>
        <time>2019-04-30T08:29:05Z</time>
      </trkpt>
      <trkpt lat="43.5586" lon="4.49183">
        <ele>54.592</ele>
        <time>2019-04-30T08:29:16Z</time>
      </trkpt>
      <trkpt lat="43.55832" lon="4.49151">
        <ele>54.468</ele>
        <time>2019-04-30T08:29:26Z</time>
      </trkpt>
      <trkpt lat="43.55823" lon="4.49143">
        <ele>54.455</ele>
        <time>2019-04-30T08:29:37Z</time>
      </trkpt>
      <trkpt lat="43.55823" lon="4.49143">
        <ele>54.449</ele>
        <time>2019-04-30T08:29:47Z</time>
      </trkpt>
      <trkpt lat="43.55823" lon="4.49143">
        <ele>54.458</ele>
        <time>2019-04-30T08:29:57Z</time>
      </trkpt>
      <trkpt lat="43.55823" lon="4.49143">
        <ele>54.473</ele>
        <time>2019-04-30T08:30:08Z</time>
      </trkpt>
      <trkpt lat="43.55823" lon="4.49143">
        <ele>54.505</ele>
        <time>2019-04-30T08:30:19Z</time>
      </trkpt>
      <trkpt lat="43.55823" lon="4.49143">
        <ele>54.567</ele>
        <time>2019-04-30T08:30:29Z</time>
      </trkpt>
      <trkpt lat="43.55823" lon="4.49143">
        <ele>54.628</ele>
        <time>2019-04-30T08:30:40Z</time>
      </trkpt>
      <trkpt lat="43.5582" lon="4.49141">
        <ele>54.715</ele>
        <time>2019-04-30T08:30:51Z</time>
      </trkpt>
      <trkpt lat="43.55806" lon="4.49125">
        <ele>54.828</ele>
        <time>2019-04-30T08:31:02Z</time>
      </trkpt>
      <trkpt lat="43.55772" lon="4.49087">
        <ele>53.988</ele>
        <time>2019-04-30T08:31:13Z</time>
      </trkpt>
      <trkpt lat="43.55732" lon="4.49052">
        <ele>52.788</ele>
        <time>2019-04-30T08:31:24Z</time>
      </trkpt>
      <trkpt lat="43.55695" lon="4.49015">
        <ele>52.951</ele>
        <time>2019-04-30T08:31:34Z</time>
      </trkpt>
      <trkpt lat="43.55647" lon="4.48976">
        <ele>52.88</ele>
        <time>2019-04-30T08:31:45Z</time>
      </trkpt>
      <trkpt lat="43.55632" lon="4.48964">
        <ele>52.866</ele>
        <time>2019-04-30T08:31:56Z</time>
      </trkpt>
      <trkpt lat="43.55653" lon="4.48985">
        <ele>52.958</ele>
        <time>2019-04-30T08:32:06Z</time>
      </trkpt>
      <trkpt lat="43.55671" lon="4.48997">
        <ele>53.012</ele>
        <time>2019-04-30T08:32:16Z</time>
      </trkpt>
      <trkpt lat="43.55659" lon="4.48989">
        <ele>52.692</ele>
        <time>2019-04-30T08:32:27Z</time>
      </trkpt>
      <trkpt lat="43.55614" lon="4.48959">
        <ele>52.787</ele>
        <time>2019-04-30T08:32:38Z</time>
      </trkpt>
      <trkpt lat="43.55578" lon="4.48907">
        <ele>53.007</ele>
        <time>2019-04-30T08:32:49Z</time>
      </trkpt>
      <trkpt lat="43.55567" lon="4.48842">
        <ele>53.475</ele>
        <time>2019-04-30T08:33:00Z</time>
      </trkpt>
      <trkpt lat="43.55555" lon="4.48782">
        <ele>53.615</ele>
        <time>2019-04-30T08:33:10Z</time>
      </trkpt>
      <trkpt lat="43.55541" lon="4.48709">
        <ele>53.618</ele>
        <time>2019-04-30T08:33:21Z</time>
      </trkpt>
      <trkpt lat="43.55526" lon="4.48636">
        <ele>52.831</ele>
        <time>2019-04-30T08:33:32Z</time>
      </trkpt>
      <trkpt lat="43.55513" lon="4.48571">
        <ele>53.346</ele>
        <time>2019-04-30T08:33:42Z</time>
      </trkpt>
      <trkpt lat="43.55489" lon="4.48523">
        <ele>54.268</ele>
        <time>2019-04-30T08:33:52Z</time>
      </trkpt>
      <trkpt lat="43.55439" lon="4.48487">
        <ele>57.816</ele>
        <time>2019-04-30T08:34:03Z</time>
      </trkpt>
      <trkpt lat="43.55389" lon="4.48449">
        <ele>57.795</ele>
        <time>2019-04-30T08:34:13Z</time>
      </trkpt>
      <trkpt lat="43.55332" lon="4.48407">
        <ele>56.334</ele>
        <time>2019-04-30T08:34:24Z</time>
      </trkpt>
      <trkpt lat="43.55279" lon="4.4837">
        <ele>53.461</ele>
        <time>2019-04-30T08:34:34Z</time>
      </trkpt>
      <trkpt lat="43.55229" lon="4.48336">
        <ele>52.374</ele>
        <time>2019-04-30T08:34:44Z</time>
      </trkpt>
      <trkpt lat="43.55175" lon="4.48296">
        <ele>53.082</ele>
        <time>2019-04-30T08:34:55Z</time>
      </trkpt>
      <trkpt lat="43.55123" lon="4.48261">
        <ele>52.227</ele>
        <time>2019-04-30T08:35:06Z</time>
      </trkpt>
      <trkpt lat="43.55072" lon="4.4825">
        <ele>53.682</ele>
        <time>2019-04-30T08:35:16Z</time>
      </trkpt>
      <trkpt lat="43.5502" lon="4.48242">
        <ele>55.534</ele>
        <time>2019-04-30T08:35:26Z</time>
      </trkpt>
      <trkpt lat="43.54958" lon="4.48232">
        <ele>55.869</ele>
        <time>2019-04-30T08:35:37Z</time>
      </trkpt>
      <trkpt lat="43.54898" lon="4.48223">
        <ele>56.162</ele>
        <time>2019-04-30T08:35:47Z</time>
      </trkpt>
      <trkpt lat="43.54834" lon="4.48212">
        <ele>56.395</ele>
        <time>2019-04-30T08:35:57Z</time>
      </trkpt>
      <trkpt lat="43.54763" lon="4.48202">
        <ele>56.587</ele>
        <time>2019-04-30T08:36:08Z</time>
      </trkpt>
      <trkpt lat="43.54691" lon="4.48191">
        <ele>56.603</ele>
        <time>2019-04-30T08:36:19Z</time>
      </trkpt>
      <trkpt lat="43.54618" lon="4.48176">
        <ele>56.596</ele>
        <time>2019-04-30T08:36:30Z</time>
      </trkpt>
      <trkpt lat="43.5455" lon="4.48204">
        <ele>56.669</ele>
        <time>2019-04-30T08:36:41Z</time>
      </trkpt>
      <trkpt lat="43.54487" lon="4.48234">
        <ele>56.895</ele>
        <time>2019-04-30T08:36:52Z</time>
      </trkpt>
      <trkpt lat="43.54425" lon="4.48261">
        <ele>57.182</ele>
        <time>2019-04-30T08:37:03Z</time>
      </trkpt>
      <trkpt lat="43.54368" lon="4.48289">
        <ele>56.988</ele>
        <time>2019-04-30T08:37:14Z</time>
      </trkpt>
      <trkpt lat="43.54317" lon="4.48312">
        <ele>56.73</ele>
        <time>2019-04-30T08:37:24Z</time>
      </trkpt>
      <trkpt lat="43.54265" lon="4.48336">
        <ele>56.591</ele>
        <time>2019-04-30T08:37:34Z</time>
      </trkpt>
      <trkpt lat="43.54203" lon="4.48337">
        <ele>56.347</ele>
        <time>2019-04-30T08:37:45Z</time>
      </trkpt>
      <trkpt lat="43.54141" lon="4.48328">
        <ele>56.061</ele>
        <time>2019-04-30T08:37:56Z</time>
      </trkpt>
      <trkpt lat="43.54087" lon="4.48321">
        <ele>55.534</ele>
        <time>2019-04-30T08:38:07Z</time>
      </trkpt>
      <trkpt lat="43.54028" lon="4.48314">
        <ele>54.586</ele>
        <time>2019-04-30T08:38:18Z</time>
      </trkpt>
      <trkpt lat="43.5397" lon="4.48307">
        <ele>53.956</ele>
        <time>2019-04-30T08:38:28Z</time>
      </trkpt>
      <trkpt lat="43.53908" lon="4.48297">
        <ele>53.59</ele>
        <time>2019-04-30T08:38:39Z</time>
      </trkpt>
      <trkpt lat="43.53853" lon="4.4827">
        <ele>53.264</ele>
        <time>2019-04-30T08:38:49Z</time>
      </trkpt>
      <trkpt lat="43.5379" lon="4.4823">
        <ele>53.021</ele>
        <time>2019-04-30T08:39:00Z</time>
      </trkpt>
      <trkpt lat="43.53726" lon="4.48187">
        <ele>52.739</ele>
        <time>2019-04-30T08:39:11Z</time>
      </trkpt>
      <trkpt lat="43.5367" lon="4.48147">
        <ele>52.326</ele>
        <time>2019-04-30T08:39:21Z</time>
      </trkpt>
      <trkpt lat="43.53611" lon="4.48107">
        <ele>52.186</ele>
        <time>2019-04-30T08:39:32Z</time>
      </trkpt>
      <trkpt lat="43.53555" lon="4.48071">
        <ele>51.995</ele>
        <time>2019-04-30T08:39:42Z</time>
      </trkpt>
      <trkpt lat="43.53494" lon="4.48021">
        <ele>52.006</ele>
        <time>2019-04-30T08:39:53Z</time>
      </trkpt>
      <trkpt lat="43.5344" lon="4.47975">
        <ele>51.942</ele>
        <time>2019-04-30T08:40:03Z</time>
      </trkpt>
      <trkpt lat="43.53382" lon="4.47925">
        <ele>51.843</ele>
        <time>2019-04-30T08:40:14Z</time>
      </trkpt>
      <trkpt lat="43.53344" lon="4.47863">
        <ele>51.862</ele>
        <time>2019-04-30T08:40:25Z</time>
      </trkpt>
      <trkpt lat="43.53308" lon="4.47807">
        <ele>52.178</ele>
        <time>2019-04-30T08:40:35Z</time>
      </trkpt>
      <trkpt lat="43.53262" lon="4.47764">
        <ele>52.534</ele>
        <time>2019-04-30T08:40:45Z</time>
      </trkpt>
      <trkpt lat="43.53211" lon="4.47712">
        <ele>52.594</ele>
        <time>2019-04-30T08:40:56Z</time>
      </trkpt>
      <trkpt lat="43.53165" lon="4.47664">
        <ele>52.678</ele>
        <time>2019-04-30T08:41:06Z</time>
      </trkpt>
      <trkpt lat="43.53112" lon="4.4761">
        <ele>52.655</ele>
        <time>2019-04-30T08:41:17Z</time>
      </trkpt>
      <trkpt lat="43.53065" lon="4.47562">
        <ele>52.474</ele>
        <time>2019-04-30T08:41:27Z</time>
      </trkpt>
      <trkpt lat="43.53023" lon="4.47519">
        <ele>52.381</ele>
        <time>2019-04-30T08:41:37Z</time>
      </trkpt>
      <trkpt lat="43.52976" lon="4.47468">
        <ele>52.49</ele>
        <time>2019-04-30T08:41:48Z</time>
      </trkpt>
      <trkpt lat="43.52926" lon="4.47417">
        <ele>52.541</ele>
        <time>2019-04-30T08:41:59Z</time>
      </trkpt>
      <trkpt lat="43.52883" lon="4.4736">
        <ele>52.628</ele>
        <time>2019-04-30T08:42:10Z</time>
      </trkpt>
      <trkpt lat="43.52844" lon="4.4731">
        <ele>52.555</ele>
        <time>2019-04-30T08:42:20Z</time>
      </trkpt>
      <trkpt lat="43.52816" lon="4.47247">
        <ele>52.309</ele>
        <time>2019-04-30T08:42:31Z</time>
      </trkpt>
      <trkpt lat="43.5279" lon="4.47178">
        <ele>52.116</ele>
        <time>2019-04-30T08:42:42Z</time>
      </trkpt>
      <trkpt lat="43.52767" lon="4.47116">
        <ele>52.055</ele>
        <time>2019-04-30T08:42:52Z</time>
      </trkpt>
      <trkpt lat="43.52735" lon="4.47069">
        <ele>52.212</ele>
        <time>2019-04-30T08:43:03Z</time>
      </trkpt>
      <trkpt lat="43.52726" lon="4.47013">
        <ele>52.562</ele>
        <time>2019-04-30T08:43:13Z</time>
      </trkpt>
      <trkpt lat="43.52716" lon="4.46951">
        <ele>52.841</ele>
        <time>2019-04-30T08:43:24Z</time>
      </trkpt>
      <trkpt lat="43.52707" lon="4.46894">
        <ele>52.951</ele>
        <time>2019-04-30T08:43:34Z</time>
      </trkpt>
      <trkpt lat="43.52695" lon="4.46832">
        <ele>53.57</ele>
        <time>2019-04-30T08:43:45Z</time>
      </trkpt>
      <trkpt lat="43.52674" lon="4.46788">
        <ele>53.895</ele>
        <time>2019-04-30T08:43:55Z</time>
      </trkpt>
      <trkpt lat="43.52643" lon="4.46743">
        <ele>53.739</ele>
        <time>2019-04-30T08:44:06Z</time>
      </trkpt>
      <trkpt lat="43.52608" lon="4.46696">
        <ele>53.51</ele>
        <time>2019-04-30T08:44:16Z</time>
      </trkpt>
      <trkpt lat="43.52565" lon="4.46644">
        <ele>53.487</ele>
        <time>2019-04-30T08:44:27Z</time>
      </trkpt>
      <trkpt lat="43.52524" lon="4.4659">
        <ele>53.387</ele>
        <time>2019-04-30T08:44:38Z</time>
      </trkpt>
      <trkpt lat="43.52481" lon="4.46537">
        <ele>53.085</ele>
        <time>2019-04-30T08:44:49Z</time>
      </trkpt>
      <trkpt lat="43.52442" lon="4.46489">
        <ele>52.475</ele>
        <time>2019-04-30T08:44:59Z</time>
      </trkpt>
      <trkpt lat="43.52401" lon="4.46431">
        <ele>51.987</ele>
        <time>2019-04-30T08:45:10Z</time>
      </trkpt>
      <trkpt lat="43.52365" lon="4.46366">
        <ele>51.894</ele>
        <time>2019-04-30T08:45:21Z</time>
      </trkpt>
      <trkpt lat="43.52331" lon="4.46308">
        <ele>52.255</ele>
        <time>2019-04-30T08:45:31Z</time>
      </trkpt>
      <trkpt lat="43.52283" lon="4.46264">
        <ele>52.665</ele>
        <time>2019-04-30T08:45:42Z</time>
      </trkpt>
      <trkpt lat="43.52232" lon="4.46229">
        <ele>52.318</ele>
        <time>2019-04-30T08:45:53Z</time>
      </trkpt>
      <trkpt lat="43.52177" lon="4.46202">
        <ele>52.037</ele>
        <time>2019-04-30T08:46:04Z</time>
      </trkpt>
      <trkpt lat="43.52123" lon="4.46178">
        <ele>51.967</ele>
        <time>2019-04-30T08:46:14Z</time>
      </trkpt>
      <trkpt lat="43.52102" lon="4.46108">
        <ele>51.944</ele>
        <time>2019-04-30T08:46:25Z</time>
      </trkpt>
      <trkpt lat="43.52108" lon="4.46043">
        <ele>53.915</ele>
        <time>2019-04-30T08:46:36Z</time>
      </trkpt>
      <trkpt lat="43.52114" lon="4.45976">
        <ele>53.912</ele>
        <time>2019-04-30T08:46:47Z</time>
      </trkpt>
      <trkpt lat="43.52117" lon="4.45913">
        <ele>52.995</ele>
        <time>2019-04-30T08:46:57Z</time>
      </trkpt>
      <trkpt lat="43.52122" lon="4.45855">
        <ele>53.198</ele>
        <time>2019-04-30T08:47:08Z</time>
      </trkpt>
      <trkpt lat="43.52133" lon="4.45796">
        <ele>54.286</ele>
        <time>2019-04-30T08:47:19Z</time>
      </trkpt>
      <trkpt lat="43.5211" lon="4.45751">
        <ele>56.597</ele>
        <time>2019-04-30T08:47:30Z</time>
      </trkpt>
      <trkpt lat="43.52062" lon="4.45723">
        <ele>53.922</ele>
        <time>2019-04-30T08:47:41Z</time>
      </trkpt>
      <trkpt lat="43.52013" lon="4.45698">
        <ele>51.958</ele>
        <time>2019-04-30T08:47:51Z</time>
      </trkpt>
      <trkpt lat="43.51962" lon="4.45668">
        <ele>51.523</ele>
        <time>2019-04-30T08:48:02Z</time>
      </trkpt>
      <trkpt lat="43.51915" lon="4.4564">
        <ele>51.317</ele>
        <time>2019-04-30T08:48:12Z</time>
      </trkpt>
      <trkpt lat="43.51866" lon="4.45619">
        <ele>51.784</ele>
        <time>2019-04-30T08:48:22Z</time>
      </trkpt>
      <trkpt lat="43.51815" lon="4.45594">
        <ele>51.52</ele>
        <time>2019-04-30T08:48:33Z</time>
      </trkpt>
      <trkpt lat="43.51761" lon="4.45592">
        <ele>51.382</ele>
        <time>2019-04-30T08:48:44Z</time>
      </trkpt>
      <trkpt lat="43.51704" lon="4.45592">
        <ele>51.259</ele>
        <time>2019-04-30T08:48:55Z</time>
      </trkpt>
      <trkpt lat="43.51653" lon="4.45588">
        <ele>51.732</ele>
        <time>2019-04-30T08:49:06Z</time>
      </trkpt>
      <trkpt lat="43.51633" lon="4.45586">
        <ele>51.838</ele>
        <time>2019-04-30T08:49:16Z</time>
      </trkpt>
      <trkpt lat="43.51633" lon="4.45586">
        <ele>51.842</ele>
        <time>2019-04-30T08:49:27Z</time>
      </trkpt>
      <trkpt lat="43.51633" lon="4.45586">
        <ele>51.843</ele>
        <time>2019-04-30T08:49:38Z</time>
      </trkpt>
      <trkpt lat="43.51633" lon="4.45586">
        <ele>51.841</ele>
        <time>2019-04-30T08:49:49Z</time>
      </trkpt>
      <trkpt lat="43.51633" lon="4.45586">
        <ele>51.835</ele>
        <time>2019-04-30T08:49:59Z</time>
      </trkpt>
      <trkpt lat="43.51633" lon="4.45586">
        <ele>51.829</ele>
        <time>2019-04-30T08:50:10Z</time>
      </trkpt>
      <trkpt lat="43.51633" lon="4.45586">
        <ele>51.821</ele>
        <time>2019-04-30T08:50:20Z</time>
      </trkpt>
      <trkpt lat="43.51633" lon="4.45586">
        <ele>51.815</ele>
        <time>2019-04-30T08:50:31Z</time>
      </trkpt>
      <trkpt lat="43.51633" lon="4.45586">
        <ele>51.811</ele>
        <time>2019-04-30T08:50:41Z</time>
      </trkpt>
      <trkpt lat="43.51629" lon="4.45587">
        <ele>51.86</ele>
        <time>2019-04-30T08:50:51Z</time>
      </trkpt>
      <trkpt lat="43.51599" lon="4.45588">
        <ele>51.96</ele>
        <time>2019-04-30T08:51:02Z</time>
      </trkpt>
      <trkpt lat="43.51559" lon="4.45594">
        <ele>51.664</ele>
        <time>2019-04-30T08:51:12Z</time>
      </trkpt>
      <trkpt lat="43.51516" lon="4.45629">
        <ele>50.559</ele>
        <time>2019-04-30T08:51:23Z</time>
      </trkpt>
      <trkpt lat="43.51472" lon="4.45641">
        <ele>49.834</ele>
        <time>2019-04-30T08:51:33Z</time>
      </trkpt>
      <trkpt lat="43.51428" lon="4.45611">
        <ele>51.128</ele>
        <time>2019-04-30T08:51:44Z</time>
      </trkpt>
      <trkpt lat="43.51389" lon="4.45588">
        <ele>51.152</ele>
        <time>2019-04-30T08:51:55Z</time>
      </trkpt>
      <trkpt lat="43.51345" lon="4.45561">
        <ele>51.848</ele>
        <time>2019-04-30T08:52:06Z</time>
      </trkpt>
      <trkpt lat="43.51302" lon="4.45529">
        <ele>52.779</ele>
        <time>2019-04-30T08:52:17Z</time>
      </trkpt>
      <trkpt lat="43.51257" lon="4.455">
        <ele>52.515</ele>
        <time>2019-04-30T08:52:28Z</time>
      </trkpt>
      <trkpt lat="43.51211" lon="4.45475">
        <ele>52.685</ele>
        <time>2019-04-30T08:52:39Z</time>
      </trkpt>
      <trkpt lat="43.51162" lon="4.45456">
        <ele>52.718</ele>
        <time>2019-04-30T08:52:50Z</time>
      </trkpt>
      <trkpt lat="43.51111" lon="4.45437">
        <ele>51.199</ele>
        <time>2019-04-30T08:53:01Z</time>
      </trkpt>
      <trkpt lat="43.51063" lon="4.45398">
        <ele>51.361</ele>
        <time>2019-04-30T08:53:12Z</time>
      </trkpt>
      <trkpt lat="43.51023" lon="4.45357">
        <ele>51.954</ele>
        <time>2019-04-30T08:53:22Z</time>
      </trkpt>
      <trkpt lat="43.50987" lon="4.45301">
        <ele>52.743</ele>
        <time>2019-04-30T08:53:33Z</time>
      </trkpt>
      <trkpt lat="43.50953" lon="4.45239">
        <ele>53.622</ele>
        <time>2019-04-30T08:53:44Z</time>
      </trkpt>
      <trkpt lat="43.50925" lon="4.45183">
        <ele>51.301</ele>
        <time>2019-04-30T08:53:54Z</time>
      </trkpt>
      <trkpt lat="43.50895" lon="4.45129">
        <ele>50.634</ele>
        <time>2019-04-30T08:54:04Z</time>
      </trkpt>
      <trkpt lat="43.50863" lon="4.45071">
        <ele>52.354</ele>
        <time>2019-04-30T08:54:15Z</time>
      </trkpt>
      <trkpt lat="43.50833" lon="4.45015">
        <ele>51.922</ele>
        <time>2019-04-30T08:54:26Z</time>
      </trkpt>
      <trkpt lat="43.50788" lon="4.44995">
        <ele>50.895</ele>
        <time>2019-04-30T08:54:36Z</time>
      </trkpt>
      <trkpt lat="43.50745" lon="4.45007">
        <ele>51.715</ele>
        <time>2019-04-30T08:54:47Z</time>
      </trkpt>
      <trkpt lat="43.50714" lon="4.45048">
        <ele>51.776</ele>
        <time>2019-04-30T08:54:57Z</time>
      </trkpt>
      <trkpt lat="43.50676" lon="4.45049">
        <ele>50.513</ele>
        <time>2019-04-30T08:55:07Z</time>
      </trkpt>
      <trkpt lat="43.50649" lon="4.45039">
        <ele>50.015</ele>
        <time>2019-04-30T08:55:18Z</time>
      </trkpt>
      <trkpt lat="43.50649" lon="4.4504">
        <ele>50.033</ele>
        <time>2019-04-30T08:55:29Z</time>
      </trkpt>
      <trkpt lat="43.50649" lon="4.45041">
        <ele>50.06</ele>
        <time>2019-04-30T08:55:40Z</time>
      </trkpt>
      <trkpt lat="43.5065" lon="4.45044">
        <ele>50.595</ele>
        <time>2019-04-30T08:55:51Z</time>
      </trkpt>
      <trkpt lat="43.50651" lon="4.45044">
        <ele>50.702</ele>
        <time>2019-04-30T08:56:01Z</time>
      </trkpt>
      <trkpt lat="43.50651" lon="4.45043">
        <ele>50.585</ele>
        <time>2019-04-30T08:56:12Z</time>
      </trkpt>
      <trkpt lat="43.50649" lon="4.45042">
        <ele>50.628</ele>
        <time>2019-04-30T08:56:23Z</time>
      </trkpt>
      <trkpt lat="43.50648" lon="4.45039">
        <ele>50.606</ele>
        <time>2019-04-30T08:56:34Z</time>
      </trkpt>
      <trkpt lat="43.50648" lon="4.4504">
        <ele>50.703</ele>
        <time>2019-04-30T08:56:45Z</time>
      </trkpt>
      <trkpt lat="43.50649" lon="4.4504">
        <ele>50.866</ele>
        <time>2019-04-30T08:56:55Z</time>
      </trkpt>
      <trkpt lat="43.50648" lon="4.45037">
        <ele>50.974</ele>
        <time>2019-04-30T08:57:06Z</time>
      </trkpt>
      <trkpt lat="43.50648" lon="4.45038">
        <ele>50.994</ele>
        <time>2019-04-30T08:57:16Z</time>
      </trkpt>
      <trkpt lat="43.50648" lon="4.45038">
        <ele>50.999</ele>
        <time>2019-04-30T08:57:27Z</time>
      </trkpt>
      <trkpt lat="43.50648" lon="4.45038">
        <ele>50.946</ele>
        <time>2019-04-30T08:57:38Z</time>
      </trkpt>
      <trkpt lat="43.50649" lon="4.45041">
        <ele>50.884</ele>
        <time>2019-04-30T08:57:48Z</time>
      </trkpt>
      <trkpt lat="43.50649" lon="4.45041">
        <ele>50.868</ele>
        <time>2019-04-30T08:57:59Z</time>
      </trkpt>
      <trkpt lat="43.50649" lon="4.45041">
        <ele>50.838</ele>
        <time>2019-04-30T08:58:10Z</time>
      </trkpt>
      <trkpt lat="43.50649" lon="4.45041">
        <ele>50.818</ele>
        <time>2019-04-30T08:58:20Z</time>
      </trkpt>
      <trkpt lat="43.50649" lon="4.45041">
        <ele>50.814</ele>
        <time>2019-04-30T08:58:31Z</time>
      </trkpt>
      <trkpt lat="43.50648" lon="4.45041">
        <ele>50.964</ele>
        <time>2019-04-30T08:58:41Z</time>
      </trkpt>
      <trkpt lat="43.50643" lon="4.45038">
        <ele>51.081</ele>
        <time>2019-04-30T08:58:52Z</time>
      </trkpt>
      <trkpt lat="43.50624" lon="4.45026">
        <ele>51.102</ele>
        <time>2019-04-30T08:59:03Z</time>
      </trkpt>
      <trkpt lat="43.50602" lon="4.4502">
        <ele>51.093</ele>
        <time>2019-04-30T08:59:13Z</time>
      </trkpt>
      <trkpt lat="43.50565" lon="4.45004">
        <ele>50.625</ele>
        <time>2019-04-30T08:59:24Z</time>
      </trkpt>
      <trkpt lat="43.50532" lon="4.44991">
        <ele>50.703</ele>
        <time>2019-04-30T08:59:35Z</time>
      </trkpt>
      <trkpt lat="43.50501" lon="4.44978">
        <ele>50.748</ele>
        <time>2019-04-30T08:59:46Z</time>
      </trkpt>
      <trkpt lat="43.50466" lon="4.44967">
        <ele>50.799</ele>
        <time>2019-04-30T08:59:57Z</time>
      </trkpt>
      <trkpt lat="43.5043" lon="4.44953">
        <ele>51.308</ele>
        <time>2019-04-30T09:00:08Z</time>
      </trkpt>
      <trkpt lat="43.50386" lon="4.44935">
        <ele>51.142</ele>
        <time>2019-04-30T09:00:19Z</time>
      </trkpt>
      <trkpt lat="43.50344" lon="4.44923">
        <ele>51.252</ele>
        <time>2019-04-30T09:00:30Z</time>
      </trkpt>
      <trkpt lat="43.50304" lon="4.44907">
        <ele>52.221</ele>
        <time>2019-04-30T09:00:40Z</time>
      </trkpt>
      <trkpt lat="43.50254" lon="4.44897">
        <ele>53.158</ele>
        <time>2019-04-30T09:00:51Z</time>
      </trkpt>
      <trkpt lat="43.50207" lon="4.4491">
        <ele>53.615</ele>
        <time>2019-04-30T09:01:01Z</time>
      </trkpt>
      <trkpt lat="43.50157" lon="4.44921">
        <ele>52.534</ele>
        <time>2019-04-30T09:01:11Z</time>
      </trkpt>
      <trkpt lat="43.50108" lon="4.44934">
        <ele>51.826</ele>
        <time>2019-04-30T09:01:21Z</time>
      </trkpt>
      <trkpt lat="43.50071" lon="4.44945">
        <ele>51.563</ele>
        <time>2019-04-30T09:01:32Z</time>
      </trkpt>
      <trkpt lat="43.50071" lon="4.44945">
        <ele>51.545</ele>
        <time>2019-04-30T09:01:43Z</time>
      </trkpt>
      <trkpt lat="43.50069" lon="4.44945">
        <ele>51.464</ele>
        <time>2019-04-30T09:01:53Z</time>
      </trkpt>
      <trkpt lat="43.50066" lon="4.44943">
        <ele>51.51</ele>
        <time>2019-04-30T09:02:03Z</time>
      </trkpt>
      <trkpt lat="43.50024" lon="4.44953">
        <ele>52.514</ele>
        <time>2019-04-30T09:02:14Z</time>
      </trkpt>
      <trkpt lat="43.49975" lon="4.44966">
        <ele>52.108</ele>
        <time>2019-04-30T09:02:24Z</time>
      </trkpt>
      <trkpt lat="43.49919" lon="4.44978">
        <ele>53.065</ele>
        <time>2019-04-30T09:02:35Z</time>
      </trkpt>
      <trkpt lat="43.49863" lon="4.44993">
        <ele>52.404</ele>
        <time>2019-04-30T09:02:46Z</time>
      </trkpt>
      <trkpt lat="43.49809" lon="4.45005">
        <ele>52.228</ele>
        <time>2019-04-30T09:02:56Z</time>
      </trkpt>
      <trkpt lat="43.49767" lon="4.45013">
        <ele>51.598</ele>
        <time>2019-04-30T09:03:07Z</time>
      </trkpt>
      <trkpt lat="43.49731" lon="4.45022">
        <ele>51.555</ele>
        <time>2019-04-30T09:03:17Z</time>
      </trkpt>
      <trkpt lat="43.49722" lon="4.4505">
        <ele>51.553</ele>
        <time>2019-04-30T09:03:28Z</time>
      </trkpt>
      <trkpt lat="43.49726" lon="4.45065">
        <ele>51.681</ele>
        <time>2019-04-30T09:03:39Z</time>
      </trkpt>
      <trkpt lat="43.49726" lon="4.45065">
        <ele>51.679</ele>
        <time>2019-04-30T09:03:49Z</time>
      </trkpt>
      <trkpt lat="43.4972" lon="4.45086">
        <ele>51.451</ele>
        <time>2019-04-30T09:04:00Z</time>
      </trkpt>
      <trkpt lat="43.49716" lon="4.45116">
        <ele>51.189</ele>
        <time>2019-04-30T09:04:10Z</time>
      </trkpt>
      <trkpt lat="43.49707" lon="4.45154">
        <ele>50.905</ele>
        <time>2019-04-30T09:04:20Z</time>
      </trkpt>
      <trkpt lat="43.49699" lon="4.45189">
        <ele>50.562</ele>
        <time>2019-04-30T09:04:31Z</time>
      </trkpt>
      <trkpt lat="43.49693" lon="4.4521">
        <ele>50.258</ele>
        <time>2019-04-30T09:04:41Z</time>
      </trkpt>
      <trkpt lat="43.49686" lon="4.45231">
        <ele>50.082</ele>
        <time>2019-04-30T09:04:52Z</time>
      </trkpt>
      <trkpt lat="43.49678" lon="4.45264">
        <ele>49.97</ele>
        <time>2019-04-30T09:05:03Z</time>
      </trkpt>
      <trkpt lat="43.49674" lon="4.45266">
        <ele>49.721</ele>
        <time>2019-04-30T09:05:14Z</time>
      </trkpt>
      <trkpt lat="43.49683" lon="4.45243">
        <ele>49.411</ele>
        <time>2019-04-30T09:05:25Z</time>
      </trkpt>
      <trkpt lat="43.49692" lon="4.45215">
        <ele>49.757</ele>
        <time>2019-04-30T09:05:35Z</time>
      </trkpt>
      <trkpt lat="43.49701" lon="4.45177">
        <ele>50.489</ele>
        <time>2019-04-30T09:05:46Z</time>
      </trkpt>
      <trkpt lat="43.49712" lon="4.4514">
        <ele>50.895</ele>
        <time>2019-04-30T09:05:57Z</time>
      </trkpt>
      <trkpt lat="43.49719" lon="4.45103">
        <ele>50.976</ele>
        <time>2019-04-30T09:06:08Z</time>
      </trkpt>
      <trkpt lat="43.49725" lon="4.45069">
        <ele>50.729</ele>
        <time>2019-04-30T09:06:18Z</time>
      </trkpt>
      <trkpt lat="43.49721" lon="4.4503">
        <ele>50.116</ele>
        <time>2019-04-30T09:06:29Z</time>
      </trkpt>
      <trkpt lat="43.49692" lon="4.45032">
        <ele>50.424</ele>
        <time>2019-04-30T09:06:40Z</time>
      </trkpt>
      <trkpt lat="43.49648" lon="4.45043">
        <ele>49.46</ele>
        <time>2019-04-30T09:06:50Z</time>
      </trkpt>
      <trkpt lat="43.49596" lon="4.45055">
        <ele>48.416</ele>
        <time>2019-04-30T09:07:01Z</time>
      </trkpt>
      <trkpt lat="43.49546" lon="4.45067">
        <ele>48.861</ele>
        <time>2019-04-30T09:07:11Z</time>
      </trkpt>
      <trkpt lat="43.49491" lon="4.45082">
        <ele>48.088</ele>
        <time>2019-04-30T09:07:22Z</time>
      </trkpt>
      <trkpt lat="43.49437" lon="4.45105">
        <ele>48.49</ele>
        <time>2019-04-30T09:07:33Z</time>
      </trkpt>
      <trkpt lat="43.49383" lon="4.45134">
        <ele>47.689</ele>
        <time>2019-04-30T09:07:44Z</time>
      </trkpt>
      <trkpt lat="43.49343" lon="4.45106">
        <ele>47.412</ele>
        <time>2019-04-30T09:07:54Z</time>
      </trkpt>
      <trkpt lat="43.49306" lon="4.45066">
        <ele>48.174</ele>
        <time>2019-04-30T09:08:04Z</time>
      </trkpt>
      <trkpt lat="43.49268" lon="4.45031">
        <ele>48.774</ele>
        <time>2019-04-30T09:08:15Z</time>
      </trkpt>
      <trkpt lat="43.49234" lon="4.44983">
        <ele>49.656</ele>
        <time>2019-04-30T09:08:26Z</time>
      </trkpt>
      <trkpt lat="43.492" lon="4.44933">
        <ele>50.121</ele>
        <time>2019-04-30T09:08:37Z</time>
      </trkpt>
      <trkpt lat="43.49162" lon="4.44898">
        <ele>49.4</ele>
        <time>2019-04-30T09:08:47Z</time>
      </trkpt>
      <trkpt lat="43.49119" lon="4.44866">
        <ele>49.22</ele>
        <time>2019-04-30T09:08:58Z</time>
      </trkpt>
      <trkpt lat="43.49069" lon="4.44833">
        <ele>49.095</ele>
        <time>2019-04-30T09:09:09Z</time>
      </trkpt>
      <trkpt lat="43.49014" lon="4.44801">
        <ele>49.026</ele>
        <time>2019-04-30T09:09:20Z</time>
      </trkpt>
      <trkpt lat="43.48963" lon="4.44773">
        <ele>50.261</ele>
        <time>2019-04-30T09:09:30Z</time>
      </trkpt>
      <trkpt lat="43.48908" lon="4.4475">
        <ele>50.027</ele>
        <time>2019-04-30T09:09:41Z</time>
      </trkpt>
      <trkpt lat="43.4886" lon="4.44724">
        <ele>49.695</ele>
        <time>2019-04-30T09:09:51Z</time>
      </trkpt>
      <trkpt lat="43.48846" lon="4.44716">
        <ele>49.993</ele>
        <time>2019-04-30T09:10:02Z</time>
      </trkpt>
      <trkpt lat="43.48845" lon="4.44715">
        <ele>49.992</ele>
        <time>2019-04-30T09:10:12Z</time>
      </trkpt>
      <trkpt lat="43.48845" lon="4.44715">
        <ele>49.976</ele>
        <time>2019-04-30T09:10:23Z</time>
      </trkpt>
      <trkpt lat="43.48845" lon="4.44715">
        <ele>49.966</ele>
        <time>2019-04-30T09:10:34Z</time>
      </trkpt>
      <trkpt lat="43.48844" lon="4.44714">
        <ele>49.965</ele>
        <time>2019-04-30T09:10:45Z</time>
      </trkpt>
      <trkpt lat="43.48844" lon="4.44714">
        <ele>49.967</ele>
        <time>2019-04-30T09:10:56Z</time>
      </trkpt>
      <trkpt lat="43.48844" lon="4.44717">
        <ele>49.868</ele>
        <time>2019-04-30T09:11:07Z</time>
      </trkpt>
      <trkpt lat="43.48844" lon="4.44717">
        <ele>49.837</ele>
        <time>2019-04-30T09:11:17Z</time>
      </trkpt>
      <trkpt lat="43.48819" lon="4.44705">
        <ele>49.36</ele>
        <time>2019-04-30T09:11:28Z</time>
      </trkpt>
      <trkpt lat="43.48772" lon="4.44678">
        <ele>49.375</ele>
        <time>2019-04-30T09:11:39Z</time>
      </trkpt>
      <trkpt lat="43.4873" lon="4.44643">
        <ele>49.219</ele>
        <time>2019-04-30T09:11:49Z</time>
      </trkpt>
      <trkpt lat="43.4868" lon="4.44611">
        <ele>49.766</ele>
        <time>2019-04-30T09:12:00Z</time>
      </trkpt>
      <trkpt lat="43.48638" lon="4.44591">
        <ele>49.676</ele>
        <time>2019-04-30T09:12:10Z</time>
      </trkpt>
      <trkpt lat="43.48589" lon="4.44565">
        <ele>49.197</ele>
        <time>2019-04-30T09:12:21Z</time>
      </trkpt>
      <trkpt lat="43.48539" lon="4.44539">
        <ele>49.088</ele>
        <time>2019-04-30T09:12:32Z</time>
      </trkpt>
      <trkpt lat="43.48511" lon="4.44539">
        <ele>49.277</ele>
        <time>2019-04-30T09:12:43Z</time>
      </trkpt>
      <trkpt lat="43.48508" lon="4.4454">
        <ele>49.289</ele>
        <time>2019-04-30T09:12:53Z</time>
      </trkpt>
      <trkpt lat="43.48508" lon="4.44539">
        <ele>49.309</ele>
        <time>2019-04-30T09:13:04Z</time>
      </trkpt>
      <trkpt lat="43.48509" lon="4.44537">
        <ele>49.493</ele>
        <time>2019-04-30T09:13:14Z</time>
      </trkpt>
      <trkpt lat="43.48504" lon="4.44544">
        <ele>49.127</ele>
        <time>2019-04-30T09:13:24Z</time>
      </trkpt>
      <trkpt lat="43.48502" lon="4.44526">
        <ele>48.857</ele>
        <time>2019-04-30T09:13:35Z</time>
      </trkpt>
      <trkpt lat="43.48502" lon="4.44526">
        <ele>48.907</ele>
        <time>2019-04-30T09:13:45Z</time>
      </trkpt>
      <trkpt lat="43.48502" lon="4.44526">
        <ele>48.935</ele>
        <time>2019-04-30T09:13:56Z</time>
      </trkpt>
      <trkpt lat="43.48502" lon="4.44527">
        <ele>48.962</ele>
        <time>2019-04-30T09:14:07Z</time>
      </trkpt>
      <trkpt lat="43.48501" lon="4.44527">
        <ele>48.985</ele>
        <time>2019-04-30T09:14:18Z</time>
      </trkpt>
      <trkpt lat="43.48499" lon="4.44523">
        <ele>49.822</ele>
        <time>2019-04-30T09:14:29Z</time>
      </trkpt>
      <trkpt lat="43.48498" lon="4.44526">
        <ele>50.269</ele>
        <time>2019-04-30T09:14:40Z</time>
      </trkpt>
      <trkpt lat="43.48498" lon="4.44526">
        <ele>50.208</ele>
        <time>2019-04-30T09:14:51Z</time>
      </trkpt>
      <trkpt lat="43.48492" lon="4.44532">
        <ele>50.364</ele>
        <time>2019-04-30T09:15:01Z</time>
      </trkpt>
      <trkpt lat="43.48452" lon="4.44542">
        <ele>48.538</ele>
        <time>2019-04-30T09:15:12Z</time>
      </trkpt>
      <trkpt lat="43.48403" lon="4.44541">
        <ele>49.068</ele>
        <time>2019-04-30T09:15:22Z</time>
      </trkpt>
      <trkpt lat="43.48357" lon="4.44524">
        <ele>51.226</ele>
        <time>2019-04-30T09:15:32Z</time>
      </trkpt>
      <trkpt lat="43.4831" lon="4.44506">
        <ele>52.465</ele>
        <time>2019-04-30T09:15:42Z</time>
      </trkpt>
      <trkpt lat="43.48258" lon="4.44461">
        <ele>50.542</ele>
        <time>2019-04-30T09:15:53Z</time>
      </trkpt>
      <trkpt lat="43.48205" lon="4.44413">
        <ele>49.402</ele>
        <time>2019-04-30T09:16:04Z</time>
      </trkpt>
      <trkpt lat="43.48154" lon="4.44369">
        <ele>49.8</ele>
        <time>2019-04-30T09:16:14Z</time>
      </trkpt>
      <trkpt lat="43.48097" lon="4.44319">
        <ele>50.326</ele>
        <time>2019-04-30T09:16:25Z</time>
      </trkpt>
      <trkpt lat="43.48046" lon="4.44273">
        <ele>50.228</ele>
        <time>2019-04-30T09:16:35Z</time>
      </trkpt>
      <trkpt lat="43.47996" lon="4.44224">
        <ele>49.619</ele>
        <time>2019-04-30T09:16:45Z</time>
      </trkpt>
      <trkpt lat="43.47942" lon="4.4417">
        <ele>49.949</ele>
        <time>2019-04-30T09:16:56Z</time>
      </trkpt>
      <trkpt lat="43.47898" lon="4.44132">
        <ele>50.844</ele>
        <time>2019-04-30T09:17:07Z</time>
      </trkpt>
      <trkpt lat="43.4789" lon="4.44135">
        <ele>51.829</ele>
        <time>2019-04-30T09:17:18Z</time>
      </trkpt>
      <trkpt lat="43.47893" lon="4.44137">
        <ele>51.839</ele>
        <time>2019-04-30T09:17:28Z</time>
      </trkpt>
      <trkpt lat="43.47891" lon="4.44129">
        <ele>51.435</ele>
        <time>2019-04-30T09:17:39Z</time>
      </trkpt>
      <trkpt lat="43.47868" lon="4.44095">
        <ele>50.875</ele>
        <time>2019-04-30T09:17:50Z</time>
      </trkpt>
      <trkpt lat="43.47833" lon="4.4406">
        <ele>50.829</ele>
        <time>2019-04-30T09:18:00Z</time>
      </trkpt>
      <trkpt lat="43.47788" lon="4.44017">
        <ele>51.579</ele>
        <time>2019-04-30T09:18:11Z</time>
      </trkpt>
      <trkpt lat="43.47748" lon="4.43973">
        <ele>51.507</ele>
        <time>2019-04-30T09:18:21Z</time>
      </trkpt>
      <trkpt lat="43.47714" lon="4.43943">
        <ele>52.232</ele>
        <time>2019-04-30T09:18:31Z</time>
      </trkpt>
      <trkpt lat="43.47706" lon="4.43934">
        <ele>51.987</ele>
        <time>2019-04-30T09:18:42Z</time>
      </trkpt>
      <trkpt lat="43.47671" lon="4.439">
        <ele>50.181</ele>
        <time>2019-04-30T09:18:52Z</time>
      </trkpt>
      <trkpt lat="43.47624" lon="4.43851">
        <ele>49.883</ele>
        <time>2019-04-30T09:19:03Z</time>
      </trkpt>
      <trkpt lat="43.4758" lon="4.43809">
        <ele>49.998</ele>
        <time>2019-04-30T09:19:13Z</time>
      </trkpt>
      <trkpt lat="43.47531" lon="4.43762">
        <ele>49.499</ele>
        <time>2019-04-30T09:19:24Z</time>
      </trkpt>
      <trkpt lat="43.47487" lon="4.43714">
        <ele>50.382</ele>
        <time>2019-04-30T09:19:34Z</time>
      </trkpt>
      <trkpt lat="43.4743" lon="4.43684">
        <ele>50.95</ele>
        <time>2019-04-30T09:19:44Z</time>
      </trkpt>
      <trkpt lat="43.47369" lon="4.43664">
        <ele>52.208</ele>
        <time>2019-04-30T09:19:54Z</time>
      </trkpt>
      <trkpt lat="43.47297" lon="4.43646">
        <ele>52.174</ele>
        <time>2019-04-30T09:20:05Z</time>
      </trkpt>
      <trkpt lat="43.47222" lon="4.43627">
        <ele>51.258</ele>
        <time>2019-04-30T09:20:16Z</time>
      </trkpt>
      <trkpt lat="43.47145" lon="4.43607">
        <ele>50.403</ele>
        <time>2019-04-30T09:20:27Z</time>
      </trkpt>
      <trkpt lat="43.47065" lon="4.43586">
        <ele>49.759</ele>
        <time>2019-04-30T09:20:38Z</time>
      </trkpt>
      <trkpt lat="43.47014" lon="4.4357">
        <ele>49.581</ele>
        <time>2019-04-30T09:20:48Z</time>
      </trkpt>
      <trkpt lat="43.47014" lon="4.4357">
        <ele>49.581</ele>
        <time>2019-04-30T09:20:59Z</time>
      </trkpt>
      <trkpt lat="43.47014" lon="4.4357">
        <ele>49.572</ele>
        <time>2019-04-30T09:21:10Z</time>
      </trkpt>
      <trkpt lat="43.47014" lon="4.4357">
        <ele>49.557</ele>
        <time>2019-04-30T09:21:21Z</time>
      </trkpt>
      <trkpt lat="43.47014" lon="4.4357">
        <ele>49.538</ele>
        <time>2019-04-30T09:21:31Z</time>
      </trkpt>
      <trkpt lat="43.47014" lon="4.4357">
        <ele>49.513</ele>
        <time>2019-04-30T09:21:42Z</time>
      </trkpt>
      <trkpt lat="43.47014" lon="4.4357">
        <ele>49.486</ele>
        <time>2019-04-30T09:21:53Z</time>
      </trkpt>
      <trkpt lat="43.47014" lon="4.4357">
        <ele>49.46</ele>
        <time>2019-04-30T09:22:03Z</time>
      </trkpt>
      <trkpt lat="43.47014" lon="4.4357">
        <ele>49.433</ele>
        <time>2019-04-30T09:22:14Z</time>
      </trkpt>
      <trkpt lat="43.47012" lon="4.43571">
        <ele>49.354</ele>
        <time>2019-04-30T09:22:24Z</time>
      </trkpt>
      <trkpt lat="43.4699" lon="4.43563">
        <ele>49.18</ele>
        <time>2019-04-30T09:22:34Z</time>
      </trkpt>
      <trkpt lat="43.46948" lon="4.43541">
        <ele>48.543</ele>
        <time>2019-04-30T09:22:44Z</time>
      </trkpt>
      <trkpt lat="43.46894" lon="4.43515">
        <ele>48.438</ele>
        <time>2019-04-30T09:22:55Z</time>
      </trkpt>
      <trkpt lat="43.46842" lon="4.4349">
        <ele>48.415</ele>
        <time>2019-04-30T09:23:05Z</time>
      </trkpt>
      <trkpt lat="43.46777" lon="4.43474">
        <ele>48.541</ele>
        <time>2019-04-30T09:23:16Z</time>
      </trkpt>
      <trkpt lat="43.46706" lon="4.4347">
        <ele>48.645</ele>
        <time>2019-04-30T09:23:27Z</time>
      </trkpt>
      <trkpt lat="43.46632" lon="4.43465">
        <ele>48.535</ele>
        <time>2019-04-30T09:23:38Z</time>
      </trkpt>
      <trkpt lat="43.46565" lon="4.4346">
        <ele>48.294</ele>
        <time>2019-04-30T09:23:48Z</time>
      </trkpt>
      <trkpt lat="43.46495" lon="4.43455">
        <ele>48.027</ele>
        <time>2019-04-30T09:23:59Z</time>
      </trkpt>
      <trkpt lat="43.4643" lon="4.43452">
        <ele>47.753</ele>
        <time>2019-04-30T09:24:09Z</time>
      </trkpt>
      <trkpt lat="43.46359" lon="4.43444">
        <ele>47.545</ele>
        <time>2019-04-30T09:24:20Z</time>
      </trkpt>
      <trkpt lat="43.46327" lon="4.43449">
        <ele>47.485</ele>
        <time>2019-04-30T09:24:31Z</time>
      </trkpt>
      <trkpt lat="43.4633" lon="4.43449">
        <ele>47.472</ele>
        <time>2019-04-30T09:24:42Z</time>
      </trkpt>
      <trkpt lat="43.46327" lon="4.43448">
        <ele>47.489</ele>
        <time>2019-04-30T09:24:53Z</time>
      </trkpt>
      <trkpt lat="43.46327" lon="4.43448">
        <ele>47.681</ele>
        <time>2019-04-30T09:25:04Z</time>
      </trkpt>
      <trkpt lat="43.46327" lon="4.43448">
        <ele>47.746</ele>
        <time>2019-04-30T09:25:14Z</time>
      </trkpt>
      <trkpt lat="43.46319" lon="4.43443">
        <ele>47.81</ele>
        <time>2019-04-30T09:25:24Z</time>
      </trkpt>
      <trkpt lat="43.46293" lon="4.43427">
        <ele>47.859</ele>
        <time>2019-04-30T09:25:34Z</time>
      </trkpt>
      <trkpt lat="43.46237" lon="4.43421">
        <ele>48.357</ele>
        <time>2019-04-30T09:25:45Z</time>
      </trkpt>
      <trkpt lat="43.4617" lon="4.4341">
        <ele>48.874</ele>
        <time>2019-04-30T09:25:56Z</time>
      </trkpt>
      <trkpt lat="43.46106" lon="4.43398">
        <ele>49.466</ele>
        <time>2019-04-30T09:26:06Z</time>
      </trkpt>
      <trkpt lat="43.46035" lon="4.43388">
        <ele>50.209</ele>
        <time>2019-04-30T09:26:17Z</time>
      </trkpt>
      <trkpt lat="43.45964" lon="4.4336">
        <ele>49.898</ele>
        <time>2019-04-30T09:26:28Z</time>
      </trkpt>
      <trkpt lat="43.45902" lon="4.43314">
        <ele>49.899</ele>
        <time>2019-04-30T09:26:39Z</time>
      </trkpt>
      <trkpt lat="43.45839" lon="4.43276">
        <ele>49.761</ele>
        <time>2019-04-30T09:26:50Z</time>
      </trkpt>
      <trkpt lat="43.45763" lon="4.43252">
        <ele>49.732</ele>
        <time>2019-04-30T09:27:02Z</time>
      </trkpt>
      <trkpt lat="43.45699" lon="4.43233">
        <ele>50.522</ele>
        <time>2019-04-30T09:27:12Z</time>
      </trkpt>
      <trkpt lat="43.45643" lon="4.43189">
        <ele>50.369</ele>
        <time>2019-04-30T09:27:23Z</time>
      </trkpt>
      <trkpt lat="43.45591" lon="4.43141">
        <ele>51.374</ele>
        <time>2019-04-30T09:27:33Z</time>
      </trkpt>
      <trkpt lat="43.45542" lon="4.43096">
        <ele>51.296</ele>
        <time>2019-04-30T09:27:43Z</time>
      </trkpt>
      <trkpt lat="43.45482" lon="4.4307">
        <ele>51.544</ele>
        <time>2019-04-30T09:27:54Z</time>
      </trkpt>
      <trkpt lat="43.45421" lon="4.43053">
        <ele>52.003</ele>
        <time>2019-04-30T09:28:05Z</time>
      </trkpt>
      <trkpt lat="43.45372" lon="4.43016">
        <ele>52.952</ele>
        <time>2019-04-30T09:28:16Z</time>
      </trkpt>
      <trkpt lat="43.4534" lon="4.42971">
        <ele>53.923</ele>
        <time>2019-04-30T09:28:26Z</time>
      </trkpt>
      <trkpt lat="43.45295" lon="4.42936">
        <ele>54.534</ele>
        <time>2019-04-30T09:28:37Z</time>
      </trkpt>
      <trkpt lat="43.45242" lon="4.42912">
        <ele>53.986</ele>
        <time>2019-04-30T09:28:48Z</time>
      </trkpt>
      <trkpt lat="43.45215" lon="4.42883">
        <ele>53.786</ele>
        <time>2019-04-30T09:28:59Z</time>
      </trkpt>
      <trkpt lat="43.45223" lon="4.42846">
        <ele>53.677</ele>
        <time>2019-04-30T09:29:10Z</time>
      </trkpt>
      <trkpt lat="43.45211" lon="4.42836">
        <ele>53.518</ele>
        <time>2019-04-30T09:29:20Z</time>
      </trkpt>
      <trkpt lat="43.45203" lon="4.42827">
        <ele>53.308</ele>
        <time>2019-04-30T09:29:30Z</time>
      </trkpt>
      <trkpt lat="43.45197" lon="4.42826">
        <ele>53.442</ele>
        <time>2019-04-30T09:29:40Z</time>
      </trkpt>
      <trkpt lat="43.45187" lon="4.42813">
        <ele>53.991</ele>
        <time>2019-04-30T09:29:51Z</time>
      </trkpt>
      <trkpt lat="43.45173" lon="4.42814">
        <ele>54.026</ele>
        <time>2019-04-30T09:30:02Z</time>
      </trkpt>
      <trkpt lat="43.45149" lon="4.42805">
        <ele>53.872</ele>
        <time>2019-04-30T09:30:13Z</time>
      </trkpt>
      <trkpt lat="43.4515" lon="4.42777">
        <ele>53.753</ele>
        <time>2019-04-30T09:30:24Z</time>
      </trkpt>
      <trkpt lat="43.45138" lon="4.42762">
        <ele>54.358</ele>
        <time>2019-04-30T09:30:35Z</time>
      </trkpt>
      <trkpt lat="43.45138" lon="4.42762">
        <ele>55.3</ele>
        <time>2019-04-30T09:30:45Z</time>
      </trkpt>
      <trkpt lat="43.45135" lon="4.42757">
        <ele>56.087</ele>
        <time>2019-04-30T09:30:56Z</time>
      </trkpt>
      <trkpt lat="43.45127" lon="4.42764">
        <ele>56.725</ele>
        <time>2019-04-30T09:31:06Z</time>
      </trkpt>
      <trkpt lat="43.45121" lon="4.42775">
        <ele>57.442</ele>
        <time>2019-04-30T09:31:17Z</time>
      </trkpt>
      <trkpt lat="43.45117" lon="4.42787">
        <ele>58.13</ele>
        <time>2019-04-30T09:31:27Z</time>
      </trkpt>
      <trkpt lat="43.45111" lon="4.42796">
        <ele>58.446</ele>
        <time>2019-04-30T09:31:38Z</time>
      </trkpt>
      <trkpt lat="43.4511" lon="4.42803">
        <ele>58.329</ele>
        <time>2019-04-30T09:31:49Z</time>
      </trkpt>
      <trkpt lat="43.45108" lon="4.42816">
        <ele>58.118</ele>
        <time>2019-04-30T09:31:59Z</time>
      </trkpt>
      <trkpt lat="43.45108" lon="4.42822">
        <ele>57.897</ele>
        <time>2019-04-30T09:32:09Z</time>
      </trkpt>
      <trkpt lat="43.45112" lon="4.42825">
        <ele>58.047</ele>
        <time>2019-04-30T09:32:20Z</time>
      </trkpt>
      <trkpt lat="43.45115" lon="4.42826">
        <ele>58.534</ele>
        <time>2019-04-30T09:32:30Z</time>
      </trkpt>
      <trkpt lat="43.45115" lon="4.42826">
        <ele>58.95</ele>
        <time>2019-04-30T09:32:41Z</time>
      </trkpt>
      <trkpt lat="43.45118" lon="4.42832">
        <ele>59.059</ele>
        <time>2019-04-30T09:32:52Z</time>
      </trkpt>
      <trkpt lat="43.4512" lon="4.42838">
        <ele>59.135</ele>
        <time>2019-04-30T09:33:02Z</time>
      </trkpt>
      <trkpt lat="43.4512" lon="4.42839">
        <ele>59.246</ele>
        <time>2019-04-30T09:33:13Z</time>
      </trkpt>
      <trkpt lat="43.45121" lon="4.42839">
        <ele>59.4</ele>
        <time>2019-04-30T09:33:23Z</time>
      </trkpt>
      <trkpt lat="43.45121" lon="4.42839">
        <ele>59.591</ele>
        <time>2019-04-30T09:33:33Z</time>
      </trkpt>
      <trkpt lat="43.45121" lon="4.42839">
        <ele>59.787</ele>
        <time>2019-04-30T09:33:44Z</time>
      </trkpt>
      <trkpt lat="43.45122" lon="4.42839">
        <ele>59.954</ele>
        <time>2019-04-30T09:33:55Z</time>
      </trkpt>
      <trkpt lat="43.45122" lon="4.42839">
        <ele>60.109</ele>
        <time>2019-04-30T09:34:05Z</time>
      </trkpt>
      <trkpt lat="43.45123" lon="4.42838">
        <ele>60.703</ele>
        <time>2019-04-30T09:34:16Z</time>
      </trkpt>
      <trkpt lat="43.45124" lon="4.42836">
        <ele>60.817</ele>
        <time>2019-04-30T09:34:27Z</time>
      </trkpt>
      <trkpt lat="43.45124" lon="4.42836">
        <ele>60.869</ele>
        <time>2019-04-30T09:34:37Z</time>
      </trkpt>
      <trkpt lat="43.45124" lon="4.42836">
        <ele>60.992</ele>
        <time>2019-04-30T09:34:48Z</time>
      </trkpt>
      <trkpt lat="43.45125" lon="4.42836">
        <ele>61.06</ele>
        <time>2019-04-30T09:34:58Z</time>
      </trkpt>
      <trkpt lat="43.45125" lon="4.42836">
        <ele>61.168</ele>
        <time>2019-04-30T09:35:09Z</time>
      </trkpt>
      <trkpt lat="43.45125" lon="4.42836">
        <ele>61.265</ele>
        <time>2019-04-30T09:35:19Z</time>
      </trkpt>
      <trkpt lat="43.45125" lon="4.42837">
        <ele>61.32</ele>
        <time>2019-04-30T09:35:29Z</time>
      </trkpt>
      <trkpt lat="43.45125" lon="4.42837">
        <ele>61.324</ele>
        <time>2019-04-30T09:35:40Z</time>
      </trkpt>
      <trkpt lat="43.45124" lon="4.42836">
        <ele>61.306</ele>
        <time>2019-04-30T09:35:51Z</time>
      </trkpt>
      <trkpt lat="43.45124" lon="4.42836">
        <ele>61.263</ele>
        <time>2019-04-30T09:36:01Z</time>
      </trkpt>
      <trkpt lat="43.45124" lon="4.42836">
        <ele>61.225</ele>
        <time>2019-04-30T09:36:12Z</time>
      </trkpt>
      <trkpt lat="43.45124" lon="4.42836">
        <ele>61.191</ele>
        <time>2019-04-30T09:36:23Z</time>
      </trkpt>
      <trkpt lat="43.45124" lon="4.42835">
        <ele>60.986</ele>
        <time>2019-04-30T09:36:34Z</time>
      </trkpt>
      <trkpt lat="43.45125" lon="4.42835">
        <ele>60.922</ele>
        <time>2019-04-30T09:36:44Z</time>
      </trkpt>
      <trkpt lat="43.45125" lon="4.42835">
        <ele>60.828</ele>
        <time>2019-04-30T09:36:55Z</time>
      </trkpt>
      <trkpt lat="43.45124" lon="4.42834">
        <ele>60.685</ele>
        <time>2019-04-30T09:37:05Z</time>
      </trkpt>
      <trkpt lat="43.45124" lon="4.42833">
        <ele>60.447</ele>
        <time>2019-04-30T09:37:15Z</time>
      </trkpt>
      <trkpt lat="43.45124" lon="4.42833">
        <ele>60.324</ele>
        <time>2019-04-30T09:37:26Z</time>
      </trkpt>
      <trkpt lat="43.45125" lon="4.42832">
        <ele>60.214</ele>
        <time>2019-04-30T09:37:37Z</time>
      </trkpt>
      <trkpt lat="43.45125" lon="4.42832">
        <ele>60.406</ele>
        <time>2019-04-30T09:37:47Z</time>
      </trkpt>
      <trkpt lat="43.45125" lon="4.42832">
        <ele>60.57</ele>
        <time>2019-04-30T09:37:58Z</time>
      </trkpt>
      <trkpt lat="43.45126" lon="4.42832">
        <ele>60.714</ele>
        <time>2019-04-30T09:38:08Z</time>
      </trkpt>
      <trkpt lat="43.45128" lon="4.42833">
        <ele>60.812</ele>
        <time>2019-04-30T09:38:19Z</time>
      </trkpt>
      <trkpt lat="43.4514" lon="4.4284">
        <ele>61.56</ele>
        <time>2019-04-30T09:38:29Z</time>
      </trkpt>
      <trkpt lat="43.45153" lon="4.42846">
        <ele>62.541</ele>
        <time>2019-04-30T09:38:39Z</time>
      </trkpt>
      <trkpt lat="43.45152" lon="4.42863">
        <ele>63.334</ele>
        <time>2019-04-30T09:38:50Z</time>
      </trkpt>
      <trkpt lat="43.45151" lon="4.42878">
        <ele>63.472</ele>
        <time>2019-04-30T09:39:00Z</time>
      </trkpt>
      <trkpt lat="43.45147" lon="4.42899">
        <ele>63.677</ele>
        <time>2019-04-30T09:39:11Z</time>
      </trkpt>
      <trkpt lat="43.45147" lon="4.429">
        <ele>63.557</ele>
        <time>2019-04-30T09:39:21Z</time>
      </trkpt>
      <trkpt lat="43.45147" lon="4.429">
        <ele>63.386</ele>
        <time>2019-04-30T09:39:32Z</time>
      </trkpt>
      <trkpt lat="43.45147" lon="4.429">
        <ele>63.212</ele>
        <time>2019-04-30T09:39:43Z</time>
      </trkpt>
      <trkpt lat="43.45147" lon="4.429">
        <ele>63.093</ele>
        <time>2019-04-30T09:39:54Z</time>
      </trkpt>
      <trkpt lat="43.45154" lon="4.42898">
        <ele>62.406</ele>
        <time>2019-04-30T09:40:04Z</time>
      </trkpt>
      <trkpt lat="43.45159" lon="4.4289">
        <ele>61.834</ele>
        <time>2019-04-30T09:40:14Z</time>
      </trkpt>
      <trkpt lat="43.45163" lon="4.42881">
        <ele>61.21</ele>
        <time>2019-04-30T09:40:25Z</time>
      </trkpt>
      <trkpt lat="43.45163" lon="4.42881">
        <ele>61.174</ele>
        <time>2019-04-30T09:40:35Z</time>
      </trkpt>
      <trkpt lat="43.45164" lon="4.42881">
        <ele>61.182</ele>
        <time>2019-04-30T09:40:46Z</time>
      </trkpt>
      <trkpt lat="43.45165" lon="4.42881">
        <ele>61.3</ele>
        <time>2019-04-30T09:40:56Z</time>
      </trkpt>
      <trkpt lat="43.45165" lon="4.42881">
        <ele>61.376</ele>
        <time>2019-04-30T09:41:07Z</time>
      </trkpt>
      <trkpt lat="43.45166" lon="4.42881">
        <ele>61.469</ele>
        <time>2019-04-30T09:41:17Z</time>
      </trkpt>
      <trkpt lat="43.45166" lon="4.4288">
        <ele>61.604</ele>
        <time>2019-04-30T09:41:28Z</time>
      </trkpt>
      <trkpt lat="43.45167" lon="4.42881">
        <ele>61.744</ele>
        <time>2019-04-30T09:41:38Z</time>
      </trkpt>
      <trkpt lat="43.45167" lon="4.42881">
        <ele>61.857</ele>
        <time>2019-04-30T09:41:48Z</time>
      </trkpt>
      <trkpt lat="43.45167" lon="4.42881">
        <ele>61.969</ele>
        <time>2019-04-30T09:41:58Z</time>
      </trkpt>
      <trkpt lat="43.45168" lon="4.42881">
        <ele>62.086</ele>
        <time>2019-04-30T09:42:08Z</time>
      </trkpt>
      <trkpt lat="43.45168" lon="4.42881">
        <ele>62.18</ele>
        <time>2019-04-30T09:42:19Z</time>
      </trkpt>
      <trkpt lat="43.45168" lon="4.42881">
        <ele>62.298</ele>
        <time>2019-04-30T09:42:29Z</time>
      </trkpt>
      <trkpt lat="43.45168" lon="4.4288">
        <ele>62.33</ele>
        <time>2019-04-30T09:42:40Z</time>
      </trkpt>
      <trkpt lat="43.45169" lon="4.4288">
        <ele>62.34</ele>
        <time>2019-04-30T09:42:51Z</time>
      </trkpt>
      <trkpt lat="43.45169" lon="4.42879">
        <ele>62.384</ele>
        <time>2019-04-30T09:43:02Z</time>
      </trkpt>
      <trkpt lat="43.45169" lon="4.42881">
        <ele>62.561</ele>
        <time>2019-04-30T09:43:13Z</time>
      </trkpt>
      <trkpt lat="43.45167" lon="4.42893">
        <ele>61.861</ele>
        <time>2019-04-30T09:43:23Z</time>
      </trkpt>
      <trkpt lat="43.45171" lon="4.42902">
        <ele>60.388</ele>
        <time>2019-04-30T09:43:34Z</time>
      </trkpt>
      <trkpt lat="43.45154" lon="4.42901">
        <ele>58.539</ele>
        <time>2019-04-30T09:43:44Z</time>
      </trkpt>
      <trkpt lat="43.45147" lon="4.42897">
        <ele>57.701</ele>
        <time>2019-04-30T09:43:55Z</time>
      </trkpt>
      <trkpt lat="43.4514" lon="4.42898">
        <ele>57.479</ele>
        <time>2019-04-30T09:44:06Z</time>
      </trkpt>
      <trkpt lat="43.45139" lon="4.42896">
        <ele>57.333</ele>
        <time>2019-04-30T09:44:17Z</time>
      </trkpt>
      <trkpt lat="43.45142" lon="4.42894">
        <ele>56.71</ele>
        <time>2019-04-30T09:44:28Z</time>
      </trkpt>
      <trkpt lat="43.45145" lon="4.42895">
        <ele>56.439</ele>
        <time>2019-04-30T09:44:38Z</time>
      </trkpt>
      <trkpt lat="43.45142" lon="4.42893">
        <ele>55.727</ele>
        <time>2019-04-30T09:44:48Z</time>
      </trkpt>
      <trkpt lat="43.4514" lon="4.42896">
        <ele>55.225</ele>
        <time>2019-04-30T09:44:59Z</time>
      </trkpt>
      <trkpt lat="43.4514" lon="4.42896">
        <ele>55.098</ele>
        <time>2019-04-30T09:45:10Z</time>
      </trkpt>
      <trkpt lat="43.4514" lon="4.42896">
        <ele>55.003</ele>
        <time>2019-04-30T09:45:21Z</time>
      </trkpt>
      <trkpt lat="43.45141" lon="4.42896">
        <ele>55.023</ele>
        <time>2019-04-30T09:45:32Z</time>
      </trkpt>
      <trkpt lat="43.4514" lon="4.42897">
        <ele>55.075</ele>
        <time>2019-04-30T09:45:43Z</time>
      </trkpt>
      <trkpt lat="43.4514" lon="4.42897">
        <ele>55.12</ele>
        <time>2019-04-30T09:45:54Z</time>
      </trkpt>
      <trkpt lat="43.4514" lon="4.42897">
        <ele>55.166</ele>
        <time>2019-04-30T09:46:05Z</time>
      </trkpt>
      <trkpt lat="43.45139" lon="4.42898">
        <ele>55.241</ele>
        <time>2019-04-30T09:46:16Z</time>
      </trkpt>
      <trkpt lat="43.45138" lon="4.42899">
        <ele>55.335</ele>
        <time>2019-04-30T09:46:27Z</time>
      </trkpt>
      <trkpt lat="43.45138" lon="4.429">
        <ele>55.502</ele>
        <time>2019-04-30T09:46:38Z</time>
      </trkpt>
      <trkpt lat="43.45138" lon="4.42901">
        <ele>55.758</ele>
        <time>2019-04-30T09:46:49Z</time>
      </trkpt>
      <trkpt lat="43.45138" lon="4.42901">
        <ele>55.999</ele>
        <time>2019-04-30T09:47:00Z</time>
      </trkpt>
      <trkpt lat="43.45138" lon="4.42901">
        <ele>56.185</ele>
        <time>2019-04-30T09:47:11Z</time>
      </trkpt>
      <trkpt lat="43.45138" lon="4.42901">
        <ele>56.261</ele>
        <time>2019-04-30T09:47:22Z</time>
      </trkpt>
      <trkpt lat="43.45138" lon="4.42901">
        <ele>56.319</ele>
        <time>2019-04-30T09:47:33Z</time>
      </trkpt>
      <trkpt lat="43.45138" lon="4.42901">
        <ele>56.427</ele>
        <time>2019-04-30T09:47:44Z</time>
      </trkpt>
      <trkpt lat="43.45138" lon="4.42901">
        <ele>56.538</ele>
        <time>2019-04-30T09:47:55Z</time>
      </trkpt>
      <trkpt lat="43.45137" lon="4.42901">
        <ele>56.624</ele>
        <time>2019-04-30T09:48:05Z</time>
      </trkpt>
      <trkpt lat="43.45138" lon="4.429">
        <ele>56.707</ele>
        <time>2019-04-30T09:48:16Z</time>
      </trkpt>
      <trkpt lat="43.45138" lon="4.429">
        <ele>56.835</ele>
        <time>2019-04-30T09:48:27Z</time>
      </trkpt>
      <trkpt lat="43.45139" lon="4.42899">
        <ele>56.932</ele>
        <time>2019-04-30T09:48:37Z</time>
      </trkpt>
      <trkpt lat="43.45139" lon="4.429">
        <ele>57.022</ele>
        <time>2019-04-30T09:48:47Z</time>
      </trkpt>
      <trkpt lat="43.45139" lon="4.429">
        <ele>57.063</ele>
        <time>2019-04-30T09:48:58Z</time>
      </trkpt>
      <trkpt lat="43.45138" lon="4.42902">
        <ele>57.112</ele>
        <time>2019-04-30T09:49:09Z</time>
      </trkpt>
      <trkpt lat="43.45138" lon="4.42903">
        <ele>57.152</ele>
        <time>2019-04-30T09:49:19Z</time>
      </trkpt>
      <trkpt lat="43.45138" lon="4.42903">
        <ele>57.262</ele>
        <time>2019-04-30T09:49:30Z</time>
      </trkpt>
      <trkpt lat="43.45138" lon="4.42903">
        <ele>57.37</ele>
        <time>2019-04-30T09:49:41Z</time>
      </trkpt>
      <trkpt lat="43.45138" lon="4.42903">
        <ele>57.415</ele>
        <time>2019-04-30T09:49:51Z</time>
      </trkpt>
      <trkpt lat="43.45138" lon="4.42903">
        <ele>57.445</ele>
        <time>2019-04-30T09:50:02Z</time>
      </trkpt>
      <trkpt lat="43.45138" lon="4.42903">
        <ele>57.447</ele>
        <time>2019-04-30T09:50:13Z</time>
      </trkpt>
      <trkpt lat="43.45138" lon="4.42902">
        <ele>57.472</ele>
        <time>2019-04-30T09:50:24Z</time>
      </trkpt>
      <trkpt lat="43.45138" lon="4.42902">
        <ele>57.444</ele>
        <time>2019-04-30T09:50:35Z</time>
      </trkpt>
      <trkpt lat="43.45139" lon="4.42903">
        <ele>57.424</ele>
        <time>2019-04-30T09:50:46Z</time>
      </trkpt>
      <trkpt lat="43.45139" lon="4.42903">
        <ele>57.415</ele>
        <time>2019-04-30T09:50:56Z</time>
      </trkpt>
      <trkpt lat="43.45139" lon="4.42902">
        <ele>57.391</ele>
        <time>2019-04-30T09:51:06Z</time>
      </trkpt>
      <trkpt lat="43.4514" lon="4.42901">
        <ele>57.356</ele>
        <time>2019-04-30T09:51:16Z</time>
      </trkpt>
      <trkpt lat="43.4514" lon="4.42901">
        <ele>57.323</ele>
        <time>2019-04-30T09:51:26Z</time>
      </trkpt>
      <trkpt lat="43.4514" lon="4.42901">
        <ele>57.281</ele>
        <time>2019-04-30T09:51:37Z</time>
      </trkpt>
      <trkpt lat="43.4514" lon="4.42901">
        <ele>57.264</ele>
        <time>2019-04-30T09:51:47Z</time>
      </trkpt>
      <trkpt lat="43.4514" lon="4.42901">
        <ele>57.242</ele>
        <time>2019-04-30T09:51:58Z</time>
      </trkpt>
      <trkpt lat="43.45141" lon="4.42902">
        <ele>57.207</ele>
        <time>2019-04-30T09:52:09Z</time>
      </trkpt>
      <trkpt lat="43.45141" lon="4.42902">
        <ele>57.19</ele>
        <time>2019-04-30T09:52:19Z</time>
      </trkpt>
      <trkpt lat="43.45141" lon="4.429">
        <ele>57.156</ele>
        <time>2019-04-30T09:52:30Z</time>
      </trkpt>
      <trkpt lat="43.4514" lon="4.42899">
        <ele>57.083</ele>
        <time>2019-04-30T09:52:40Z</time>
      </trkpt>
      <trkpt lat="43.45139" lon="4.429">
        <ele>57.173</ele>
        <time>2019-04-30T09:52:51Z</time>
      </trkpt>
      <trkpt lat="43.45138" lon="4.429">
        <ele>57.24</ele>
        <time>2019-04-30T09:53:02Z</time>
      </trkpt>
      <trkpt lat="43.45138" lon="4.42901">
        <ele>57.22</ele>
        <time>2019-04-30T09:53:13Z</time>
      </trkpt>
      <trkpt lat="43.45143" lon="4.429">
        <ele>56.688</ele>
        <time>2019-04-30T09:53:24Z</time>
      </trkpt>
      <trkpt lat="43.45145" lon="4.42895">
        <ele>56.383</ele>
        <time>2019-04-30T09:53:34Z</time>
      </trkpt>
      <trkpt lat="43.45148" lon="4.42893">
        <ele>55.128</ele>
        <time>2019-04-30T09:53:45Z</time>
      </trkpt>
      <trkpt lat="43.4515" lon="4.42892">
        <ele>53.755</ele>
        <time>2019-04-30T09:53:56Z</time>
      </trkpt>
      <trkpt lat="43.4515" lon="4.42892">
        <ele>53.305</ele>
        <time>2019-04-30T09:54:07Z</time>
      </trkpt>
      <trkpt lat="43.45149" lon="4.42892">
        <ele>52.407</ele>
        <time>2019-04-30T09:54:18Z</time>
      </trkpt>
      <trkpt lat="43.45148" lon="4.42893">
        <ele>52.195</ele>
        <time>2019-04-30T09:54:29Z</time>
      </trkpt>
      <trkpt lat="43.45145" lon="4.42889">
        <ele>51.733</ele>
        <time>2019-04-30T09:54:39Z</time>
      </trkpt>
      <trkpt lat="43.45145" lon="4.42884">
        <ele>50.876</ele>
        <time>2019-04-30T09:54:50Z</time>
      </trkpt>
      <trkpt lat="43.45145" lon="4.42888">
        <ele>50.02</ele>
        <time>2019-04-30T09:55:01Z</time>
      </trkpt>
      <trkpt lat="43.45145" lon="4.42889">
        <ele>50.065</ele>
        <time>2019-04-30T09:55:12Z</time>
      </trkpt>
      <trkpt lat="43.45145" lon="4.4289">
        <ele>50.149</ele>
        <time>2019-04-30T09:55:23Z</time>
      </trkpt>
      <trkpt lat="43.45142" lon="4.42894">
        <ele>50.684</ele>
        <time>2019-04-30T09:55:34Z</time>
      </trkpt>
      <trkpt lat="43.4514" lon="4.42895">
        <ele>50.86</ele>
        <time>2019-04-30T09:55:45Z</time>
      </trkpt>
      <trkpt lat="43.45139" lon="4.42894">
        <ele>50.958</ele>
        <time>2019-04-30T09:55:55Z</time>
      </trkpt>
      <trkpt lat="43.45139" lon="4.429">
        <ele>51.06</ele>
        <time>2019-04-30T09:56:06Z</time>
      </trkpt>
      <trkpt lat="43.45145" lon="4.42899">
        <ele>51.185</ele>
        <time>2019-04-30T09:56:16Z</time>
      </trkpt>
      <trkpt lat="43.45146" lon="4.42884">
        <ele>51.86</ele>
        <time>2019-04-30T09:56:27Z</time>
      </trkpt>
      <trkpt lat="43.45147" lon="4.42868">
        <ele>51.936</ele>
        <time>2019-04-30T09:56:38Z</time>
      </trkpt>
      <trkpt lat="43.45151" lon="4.42859">
        <ele>51.883</ele>
        <time>2019-04-30T09:56:48Z</time>
      </trkpt>
      <trkpt lat="43.45152" lon="4.42852">
        <ele>52.849</ele>
        <time>2019-04-30T09:56:59Z</time>
      </trkpt>
      <trkpt lat="43.45152" lon="4.42852">
        <ele>53.644</ele>
        <time>2019-04-30T09:57:09Z</time>
      </trkpt>
      <trkpt lat="43.45154" lon="4.42854">
        <ele>54.247</ele>
        <time>2019-04-30T09:57:20Z</time>
      </trkpt>
      <trkpt lat="43.45154" lon="4.42854">
        <ele>54.354</ele>
        <time>2019-04-30T09:57:31Z</time>
      </trkpt>
      <trkpt lat="43.45152" lon="4.42858">
        <ele>54.579</ele>
        <time>2019-04-30T09:57:42Z</time>
      </trkpt>
      <trkpt lat="43.45149" lon="4.4286">
        <ele>54.521</ele>
        <time>2019-04-30T09:57:53Z</time>
      </trkpt>
      <trkpt lat="43.45148" lon="4.42862">
        <ele>54.886</ele>
        <time>2019-04-30T09:58:04Z</time>
      </trkpt>
      <trkpt lat="43.45144" lon="4.42863">
        <ele>55.435</ele>
        <time>2019-04-30T09:58:14Z</time>
      </trkpt>
      <trkpt lat="43.45141" lon="4.42864">
        <ele>54.769</ele>
        <time>2019-04-30T09:58:25Z</time>
      </trkpt>
      <trkpt lat="43.45141" lon="4.42862">
        <ele>53.883</ele>
        <time>2019-04-30T09:58:35Z</time>
      </trkpt>
      <trkpt lat="43.45142" lon="4.42858">
        <ele>53.166</ele>
        <time>2019-04-30T09:58:45Z</time>
      </trkpt>
      <trkpt lat="43.45146" lon="4.42857">
        <ele>51.614</ele>
        <time>2019-04-30T09:58:56Z</time>
      </trkpt>
      <trkpt lat="43.4514" lon="4.42859">
        <ele>50.785</ele>
        <time>2019-04-30T09:59:07Z</time>
      </trkpt>
      <trkpt lat="43.45142" lon="4.4286">
        <ele>49.536</ele>
        <time>2019-04-30T09:59:17Z</time>
      </trkpt>
      <trkpt lat="43.45146" lon="4.42859">
        <ele>47.729</ele>
        <time>2019-04-30T09:59:28Z</time>
      </trkpt>
      <trkpt lat="43.45151" lon="4.42845">
        <ele>46.874</ele>
        <time>2019-04-30T09:59:38Z</time>
      </trkpt>
      <trkpt lat="43.4515" lon="4.42842">
        <ele>47.531</ele>
        <time>2019-04-30T09:59:48Z</time>
      </trkpt>
      <trkpt lat="43.4515" lon="4.42842">
        <ele>47.648</ele>
        <time>2019-04-30T09:59:59Z</time>
      </trkpt>
      <trkpt lat="43.45148" lon="4.42842">
        <ele>48.158</ele>
        <time>2019-04-30T10:00:10Z</time>
      </trkpt>
      <trkpt lat="43.45148" lon="4.4284">
        <ele>48.689</ele>
        <time>2019-04-30T10:00:21Z</time>
      </trkpt>
      <trkpt lat="43.45146" lon="4.42839">
        <ele>48.839</ele>
        <time>2019-04-30T10:00:31Z</time>
      </trkpt>
      <trkpt lat="43.45144" lon="4.42842">
        <ele>49.554</ele>
        <time>2019-04-30T10:00:42Z</time>
      </trkpt>
      <trkpt lat="43.45145" lon="4.42844">
        <ele>49.812</ele>
        <time>2019-04-30T10:00:52Z</time>
      </trkpt>
      <trkpt lat="43.45141" lon="4.4284">
        <ele>49.658</ele>
        <time>2019-04-30T10:01:02Z</time>
      </trkpt>
      <trkpt lat="43.4513" lon="4.42848">
        <ele>47.27</ele>
        <time>2019-04-30T10:01:13Z</time>
      </trkpt>
      <trkpt lat="43.45125" lon="4.42852">
        <ele>37.659</ele>
        <time>2019-04-30T10:01:24Z</time>
      </trkpt>
      <trkpt lat="43.4512" lon="4.42854">
        <ele>35.589</ele>
        <time>2019-04-30T10:01:34Z</time>
      </trkpt>
      <trkpt lat="43.45114" lon="4.42847">
        <ele>33.772</ele>
        <time>2019-04-30T10:01:45Z</time>
      </trkpt>
      <trkpt lat="43.45113" lon="4.4285">
        <ele>32.495</ele>
        <time>2019-04-30T10:01:55Z</time>
      </trkpt>
      <trkpt lat="43.45115" lon="4.42849">
        <ele>24.677</ele>
        <time>2019-04-30T10:02:06Z</time>
      </trkpt>
      <trkpt lat="43.45116" lon="4.42852">
        <ele>23.548</ele>
        <time>2019-04-30T10:02:16Z</time>
      </trkpt>
      <trkpt lat="43.4513" lon="4.42857">
        <ele>24.195</ele>
        <time>2019-04-30T10:02:27Z</time>
      </trkpt>
      <trkpt lat="43.45144" lon="4.42858">
        <ele>9.292</ele>
        <time>2019-04-30T10:03:37Z</time>
      </trkpt>
      <trkpt lat="43.4515" lon="4.42845">
        <ele>15.346</ele>
        <time>2019-04-30T10:03:47Z</time>
      </trkpt>
      <trkpt lat="43.4515" lon="4.42844">
        <ele>16.205</ele>
        <time>2019-04-30T10:03:58Z</time>
      </trkpt>
      <trkpt lat="43.45151" lon="4.42843">
        <ele>18.388</ele>
        <time>2019-04-30T10:04:09Z</time>
      </trkpt>
      <trkpt lat="43.45151" lon="4.42842">
        <ele>19.234</ele>
        <time>2019-04-30T10:04:20Z</time>
      </trkpt>
      <trkpt lat="43.45151" lon="4.42842">
        <ele>20.061</ele>
        <time>2019-04-30T10:04:30Z</time>
      </trkpt>
      <trkpt lat="43.45151" lon="4.42842">
        <ele>20.98</ele>
        <time>2019-04-30T10:04:41Z</time>
      </trkpt>
      <trkpt lat="43.45152" lon="4.42841">
        <ele>21.857</ele>
        <time>2019-04-30T10:04:52Z</time>
      </trkpt>
      <trkpt lat="43.45151" lon="4.42842">
        <ele>23.865</ele>
        <time>2019-04-30T10:05:03Z</time>
      </trkpt>
      <trkpt lat="43.45155" lon="4.42843">
        <ele>27.381</ele>
        <time>2019-04-30T10:05:14Z</time>
      </trkpt>
      <trkpt lat="43.45156" lon="4.42837">
        <ele>31.167</ele>
        <time>2019-04-30T10:05:24Z</time>
      </trkpt>
      <trkpt lat="43.45164" lon="4.42819">
        <ele>35.66</ele>
        <time>2019-04-30T10:05:34Z</time>
      </trkpt>
      <trkpt lat="43.45169" lon="4.42819">
        <ele>37.052</ele>
        <time>2019-04-30T10:05:45Z</time>
      </trkpt>
      <trkpt lat="43.45169" lon="4.42819">
        <ele>37.466</ele>
        <time>2019-04-30T10:05:56Z</time>
      </trkpt>
      <trkpt lat="43.45169" lon="4.42819">
        <ele>37.886</ele>
        <time>2019-04-30T10:06:07Z</time>
      </trkpt>
      <trkpt lat="43.4517" lon="4.42818">
        <ele>38.235</ele>
        <time>2019-04-30T10:06:17Z</time>
      </trkpt>
      <trkpt lat="43.45171" lon="4.42816">
        <ele>38.541</ele>
        <time>2019-04-30T10:06:28Z</time>
      </trkpt>
      <trkpt lat="43.45172" lon="4.42816">
        <ele>38.807</ele>
        <time>2019-04-30T10:06:39Z</time>
      </trkpt>
      <trkpt lat="43.45172" lon="4.42817">
        <ele>39.048</ele>
        <time>2019-04-30T10:06:50Z</time>
      </trkpt>
      <trkpt lat="43.45172" lon="4.42818">
        <ele>39.183</ele>
        <time>2019-04-30T10:07:01Z</time>
      </trkpt>
      <trkpt lat="43.45171" lon="4.42818">
        <ele>39.519</ele>
        <time>2019-04-30T10:07:12Z</time>
      </trkpt>
      <trkpt lat="43.45171" lon="4.42818">
        <ele>39.725</ele>
        <time>2019-04-30T10:07:22Z</time>
      </trkpt>
      <trkpt lat="43.45171" lon="4.42817">
        <ele>39.964</ele>
        <time>2019-04-30T10:07:33Z</time>
      </trkpt>
      <trkpt lat="43.45166" lon="4.42816">
        <ele>40.897</ele>
        <time>2019-04-30T10:07:44Z</time>
      </trkpt>
      <trkpt lat="43.45164" lon="4.42817">
        <ele>41.316</ele>
        <time>2019-04-30T10:07:54Z</time>
      </trkpt>
      <trkpt lat="43.45158" lon="4.42839">
        <ele>42.517</ele>
        <time>2019-04-30T10:08:05Z</time>
      </trkpt>
      <trkpt lat="43.45165" lon="4.42844">
        <ele>44.551</ele>
        <time>2019-04-30T10:08:15Z</time>
      </trkpt>
      <trkpt lat="43.45186" lon="4.42859">
        <ele>46.752</ele>
        <time>2019-04-30T10:08:26Z</time>
      </trkpt>
      <trkpt lat="43.4519" lon="4.42893">
        <ele>47.891</ele>
        <time>2019-04-30T10:08:37Z</time>
      </trkpt>
      <trkpt lat="43.45166" lon="4.42904">
        <ele>48.674</ele>
        <time>2019-04-30T10:08:48Z</time>
      </trkpt>
      <trkpt lat="43.45136" lon="4.42907">
        <ele>49.111</ele>
        <time>2019-04-30T10:08:59Z</time>
      </trkpt>
      <trkpt lat="43.45104" lon="4.42914">
        <ele>49.229</ele>
        <time>2019-04-30T10:09:09Z</time>
      </trkpt>
      <trkpt lat="43.45068" lon="4.42911">
        <ele>49.528</ele>
        <time>2019-04-30T10:09:20Z</time>
      </trkpt>
      <trkpt lat="43.45046" lon="4.42928">
        <ele>49.719</ele>
        <time>2019-04-30T10:09:30Z</time>
      </trkpt>
      <trkpt lat="43.45032" lon="4.42958">
        <ele>49.942</ele>
        <time>2019-04-30T10:09:41Z</time>
      </trkpt>
      <trkpt lat="43.45012" lon="4.4296">
        <ele>49.882</ele>
        <time>2019-04-30T10:09:51Z</time>
      </trkpt>
      <trkpt lat="43.45023" lon="4.4297">
        <ele>50.751</ele>
        <time>2019-04-30T10:10:02Z</time>
      </trkpt>
      <trkpt lat="43.45009" lon="4.42966">
        <ele>51.201</ele>
        <time>2019-04-30T10:10:12Z</time>
      </trkpt>
      <trkpt lat="43.45" lon="4.42962">
        <ele>51.728</ele>
        <time>2019-04-30T10:10:22Z</time>
      </trkpt>
      <trkpt lat="43.45" lon="4.42963">
        <ele>51.803</ele>
        <time>2019-04-30T10:10:33Z</time>
      </trkpt>
      <trkpt lat="43.45" lon="4.42963">
        <ele>51.917</ele>
        <time>2019-04-30T10:10:44Z</time>
      </trkpt>
      <trkpt lat="43.45" lon="4.42964">
        <ele>52.434</ele>
        <time>2019-04-30T10:10:55Z</time>
      </trkpt>
      <trkpt lat="43.45" lon="4.42964">
        <ele>52.426</ele>
        <time>2019-04-30T10:11:05Z</time>
      </trkpt>
      <trkpt lat="43.44999" lon="4.42963">
        <ele>52.885</ele>
        <time>2019-04-30T10:11:15Z</time>
      </trkpt>
      <trkpt lat="43.45023" lon="4.42956">
        <ele>52.734</ele>
        <time>2019-04-30T10:11:26Z</time>
      </trkpt>
      <trkpt lat="43.45035" lon="4.42973">
        <ele>52.541</ele>
        <time>2019-04-30T10:11:36Z</time>
      </trkpt>
      <trkpt lat="43.45034" lon="4.43019">
        <ele>52.738</ele>
        <time>2019-04-30T10:11:46Z</time>
      </trkpt>
      <trkpt lat="43.45047" lon="4.43071">
        <ele>53.037</ele>
        <time>2019-04-30T10:11:57Z</time>
      </trkpt>
      <trkpt lat="43.45084" lon="4.43098">
        <ele>53.388</ele>
        <time>2019-04-30T10:12:08Z</time>
      </trkpt>
      <trkpt lat="43.45113" lon="4.43137">
        <ele>55.089</ele>
        <time>2019-04-30T10:12:19Z</time>
      </trkpt>
      <trkpt lat="43.45143" lon="4.43181">
        <ele>54.744</ele>
        <time>2019-04-30T10:12:29Z</time>
      </trkpt>
      <trkpt lat="43.45163" lon="4.43232">
        <ele>53.053</ele>
        <time>2019-04-30T10:12:39Z</time>
      </trkpt>
      <trkpt lat="43.45183" lon="4.4328">
        <ele>53.039</ele>
        <time>2019-04-30T10:12:49Z</time>
      </trkpt>
      <trkpt lat="43.45207" lon="4.43331">
        <ele>53.589</ele>
        <time>2019-04-30T10:13:00Z</time>
      </trkpt>
      <trkpt lat="43.45229" lon="4.4338">
        <ele>54.114</ele>
        <time>2019-04-30T10:13:11Z</time>
      </trkpt>
      <trkpt lat="43.45235" lon="4.43425">
        <ele>54.577</ele>
        <time>2019-04-30T10:13:21Z</time>
      </trkpt>
      <trkpt lat="43.45251" lon="4.4347">
        <ele>53.869</ele>
        <time>2019-04-30T10:13:32Z</time>
      </trkpt>
      <trkpt lat="43.45266" lon="4.43512">
        <ele>53.634</ele>
        <time>2019-04-30T10:13:43Z</time>
      </trkpt>
      <trkpt lat="43.45283" lon="4.4354">
        <ele>53.657</ele>
        <time>2019-04-30T10:13:53Z</time>
      </trkpt>
      <trkpt lat="43.453" lon="4.43581">
        <ele>54.246</ele>
        <time>2019-04-30T10:14:03Z</time>
      </trkpt>
      <trkpt lat="43.45323" lon="4.43634">
        <ele>52.851</ele>
        <time>2019-04-30T10:14:14Z</time>
      </trkpt>
      <trkpt lat="43.45346" lon="4.4368">
        <ele>52.573</ele>
        <time>2019-04-30T10:14:25Z</time>
      </trkpt>
      <trkpt lat="43.45365" lon="4.43723">
        <ele>52.415</ele>
        <time>2019-04-30T10:14:36Z</time>
      </trkpt>
      <trkpt lat="43.45382" lon="4.43771">
        <ele>52.755</ele>
        <time>2019-04-30T10:14:47Z</time>
      </trkpt>
      <trkpt lat="43.45395" lon="4.43818">
        <ele>53.394</ele>
        <time>2019-04-30T10:14:57Z</time>
      </trkpt>
      <trkpt lat="43.4542" lon="4.43865">
        <ele>54.083</ele>
        <time>2019-04-30T10:15:08Z</time>
      </trkpt>
      <trkpt lat="43.4544" lon="4.43909">
        <ele>54.477</ele>
        <time>2019-04-30T10:15:19Z</time>
      </trkpt>
      <trkpt lat="43.45461" lon="4.43952">
        <ele>55.032</ele>
        <time>2019-04-30T10:15:29Z</time>
      </trkpt>
      <trkpt lat="43.45481" lon="4.43983">
        <ele>54.969</ele>
        <time>2019-04-30T10:15:40Z</time>
      </trkpt>
      <trkpt lat="43.4549" lon="4.44002">
        <ele>54.905</ele>
        <time>2019-04-30T10:15:51Z</time>
      </trkpt>
      <trkpt lat="43.45495" lon="4.44012">
        <ele>54.531</ele>
        <time>2019-04-30T10:16:02Z</time>
      </trkpt>
      <trkpt lat="43.45498" lon="4.44029">
        <ele>54.16</ele>
        <time>2019-04-30T10:16:13Z</time>
      </trkpt>
      <trkpt lat="43.45504" lon="4.44044">
        <ele>54.011</ele>
        <time>2019-04-30T10:16:23Z</time>
      </trkpt>
      <trkpt lat="43.45511" lon="4.44058">
        <ele>53.825</ele>
        <time>2019-04-30T10:16:34Z</time>
      </trkpt>
      <trkpt lat="43.45517" lon="4.44072">
        <ele>53.7</ele>
        <time>2019-04-30T10:16:44Z</time>
      </trkpt>
      <trkpt lat="43.45526" lon="4.44088">
        <ele>53.403</ele>
        <time>2019-04-30T10:16:55Z</time>
      </trkpt>
      <trkpt lat="43.45535" lon="4.44104">
        <ele>53.153</ele>
        <time>2019-04-30T10:17:06Z</time>
      </trkpt>
      <trkpt lat="43.45541" lon="4.4412">
        <ele>53.284</ele>
        <time>2019-04-30T10:17:17Z</time>
      </trkpt>
      <trkpt lat="43.4555" lon="4.44137">
        <ele>53.584</ele>
        <time>2019-04-30T10:17:27Z</time>
      </trkpt>
      <trkpt lat="43.45556" lon="4.44152">
        <ele>53.644</ele>
        <time>2019-04-30T10:17:37Z</time>
      </trkpt>
      <trkpt lat="43.45561" lon="4.44166">
        <ele>53.725</ele>
        <time>2019-04-30T10:17:47Z</time>
      </trkpt>
      <trkpt lat="43.45565" lon="4.44182">
        <ele>53.543</ele>
        <time>2019-04-30T10:17:58Z</time>
      </trkpt>
      <trkpt lat="43.45574" lon="4.44198">
        <ele>53.092</ele>
        <time>2019-04-30T10:18:09Z</time>
      </trkpt>
      <trkpt lat="43.45582" lon="4.44211">
        <ele>53.275</ele>
        <time>2019-04-30T10:18:19Z</time>
      </trkpt>
      <trkpt lat="43.45588" lon="4.44232">
        <ele>53.474</ele>
        <time>2019-04-30T10:18:30Z</time>
      </trkpt>
      <trkpt lat="43.45592" lon="4.44246">
        <ele>53.552</ele>
        <time>2019-04-30T10:18:40Z</time>
      </trkpt>
      <trkpt lat="43.456" lon="4.44269">
        <ele>53.265</ele>
        <time>2019-04-30T10:18:51Z</time>
      </trkpt>
      <trkpt lat="43.45612" lon="4.44303">
        <ele>52.739</ele>
        <time>2019-04-30T10:19:02Z</time>
      </trkpt>
      <trkpt lat="43.4562" lon="4.44334">
        <ele>52.4</ele>
        <time>2019-04-30T10:19:12Z</time>
      </trkpt>
      <trkpt lat="43.45634" lon="4.44377">
        <ele>52.185</ele>
        <time>2019-04-30T10:19:23Z</time>
      </trkpt>
      <trkpt lat="43.45645" lon="4.44417">
        <ele>52.485</ele>
        <time>2019-04-30T10:19:34Z</time>
      </trkpt>
      <trkpt lat="43.45649" lon="4.44458">
        <ele>52.504</ele>
        <time>2019-04-30T10:19:44Z</time>
      </trkpt>
      <trkpt lat="43.45658" lon="4.44498">
        <ele>52.692</ele>
        <time>2019-04-30T10:19:55Z</time>
      </trkpt>
      <trkpt lat="43.45667" lon="4.44541">
        <ele>52.682</ele>
        <time>2019-04-30T10:20:06Z</time>
      </trkpt>
      <trkpt lat="43.45673" lon="4.44584">
        <ele>52.293</ele>
        <time>2019-04-30T10:20:17Z</time>
      </trkpt>
      <trkpt lat="43.45683" lon="4.44625">
        <ele>51.849</ele>
        <time>2019-04-30T10:20:27Z</time>
      </trkpt>
      <trkpt lat="43.45692" lon="4.44666">
        <ele>51.678</ele>
        <time>2019-04-30T10:20:38Z</time>
      </trkpt>
      <trkpt lat="43.45703" lon="4.44705">
        <ele>51.318</ele>
        <time>2019-04-30T10:20:49Z</time>
      </trkpt>
      <trkpt lat="43.45712" lon="4.4474">
        <ele>51.159</ele>
        <time>2019-04-30T10:20:59Z</time>
      </trkpt>
      <trkpt lat="43.45719" lon="4.44762">
        <ele>51.047</ele>
        <time>2019-04-30T10:21:10Z</time>
      </trkpt>
      <trkpt lat="43.45719" lon="4.44762">
        <ele>51.048</ele>
        <time>2019-04-30T10:21:20Z</time>
      </trkpt>
      <trkpt lat="43.45719" lon="4.44762">
        <ele>51.035</ele>
        <time>2019-04-30T10:21:31Z</time>
      </trkpt>
      <trkpt lat="43.4572" lon="4.44762">
        <ele>51.024</ele>
        <time>2019-04-30T10:21:42Z</time>
      </trkpt>
      <trkpt lat="43.45724" lon="4.4477">
        <ele>50.859</ele>
        <time>2019-04-30T10:21:52Z</time>
      </trkpt>
      <trkpt lat="43.45731" lon="4.44807">
        <ele>50.14</ele>
        <time>2019-04-30T10:22:03Z</time>
      </trkpt>
      <trkpt lat="43.45736" lon="4.44844">
        <ele>49.379</ele>
        <time>2019-04-30T10:22:14Z</time>
      </trkpt>
      <trkpt lat="43.4575" lon="4.44885">
        <ele>48.885</ele>
        <time>2019-04-30T10:22:24Z</time>
      </trkpt>
      <trkpt lat="43.45758" lon="4.44926">
        <ele>48.647</ele>
        <time>2019-04-30T10:22:35Z</time>
      </trkpt>
      <trkpt lat="43.45769" lon="4.44968">
        <ele>48.377</ele>
        <time>2019-04-30T10:22:46Z</time>
      </trkpt>
      <trkpt lat="43.45778" lon="4.45012">
        <ele>48.156</ele>
        <time>2019-04-30T10:22:57Z</time>
      </trkpt>
      <trkpt lat="43.45786" lon="4.45054">
        <ele>48.044</ele>
        <time>2019-04-30T10:23:08Z</time>
      </trkpt>
      <trkpt lat="43.45794" lon="4.45098">
        <ele>47.916</ele>
        <time>2019-04-30T10:23:19Z</time>
      </trkpt>
      <trkpt lat="43.45804" lon="4.45145">
        <ele>47.731</ele>
        <time>2019-04-30T10:23:30Z</time>
      </trkpt>
      <trkpt lat="43.45813" lon="4.45184">
        <ele>47.631</ele>
        <time>2019-04-30T10:23:40Z</time>
      </trkpt>
      <trkpt lat="43.45825" lon="4.45228">
        <ele>47.458</ele>
        <time>2019-04-30T10:23:51Z</time>
      </trkpt>
      <trkpt lat="43.45836" lon="4.45271">
        <ele>47.417</ele>
        <time>2019-04-30T10:24:01Z</time>
      </trkpt>
      <trkpt lat="43.45846" lon="4.45318">
        <ele>47.333</ele>
        <time>2019-04-30T10:24:12Z</time>
      </trkpt>
      <trkpt lat="43.45859" lon="4.45367">
        <ele>47.892</ele>
        <time>2019-04-30T10:24:23Z</time>
      </trkpt>
      <trkpt lat="43.45868" lon="4.45416">
        <ele>48.571</ele>
        <time>2019-04-30T10:24:34Z</time>
      </trkpt>
      <trkpt lat="43.4588" lon="4.45466">
        <ele>49.156</ele>
        <time>2019-04-30T10:24:45Z</time>
      </trkpt>
      <trkpt lat="43.45892" lon="4.45509">
        <ele>49.223</ele>
        <time>2019-04-30T10:24:55Z</time>
      </trkpt>
      <trkpt lat="43.459" lon="4.45559">
        <ele>49.324</ele>
        <time>2019-04-30T10:25:06Z</time>
      </trkpt>
      <trkpt lat="43.45913" lon="4.45613">
        <ele>50.37</ele>
        <time>2019-04-30T10:25:17Z</time>
      </trkpt>
      <trkpt lat="43.45925" lon="4.45668">
        <ele>51.33</ele>
        <time>2019-04-30T10:25:28Z</time>
      </trkpt>
      <trkpt lat="43.45938" lon="4.45723">
        <ele>51.094</ele>
        <time>2019-04-30T10:25:39Z</time>
      </trkpt>
      <trkpt lat="43.45949" lon="4.45769">
        <ele>50.854</ele>
        <time>2019-04-30T10:25:50Z</time>
      </trkpt>
      <trkpt lat="43.45953" lon="4.45778">
        <ele>51.043</ele>
        <time>2019-04-30T10:26:00Z</time>
      </trkpt>
      <trkpt lat="43.45957" lon="4.45792">
        <ele>51.212</ele>
        <time>2019-04-30T10:26:11Z</time>
      </trkpt>
      <trkpt lat="43.45971" lon="4.45833">
        <ele>51.517</ele>
        <time>2019-04-30T10:26:21Z</time>
      </trkpt>
      <trkpt lat="43.45989" lon="4.45882">
        <ele>52.148</ele>
        <time>2019-04-30T10:26:32Z</time>
      </trkpt>
      <trkpt lat="43.46013" lon="4.4593">
        <ele>52.173</ele>
        <time>2019-04-30T10:26:43Z</time>
      </trkpt>
      <trkpt lat="43.46039" lon="4.45973">
        <ele>52.008</ele>
        <time>2019-04-30T10:26:54Z</time>
      </trkpt>
      <trkpt lat="43.46063" lon="4.46023">
        <ele>51.48</ele>
        <time>2019-04-30T10:27:05Z</time>
      </trkpt>
      <trkpt lat="43.46088" lon="4.46067">
        <ele>53.1</ele>
        <time>2019-04-30T10:27:15Z</time>
      </trkpt>
      <trkpt lat="43.46114" lon="4.46113">
        <ele>53.464</ele>
        <time>2019-04-30T10:27:26Z</time>
      </trkpt>
      <trkpt lat="43.46141" lon="4.46154">
        <ele>53.149</ele>
        <time>2019-04-30T10:27:37Z</time>
      </trkpt>
      <trkpt lat="43.46167" lon="4.46196">
        <ele>52.997</ele>
        <time>2019-04-30T10:27:48Z</time>
      </trkpt>
      <trkpt lat="43.46187" lon="4.46236">
        <ele>52.847</ele>
        <time>2019-04-30T10:27:58Z</time>
      </trkpt>
      <trkpt lat="43.46209" lon="4.46274">
        <ele>52.74</ele>
        <time>2019-04-30T10:28:08Z</time>
      </trkpt>
      <trkpt lat="43.46231" lon="4.46315">
        <ele>52.609</ele>
        <time>2019-04-30T10:28:19Z</time>
      </trkpt>
      <trkpt lat="43.46252" lon="4.46356">
        <ele>52.597</ele>
        <time>2019-04-30T10:28:29Z</time>
      </trkpt>
      <trkpt lat="43.46276" lon="4.46397">
        <ele>52.542</ele>
        <time>2019-04-30T10:28:40Z</time>
      </trkpt>
      <trkpt lat="43.46298" lon="4.46437">
        <ele>52.553</ele>
        <time>2019-04-30T10:28:51Z</time>
      </trkpt>
      <trkpt lat="43.46319" lon="4.46471">
        <ele>52.689</ele>
        <time>2019-04-30T10:29:02Z</time>
      </trkpt>
      <trkpt lat="43.46342" lon="4.4651">
        <ele>52.79</ele>
        <time>2019-04-30T10:29:13Z</time>
      </trkpt>
      <trkpt lat="43.46363" lon="4.46551">
        <ele>52.859</ele>
        <time>2019-04-30T10:29:23Z</time>
      </trkpt>
      <trkpt lat="43.46388" lon="4.46594">
        <ele>52.638</ele>
        <time>2019-04-30T10:29:34Z</time>
      </trkpt>
      <trkpt lat="43.46409" lon="4.46634">
        <ele>52.628</ele>
        <time>2019-04-30T10:29:45Z</time>
      </trkpt>
      <trkpt lat="43.46427" lon="4.46676">
        <ele>52.53</ele>
        <time>2019-04-30T10:29:56Z</time>
      </trkpt>
      <trkpt lat="43.46444" lon="4.46722">
        <ele>52.497</ele>
        <time>2019-04-30T10:30:07Z</time>
      </trkpt>
      <trkpt lat="43.46458" lon="4.46775">
        <ele>52.475</ele>
        <time>2019-04-30T10:30:18Z</time>
      </trkpt>
      <trkpt lat="43.46468" lon="4.46829">
        <ele>52.432</ele>
        <time>2019-04-30T10:30:29Z</time>
      </trkpt>
      <trkpt lat="43.46476" lon="4.46877">
        <ele>52.63</ele>
        <time>2019-04-30T10:30:39Z</time>
      </trkpt>
      <trkpt lat="43.46479" lon="4.46932">
        <ele>52.631</ele>
        <time>2019-04-30T10:30:50Z</time>
      </trkpt>
      <trkpt lat="43.4648" lon="4.46962">
        <ele>52.843</ele>
        <time>2019-04-30T10:31:00Z</time>
      </trkpt>
      <trkpt lat="43.4648" lon="4.46962">
        <ele>52.836</ele>
        <time>2019-04-30T10:31:11Z</time>
      </trkpt>
      <trkpt lat="43.4648" lon="4.46962">
        <ele>52.834</ele>
        <time>2019-04-30T10:31:22Z</time>
      </trkpt>
      <trkpt lat="43.46479" lon="4.46962">
        <ele>52.838</ele>
        <time>2019-04-30T10:31:33Z</time>
      </trkpt>
      <trkpt lat="43.46479" lon="4.46962">
        <ele>52.845</ele>
        <time>2019-04-30T10:31:44Z</time>
      </trkpt>
      <trkpt lat="43.46479" lon="4.46962">
        <ele>52.853</ele>
        <time>2019-04-30T10:31:54Z</time>
      </trkpt>
      <trkpt lat="43.46479" lon="4.46962">
        <ele>52.862</ele>
        <time>2019-04-30T10:32:05Z</time>
      </trkpt>
      <trkpt lat="43.46479" lon="4.46972">
        <ele>52.794</ele>
        <time>2019-04-30T10:32:15Z</time>
      </trkpt>
      <trkpt lat="43.46477" lon="4.47022">
        <ele>52.454</ele>
        <time>2019-04-30T10:32:26Z</time>
      </trkpt>
      <trkpt lat="43.46472" lon="4.47073">
        <ele>50.785</ele>
        <time>2019-04-30T10:32:36Z</time>
      </trkpt>
      <trkpt lat="43.46466" lon="4.47126">
        <ele>50.574</ele>
        <time>2019-04-30T10:32:46Z</time>
      </trkpt>
      <trkpt lat="43.46451" lon="4.47186">
        <ele>50.935</ele>
        <time>2019-04-30T10:32:57Z</time>
      </trkpt>
      <trkpt lat="43.46439" lon="4.47235">
        <ele>50.868</ele>
        <time>2019-04-30T10:33:07Z</time>
      </trkpt>
      <trkpt lat="43.46425" lon="4.4729">
        <ele>52.239</ele>
        <time>2019-04-30T10:33:18Z</time>
      </trkpt>
      <trkpt lat="43.46411" lon="4.47342">
        <ele>51.703</ele>
        <time>2019-04-30T10:33:28Z</time>
      </trkpt>
      <trkpt lat="43.46396" lon="4.47401">
        <ele>51.745</ele>
        <time>2019-04-30T10:33:39Z</time>
      </trkpt>
      <trkpt lat="43.46382" lon="4.47458">
        <ele>51.578</ele>
        <time>2019-04-30T10:33:49Z</time>
      </trkpt>
      <trkpt lat="43.46365" lon="4.47523">
        <ele>53.265</ele>
        <time>2019-04-30T10:34:00Z</time>
      </trkpt>
      <trkpt lat="43.4635" lon="4.47587">
        <ele>53.455</ele>
        <time>2019-04-30T10:34:11Z</time>
      </trkpt>
      <trkpt lat="43.46336" lon="4.47641">
        <ele>53.294</ele>
        <time>2019-04-30T10:34:21Z</time>
      </trkpt>
      <trkpt lat="43.46321" lon="4.47703">
        <ele>52.529</ele>
        <time>2019-04-30T10:34:32Z</time>
      </trkpt>
      <trkpt lat="43.46304" lon="4.47764">
        <ele>51.877</ele>
        <time>2019-04-30T10:34:43Z</time>
      </trkpt>
      <trkpt lat="43.46288" lon="4.47827">
        <ele>52.298</ele>
        <time>2019-04-30T10:34:53Z</time>
      </trkpt>
      <trkpt lat="43.46271" lon="4.47893">
        <ele>51.973</ele>
        <time>2019-04-30T10:35:04Z</time>
      </trkpt>
      <trkpt lat="43.46257" lon="4.47952">
        <ele>51.262</ele>
        <time>2019-04-30T10:35:15Z</time>
      </trkpt>
      <trkpt lat="43.46244" lon="4.48003">
        <ele>51.183</ele>
        <time>2019-04-30T10:35:25Z</time>
      </trkpt>
      <trkpt lat="43.46232" lon="4.48054">
        <ele>49.764</ele>
        <time>2019-04-30T10:35:35Z</time>
      </trkpt>
      <trkpt lat="43.46216" lon="4.48111">
        <ele>49.804</ele>
        <time>2019-04-30T10:35:46Z</time>
      </trkpt>
      <trkpt lat="43.46201" lon="4.48169">
        <ele>50.784</ele>
        <time>2019-04-30T10:35:57Z</time>
      </trkpt>
      <trkpt lat="43.46186" lon="4.48229">
        <ele>51.248</ele>
        <time>2019-04-30T10:36:08Z</time>
      </trkpt>
      <trkpt lat="43.4617" lon="4.48292">
        <ele>51.04</ele>
        <time>2019-04-30T10:36:19Z</time>
      </trkpt>
      <trkpt lat="43.46153" lon="4.48355">
        <ele>49.754</ele>
        <time>2019-04-30T10:36:30Z</time>
      </trkpt>
      <trkpt lat="43.46138" lon="4.48417">
        <ele>48.987</ele>
        <time>2019-04-30T10:36:41Z</time>
      </trkpt>
      <trkpt lat="43.46125" lon="4.48469">
        <ele>48.466</ele>
        <time>2019-04-30T10:36:51Z</time>
      </trkpt>
      <trkpt lat="43.46111" lon="4.48528">
        <ele>51.847</ele>
        <time>2019-04-30T10:37:02Z</time>
      </trkpt>
      <trkpt lat="43.46095" lon="4.48582">
        <ele>50.216</ele>
        <time>2019-04-30T10:37:12Z</time>
      </trkpt>
      <trkpt lat="43.46081" lon="4.48641">
        <ele>48.555</ele>
        <time>2019-04-30T10:37:22Z</time>
      </trkpt>
      <trkpt lat="43.46065" lon="4.48705">
        <ele>48.521</ele>
        <time>2019-04-30T10:37:33Z</time>
      </trkpt>
      <trkpt lat="43.46051" lon="4.4876">
        <ele>48.293</ele>
        <time>2019-04-30T10:37:43Z</time>
      </trkpt>
      <trkpt lat="43.46038" lon="4.48811">
        <ele>48.1</ele>
        <time>2019-04-30T10:37:53Z</time>
      </trkpt>
      <trkpt lat="43.46024" lon="4.4887">
        <ele>47.587</ele>
        <time>2019-04-30T10:38:04Z</time>
      </trkpt>
      <trkpt lat="43.4601" lon="4.48924">
        <ele>47.362</ele>
        <time>2019-04-30T10:38:14Z</time>
      </trkpt>
      <trkpt lat="43.45995" lon="4.48985">
        <ele>47.294</ele>
        <time>2019-04-30T10:38:25Z</time>
      </trkpt>
      <trkpt lat="43.45979" lon="4.49046">
        <ele>47.27</ele>
        <time>2019-04-30T10:38:36Z</time>
      </trkpt>
      <trkpt lat="43.45965" lon="4.49107">
        <ele>47.4</ele>
        <time>2019-04-30T10:38:47Z</time>
      </trkpt>
      <trkpt lat="43.4596" lon="4.49164">
        <ele>47.918</ele>
        <time>2019-04-30T10:38:58Z</time>
      </trkpt>
      <trkpt lat="43.45955" lon="4.49213">
        <ele>49.33</ele>
        <time>2019-04-30T10:39:08Z</time>
      </trkpt>
      <trkpt lat="43.45954" lon="4.49268">
        <ele>51.302</ele>
        <time>2019-04-30T10:39:19Z</time>
      </trkpt>
      <trkpt lat="43.45954" lon="4.49314">
        <ele>51.408</ele>
        <time>2019-04-30T10:39:29Z</time>
      </trkpt>
      <trkpt lat="43.45956" lon="4.49369">
        <ele>51.245</ele>
        <time>2019-04-30T10:39:40Z</time>
      </trkpt>
      <trkpt lat="43.45958" lon="4.49426">
        <ele>52.238</ele>
        <time>2019-04-30T10:39:51Z</time>
      </trkpt>
      <trkpt lat="43.45968" lon="4.49471">
        <ele>52.228</ele>
        <time>2019-04-30T10:40:02Z</time>
      </trkpt>
      <trkpt lat="43.45965" lon="4.4952">
        <ele>52.063</ele>
        <time>2019-04-30T10:40:13Z</time>
      </trkpt>
      <trkpt lat="43.45962" lon="4.49536">
        <ele>52.05</ele>
        <time>2019-04-30T10:40:23Z</time>
      </trkpt>
      <trkpt lat="43.45958" lon="4.49553">
        <ele>51.906</ele>
        <time>2019-04-30T10:40:33Z</time>
      </trkpt>
      <trkpt lat="43.45959" lon="4.49569">
        <ele>51.651</ele>
        <time>2019-04-30T10:40:44Z</time>
      </trkpt>
      <trkpt lat="43.45963" lon="4.49589">
        <ele>51.443</ele>
        <time>2019-04-30T10:40:54Z</time>
      </trkpt>
      <trkpt lat="43.45971" lon="4.49601">
        <ele>51.298</ele>
        <time>2019-04-30T10:41:05Z</time>
      </trkpt>
      <trkpt lat="43.45977" lon="4.4961">
        <ele>51.126</ele>
        <time>2019-04-30T10:41:16Z</time>
      </trkpt>
      <trkpt lat="43.4599" lon="4.49625">
        <ele>50.661</ele>
        <time>2019-04-30T10:41:27Z</time>
      </trkpt>
      <trkpt lat="43.46016" lon="4.49652">
        <ele>50.777</ele>
        <time>2019-04-30T10:41:38Z</time>
      </trkpt>
      <trkpt lat="43.46043" lon="4.49679">
        <ele>50.508</ele>
        <time>2019-04-30T10:41:49Z</time>
      </trkpt>
      <trkpt lat="43.46068" lon="4.49699">
        <ele>50.09</ele>
        <time>2019-04-30T10:42:00Z</time>
      </trkpt>
      <trkpt lat="43.46095" lon="4.49728">
        <ele>49.93</ele>
        <time>2019-04-30T10:42:11Z</time>
      </trkpt>
      <trkpt lat="43.4612" lon="4.49764">
        <ele>50.012</ele>
        <time>2019-04-30T10:42:22Z</time>
      </trkpt>
      <trkpt lat="43.46139" lon="4.49804">
        <ele>50.063</ele>
        <time>2019-04-30T10:42:33Z</time>
      </trkpt>
      <trkpt lat="43.46152" lon="4.49852">
        <ele>50.284</ele>
        <time>2019-04-30T10:42:44Z</time>
      </trkpt>
      <trkpt lat="43.46157" lon="4.49908">
        <ele>51.063</ele>
        <time>2019-04-30T10:42:55Z</time>
      </trkpt>
      <trkpt lat="43.46155" lon="4.4996">
        <ele>51.191</ele>
        <time>2019-04-30T10:43:06Z</time>
      </trkpt>
      <trkpt lat="43.46144" lon="4.50017">
        <ele>51.205</ele>
        <time>2019-04-30T10:43:17Z</time>
      </trkpt>
      <trkpt lat="43.46131" lon="4.50071">
        <ele>51.842</ele>
        <time>2019-04-30T10:43:27Z</time>
      </trkpt>
      <trkpt lat="43.46117" lon="4.50133">
        <ele>52.117</ele>
        <time>2019-04-30T10:43:38Z</time>
      </trkpt>
      <trkpt lat="43.46106" lon="4.50188">
        <ele>50.715</ele>
        <time>2019-04-30T10:43:48Z</time>
      </trkpt>
      <trkpt lat="43.461" lon="4.5025">
        <ele>49.024</ele>
        <time>2019-04-30T10:43:59Z</time>
      </trkpt>
      <trkpt lat="43.46099" lon="4.50309">
        <ele>49.045</ele>
        <time>2019-04-30T10:44:09Z</time>
      </trkpt>
      <trkpt lat="43.46102" lon="4.5037">
        <ele>50.507</ele>
        <time>2019-04-30T10:44:20Z</time>
      </trkpt>
      <trkpt lat="43.4611" lon="4.50425">
        <ele>51.196</ele>
        <time>2019-04-30T10:44:30Z</time>
      </trkpt>
      <trkpt lat="43.46117" lon="4.50485">
        <ele>52.199</ele>
        <time>2019-04-30T10:44:41Z</time>
      </trkpt>
      <trkpt lat="43.46124" lon="4.50544">
        <ele>52.603</ele>
        <time>2019-04-30T10:44:52Z</time>
      </trkpt>
      <trkpt lat="43.46129" lon="4.50594">
        <ele>52.658</ele>
        <time>2019-04-30T10:45:02Z</time>
      </trkpt>
      <trkpt lat="43.46132" lon="4.50621">
        <ele>52.634</ele>
        <time>2019-04-30T10:45:13Z</time>
      </trkpt>
      <trkpt lat="43.46133" lon="4.50638">
        <ele>51.817</ele>
        <time>2019-04-30T10:45:23Z</time>
      </trkpt>
      <trkpt lat="43.46135" lon="4.50653">
        <ele>51.69</ele>
        <time>2019-04-30T10:45:34Z</time>
      </trkpt>
      <trkpt lat="43.46139" lon="4.50671">
        <ele>51.76</ele>
        <time>2019-04-30T10:45:45Z</time>
      </trkpt>
      <trkpt lat="43.46139" lon="4.50682">
        <ele>51.801</ele>
        <time>2019-04-30T10:45:56Z</time>
      </trkpt>
      <trkpt lat="43.46145" lon="4.50721">
        <ele>51.791</ele>
        <time>2019-04-30T10:46:06Z</time>
      </trkpt>
      <trkpt lat="43.46151" lon="4.50764">
        <ele>51.761</ele>
        <time>2019-04-30T10:46:17Z</time>
      </trkpt>
      <trkpt lat="43.46156" lon="4.50798">
        <ele>51.765</ele>
        <time>2019-04-30T10:46:28Z</time>
      </trkpt>
      <trkpt lat="43.46158" lon="4.50841">
        <ele>51.854</ele>
        <time>2019-04-30T10:46:39Z</time>
      </trkpt>
      <trkpt lat="43.46164" lon="4.50886">
        <ele>51.983</ele>
        <time>2019-04-30T10:46:50Z</time>
      </trkpt>
      <trkpt lat="43.4617" lon="4.50931">
        <ele>52.168</ele>
        <time>2019-04-30T10:47:01Z</time>
      </trkpt>
      <trkpt lat="43.46177" lon="4.50982">
        <ele>52.334</ele>
        <time>2019-04-30T10:47:12Z</time>
      </trkpt>
      <trkpt lat="43.46183" lon="4.51035">
        <ele>52.303</ele>
        <time>2019-04-30T10:47:23Z</time>
      </trkpt>
      <trkpt lat="43.46189" lon="4.5109">
        <ele>51.901</ele>
        <time>2019-04-30T10:47:34Z</time>
      </trkpt>
      <trkpt lat="43.46195" lon="4.5114">
        <ele>51.748</ele>
        <time>2019-04-30T10:47:44Z</time>
      </trkpt>
      <trkpt lat="43.46202" lon="4.51195">
        <ele>51.475</ele>
        <time>2019-04-30T10:47:55Z</time>
      </trkpt>
      <trkpt lat="43.46212" lon="4.51245">
        <ele>51.31</ele>
        <time>2019-04-30T10:48:05Z</time>
      </trkpt>
      <trkpt lat="43.46225" lon="4.51303">
        <ele>51.635</ele>
        <time>2019-04-30T10:48:16Z</time>
      </trkpt>
      <trkpt lat="43.4624" lon="4.5135">
        <ele>51.8</ele>
        <time>2019-04-30T10:48:26Z</time>
      </trkpt>
      <trkpt lat="43.4626" lon="4.51398">
        <ele>51.299</ele>
        <time>2019-04-30T10:48:37Z</time>
      </trkpt>
      <trkpt lat="43.46279" lon="4.51444">
        <ele>51.167</ele>
        <time>2019-04-30T10:48:48Z</time>
      </trkpt>
      <trkpt lat="43.46296" lon="4.51491">
        <ele>50.972</ele>
        <time>2019-04-30T10:48:58Z</time>
      </trkpt>
      <trkpt lat="43.46314" lon="4.51535">
        <ele>51.15</ele>
        <time>2019-04-30T10:49:08Z</time>
      </trkpt>
      <trkpt lat="43.46332" lon="4.51585">
        <ele>51.183</ele>
        <time>2019-04-30T10:49:19Z</time>
      </trkpt>
      <trkpt lat="43.4635" lon="4.51636">
        <ele>51.03</ele>
        <time>2019-04-30T10:49:29Z</time>
      </trkpt>
      <trkpt lat="43.46368" lon="4.51684">
        <ele>49.469</ele>
        <time>2019-04-30T10:49:39Z</time>
      </trkpt>
      <trkpt lat="43.46389" lon="4.51736">
        <ele>49.168</ele>
        <time>2019-04-30T10:49:50Z</time>
      </trkpt>
      <trkpt lat="43.46408" lon="4.51789">
        <ele>51.003</ele>
        <time>2019-04-30T10:50:01Z</time>
      </trkpt>
      <trkpt lat="43.46427" lon="4.51839">
        <ele>51.561</ele>
        <time>2019-04-30T10:50:12Z</time>
      </trkpt>
      <trkpt lat="43.46446" lon="4.5189">
        <ele>50.893</ele>
        <time>2019-04-30T10:50:23Z</time>
      </trkpt>
      <trkpt lat="43.46461" lon="4.51938">
        <ele>50.283</ele>
        <time>2019-04-30T10:50:34Z</time>
      </trkpt>
      <trkpt lat="43.46473" lon="4.51992">
        <ele>48.276</ele>
        <time>2019-04-30T10:50:45Z</time>
      </trkpt>
      <trkpt lat="43.4648" lon="4.52046">
        <ele>46.924</ele>
        <time>2019-04-30T10:50:55Z</time>
      </trkpt>
      <trkpt lat="43.46488" lon="4.52106">
        <ele>50.309</ele>
        <time>2019-04-30T10:51:06Z</time>
      </trkpt>
      <trkpt lat="43.46489" lon="4.52166">
        <ele>50.52</ele>
        <time>2019-04-30T10:51:17Z</time>
      </trkpt>
      <trkpt lat="43.46486" lon="4.52221">
        <ele>50.866</ele>
        <time>2019-04-30T10:51:28Z</time>
      </trkpt>
      <trkpt lat="43.46481" lon="4.52274">
        <ele>47.959</ele>
        <time>2019-04-30T10:51:38Z</time>
      </trkpt>
      <trkpt lat="43.46477" lon="4.52335">
        <ele>46.675</ele>
        <time>2019-04-30T10:51:49Z</time>
      </trkpt>
      <trkpt lat="43.46476" lon="4.52349">
        <ele>46.578</ele>
        <time>2019-04-30T10:51:59Z</time>
      </trkpt>
      <trkpt lat="43.46476" lon="4.52349">
        <ele>46.573</ele>
        <time>2019-04-30T10:52:10Z</time>
      </trkpt>
      <trkpt lat="43.46476" lon="4.52349">
        <ele>46.577</ele>
        <time>2019-04-30T10:52:20Z</time>
      </trkpt>
      <trkpt lat="43.46476" lon="4.52349">
        <ele>46.638</ele>
        <time>2019-04-30T10:52:31Z</time>
      </trkpt>
      <trkpt lat="43.46477" lon="4.52349">
        <ele>46.76</ele>
        <time>2019-04-30T10:52:42Z</time>
      </trkpt>
      <trkpt lat="43.46477" lon="4.52349">
        <ele>46.825</ele>
        <time>2019-04-30T10:52:52Z</time>
      </trkpt>
      <trkpt lat="43.46477" lon="4.52348">
        <ele>46.792</ele>
        <time>2019-04-30T10:53:03Z</time>
      </trkpt>
      <trkpt lat="43.46477" lon="4.52369">
        <ele>47.189</ele>
        <time>2019-04-30T10:53:13Z</time>
      </trkpt>
      <trkpt lat="43.46475" lon="4.52418">
        <ele>47.832</ele>
        <time>2019-04-30T10:53:23Z</time>
      </trkpt>
      <trkpt lat="43.46472" lon="4.52476">
        <ele>49.758</ele>
        <time>2019-04-30T10:53:34Z</time>
      </trkpt>
      <trkpt lat="43.46469" lon="4.5252">
        <ele>49.389</ele>
        <time>2019-04-30T10:53:45Z</time>
      </trkpt>
      <trkpt lat="43.46469" lon="4.52519">
        <ele>49.398</ele>
        <time>2019-04-30T10:53:57Z</time>
      </trkpt>
      <trkpt lat="43.46467" lon="4.52521">
        <ele>49.984</ele>
        <time>2019-04-30T10:54:07Z</time>
      </trkpt>
      <trkpt lat="43.46467" lon="4.52521">
        <ele>49.647</ele>
        <time>2019-04-30T10:54:18Z</time>
      </trkpt>
      <trkpt lat="43.46468" lon="4.52519">
        <ele>49.659</ele>
        <time>2019-04-30T10:54:28Z</time>
      </trkpt>
      <trkpt lat="43.46468" lon="4.52519">
        <ele>49.67</ele>
        <time>2019-04-30T10:54:38Z</time>
      </trkpt>
      <trkpt lat="43.46468" lon="4.52519">
        <ele>49.637</ele>
        <time>2019-04-30T10:54:48Z</time>
      </trkpt>
      <trkpt lat="43.46468" lon="4.5252">
        <ele>49.619</ele>
        <time>2019-04-30T10:54:59Z</time>
      </trkpt>
      <trkpt lat="43.46467" lon="4.52524">
        <ele>49.311</ele>
        <time>2019-04-30T10:55:09Z</time>
      </trkpt>
      <trkpt lat="43.46465" lon="4.52568">
        <ele>48.785</ele>
        <time>2019-04-30T10:55:19Z</time>
      </trkpt>
      <trkpt lat="43.46461" lon="4.52623">
        <ele>48.587</ele>
        <time>2019-04-30T10:55:30Z</time>
      </trkpt>
      <trkpt lat="43.46457" lon="4.5268">
        <ele>47.218</ele>
        <time>2019-04-30T10:55:41Z</time>
      </trkpt>
      <trkpt lat="43.46454" lon="4.5274">
        <ele>46.113</ele>
        <time>2019-04-30T10:55:52Z</time>
      </trkpt>
      <trkpt lat="43.4645" lon="4.52794">
        <ele>45.536</ele>
        <time>2019-04-30T10:56:02Z</time>
      </trkpt>
      <trkpt lat="43.46447" lon="4.52852">
        <ele>45.891</ele>
        <time>2019-04-30T10:56:13Z</time>
      </trkpt>
      <trkpt lat="43.46443" lon="4.52908">
        <ele>45.899</ele>
        <time>2019-04-30T10:56:24Z</time>
      </trkpt>
      <trkpt lat="43.4644" lon="4.52962">
        <ele>45.962</ele>
        <time>2019-04-30T10:56:35Z</time>
      </trkpt>
      <trkpt lat="43.46438" lon="4.53012">
        <ele>45.87</ele>
        <time>2019-04-30T10:56:45Z</time>
      </trkpt>
      <trkpt lat="43.46435" lon="4.5307">
        <ele>45.337</ele>
        <time>2019-04-30T10:56:56Z</time>
      </trkpt>
      <trkpt lat="43.46431" lon="4.53126">
        <ele>44.748</ele>
        <time>2019-04-30T10:57:07Z</time>
      </trkpt>
      <trkpt lat="43.46426" lon="4.53182">
        <ele>45.414</ele>
        <time>2019-04-30T10:57:17Z</time>
      </trkpt>
      <trkpt lat="43.46416" lon="4.53244">
        <ele>46.691</ele>
        <time>2019-04-30T10:57:28Z</time>
      </trkpt>
      <trkpt lat="43.46403" lon="4.53301">
        <ele>47.021</ele>
        <time>2019-04-30T10:57:38Z</time>
      </trkpt>
      <trkpt lat="43.46385" lon="4.53362">
        <ele>45.963</ele>
        <time>2019-04-30T10:57:49Z</time>
      </trkpt>
      <trkpt lat="43.46367" lon="4.5342">
        <ele>45.929</ele>
        <time>2019-04-30T10:57:59Z</time>
      </trkpt>
      <trkpt lat="43.46348" lon="4.53485">
        <ele>45.811</ele>
        <time>2019-04-30T10:58:09Z</time>
      </trkpt>
      <trkpt lat="43.46327" lon="4.53558">
        <ele>45.914</ele>
        <time>2019-04-30T10:58:20Z</time>
      </trkpt>
      <trkpt lat="43.46307" lon="4.53629">
        <ele>46.337</ele>
        <time>2019-04-30T10:58:31Z</time>
      </trkpt>
      <trkpt lat="43.46287" lon="4.53694">
        <ele>47.47</ele>
        <time>2019-04-30T10:58:41Z</time>
      </trkpt>
      <trkpt lat="43.46267" lon="4.53768">
        <ele>48.008</ele>
        <time>2019-04-30T10:58:52Z</time>
      </trkpt>
      <trkpt lat="43.46244" lon="4.53836">
        <ele>48.019</ele>
        <time>2019-04-30T10:59:03Z</time>
      </trkpt>
      <trkpt lat="43.46213" lon="4.53899">
        <ele>47.325</ele>
        <time>2019-04-30T10:59:14Z</time>
      </trkpt>
      <trkpt lat="43.46178" lon="4.53961">
        <ele>47.252</ele>
        <time>2019-04-30T10:59:25Z</time>
      </trkpt>
      <trkpt lat="43.46145" lon="4.54021">
        <ele>47.19</ele>
        <time>2019-04-30T10:59:35Z</time>
      </trkpt>
      <trkpt lat="43.46112" lon="4.54079">
        <ele>46.742</ele>
        <time>2019-04-30T10:59:45Z</time>
      </trkpt>
      <trkpt lat="43.46078" lon="4.54139">
        <ele>47.493</ele>
        <time>2019-04-30T10:59:56Z</time>
      </trkpt>
      <trkpt lat="43.46045" lon="4.54199">
        <ele>50.293</ele>
        <time>2019-04-30T11:00:07Z</time>
      </trkpt>
      <trkpt lat="43.4601" lon="4.5426">
        <ele>50.316</ele>
        <time>2019-04-30T11:00:18Z</time>
      </trkpt>
      <trkpt lat="43.45978" lon="4.54318">
        <ele>50.27</ele>
        <time>2019-04-30T11:00:29Z</time>
      </trkpt>
      <trkpt lat="43.45949" lon="4.54369">
        <ele>50.275</ele>
        <time>2019-04-30T11:00:39Z</time>
      </trkpt>
      <trkpt lat="43.45917" lon="4.54424">
        <ele>50.632</ele>
        <time>2019-04-30T11:00:50Z</time>
      </trkpt>
      <trkpt lat="43.45888" lon="4.54477">
        <ele>50.718</ele>
        <time>2019-04-30T11:01:00Z</time>
      </trkpt>
      <trkpt lat="43.45858" lon="4.5454">
        <ele>48.932</ele>
        <time>2019-04-30T11:01:11Z</time>
      </trkpt>
      <trkpt lat="43.45834" lon="4.54606">
        <ele>48.573</ele>
        <time>2019-04-30T11:01:22Z</time>
      </trkpt>
      <trkpt lat="43.45818" lon="4.54667">
        <ele>48.239</ele>
        <time>2019-04-30T11:01:33Z</time>
      </trkpt>
      <trkpt lat="43.4581" lon="4.54713">
        <ele>48.16</ele>
        <time>2019-04-30T11:01:43Z</time>
      </trkpt>
      <trkpt lat="43.45801" lon="4.54774">
        <ele>48.779</ele>
        <time>2019-04-30T11:01:54Z</time>
      </trkpt>
      <trkpt lat="43.45797" lon="4.54835">
        <ele>48.771</ele>
        <time>2019-04-30T11:02:05Z</time>
      </trkpt>
      <trkpt lat="43.45798" lon="4.5489">
        <ele>48.394</ele>
        <time>2019-04-30T11:02:15Z</time>
      </trkpt>
      <trkpt lat="43.45797" lon="4.5495">
        <ele>48.335</ele>
        <time>2019-04-30T11:02:26Z</time>
      </trkpt>
      <trkpt lat="43.45798" lon="4.55008">
        <ele>48.373</ele>
        <time>2019-04-30T11:02:37Z</time>
      </trkpt>
      <trkpt lat="43.45798" lon="4.55061">
        <ele>47.875</ele>
        <time>2019-04-30T11:02:47Z</time>
      </trkpt>
      <trkpt lat="43.45799" lon="4.55123">
        <ele>47.318</ele>
        <time>2019-04-30T11:02:58Z</time>
      </trkpt>
      <trkpt lat="43.45798" lon="4.55178">
        <ele>47.305</ele>
        <time>2019-04-30T11:03:08Z</time>
      </trkpt>
      <trkpt lat="43.45794" lon="4.55238">
        <ele>47.191</ele>
        <time>2019-04-30T11:03:19Z</time>
      </trkpt>
      <trkpt lat="43.45788" lon="4.55292">
        <ele>47.75</ele>
        <time>2019-04-30T11:03:29Z</time>
      </trkpt>
      <trkpt lat="43.45774" lon="4.55353">
        <ele>48.369</ele>
        <time>2019-04-30T11:03:40Z</time>
      </trkpt>
      <trkpt lat="43.45759" lon="4.55407">
        <ele>47.855</ele>
        <time>2019-04-30T11:03:50Z</time>
      </trkpt>
      <trkpt lat="43.45743" lon="4.55468">
        <ele>47.705</ele>
        <time>2019-04-30T11:04:01Z</time>
      </trkpt>
      <trkpt lat="43.45727" lon="4.55528">
        <ele>48.888</ele>
        <time>2019-04-30T11:04:12Z</time>
      </trkpt>
      <trkpt lat="43.45711" lon="4.55584">
        <ele>50.21</ele>
        <time>2019-04-30T11:04:23Z</time>
      </trkpt>
      <trkpt lat="43.45695" lon="4.55642">
        <ele>50.358</ele>
        <time>2019-04-30T11:04:34Z</time>
      </trkpt>
      <trkpt lat="43.45678" lon="4.55696">
        <ele>51.824</ele>
        <time>2019-04-30T11:04:44Z</time>
      </trkpt>
      <trkpt lat="43.45661" lon="4.55755">
        <ele>51.817</ele>
        <time>2019-04-30T11:04:55Z</time>
      </trkpt>
      <trkpt lat="43.45645" lon="4.55814">
        <ele>51.215</ele>
        <time>2019-04-30T11:05:06Z</time>
      </trkpt>
      <trkpt lat="43.45632" lon="4.55866">
        <ele>50.45</ele>
        <time>2019-04-30T11:05:16Z</time>
      </trkpt>
      <trkpt lat="43.45617" lon="4.55925">
        <ele>49.797</ele>
        <time>2019-04-30T11:05:27Z</time>
      </trkpt>
      <trkpt lat="43.456" lon="4.55974">
        <ele>50.199</ele>
        <time>2019-04-30T11:05:37Z</time>
      </trkpt>
      <trkpt lat="43.45584" lon="4.5603">
        <ele>50.506</ele>
        <time>2019-04-30T11:05:48Z</time>
      </trkpt>
      <trkpt lat="43.45569" lon="4.56084">
        <ele>49.99</ele>
        <time>2019-04-30T11:05:58Z</time>
      </trkpt>
      <trkpt lat="43.45552" lon="4.56143">
        <ele>49.963</ele>
        <time>2019-04-30T11:06:09Z</time>
      </trkpt>
      <trkpt lat="43.45536" lon="4.56204">
        <ele>49.625</ele>
        <time>2019-04-30T11:06:20Z</time>
      </trkpt>
      <trkpt lat="43.4552" lon="4.56261">
        <ele>49.67</ele>
        <time>2019-04-30T11:06:31Z</time>
      </trkpt>
      <trkpt lat="43.45505" lon="4.56318">
        <ele>49.22</ele>
        <time>2019-04-30T11:06:42Z</time>
      </trkpt>
      <trkpt lat="43.45494" lon="4.56376">
        <ele>48.808</ele>
        <time>2019-04-30T11:06:53Z</time>
      </trkpt>
      <trkpt lat="43.45487" lon="4.56432">
        <ele>47.729</ele>
        <time>2019-04-30T11:07:04Z</time>
      </trkpt>
      <trkpt lat="43.45484" lon="4.56489">
        <ele>43.877</ele>
        <time>2019-04-30T11:07:15Z</time>
      </trkpt>
      <trkpt lat="43.45481" lon="4.5655">
        <ele>43.277</ele>
        <time>2019-04-30T11:07:26Z</time>
      </trkpt>
      <trkpt lat="43.45479" lon="4.56608">
        <ele>43.492</ele>
        <time>2019-04-30T11:07:37Z</time>
      </trkpt>
      <trkpt lat="43.45476" lon="4.56669">
        <ele>42.148</ele>
        <time>2019-04-30T11:07:48Z</time>
      </trkpt>
      <trkpt lat="43.45474" lon="4.56728">
        <ele>45.552</ele>
        <time>2019-04-30T11:07:58Z</time>
      </trkpt>
      <trkpt lat="43.45472" lon="4.56791">
        <ele>48</ele>
        <time>2019-04-30T11:08:09Z</time>
      </trkpt>
      <trkpt lat="43.45469" lon="4.56854">
        <ele>47.599</ele>
        <time>2019-04-30T11:08:20Z</time>
      </trkpt>
      <trkpt lat="43.45466" lon="4.56906">
        <ele>43.082</ele>
        <time>2019-04-30T11:08:30Z</time>
      </trkpt>
      <trkpt lat="43.45464" lon="4.56964">
        <ele>41.86</ele>
        <time>2019-04-30T11:08:41Z</time>
      </trkpt>
      <trkpt lat="43.45463" lon="4.57006">
        <ele>42.318</ele>
        <time>2019-04-30T11:08:51Z</time>
      </trkpt>
      <trkpt lat="43.45463" lon="4.57011">
        <ele>42.391</ele>
        <time>2019-04-30T11:09:02Z</time>
      </trkpt>
      <trkpt lat="43.45463" lon="4.57011">
        <ele>42.418</ele>
        <time>2019-04-30T11:09:13Z</time>
      </trkpt>
      <trkpt lat="43.4546" lon="4.57019">
        <ele>42.855</ele>
        <time>2019-04-30T11:09:23Z</time>
      </trkpt>
      <trkpt lat="43.4546" lon="4.57019">
        <ele>42.897</ele>
        <time>2019-04-30T11:09:33Z</time>
      </trkpt>
      <trkpt lat="43.4546" lon="4.57019">
        <ele>42.996</ele>
        <time>2019-04-30T11:09:43Z</time>
      </trkpt>
      <trkpt lat="43.4546" lon="4.57019">
        <ele>43.087</ele>
        <time>2019-04-30T11:09:53Z</time>
      </trkpt>
      <trkpt lat="43.45461" lon="4.57019">
        <ele>43.175</ele>
        <time>2019-04-30T11:10:04Z</time>
      </trkpt>
      <trkpt lat="43.45461" lon="4.57019">
        <ele>43.257</ele>
        <time>2019-04-30T11:10:15Z</time>
      </trkpt>
      <trkpt lat="43.45461" lon="4.57019">
        <ele>43.343</ele>
        <time>2019-04-30T11:10:26Z</time>
      </trkpt>
      <trkpt lat="43.45461" lon="4.57019">
        <ele>43.441</ele>
        <time>2019-04-30T11:10:36Z</time>
      </trkpt>
      <trkpt lat="43.45461" lon="4.57019">
        <ele>43.561</ele>
        <time>2019-04-30T11:10:47Z</time>
      </trkpt>
      <trkpt lat="43.45461" lon="4.57019">
        <ele>43.671</ele>
        <time>2019-04-30T11:10:57Z</time>
      </trkpt>
      <trkpt lat="43.45461" lon="4.57019">
        <ele>43.786</ele>
        <time>2019-04-30T11:11:08Z</time>
      </trkpt>
      <trkpt lat="43.45461" lon="4.57019">
        <ele>43.89</ele>
        <time>2019-04-30T11:11:19Z</time>
      </trkpt>
      <trkpt lat="43.45461" lon="4.57019">
        <ele>43.992</ele>
        <time>2019-04-30T11:11:29Z</time>
      </trkpt>
      <trkpt lat="43.45461" lon="4.57019">
        <ele>44.102</ele>
        <time>2019-04-30T11:11:40Z</time>
      </trkpt>
      <trkpt lat="43.45461" lon="4.57019">
        <ele>44.202</ele>
        <time>2019-04-30T11:11:51Z</time>
      </trkpt>
      <trkpt lat="43.45461" lon="4.57019">
        <ele>44.287</ele>
        <time>2019-04-30T11:12:01Z</time>
      </trkpt>
      <trkpt lat="43.45461" lon="4.57019">
        <ele>44.382</ele>
        <time>2019-04-30T11:12:12Z</time>
      </trkpt>
      <trkpt lat="43.45461" lon="4.57019">
        <ele>44.463</ele>
        <time>2019-04-30T11:12:22Z</time>
      </trkpt>
      <trkpt lat="43.45461" lon="4.57019">
        <ele>44.557</ele>
        <time>2019-04-30T11:12:33Z</time>
      </trkpt>
      <trkpt lat="43.45461" lon="4.57019">
        <ele>44.625</ele>
        <time>2019-04-30T11:12:43Z</time>
      </trkpt>
      <trkpt lat="43.45461" lon="4.57019">
        <ele>44.7</ele>
        <time>2019-04-30T11:12:54Z</time>
      </trkpt>
      <trkpt lat="43.45461" lon="4.57019">
        <ele>44.755</ele>
        <time>2019-04-30T11:13:05Z</time>
      </trkpt>
      <trkpt lat="43.45461" lon="4.57019">
        <ele>44.786</ele>
        <time>2019-04-30T11:13:15Z</time>
      </trkpt>
      <trkpt lat="43.45461" lon="4.57019">
        <ele>44.806</ele>
        <time>2019-04-30T11:13:26Z</time>
      </trkpt>
      <trkpt lat="43.45461" lon="4.57019">
        <ele>44.826</ele>
        <time>2019-04-30T11:13:36Z</time>
      </trkpt>
      <trkpt lat="43.45461" lon="4.57019">
        <ele>44.854</ele>
        <time>2019-04-30T11:13:46Z</time>
      </trkpt>
      <trkpt lat="43.45462" lon="4.57023">
        <ele>45.014</ele>
        <time>2019-04-30T11:13:57Z</time>
      </trkpt>
      <trkpt lat="43.45461" lon="4.57021">
        <ele>45.016</ele>
        <time>2019-04-30T11:14:08Z</time>
      </trkpt>
      <trkpt lat="43.45461" lon="4.57025">
        <ele>45.834</ele>
        <time>2019-04-30T11:14:18Z</time>
      </trkpt>
      <trkpt lat="43.45461" lon="4.57039">
        <ele>46.203</ele>
        <time>2019-04-30T11:14:29Z</time>
      </trkpt>
      <trkpt lat="43.45461" lon="4.57077">
        <ele>46.867</ele>
        <time>2019-04-30T11:14:40Z</time>
      </trkpt>
      <trkpt lat="43.45459" lon="4.57126">
        <ele>47.417</ele>
        <time>2019-04-30T11:14:51Z</time>
      </trkpt>
      <trkpt lat="43.45456" lon="4.57178">
        <ele>47.787</ele>
        <time>2019-04-30T11:15:02Z</time>
      </trkpt>
      <trkpt lat="43.45453" lon="4.57232">
        <ele>46.387</ele>
        <time>2019-04-30T11:15:13Z</time>
      </trkpt>
      <trkpt lat="43.45451" lon="4.5729">
        <ele>46.632</ele>
        <time>2019-04-30T11:15:24Z</time>
      </trkpt>
      <trkpt lat="43.45449" lon="4.57341">
        <ele>48.516</ele>
        <time>2019-04-30T11:15:34Z</time>
      </trkpt>
      <trkpt lat="43.45447" lon="4.57392">
        <ele>48.502</ele>
        <time>2019-04-30T11:15:44Z</time>
      </trkpt>
      <trkpt lat="43.45444" lon="4.57448">
        <ele>47.982</ele>
        <time>2019-04-30T11:15:55Z</time>
      </trkpt>
      <trkpt lat="43.45442" lon="4.57498">
        <ele>47.386</ele>
        <time>2019-04-30T11:16:05Z</time>
      </trkpt>
      <trkpt lat="43.4544" lon="4.57552">
        <ele>47.271</ele>
        <time>2019-04-30T11:16:16Z</time>
      </trkpt>
      <trkpt lat="43.45438" lon="4.57604">
        <ele>47.394</ele>
        <time>2019-04-30T11:16:26Z</time>
      </trkpt>
      <trkpt lat="43.45436" lon="4.57655">
        <ele>47.376</ele>
        <time>2019-04-30T11:16:36Z</time>
      </trkpt>
      <trkpt lat="43.45432" lon="4.5771">
        <ele>46.185</ele>
        <time>2019-04-30T11:16:47Z</time>
      </trkpt>
      <trkpt lat="43.4543" lon="4.57767">
        <ele>42.803</ele>
        <time>2019-04-30T11:16:58Z</time>
      </trkpt>
      <trkpt lat="43.45428" lon="4.57825">
        <ele>41.113</ele>
        <time>2019-04-30T11:17:09Z</time>
      </trkpt>
      <trkpt lat="43.45426" lon="4.57877">
        <ele>41.294</ele>
        <time>2019-04-30T11:17:19Z</time>
      </trkpt>
      <trkpt lat="43.45424" lon="4.57933">
        <ele>42.875</ele>
        <time>2019-04-30T11:17:30Z</time>
      </trkpt>
      <trkpt lat="43.45422" lon="4.57989">
        <ele>44.291</ele>
        <time>2019-04-30T11:17:41Z</time>
      </trkpt>
      <trkpt lat="43.45421" lon="4.5804">
        <ele>46.684</ele>
        <time>2019-04-30T11:17:51Z</time>
      </trkpt>
      <trkpt lat="43.45418" lon="4.58092">
        <ele>46.514</ele>
        <time>2019-04-30T11:18:01Z</time>
      </trkpt>
      <trkpt lat="43.45415" lon="4.58151">
        <ele>47.685</ele>
        <time>2019-04-30T11:18:12Z</time>
      </trkpt>
      <trkpt lat="43.45412" lon="4.58207">
        <ele>46.608</ele>
        <time>2019-04-30T11:18:22Z</time>
      </trkpt>
      <trkpt lat="43.45411" lon="4.5827">
        <ele>46.883</ele>
        <time>2019-04-30T11:18:33Z</time>
      </trkpt>
      <trkpt lat="43.45409" lon="4.58332">
        <ele>47.111</ele>
        <time>2019-04-30T11:18:44Z</time>
      </trkpt>
      <trkpt lat="43.45409" lon="4.58371">
        <ele>47.177</ele>
        <time>2019-04-30T11:18:54Z</time>
      </trkpt>
      <trkpt lat="43.45404" lon="4.584">
        <ele>47.489</ele>
        <time>2019-04-30T11:19:05Z</time>
      </trkpt>
      <trkpt lat="43.45404" lon="4.584">
        <ele>47.537</ele>
        <time>2019-04-30T11:19:16Z</time>
      </trkpt>
      <trkpt lat="43.45404" lon="4.584">
        <ele>47.575</ele>
        <time>2019-04-30T11:19:27Z</time>
      </trkpt>
      <trkpt lat="43.45404" lon="4.58401">
        <ele>47.586</ele>
        <time>2019-04-30T11:19:38Z</time>
      </trkpt>
      <trkpt lat="43.45404" lon="4.58401">
        <ele>47.578</ele>
        <time>2019-04-30T11:19:48Z</time>
      </trkpt>
      <trkpt lat="43.45401" lon="4.58404">
        <ele>47.472</ele>
        <time>2019-04-30T11:19:59Z</time>
      </trkpt>
      <trkpt lat="43.45381" lon="4.58406">
        <ele>47.195</ele>
        <time>2019-04-30T11:20:10Z</time>
      </trkpt>
      <trkpt lat="43.45359" lon="4.58409">
        <ele>47.084</ele>
        <time>2019-04-30T11:20:20Z</time>
      </trkpt>
      <trkpt lat="43.45338" lon="4.5841">
        <ele>46.938</ele>
        <time>2019-04-30T11:20:30Z</time>
      </trkpt>
      <trkpt lat="43.45328" lon="4.58411">
        <ele>46.901</ele>
        <time>2019-04-30T11:20:41Z</time>
      </trkpt>
      <trkpt lat="43.45328" lon="4.58411">
        <ele>46.869</ele>
        <time>2019-04-30T11:20:52Z</time>
      </trkpt>
      <trkpt lat="43.4533" lon="4.58411">
        <ele>46.84</ele>
        <time>2019-04-30T11:21:03Z</time>
      </trkpt>
      <trkpt lat="43.45331" lon="4.58412">
        <ele>46.873</ele>
        <time>2019-04-30T11:21:13Z</time>
      </trkpt>
      <trkpt lat="43.4533" lon="4.58411">
        <ele>46.741</ele>
        <time>2019-04-30T11:21:23Z</time>
      </trkpt>
      <trkpt lat="43.45329" lon="4.58411">
        <ele>46.682</ele>
        <time>2019-04-30T11:21:33Z</time>
      </trkpt>
      <trkpt lat="43.45331" lon="4.58418">
        <ele>46.531</ele>
        <time>2019-04-30T11:21:44Z</time>
      </trkpt>
      <trkpt lat="43.45331" lon="4.58418">
        <ele>46.383</ele>
        <time>2019-04-30T11:21:54Z</time>
      </trkpt>
      <trkpt lat="43.4533" lon="4.58419">
        <ele>46.205</ele>
        <time>2019-04-30T11:22:05Z</time>
      </trkpt>
      <trkpt lat="43.4533" lon="4.58419">
        <ele>46.192</ele>
        <time>2019-04-30T11:22:16Z</time>
      </trkpt>
      <trkpt lat="43.4533" lon="4.58419">
        <ele>46.235</ele>
        <time>2019-04-30T11:22:26Z</time>
      </trkpt>
      <trkpt lat="43.4533" lon="4.58419">
        <ele>46.257</ele>
        <time>2019-04-30T11:22:36Z</time>
      </trkpt>
      <trkpt lat="43.4533" lon="4.58419">
        <ele>46.249</ele>
        <time>2019-04-30T11:22:47Z</time>
      </trkpt>
      <trkpt lat="43.4533" lon="4.58419">
        <ele>46.248</ele>
        <time>2019-04-30T11:22:57Z</time>
      </trkpt>
      <trkpt lat="43.4533" lon="4.58419">
        <ele>46.222</ele>
        <time>2019-04-30T11:23:08Z</time>
      </trkpt>
      <trkpt lat="43.4533" lon="4.58419">
        <ele>46.212</ele>
        <time>2019-04-30T11:23:19Z</time>
      </trkpt>
      <trkpt lat="43.4533" lon="4.58419">
        <ele>46.183</ele>
        <time>2019-04-30T11:23:30Z</time>
      </trkpt>
      <trkpt lat="43.4533" lon="4.58419">
        <ele>46.159</ele>
        <time>2019-04-30T11:23:41Z</time>
      </trkpt>
      <trkpt lat="43.4533" lon="4.58419">
        <ele>46.144</ele>
        <time>2019-04-30T11:23:51Z</time>
      </trkpt>
      <trkpt lat="43.4533" lon="4.58419">
        <ele>46.128</ele>
        <time>2019-04-30T11:24:02Z</time>
      </trkpt>
      <trkpt lat="43.4533" lon="4.58419">
        <ele>46.114</ele>
        <time>2019-04-30T11:24:13Z</time>
      </trkpt>
      <trkpt lat="43.4533" lon="4.58419">
        <ele>46.097</ele>
        <time>2019-04-30T11:24:23Z</time>
      </trkpt>
      <trkpt lat="43.4533" lon="4.58419">
        <ele>46.076</ele>
        <time>2019-04-30T11:24:34Z</time>
      </trkpt>
      <trkpt lat="43.4533" lon="4.58419">
        <ele>46.053</ele>
        <time>2019-04-30T11:24:45Z</time>
      </trkpt>
      <trkpt lat="43.4533" lon="4.58419">
        <ele>46.02</ele>
        <time>2019-04-30T11:24:55Z</time>
      </trkpt>
      <trkpt lat="43.4533" lon="4.58419">
        <ele>45.991</ele>
        <time>2019-04-30T11:25:06Z</time>
      </trkpt>
      <trkpt lat="43.4533" lon="4.58419">
        <ele>45.977</ele>
        <time>2019-04-30T11:25:17Z</time>
      </trkpt>
      <trkpt lat="43.4533" lon="4.58419">
        <ele>45.972</ele>
        <time>2019-04-30T11:25:28Z</time>
      </trkpt>
      <trkpt lat="43.4533" lon="4.58419">
        <ele>45.965</ele>
        <time>2019-04-30T11:25:39Z</time>
      </trkpt>
      <trkpt lat="43.4533" lon="4.58419">
        <ele>45.958</ele>
        <time>2019-04-30T11:25:50Z</time>
      </trkpt>
      <trkpt lat="43.4533" lon="4.58419">
        <ele>45.95</ele>
        <time>2019-04-30T11:26:00Z</time>
      </trkpt>
      <trkpt lat="43.4533" lon="4.58419">
        <ele>45.944</ele>
        <time>2019-04-30T11:26:10Z</time>
      </trkpt>
      <trkpt lat="43.4533" lon="4.58419">
        <ele>45.934</ele>
        <time>2019-04-30T11:26:21Z</time>
      </trkpt>
      <trkpt lat="43.4533" lon="4.58419">
        <ele>45.923</ele>
        <time>2019-04-30T11:26:31Z</time>
      </trkpt>
      <trkpt lat="43.4533" lon="4.58419">
        <ele>45.914</ele>
        <time>2019-04-30T11:26:41Z</time>
      </trkpt>
      <trkpt lat="43.4533" lon="4.58419">
        <ele>45.906</ele>
        <time>2019-04-30T11:26:52Z</time>
      </trkpt>
      <trkpt lat="43.4533" lon="4.58419">
        <ele>45.887</ele>
        <time>2019-04-30T11:27:03Z</time>
      </trkpt>
      <trkpt lat="43.4533" lon="4.58419">
        <ele>45.872</ele>
        <time>2019-04-30T11:27:14Z</time>
      </trkpt>
      <trkpt lat="43.4533" lon="4.58419">
        <ele>45.86</ele>
        <time>2019-04-30T11:27:24Z</time>
      </trkpt>
      <trkpt lat="43.4533" lon="4.58419">
        <ele>45.847</ele>
        <time>2019-04-30T11:27:35Z</time>
      </trkpt>
      <trkpt lat="43.4533" lon="4.58419">
        <ele>45.83</ele>
        <time>2019-04-30T11:27:45Z</time>
      </trkpt>
      <trkpt lat="43.4533" lon="4.58419">
        <ele>45.82</ele>
        <time>2019-04-30T11:27:56Z</time>
      </trkpt>
      <trkpt lat="43.4533" lon="4.58418">
        <ele>45.79</ele>
        <time>2019-04-30T11:28:07Z</time>
      </trkpt>
      <trkpt lat="43.4533" lon="4.58418">
        <ele>45.77</ele>
        <time>2019-04-30T11:28:18Z</time>
      </trkpt>
      <trkpt lat="43.4533" lon="4.58418">
        <ele>45.767</ele>
        <time>2019-04-30T11:28:29Z</time>
      </trkpt>
      <trkpt lat="43.4533" lon="4.58418">
        <ele>45.723</ele>
        <time>2019-04-30T11:28:39Z</time>
      </trkpt>
      <trkpt lat="43.4533" lon="4.58418">
        <ele>45.696</ele>
        <time>2019-04-30T11:28:49Z</time>
      </trkpt>
      <trkpt lat="43.4533" lon="4.58418">
        <ele>45.685</ele>
        <time>2019-04-30T11:29:00Z</time>
      </trkpt>
      <trkpt lat="43.4533" lon="4.58419">
        <ele>45.682</ele>
        <time>2019-04-30T11:29:11Z</time>
      </trkpt>
      <trkpt lat="43.4533" lon="4.58418">
        <ele>45.675</ele>
        <time>2019-04-30T11:29:22Z</time>
      </trkpt>
      <trkpt lat="43.4533" lon="4.58418">
        <ele>45.65</ele>
        <time>2019-04-30T11:29:33Z</time>
      </trkpt>
      <trkpt lat="43.4533" lon="4.58418">
        <ele>45.629</ele>
        <time>2019-04-30T11:29:44Z</time>
      </trkpt>
      <trkpt lat="43.4533" lon="4.58418">
        <ele>45.63</ele>
        <time>2019-04-30T11:29:55Z</time>
      </trkpt>
      <trkpt lat="43.4533" lon="4.58418">
        <ele>45.629</ele>
        <time>2019-04-30T11:30:05Z</time>
      </trkpt>
      <trkpt lat="43.4533" lon="4.58419">
        <ele>45.641</ele>
        <time>2019-04-30T11:30:16Z</time>
      </trkpt>
      <trkpt lat="43.4533" lon="4.58419">
        <ele>45.66</ele>
        <time>2019-04-30T11:30:27Z</time>
      </trkpt>
      <trkpt lat="43.4533" lon="4.58419">
        <ele>45.675</ele>
        <time>2019-04-30T11:30:38Z</time>
      </trkpt>
      <trkpt lat="43.4533" lon="4.58419">
        <ele>45.689</ele>
        <time>2019-04-30T11:30:49Z</time>
      </trkpt>
      <trkpt lat="43.4533" lon="4.58419">
        <ele>45.707</ele>
        <time>2019-04-30T11:31:00Z</time>
      </trkpt>
      <trkpt lat="43.4533" lon="4.58419">
        <ele>45.723</ele>
        <time>2019-04-30T11:31:11Z</time>
      </trkpt>
      <trkpt lat="43.4533" lon="4.58419">
        <ele>45.728</ele>
        <time>2019-04-30T11:31:22Z</time>
      </trkpt>
      <trkpt lat="43.4533" lon="4.58419">
        <ele>45.721</ele>
        <time>2019-04-30T11:31:32Z</time>
      </trkpt>
      <trkpt lat="43.4533" lon="4.58419">
        <ele>45.705</ele>
        <time>2019-04-30T11:31:43Z</time>
      </trkpt>
      <trkpt lat="43.4533" lon="4.58419">
        <ele>45.689</ele>
        <time>2019-04-30T11:31:53Z</time>
      </trkpt>
      <trkpt lat="43.4533" lon="4.58419">
        <ele>45.675</ele>
        <time>2019-04-30T11:32:04Z</time>
      </trkpt>
      <trkpt lat="43.4533" lon="4.58419">
        <ele>45.663</ele>
        <time>2019-04-30T11:32:14Z</time>
      </trkpt>
      <trkpt lat="43.4533" lon="4.58419">
        <ele>45.654</ele>
        <time>2019-04-30T11:32:25Z</time>
      </trkpt>
      <trkpt lat="43.4533" lon="4.58418">
        <ele>45.645</ele>
        <time>2019-04-30T11:32:35Z</time>
      </trkpt>
      <trkpt lat="43.4533" lon="4.58418">
        <ele>45.636</ele>
        <time>2019-04-30T11:32:46Z</time>
      </trkpt>
      <trkpt lat="43.4533" lon="4.58418">
        <ele>45.629</ele>
        <time>2019-04-30T11:32:57Z</time>
      </trkpt>
      <trkpt lat="43.4533" lon="4.58418">
        <ele>45.617</ele>
        <time>2019-04-30T11:33:08Z</time>
      </trkpt>
      <trkpt lat="43.4533" lon="4.58418">
        <ele>45.605</ele>
        <time>2019-04-30T11:33:19Z</time>
      </trkpt>
      <trkpt lat="43.4533" lon="4.58418">
        <ele>45.581</ele>
        <time>2019-04-30T11:33:30Z</time>
      </trkpt>
      <trkpt lat="43.4533" lon="4.58418">
        <ele>45.558</ele>
        <time>2019-04-30T11:33:41Z</time>
      </trkpt>
      <trkpt lat="43.4533" lon="4.58418">
        <ele>45.544</ele>
        <time>2019-04-30T11:33:51Z</time>
      </trkpt>
      <trkpt lat="43.4533" lon="4.58418">
        <ele>45.53</ele>
        <time>2019-04-30T11:34:02Z</time>
      </trkpt>
      <trkpt lat="43.4533" lon="4.58418">
        <ele>45.514</ele>
        <time>2019-04-30T11:34:13Z</time>
      </trkpt>
      <trkpt lat="43.4533" lon="4.58418">
        <ele>45.496</ele>
        <time>2019-04-30T11:34:23Z</time>
      </trkpt>
      <trkpt lat="43.4533" lon="4.58418">
        <ele>45.477</ele>
        <time>2019-04-30T11:34:33Z</time>
      </trkpt>
      <trkpt lat="43.4533" lon="4.58418">
        <ele>45.451</ele>
        <time>2019-04-30T11:34:44Z</time>
      </trkpt>
      <trkpt lat="43.4533" lon="4.58418">
        <ele>45.422</ele>
        <time>2019-04-30T11:34:54Z</time>
      </trkpt>
      <trkpt lat="43.4533" lon="4.58418">
        <ele>45.378</ele>
        <time>2019-04-30T11:35:05Z</time>
      </trkpt>
      <trkpt lat="43.4533" lon="4.58418">
        <ele>45.333</ele>
        <time>2019-04-30T11:35:15Z</time>
      </trkpt>
      <trkpt lat="43.4533" lon="4.58418">
        <ele>45.293</ele>
        <time>2019-04-30T11:35:26Z</time>
      </trkpt>
      <trkpt lat="43.4533" lon="4.58418">
        <ele>45.259</ele>
        <time>2019-04-30T11:35:37Z</time>
      </trkpt>
      <trkpt lat="43.4533" lon="4.58418">
        <ele>45.229</ele>
        <time>2019-04-30T11:35:48Z</time>
      </trkpt>
      <trkpt lat="43.4533" lon="4.58418">
        <ele>45.201</ele>
        <time>2019-04-30T11:35:59Z</time>
      </trkpt>
      <trkpt lat="43.4533" lon="4.58418">
        <ele>45.164</ele>
        <time>2019-04-30T11:36:09Z</time>
      </trkpt>
      <trkpt lat="43.4533" lon="4.58418">
        <ele>45.125</ele>
        <time>2019-04-30T11:36:20Z</time>
      </trkpt>
      <trkpt lat="43.4533" lon="4.58419">
        <ele>45.097</ele>
        <time>2019-04-30T11:36:31Z</time>
      </trkpt>
      <trkpt lat="43.4533" lon="4.58419">
        <ele>45.068</ele>
        <time>2019-04-30T11:36:41Z</time>
      </trkpt>
      <trkpt lat="43.4533" lon="4.58419">
        <ele>45.034</ele>
        <time>2019-04-30T11:36:52Z</time>
      </trkpt>
      <trkpt lat="43.4533" lon="4.58419">
        <ele>44.996</ele>
        <time>2019-04-30T11:37:02Z</time>
      </trkpt>
      <trkpt lat="43.4533" lon="4.58419">
        <ele>44.955</ele>
        <time>2019-04-30T11:37:12Z</time>
      </trkpt>
      <trkpt lat="43.4533" lon="4.58419">
        <ele>44.921</ele>
        <time>2019-04-30T11:37:23Z</time>
      </trkpt>
      <trkpt lat="43.4533" lon="4.58419">
        <ele>44.894</ele>
        <time>2019-04-30T11:37:34Z</time>
      </trkpt>
      <trkpt lat="43.4533" lon="4.58419">
        <ele>44.876</ele>
        <time>2019-04-30T11:37:45Z</time>
      </trkpt>
      <trkpt lat="43.4533" lon="4.58419">
        <ele>44.856</ele>
        <time>2019-04-30T11:37:56Z</time>
      </trkpt>
      <trkpt lat="43.4533" lon="4.58419">
        <ele>44.81</ele>
        <time>2019-04-30T11:38:07Z</time>
      </trkpt>
      <trkpt lat="43.4533" lon="4.58418">
        <ele>44.739</ele>
        <time>2019-04-30T11:38:18Z</time>
      </trkpt>
      <trkpt lat="43.4533" lon="4.58418">
        <ele>44.677</ele>
        <time>2019-04-30T11:38:29Z</time>
      </trkpt>
      <trkpt lat="43.4533" lon="4.58419">
        <ele>44.668</ele>
        <time>2019-04-30T11:38:40Z</time>
      </trkpt>
      <trkpt lat="43.4533" lon="4.58419">
        <ele>44.666</ele>
        <time>2019-04-30T11:38:51Z</time>
      </trkpt>
      <trkpt lat="43.4533" lon="4.58419">
        <ele>44.662</ele>
        <time>2019-04-30T11:39:01Z</time>
      </trkpt>
      <trkpt lat="43.4533" lon="4.58419">
        <ele>44.631</ele>
        <time>2019-04-30T11:39:12Z</time>
      </trkpt>
      <trkpt lat="43.4533" lon="4.58419">
        <ele>44.62</ele>
        <time>2019-04-30T11:39:22Z</time>
      </trkpt>
      <trkpt lat="43.4533" lon="4.58419">
        <ele>44.625</ele>
        <time>2019-04-30T11:39:33Z</time>
      </trkpt>
      <trkpt lat="43.4533" lon="4.58419">
        <ele>44.629</ele>
        <time>2019-04-30T11:39:44Z</time>
      </trkpt>
      <trkpt lat="43.4533" lon="4.58419">
        <ele>44.629</ele>
        <time>2019-04-30T11:39:55Z</time>
      </trkpt>
      <trkpt lat="43.45329" lon="4.58419">
        <ele>44.626</ele>
        <time>2019-04-30T11:40:06Z</time>
      </trkpt>
      <trkpt lat="43.45329" lon="4.58419">
        <ele>44.613</ele>
        <time>2019-04-30T11:40:16Z</time>
      </trkpt>
      <trkpt lat="43.45331" lon="4.58417">
        <ele>44.445</ele>
        <time>2019-04-30T11:40:27Z</time>
      </trkpt>
      <trkpt lat="43.4533" lon="4.58417">
        <ele>43.576</ele>
        <time>2019-04-30T11:40:37Z</time>
      </trkpt>
      <trkpt lat="43.4533" lon="4.58418">
        <ele>43.488</ele>
        <time>2019-04-30T11:40:48Z</time>
      </trkpt>
      <trkpt lat="43.4533" lon="4.58419">
        <ele>43.567</ele>
        <time>2019-04-30T11:40:58Z</time>
      </trkpt>
      <trkpt lat="43.4533" lon="4.58419">
        <ele>43.584</ele>
        <time>2019-04-30T11:41:09Z</time>
      </trkpt>
      <trkpt lat="43.4533" lon="4.58419">
        <ele>43.607</ele>
        <time>2019-04-30T11:41:20Z</time>
      </trkpt>
      <trkpt lat="43.4533" lon="4.5842">
        <ele>43.696</ele>
        <time>2019-04-30T11:41:30Z</time>
      </trkpt>
      <trkpt lat="43.4533" lon="4.5842">
        <ele>43.757</ele>
        <time>2019-04-30T11:41:41Z</time>
      </trkpt>
      <trkpt lat="43.4533" lon="4.5842">
        <ele>43.827</ele>
        <time>2019-04-30T11:41:52Z</time>
      </trkpt>
      <trkpt lat="43.4533" lon="4.5842">
        <ele>43.98</ele>
        <time>2019-04-30T11:42:02Z</time>
      </trkpt>
      <trkpt lat="43.45331" lon="4.58419">
        <ele>44.044</ele>
        <time>2019-04-30T11:42:12Z</time>
      </trkpt>
      <trkpt lat="43.45331" lon="4.58419">
        <ele>44.098</ele>
        <time>2019-04-30T11:42:23Z</time>
      </trkpt>
      <trkpt lat="43.45331" lon="4.58419">
        <ele>44.127</ele>
        <time>2019-04-30T11:42:33Z</time>
      </trkpt>
      <trkpt lat="43.45331" lon="4.58419">
        <ele>44.146</ele>
        <time>2019-04-30T11:42:44Z</time>
      </trkpt>
      <trkpt lat="43.45331" lon="4.58419">
        <ele>44.164</ele>
        <time>2019-04-30T11:42:55Z</time>
      </trkpt>
      <trkpt lat="43.45331" lon="4.58419">
        <ele>44.186</ele>
        <time>2019-04-30T11:43:06Z</time>
      </trkpt>
      <trkpt lat="43.45331" lon="4.58418">
        <ele>44.195</ele>
        <time>2019-04-30T11:43:17Z</time>
      </trkpt>
      <trkpt lat="43.4533" lon="4.58418">
        <ele>44.205</ele>
        <time>2019-04-30T11:43:28Z</time>
      </trkpt>
      <trkpt lat="43.45332" lon="4.58417">
        <ele>44.595</ele>
        <time>2019-04-30T11:43:39Z</time>
      </trkpt>
      <trkpt lat="43.45331" lon="4.58419">
        <ele>44.592</ele>
        <time>2019-04-30T11:43:50Z</time>
      </trkpt>
      <trkpt lat="43.45331" lon="4.58419">
        <ele>44.611</ele>
        <time>2019-04-30T11:44:01Z</time>
      </trkpt>
      <trkpt lat="43.45331" lon="4.58419">
        <ele>44.641</ele>
        <time>2019-04-30T11:44:11Z</time>
      </trkpt>
      <trkpt lat="43.4533" lon="4.58419">
        <ele>44.664</ele>
        <time>2019-04-30T11:44:22Z</time>
      </trkpt>
      <trkpt lat="43.4533" lon="4.58419">
        <ele>44.68</ele>
        <time>2019-04-30T11:44:33Z</time>
      </trkpt>
      <trkpt lat="43.4533" lon="4.58418">
        <ele>44.674</ele>
        <time>2019-04-30T11:44:44Z</time>
      </trkpt>
      <trkpt lat="43.4533" lon="4.58418">
        <ele>44.664</ele>
        <time>2019-04-30T11:44:55Z</time>
      </trkpt>
      <trkpt lat="43.4533" lon="4.58418">
        <ele>44.655</ele>
        <time>2019-04-30T11:45:06Z</time>
      </trkpt>
      <trkpt lat="43.4533" lon="4.58418">
        <ele>44.651</ele>
        <time>2019-04-30T11:45:17Z</time>
      </trkpt>
      <trkpt lat="43.4533" lon="4.58418">
        <ele>44.623</ele>
        <time>2019-04-30T11:45:27Z</time>
      </trkpt>
      <trkpt lat="43.4533" lon="4.58418">
        <ele>44.632</ele>
        <time>2019-04-30T11:45:37Z</time>
      </trkpt>
      <trkpt lat="43.4533" lon="4.58418">
        <ele>44.645</ele>
        <time>2019-04-30T11:45:48Z</time>
      </trkpt>
      <trkpt lat="43.4533" lon="4.58418">
        <ele>44.643</ele>
        <time>2019-04-30T11:45:58Z</time>
      </trkpt>
      <trkpt lat="43.4533" lon="4.58418">
        <ele>44.645</ele>
        <time>2019-04-30T11:46:09Z</time>
      </trkpt>
      <trkpt lat="43.4533" lon="4.58418">
        <ele>44.648</ele>
        <time>2019-04-30T11:46:20Z</time>
      </trkpt>
      <trkpt lat="43.4533" lon="4.58418">
        <ele>44.645</ele>
        <time>2019-04-30T11:46:30Z</time>
      </trkpt>
      <trkpt lat="43.4533" lon="4.58418">
        <ele>44.642</ele>
        <time>2019-04-30T11:46:41Z</time>
      </trkpt>
      <trkpt lat="43.4533" lon="4.58418">
        <ele>44.641</ele>
        <time>2019-04-30T11:46:51Z</time>
      </trkpt>
      <trkpt lat="43.4533" lon="4.58418">
        <ele>44.645</ele>
        <time>2019-04-30T11:47:02Z</time>
      </trkpt>
      <trkpt lat="43.4533" lon="4.58418">
        <ele>44.652</ele>
        <time>2019-04-30T11:47:12Z</time>
      </trkpt>
      <trkpt lat="43.4533" lon="4.58418">
        <ele>44.665</ele>
        <time>2019-04-30T11:47:22Z</time>
      </trkpt>
      <trkpt lat="43.4533" lon="4.58418">
        <ele>44.673</ele>
        <time>2019-04-30T11:47:32Z</time>
      </trkpt>
      <trkpt lat="43.4533" lon="4.58418">
        <ele>44.676</ele>
        <time>2019-04-30T11:47:43Z</time>
      </trkpt>
      <trkpt lat="43.4533" lon="4.58418">
        <ele>44.69</ele>
        <time>2019-04-30T11:47:54Z</time>
      </trkpt>
      <trkpt lat="43.4533" lon="4.58418">
        <ele>44.708</ele>
        <time>2019-04-30T11:48:04Z</time>
      </trkpt>
      <trkpt lat="43.4533" lon="4.58419">
        <ele>44.727</ele>
        <time>2019-04-30T11:48:14Z</time>
      </trkpt>
      <trkpt lat="43.4533" lon="4.58419">
        <ele>44.743</ele>
        <time>2019-04-30T11:48:25Z</time>
      </trkpt>
      <trkpt lat="43.4533" lon="4.58418">
        <ele>44.747</ele>
        <time>2019-04-30T11:48:35Z</time>
      </trkpt>
      <trkpt lat="43.4533" lon="4.58418">
        <ele>44.747</ele>
        <time>2019-04-30T11:48:46Z</time>
      </trkpt>
      <trkpt lat="43.4533" lon="4.58418">
        <ele>44.744</ele>
        <time>2019-04-30T11:48:57Z</time>
      </trkpt>
      <trkpt lat="43.4533" lon="4.58418">
        <ele>44.738</ele>
        <time>2019-04-30T11:49:07Z</time>
      </trkpt>
      <trkpt lat="43.4533" lon="4.58418">
        <ele>44.734</ele>
        <time>2019-04-30T11:49:18Z</time>
      </trkpt>
      <trkpt lat="43.4533" lon="4.58418">
        <ele>44.725</ele>
        <time>2019-04-30T11:49:29Z</time>
      </trkpt>
      <trkpt lat="43.4533" lon="4.58418">
        <ele>44.717</ele>
        <time>2019-04-30T11:49:40Z</time>
      </trkpt>
      <trkpt lat="43.4533" lon="4.58418">
        <ele>44.694</ele>
        <time>2019-04-30T11:49:51Z</time>
      </trkpt>
      <trkpt lat="43.45329" lon="4.58418">
        <ele>44.603</ele>
        <time>2019-04-30T11:50:01Z</time>
      </trkpt>
      <trkpt lat="43.45329" lon="4.58418">
        <ele>44.517</ele>
        <time>2019-04-30T11:50:12Z</time>
      </trkpt>
      <trkpt lat="43.45329" lon="4.58418">
        <ele>44.477</ele>
        <time>2019-04-30T11:50:23Z</time>
      </trkpt>
      <trkpt lat="43.45329" lon="4.58418">
        <ele>44.467</ele>
        <time>2019-04-30T11:50:34Z</time>
      </trkpt>
      <trkpt lat="43.4533" lon="4.58418">
        <ele>44.46</ele>
        <time>2019-04-30T11:50:45Z</time>
      </trkpt>
      <trkpt lat="43.4533" lon="4.58418">
        <ele>44.472</ele>
        <time>2019-04-30T11:50:55Z</time>
      </trkpt>
      <trkpt lat="43.4533" lon="4.58418">
        <ele>44.475</ele>
        <time>2019-04-30T11:51:05Z</time>
      </trkpt>
      <trkpt lat="43.4533" lon="4.58418">
        <ele>44.47</ele>
        <time>2019-04-30T11:51:15Z</time>
      </trkpt>
      <trkpt lat="43.4533" lon="4.58418">
        <ele>44.469</ele>
        <time>2019-04-30T11:51:26Z</time>
      </trkpt>
      <trkpt lat="43.4533" lon="4.58418">
        <ele>44.478</ele>
        <time>2019-04-30T11:51:37Z</time>
      </trkpt>
      <trkpt lat="43.4533" lon="4.58418">
        <ele>44.493</ele>
        <time>2019-04-30T11:51:48Z</time>
      </trkpt>
      <trkpt lat="43.4533" lon="4.58418">
        <ele>44.492</ele>
        <time>2019-04-30T11:51:59Z</time>
      </trkpt>
      <trkpt lat="43.4533" lon="4.58418">
        <ele>44.473</ele>
        <time>2019-04-30T11:52:09Z</time>
      </trkpt>
      <trkpt lat="43.4533" lon="4.58418">
        <ele>44.447</ele>
        <time>2019-04-30T11:52:20Z</time>
      </trkpt>
      <trkpt lat="43.45329" lon="4.58418">
        <ele>44.451</ele>
        <time>2019-04-30T11:52:30Z</time>
      </trkpt>
      <trkpt lat="43.45329" lon="4.58418">
        <ele>44.445</ele>
        <time>2019-04-30T11:52:40Z</time>
      </trkpt>
      <trkpt lat="43.4533" lon="4.58418">
        <ele>44.442</ele>
        <time>2019-04-30T11:52:51Z</time>
      </trkpt>
      <trkpt lat="43.4533" lon="4.58418">
        <ele>44.457</ele>
        <time>2019-04-30T11:53:01Z</time>
      </trkpt>
      <trkpt lat="43.4533" lon="4.58418">
        <ele>44.469</ele>
        <time>2019-04-30T11:53:12Z</time>
      </trkpt>
      <trkpt lat="43.4533" lon="4.58418">
        <ele>44.486</ele>
        <time>2019-04-30T11:53:23Z</time>
      </trkpt>
      <trkpt lat="43.4533" lon="4.58418">
        <ele>44.512</ele>
        <time>2019-04-30T11:53:34Z</time>
      </trkpt>
      <trkpt lat="43.45326" lon="4.58418">
        <ele>45.183</ele>
        <time>2019-04-30T11:53:45Z</time>
      </trkpt>
      <trkpt lat="43.45329" lon="4.58419">
        <ele>44.916</ele>
        <time>2019-04-30T11:53:56Z</time>
      </trkpt>
      <trkpt lat="43.45329" lon="4.58414">
        <ele>43.973</ele>
        <time>2019-04-30T11:54:07Z</time>
      </trkpt>
      <trkpt lat="43.45329" lon="4.58412">
        <ele>44.03</ele>
        <time>2019-04-30T11:54:17Z</time>
      </trkpt>
      <trkpt lat="43.4533" lon="4.58416">
        <ele>44.242</ele>
        <time>2019-04-30T11:54:27Z</time>
      </trkpt>
      <trkpt lat="43.45326" lon="4.58412">
        <ele>44.895</ele>
        <time>2019-04-30T11:54:38Z</time>
      </trkpt>
      <trkpt lat="43.45327" lon="4.58413">
        <ele>44.966</ele>
        <time>2019-04-30T11:54:48Z</time>
      </trkpt>
      <trkpt lat="43.45328" lon="4.58412">
        <ele>45.013</ele>
        <time>2019-04-30T11:54:59Z</time>
      </trkpt>
      <trkpt lat="43.45328" lon="4.58412">
        <ele>45.051</ele>
        <time>2019-04-30T11:55:09Z</time>
      </trkpt>
      <trkpt lat="43.45328" lon="4.58412">
        <ele>45.093</ele>
        <time>2019-04-30T11:55:20Z</time>
      </trkpt>
      <trkpt lat="43.45328" lon="4.58412">
        <ele>45.136</ele>
        <time>2019-04-30T11:55:30Z</time>
      </trkpt>
      <trkpt lat="43.45328" lon="4.58412">
        <ele>45.196</ele>
        <time>2019-04-30T11:55:40Z</time>
      </trkpt>
      <trkpt lat="43.45328" lon="4.58412">
        <ele>45.263</ele>
        <time>2019-04-30T11:55:50Z</time>
      </trkpt>
      <trkpt lat="43.45333" lon="4.58411">
        <ele>45.715</ele>
        <time>2019-04-30T11:56:00Z</time>
      </trkpt>
      <trkpt lat="43.45339" lon="4.58412">
        <ele>46.096</ele>
        <time>2019-04-30T11:56:11Z</time>
      </trkpt>
      <trkpt lat="43.45362" lon="4.58407">
        <ele>46.56</ele>
        <time>2019-04-30T11:56:22Z</time>
      </trkpt>
      <trkpt lat="43.45392" lon="4.58406">
        <ele>46.789</ele>
        <time>2019-04-30T11:56:33Z</time>
      </trkpt>
      <trkpt lat="43.45404" lon="4.5844">
        <ele>47.197</ele>
        <time>2019-04-30T11:56:44Z</time>
      </trkpt>
      <trkpt lat="43.45402" lon="4.58472">
        <ele>47.386</ele>
        <time>2019-04-30T11:56:55Z</time>
      </trkpt>
      <trkpt lat="43.45397" lon="4.58512">
        <ele>46.678</ele>
        <time>2019-04-30T11:57:05Z</time>
      </trkpt>
      <trkpt lat="43.4539" lon="4.5855">
        <ele>46.053</ele>
        <time>2019-04-30T11:57:15Z</time>
      </trkpt>
      <trkpt lat="43.45379" lon="4.58592">
        <ele>46.188</ele>
        <time>2019-04-30T11:57:26Z</time>
      </trkpt>
      <trkpt lat="43.45363" lon="4.58634">
        <ele>46.548</ele>
        <time>2019-04-30T11:57:37Z</time>
      </trkpt>
      <trkpt lat="43.45343" lon="4.58676">
        <ele>46.338</ele>
        <time>2019-04-30T11:57:48Z</time>
      </trkpt>
      <trkpt lat="43.45324" lon="4.58716">
        <ele>46.494</ele>
        <time>2019-04-30T11:57:58Z</time>
      </trkpt>
      <trkpt lat="43.45309" lon="4.58751">
        <ele>46.635</ele>
        <time>2019-04-30T11:58:08Z</time>
      </trkpt>
      <trkpt lat="43.45296" lon="4.58774">
        <ele>46.233</ele>
        <time>2019-04-30T11:58:18Z</time>
      </trkpt>
      <trkpt lat="43.45296" lon="4.58773">
        <ele>46.234</ele>
        <time>2019-04-30T11:58:29Z</time>
      </trkpt>
      <trkpt lat="43.45295" lon="4.58773">
        <ele>46.154</ele>
        <time>2019-04-30T11:58:39Z</time>
      </trkpt>
      <trkpt lat="43.45295" lon="4.58773">
        <ele>46.127</ele>
        <time>2019-04-30T11:58:50Z</time>
      </trkpt>
      <trkpt lat="43.45294" lon="4.58775">
        <ele>45.954</ele>
        <time>2019-04-30T11:59:00Z</time>
      </trkpt>
      <trkpt lat="43.45282" lon="4.5881">
        <ele>45.925</ele>
        <time>2019-04-30T11:59:11Z</time>
      </trkpt>
      <trkpt lat="43.45263" lon="4.5885">
        <ele>45.58</ele>
        <time>2019-04-30T11:59:22Z</time>
      </trkpt>
      <trkpt lat="43.45246" lon="4.58889">
        <ele>45.116</ele>
        <time>2019-04-30T11:59:33Z</time>
      </trkpt>
      <trkpt lat="43.45226" lon="4.58934">
        <ele>44.679</ele>
        <time>2019-04-30T11:59:44Z</time>
      </trkpt>
      <trkpt lat="43.45207" lon="4.58977">
        <ele>44.753</ele>
        <time>2019-04-30T11:59:55Z</time>
      </trkpt>
      <trkpt lat="43.45191" lon="4.59014">
        <ele>45.053</ele>
        <time>2019-04-30T12:00:05Z</time>
      </trkpt>
      <trkpt lat="43.45173" lon="4.59052">
        <ele>45.322</ele>
        <time>2019-04-30T12:00:15Z</time>
      </trkpt>
      <trkpt lat="43.45153" lon="4.59096">
        <ele>46.489</ele>
        <time>2019-04-30T12:00:26Z</time>
      </trkpt>
      <trkpt lat="43.45136" lon="4.59134">
        <ele>46.362</ele>
        <time>2019-04-30T12:00:37Z</time>
      </trkpt>
      <trkpt lat="43.45117" lon="4.59175">
        <ele>46.429</ele>
        <time>2019-04-30T12:00:47Z</time>
      </trkpt>
      <trkpt lat="43.45097" lon="4.59221">
        <ele>46.658</ele>
        <time>2019-04-30T12:00:58Z</time>
      </trkpt>
      <trkpt lat="43.45077" lon="4.59266">
        <ele>46.845</ele>
        <time>2019-04-30T12:01:09Z</time>
      </trkpt>
      <trkpt lat="43.45058" lon="4.59308">
        <ele>47.027</ele>
        <time>2019-04-30T12:01:19Z</time>
      </trkpt>
      <trkpt lat="43.45037" lon="4.59353">
        <ele>46.996</ele>
        <time>2019-04-30T12:01:30Z</time>
      </trkpt>
      <trkpt lat="43.45017" lon="4.59397">
        <ele>46.528</ele>
        <time>2019-04-30T12:01:41Z</time>
      </trkpt>
      <trkpt lat="43.44997" lon="4.59443">
        <ele>47.243</ele>
        <time>2019-04-30T12:01:51Z</time>
      </trkpt>
      <trkpt lat="43.44977" lon="4.59489">
        <ele>46.948</ele>
        <time>2019-04-30T12:02:01Z</time>
      </trkpt>
      <trkpt lat="43.44954" lon="4.5954">
        <ele>47.364</ele>
        <time>2019-04-30T12:02:12Z</time>
      </trkpt>
      <trkpt lat="43.44931" lon="4.59591">
        <ele>47.55</ele>
        <time>2019-04-30T12:02:23Z</time>
      </trkpt>
      <trkpt lat="43.44907" lon="4.59645">
        <ele>47.598</ele>
        <time>2019-04-30T12:02:34Z</time>
      </trkpt>
      <trkpt lat="43.44885" lon="4.59693">
        <ele>48.026</ele>
        <time>2019-04-30T12:02:44Z</time>
      </trkpt>
      <trkpt lat="43.44862" lon="4.59746">
        <ele>48.12</ele>
        <time>2019-04-30T12:02:55Z</time>
      </trkpt>
      <trkpt lat="43.44842" lon="4.59792">
        <ele>48.338</ele>
        <time>2019-04-30T12:03:06Z</time>
      </trkpt>
      <trkpt lat="43.44819" lon="4.59841">
        <ele>48.676</ele>
        <time>2019-04-30T12:03:17Z</time>
      </trkpt>
      <trkpt lat="43.44797" lon="4.59889">
        <ele>48.822</ele>
        <time>2019-04-30T12:03:28Z</time>
      </trkpt>
      <trkpt lat="43.44778" lon="4.59935">
        <ele>48.55</ele>
        <time>2019-04-30T12:03:39Z</time>
      </trkpt>
      <trkpt lat="43.44756" lon="4.59982">
        <ele>47.174</ele>
        <time>2019-04-30T12:03:50Z</time>
      </trkpt>
      <trkpt lat="43.44736" lon="4.60027">
        <ele>45.682</ele>
        <time>2019-04-30T12:04:00Z</time>
      </trkpt>
      <trkpt lat="43.44714" lon="4.60076">
        <ele>44.937</ele>
        <time>2019-04-30T12:04:11Z</time>
      </trkpt>
      <trkpt lat="43.4469" lon="4.60128">
        <ele>45.012</ele>
        <time>2019-04-30T12:04:22Z</time>
      </trkpt>
      <trkpt lat="43.44667" lon="4.60182">
        <ele>45.334</ele>
        <time>2019-04-30T12:04:33Z</time>
      </trkpt>
      <trkpt lat="43.44642" lon="4.6023">
        <ele>45.202</ele>
        <time>2019-04-30T12:04:44Z</time>
      </trkpt>
      <trkpt lat="43.44621" lon="4.6028">
        <ele>45.383</ele>
        <time>2019-04-30T12:04:55Z</time>
      </trkpt>
      <trkpt lat="43.44612" lon="4.60305">
        <ele>45.916</ele>
        <time>2019-04-30T12:05:06Z</time>
      </trkpt>
      <trkpt lat="43.44611" lon="4.60308">
        <ele>46.033</ele>
        <time>2019-04-30T12:05:17Z</time>
      </trkpt>
      <trkpt lat="43.44612" lon="4.60305">
        <ele>46.056</ele>
        <time>2019-04-30T12:05:28Z</time>
      </trkpt>
      <trkpt lat="43.44612" lon="4.60305">
        <ele>46.059</ele>
        <time>2019-04-30T12:05:38Z</time>
      </trkpt>
      <trkpt lat="43.44612" lon="4.60306">
        <ele>46.043</ele>
        <time>2019-04-30T12:05:49Z</time>
      </trkpt>
      <trkpt lat="43.44613" lon="4.60303">
        <ele>46</ele>
        <time>2019-04-30T12:05:59Z</time>
      </trkpt>
      <trkpt lat="43.4461" lon="4.60309">
        <ele>45.957</ele>
        <time>2019-04-30T12:06:10Z</time>
      </trkpt>
      <trkpt lat="43.44593" lon="4.60346">
        <ele>45.84</ele>
        <time>2019-04-30T12:06:21Z</time>
      </trkpt>
      <trkpt lat="43.4457" lon="4.6039">
        <ele>45.795</ele>
        <time>2019-04-30T12:06:32Z</time>
      </trkpt>
      <trkpt lat="43.44549" lon="4.60438">
        <ele>47.401</ele>
        <time>2019-04-30T12:06:42Z</time>
      </trkpt>
      <trkpt lat="43.44528" lon="4.60485">
        <ele>45.818</ele>
        <time>2019-04-30T12:06:52Z</time>
      </trkpt>
      <trkpt lat="43.44506" lon="4.60531">
        <ele>44.34</ele>
        <time>2019-04-30T12:07:02Z</time>
      </trkpt>
      <trkpt lat="43.44483" lon="4.60583">
        <ele>44.595</ele>
        <time>2019-04-30T12:07:13Z</time>
      </trkpt>
      <trkpt lat="43.44462" lon="4.60631">
        <ele>44.559</ele>
        <time>2019-04-30T12:07:24Z</time>
      </trkpt>
      <trkpt lat="43.44442" lon="4.6068">
        <ele>42.2</ele>
        <time>2019-04-30T12:07:35Z</time>
      </trkpt>
      <trkpt lat="43.4442" lon="4.60728">
        <ele>42.559</ele>
        <time>2019-04-30T12:07:45Z</time>
      </trkpt>
      <trkpt lat="43.44397" lon="4.60779">
        <ele>43.988</ele>
        <time>2019-04-30T12:07:56Z</time>
      </trkpt>
      <trkpt lat="43.44374" lon="4.6083">
        <ele>44.414</ele>
        <time>2019-04-30T12:08:07Z</time>
      </trkpt>
      <trkpt lat="43.44353" lon="4.60877">
        <ele>44.213</ele>
        <time>2019-04-30T12:08:17Z</time>
      </trkpt>
      <trkpt lat="43.44332" lon="4.60924">
        <ele>44.219</ele>
        <time>2019-04-30T12:08:27Z</time>
      </trkpt>
      <trkpt lat="43.44308" lon="4.60977">
        <ele>46.65</ele>
        <time>2019-04-30T12:08:38Z</time>
      </trkpt>
      <trkpt lat="43.44283" lon="4.61025">
        <ele>46.146</ele>
        <time>2019-04-30T12:08:49Z</time>
      </trkpt>
      <trkpt lat="43.44258" lon="4.61066">
        <ele>45.608</ele>
        <time>2019-04-30T12:08:59Z</time>
      </trkpt>
      <trkpt lat="43.44233" lon="4.61103">
        <ele>45.1</ele>
        <time>2019-04-30T12:09:09Z</time>
      </trkpt>
      <trkpt lat="43.44204" lon="4.61136">
        <ele>45.352</ele>
        <time>2019-04-30T12:09:19Z</time>
      </trkpt>
      <trkpt lat="43.4417" lon="4.61168">
        <ele>45.742</ele>
        <time>2019-04-30T12:09:29Z</time>
      </trkpt>
      <trkpt lat="43.44131" lon="4.612">
        <ele>46.618</ele>
        <time>2019-04-30T12:09:40Z</time>
      </trkpt>
      <trkpt lat="43.44094" lon="4.6123">
        <ele>45.935</ele>
        <time>2019-04-30T12:09:50Z</time>
      </trkpt>
      <trkpt lat="43.44055" lon="4.6126">
        <ele>45.708</ele>
        <time>2019-04-30T12:10:01Z</time>
      </trkpt>
      <trkpt lat="43.44019" lon="4.61289">
        <ele>45.001</ele>
        <time>2019-04-30T12:10:11Z</time>
      </trkpt>
      <trkpt lat="43.43983" lon="4.6132">
        <ele>44.827</ele>
        <time>2019-04-30T12:10:22Z</time>
      </trkpt>
      <trkpt lat="43.43971" lon="4.61358">
        <ele>45.041</ele>
        <time>2019-04-30T12:10:32Z</time>
      </trkpt>
      <trkpt lat="43.43975" lon="4.61398">
        <ele>44.845</ele>
        <time>2019-04-30T12:10:43Z</time>
      </trkpt>
      <trkpt lat="43.43976" lon="4.61434">
        <ele>44.722</ele>
        <time>2019-04-30T12:10:54Z</time>
      </trkpt>
      <trkpt lat="43.43975" lon="4.61473">
        <ele>44.769</ele>
        <time>2019-04-30T12:11:05Z</time>
      </trkpt>
      <trkpt lat="43.43965" lon="4.61484">
        <ele>44.612</ele>
        <time>2019-04-30T12:11:15Z</time>
      </trkpt>
      <trkpt lat="43.43938" lon="4.61478">
        <ele>44.971</ele>
        <time>2019-04-30T12:11:26Z</time>
      </trkpt>
      <trkpt lat="43.43905" lon="4.61473">
        <ele>46.024</ele>
        <time>2019-04-30T12:11:37Z</time>
      </trkpt>
      <trkpt lat="43.43873" lon="4.6147">
        <ele>46.177</ele>
        <time>2019-04-30T12:11:47Z</time>
      </trkpt>
      <trkpt lat="43.4384" lon="4.61466">
        <ele>46.517</ele>
        <time>2019-04-30T12:11:57Z</time>
      </trkpt>
      <trkpt lat="43.43819" lon="4.61455">
        <ele>46.926</ele>
        <time>2019-04-30T12:12:07Z</time>
      </trkpt>
      <trkpt lat="43.43814" lon="4.61457">
        <ele>47.018</ele>
        <time>2019-04-30T12:12:18Z</time>
      </trkpt>
      <trkpt lat="43.43814" lon="4.61457">
        <ele>46.837</ele>
        <time>2019-04-30T12:12:29Z</time>
      </trkpt>
      <trkpt lat="43.43814" lon="4.61456">
        <ele>45.309</ele>
        <time>2019-04-30T12:12:39Z</time>
      </trkpt>
      <trkpt lat="43.43814" lon="4.61456">
        <ele>45.223</ele>
        <time>2019-04-30T12:12:50Z</time>
      </trkpt>
      <trkpt lat="43.43814" lon="4.61456">
        <ele>45.159</ele>
        <time>2019-04-30T12:13:00Z</time>
      </trkpt>
      <trkpt lat="43.43814" lon="4.61456">
        <ele>45.091</ele>
        <time>2019-04-30T12:13:11Z</time>
      </trkpt>
      <trkpt lat="43.43815" lon="4.61456">
        <ele>45.049</ele>
        <time>2019-04-30T12:13:21Z</time>
      </trkpt>
      <trkpt lat="43.43815" lon="4.61456">
        <ele>45.044</ele>
        <time>2019-04-30T12:13:32Z</time>
      </trkpt>
      <trkpt lat="43.43815" lon="4.61457">
        <ele>44.829</ele>
        <time>2019-04-30T12:13:42Z</time>
      </trkpt>
      <trkpt lat="43.43815" lon="4.61458">
        <ele>44.859</ele>
        <time>2019-04-30T12:13:52Z</time>
      </trkpt>
      <trkpt lat="43.43813" lon="4.61457">
        <ele>45.169</ele>
        <time>2019-04-30T12:14:03Z</time>
      </trkpt>
      <trkpt lat="43.4382" lon="4.61464">
        <ele>45.684</ele>
        <time>2019-04-30T12:14:14Z</time>
      </trkpt>
      <trkpt lat="43.4382" lon="4.61464">
        <ele>45.712</ele>
        <time>2019-04-30T12:14:24Z</time>
      </trkpt>
      <trkpt lat="43.4382" lon="4.61464">
        <ele>45.852</ele>
        <time>2019-04-30T12:14:34Z</time>
      </trkpt>
      <trkpt lat="43.43817" lon="4.61464">
        <ele>47.274</ele>
        <time>2019-04-30T12:14:45Z</time>
      </trkpt>
      <trkpt lat="43.43818" lon="4.61466">
        <ele>47.361</ele>
        <time>2019-04-30T12:14:55Z</time>
      </trkpt>
      <trkpt lat="43.43818" lon="4.61466">
        <ele>47.324</ele>
        <time>2019-04-30T12:15:06Z</time>
      </trkpt>
      <trkpt lat="43.43817" lon="4.61466">
        <ele>47.258</ele>
        <time>2019-04-30T12:15:17Z</time>
      </trkpt>
      <trkpt lat="43.43817" lon="4.61466">
        <ele>47.214</ele>
        <time>2019-04-30T12:15:27Z</time>
      </trkpt>
      <trkpt lat="43.43817" lon="4.61464">
        <ele>46.993</ele>
        <time>2019-04-30T12:15:37Z</time>
      </trkpt>
      <trkpt lat="43.43814" lon="4.6146">
        <ele>46.71</ele>
        <time>2019-04-30T12:15:48Z</time>
      </trkpt>
      <trkpt lat="43.43814" lon="4.61459">
        <ele>46.631</ele>
        <time>2019-04-30T12:15:59Z</time>
      </trkpt>
      <trkpt lat="43.43815" lon="4.6146">
        <ele>46.456</ele>
        <time>2019-04-30T12:16:10Z</time>
      </trkpt>
      <trkpt lat="43.43819" lon="4.61463">
        <ele>45.971</ele>
        <time>2019-04-30T12:16:21Z</time>
      </trkpt>
      <trkpt lat="43.43819" lon="4.61465">
        <ele>45.955</ele>
        <time>2019-04-30T12:16:31Z</time>
      </trkpt>
      <trkpt lat="43.43821" lon="4.61459">
        <ele>45.625</ele>
        <time>2019-04-30T12:16:42Z</time>
      </trkpt>
      <trkpt lat="43.43818" lon="4.6146">
        <ele>45.436</ele>
        <time>2019-04-30T12:16:52Z</time>
      </trkpt>
      <trkpt lat="43.43796" lon="4.61472">
        <ele>45.247</ele>
        <time>2019-04-30T12:17:02Z</time>
      </trkpt>
      <trkpt lat="43.43764" lon="4.61497">
        <ele>45.512</ele>
        <time>2019-04-30T12:17:13Z</time>
      </trkpt>
      <trkpt lat="43.43731" lon="4.61525">
        <ele>46.29</ele>
        <time>2019-04-30T12:17:23Z</time>
      </trkpt>
      <trkpt lat="43.43695" lon="4.61554">
        <ele>47.469</ele>
        <time>2019-04-30T12:17:34Z</time>
      </trkpt>
      <trkpt lat="43.43664" lon="4.61574">
        <ele>47.57</ele>
        <time>2019-04-30T12:17:45Z</time>
      </trkpt>
      <trkpt lat="43.43625" lon="4.61584">
        <ele>46.88</ele>
        <time>2019-04-30T12:17:56Z</time>
      </trkpt>
      <trkpt lat="43.4359" lon="4.61586">
        <ele>46.248</ele>
        <time>2019-04-30T12:18:07Z</time>
      </trkpt>
      <trkpt lat="43.43565" lon="4.61588">
        <ele>45.982</ele>
        <time>2019-04-30T12:18:18Z</time>
      </trkpt>
      <trkpt lat="43.43565" lon="4.61588">
        <ele>45.928</ele>
        <time>2019-04-30T12:18:28Z</time>
      </trkpt>
      <trkpt lat="43.43557" lon="4.6159">
        <ele>45.733</ele>
        <time>2019-04-30T12:18:39Z</time>
      </trkpt>
      <trkpt lat="43.43524" lon="4.61591">
        <ele>45.359</ele>
        <time>2019-04-30T12:18:49Z</time>
      </trkpt>
      <trkpt lat="43.4348" lon="4.61595">
        <ele>43.817</ele>
        <time>2019-04-30T12:19:00Z</time>
      </trkpt>
      <trkpt lat="43.43438" lon="4.61593">
        <ele>42.924</ele>
        <time>2019-04-30T12:19:11Z</time>
      </trkpt>
      <trkpt lat="43.434" lon="4.61591">
        <ele>43.349</ele>
        <time>2019-04-30T12:19:21Z</time>
      </trkpt>
      <trkpt lat="43.43358" lon="4.61589">
        <ele>43.331</ele>
        <time>2019-04-30T12:19:32Z</time>
      </trkpt>
      <trkpt lat="43.4332" lon="4.61587">
        <ele>42.807</ele>
        <time>2019-04-30T12:19:42Z</time>
      </trkpt>
      <trkpt lat="43.43285" lon="4.61585">
        <ele>42.862</ele>
        <time>2019-04-30T12:19:53Z</time>
      </trkpt>
      <trkpt lat="43.43245" lon="4.61583">
        <ele>43.189</ele>
        <time>2019-04-30T12:20:04Z</time>
      </trkpt>
      <trkpt lat="43.43206" lon="4.61581">
        <ele>44.856</ele>
        <time>2019-04-30T12:20:14Z</time>
      </trkpt>
      <trkpt lat="43.43171" lon="4.6158">
        <ele>44.758</ele>
        <time>2019-04-30T12:20:25Z</time>
      </trkpt>
      <trkpt lat="43.43171" lon="4.6158">
        <ele>44.753</ele>
        <time>2019-04-30T12:20:35Z</time>
      </trkpt>
      <trkpt lat="43.43171" lon="4.6158">
        <ele>44.721</ele>
        <time>2019-04-30T12:20:46Z</time>
      </trkpt>
      <trkpt lat="43.43171" lon="4.6158">
        <ele>44.688</ele>
        <time>2019-04-30T12:20:56Z</time>
      </trkpt>
      <trkpt lat="43.43171" lon="4.6158">
        <ele>44.675</ele>
        <time>2019-04-30T12:21:07Z</time>
      </trkpt>
      <trkpt lat="43.43165" lon="4.61579">
        <ele>44.62</ele>
        <time>2019-04-30T12:21:18Z</time>
      </trkpt>
      <trkpt lat="43.43133" lon="4.61577">
        <ele>44.433</ele>
        <time>2019-04-30T12:21:29Z</time>
      </trkpt>
      <trkpt lat="43.43093" lon="4.61577">
        <ele>43.426</ele>
        <time>2019-04-30T12:21:39Z</time>
      </trkpt>
      <trkpt lat="43.43057" lon="4.61605">
        <ele>42.988</ele>
        <time>2019-04-30T12:21:50Z</time>
      </trkpt>
      <trkpt lat="43.43036" lon="4.61645">
        <ele>42.965</ele>
        <time>2019-04-30T12:22:00Z</time>
      </trkpt>
      <trkpt lat="43.43012" lon="4.61692">
        <ele>44.222</ele>
        <time>2019-04-30T12:22:11Z</time>
      </trkpt>
      <trkpt lat="43.4299" lon="4.61737">
        <ele>44.721</ele>
        <time>2019-04-30T12:22:21Z</time>
      </trkpt>
      <trkpt lat="43.4297" lon="4.61784">
        <ele>44.513</ele>
        <time>2019-04-30T12:22:32Z</time>
      </trkpt>
      <trkpt lat="43.42951" lon="4.61823">
        <ele>44.336</ele>
        <time>2019-04-30T12:22:42Z</time>
      </trkpt>
      <trkpt lat="43.42931" lon="4.61868">
        <ele>44.146</ele>
        <time>2019-04-30T12:22:53Z</time>
      </trkpt>
      <trkpt lat="43.42916" lon="4.61898">
        <ele>43.883</ele>
        <time>2019-04-30T12:23:04Z</time>
      </trkpt>
      <trkpt lat="43.42916" lon="4.61898">
        <ele>43.892</ele>
        <time>2019-04-30T12:23:15Z</time>
      </trkpt>
      <trkpt lat="43.42917" lon="4.61898">
        <ele>43.912</ele>
        <time>2019-04-30T12:23:26Z</time>
      </trkpt>
      <trkpt lat="43.42917" lon="4.61898">
        <ele>43.914</ele>
        <time>2019-04-30T12:23:36Z</time>
      </trkpt>
      <trkpt lat="43.42904" lon="4.61915">
        <ele>43.778</ele>
        <time>2019-04-30T12:23:46Z</time>
      </trkpt>
      <trkpt lat="43.42866" lon="4.61943">
        <ele>43.282</ele>
        <time>2019-04-30T12:23:57Z</time>
      </trkpt>
      <trkpt lat="43.42828" lon="4.61964">
        <ele>44.608</ele>
        <time>2019-04-30T12:24:07Z</time>
      </trkpt>
      <trkpt lat="43.42783" lon="4.61968">
        <ele>43.848</ele>
        <time>2019-04-30T12:24:18Z</time>
      </trkpt>
      <trkpt lat="43.42744" lon="4.61944">
        <ele>43.06</ele>
        <time>2019-04-30T12:24:29Z</time>
      </trkpt>
      <trkpt lat="43.42707" lon="4.61913">
        <ele>45.13</ele>
        <time>2019-04-30T12:24:40Z</time>
      </trkpt>
      <trkpt lat="43.42674" lon="4.61886">
        <ele>46.763</ele>
        <time>2019-04-30T12:24:50Z</time>
      </trkpt>
      <trkpt lat="43.42637" lon="4.6186">
        <ele>47.537</ele>
        <time>2019-04-30T12:25:00Z</time>
      </trkpt>
      <trkpt lat="43.42591" lon="4.61858">
        <ele>48.313</ele>
        <time>2019-04-30T12:25:11Z</time>
      </trkpt>
      <trkpt lat="43.42547" lon="4.61862">
        <ele>48.498</ele>
        <time>2019-04-30T12:25:22Z</time>
      </trkpt>
      <trkpt lat="43.42499" lon="4.6187">
        <ele>47.832</ele>
        <time>2019-04-30T12:25:33Z</time>
      </trkpt>
      <trkpt lat="43.42451" lon="4.61875">
        <ele>48.041</ele>
        <time>2019-04-30T12:25:44Z</time>
      </trkpt>
      <trkpt lat="43.42405" lon="4.61875">
        <ele>48.051</ele>
        <time>2019-04-30T12:25:55Z</time>
      </trkpt>
      <trkpt lat="43.42366" lon="4.61875">
        <ele>48.786</ele>
        <time>2019-04-30T12:26:05Z</time>
      </trkpt>
      <trkpt lat="43.42326" lon="4.61876">
        <ele>49.429</ele>
        <time>2019-04-30T12:26:15Z</time>
      </trkpt>
      <trkpt lat="43.42278" lon="4.61877">
        <ele>49.088</ele>
        <time>2019-04-30T12:26:26Z</time>
      </trkpt>
      <trkpt lat="43.42234" lon="4.61876">
        <ele>47.254</ele>
        <time>2019-04-30T12:26:37Z</time>
      </trkpt>
      <trkpt lat="43.4219" lon="4.61873">
        <ele>46.758</ele>
        <time>2019-04-30T12:26:48Z</time>
      </trkpt>
      <trkpt lat="43.42143" lon="4.61868">
        <ele>47.022</ele>
        <time>2019-04-30T12:26:59Z</time>
      </trkpt>
      <trkpt lat="43.42096" lon="4.61868">
        <ele>46.622</ele>
        <time>2019-04-30T12:27:10Z</time>
      </trkpt>
      <trkpt lat="43.42059" lon="4.61879">
        <ele>47.791</ele>
        <time>2019-04-30T12:27:20Z</time>
      </trkpt>
      <trkpt lat="43.42019" lon="4.61894">
        <ele>48.474</ele>
        <time>2019-04-30T12:27:30Z</time>
      </trkpt>
      <trkpt lat="43.41977" lon="4.61916">
        <ele>49.337</ele>
        <time>2019-04-30T12:27:41Z</time>
      </trkpt>
      <trkpt lat="43.41952" lon="4.6193">
        <ele>49.235</ele>
        <time>2019-04-30T12:27:52Z</time>
      </trkpt>
      <trkpt lat="43.41951" lon="4.6193">
        <ele>49.186</ele>
        <time>2019-04-30T12:28:03Z</time>
      </trkpt>
      <trkpt lat="43.41951" lon="4.61931">
        <ele>49.132</ele>
        <time>2019-04-30T12:28:13Z</time>
      </trkpt>
      <trkpt lat="43.41951" lon="4.61931">
        <ele>49.068</ele>
        <time>2019-04-30T12:28:24Z</time>
      </trkpt>
      <trkpt lat="43.41951" lon="4.61931">
        <ele>48.984</ele>
        <time>2019-04-30T12:28:34Z</time>
      </trkpt>
      <trkpt lat="43.41951" lon="4.61931">
        <ele>48.853</ele>
        <time>2019-04-30T12:28:45Z</time>
      </trkpt>
      <trkpt lat="43.41946" lon="4.61936">
        <ele>48.404</ele>
        <time>2019-04-30T12:28:55Z</time>
      </trkpt>
      <trkpt lat="43.4192" lon="4.61961">
        <ele>48.061</ele>
        <time>2019-04-30T12:29:06Z</time>
      </trkpt>
      <trkpt lat="43.41892" lon="4.62">
        <ele>47.006</ele>
        <time>2019-04-30T12:29:17Z</time>
      </trkpt>
      <trkpt lat="43.41871" lon="4.62044">
        <ele>46.931</ele>
        <time>2019-04-30T12:29:27Z</time>
      </trkpt>
      <trkpt lat="43.41852" lon="4.62094">
        <ele>47.505</ele>
        <time>2019-04-30T12:29:38Z</time>
      </trkpt>
      <trkpt lat="43.41841" lon="4.62135">
        <ele>47.918</ele>
        <time>2019-04-30T12:29:48Z</time>
      </trkpt>
      <trkpt lat="43.41836" lon="4.62146">
        <ele>48.164</ele>
        <time>2019-04-30T12:29:59Z</time>
      </trkpt>
      <trkpt lat="43.41826" lon="4.62171">
        <ele>48.16</ele>
        <time>2019-04-30T12:30:09Z</time>
      </trkpt>
      <trkpt lat="43.41806" lon="4.62158">
        <ele>48.136</ele>
        <time>2019-04-30T12:30:20Z</time>
      </trkpt>
      <trkpt lat="43.41781" lon="4.62127">
        <ele>48.306</ele>
        <time>2019-04-30T12:30:31Z</time>
      </trkpt>
      <trkpt lat="43.41762" lon="4.62107">
        <ele>48.376</ele>
        <time>2019-04-30T12:30:41Z</time>
      </trkpt>
      <trkpt lat="43.41758" lon="4.62103">
        <ele>48.368</ele>
        <time>2019-04-30T12:30:52Z</time>
      </trkpt>
      <trkpt lat="43.41758" lon="4.62103">
        <ele>48.354</ele>
        <time>2019-04-30T12:31:02Z</time>
      </trkpt>
      <trkpt lat="43.41758" lon="4.62103">
        <ele>48.327</ele>
        <time>2019-04-30T12:31:13Z</time>
      </trkpt>
      <trkpt lat="43.41758" lon="4.62103">
        <ele>48.287</ele>
        <time>2019-04-30T12:31:24Z</time>
      </trkpt>
      <trkpt lat="43.41758" lon="4.62102">
        <ele>48.24</ele>
        <time>2019-04-30T12:31:35Z</time>
      </trkpt>
      <trkpt lat="43.41758" lon="4.62102">
        <ele>48.231</ele>
        <time>2019-04-30T12:31:45Z</time>
      </trkpt>
      <trkpt lat="43.41759" lon="4.62102">
        <ele>48.24</ele>
        <time>2019-04-30T12:31:56Z</time>
      </trkpt>
      <trkpt lat="43.41739" lon="4.62084">
        <ele>48.118</ele>
        <time>2019-04-30T12:32:07Z</time>
      </trkpt>
      <trkpt lat="43.41709" lon="4.62048">
        <ele>47.39</ele>
        <time>2019-04-30T12:32:18Z</time>
      </trkpt>
      <trkpt lat="43.41676" lon="4.62007">
        <ele>47.823</ele>
        <time>2019-04-30T12:32:29Z</time>
      </trkpt>
      <trkpt lat="43.41644" lon="4.61972">
        <ele>48.055</ele>
        <time>2019-04-30T12:32:39Z</time>
      </trkpt>
      <trkpt lat="43.41609" lon="4.61933">
        <ele>48.434</ele>
        <time>2019-04-30T12:32:50Z</time>
      </trkpt>
      <trkpt lat="43.4158" lon="4.61898">
        <ele>47.489</ele>
        <time>2019-04-30T12:33:00Z</time>
      </trkpt>
      <trkpt lat="43.41547" lon="4.61863">
        <ele>45.504</ele>
        <time>2019-04-30T12:33:11Z</time>
      </trkpt>
      <trkpt lat="43.41517" lon="4.61824">
        <ele>45.638</ele>
        <time>2019-04-30T12:33:21Z</time>
      </trkpt>
      <trkpt lat="43.4149" lon="4.61771">
        <ele>46.024</ele>
        <time>2019-04-30T12:33:32Z</time>
      </trkpt>
      <trkpt lat="43.41473" lon="4.61729">
        <ele>46.017</ele>
        <time>2019-04-30T12:33:42Z</time>
      </trkpt>
      <trkpt lat="43.41474" lon="4.61686">
        <ele>46.011</ele>
        <time>2019-04-30T12:33:52Z</time>
      </trkpt>
      <trkpt lat="43.41484" lon="4.61644">
        <ele>45.806</ele>
        <time>2019-04-30T12:34:03Z</time>
      </trkpt>
      <trkpt lat="43.41471" lon="4.61596">
        <ele>45.665</ele>
        <time>2019-04-30T12:34:14Z</time>
      </trkpt>
      <trkpt lat="43.41458" lon="4.61555">
        <ele>45.641</ele>
        <time>2019-04-30T12:34:24Z</time>
      </trkpt>
      <trkpt lat="43.41469" lon="4.61504">
        <ele>45.437</ele>
        <time>2019-04-30T12:34:35Z</time>
      </trkpt>
      <trkpt lat="43.41477" lon="4.6146">
        <ele>45.226</ele>
        <time>2019-04-30T12:34:45Z</time>
      </trkpt>
      <trkpt lat="43.41489" lon="4.61415">
        <ele>45.07</ele>
        <time>2019-04-30T12:34:56Z</time>
      </trkpt>
      <trkpt lat="43.41489" lon="4.61373">
        <ele>45.046</ele>
        <time>2019-04-30T12:35:07Z</time>
      </trkpt>
      <trkpt lat="43.41469" lon="4.61328">
        <ele>45.575</ele>
        <time>2019-04-30T12:35:18Z</time>
      </trkpt>
      <trkpt lat="43.41447" lon="4.61287">
        <ele>45.359</ele>
        <time>2019-04-30T12:35:29Z</time>
      </trkpt>
      <trkpt lat="43.41422" lon="4.61245">
        <ele>47.129</ele>
        <time>2019-04-30T12:35:39Z</time>
      </trkpt>
      <trkpt lat="43.41395" lon="4.61205">
        <ele>47.982</ele>
        <time>2019-04-30T12:35:50Z</time>
      </trkpt>
      <trkpt lat="43.41369" lon="4.61165">
        <ele>49.171</ele>
        <time>2019-04-30T12:36:00Z</time>
      </trkpt>
      <trkpt lat="43.41343" lon="4.6113">
        <ele>49.287</ele>
        <time>2019-04-30T12:36:10Z</time>
      </trkpt>
      <trkpt lat="43.41316" lon="4.61092">
        <ele>48.205</ele>
        <time>2019-04-30T12:36:21Z</time>
      </trkpt>
      <trkpt lat="43.41286" lon="4.61049">
        <ele>48.359</ele>
        <time>2019-04-30T12:36:32Z</time>
      </trkpt>
      <trkpt lat="43.41259" lon="4.61014">
        <ele>49.399</ele>
        <time>2019-04-30T12:36:42Z</time>
      </trkpt>
      <trkpt lat="43.41228" lon="4.60979">
        <ele>49.893</ele>
        <time>2019-04-30T12:36:53Z</time>
      </trkpt>
      <trkpt lat="43.41191" lon="4.60952">
        <ele>50.309</ele>
        <time>2019-04-30T12:37:04Z</time>
      </trkpt>
      <trkpt lat="43.41164" lon="4.60932">
        <ele>49.818</ele>
        <time>2019-04-30T12:37:14Z</time>
      </trkpt>
      <trkpt lat="43.41152" lon="4.60929">
        <ele>49.54</ele>
        <time>2019-04-30T12:37:25Z</time>
      </trkpt>
      <trkpt lat="43.41155" lon="4.60928">
        <ele>49.238</ele>
        <time>2019-04-30T12:37:36Z</time>
      </trkpt>
      <trkpt lat="43.41153" lon="4.6093">
        <ele>48.942</ele>
        <time>2019-04-30T12:37:46Z</time>
      </trkpt>
      <trkpt lat="43.41152" lon="4.6093">
        <ele>48.837</ele>
        <time>2019-04-30T12:37:56Z</time>
      </trkpt>
      <trkpt lat="43.4115" lon="4.60927">
        <ele>48.89</ele>
        <time>2019-04-30T12:38:07Z</time>
      </trkpt>
      <trkpt lat="43.41143" lon="4.60911">
        <ele>49.34</ele>
        <time>2019-04-30T12:38:18Z</time>
      </trkpt>
      <trkpt lat="43.41121" lon="4.60876">
        <ele>49.773</ele>
        <time>2019-04-30T12:38:28Z</time>
      </trkpt>
      <trkpt lat="43.41107" lon="4.60822">
        <ele>49.05</ele>
        <time>2019-04-30T12:38:39Z</time>
      </trkpt>
      <trkpt lat="43.41084" lon="4.60784">
        <ele>49.211</ele>
        <time>2019-04-30T12:38:49Z</time>
      </trkpt>
      <trkpt lat="43.41058" lon="4.60735">
        <ele>49.457</ele>
        <time>2019-04-30T12:39:00Z</time>
      </trkpt>
      <trkpt lat="43.41032" lon="4.60691">
        <ele>50.305</ele>
        <time>2019-04-30T12:39:10Z</time>
      </trkpt>
      <trkpt lat="43.41001" lon="4.60653">
        <ele>48.303</ele>
        <time>2019-04-30T12:39:21Z</time>
      </trkpt>
      <trkpt lat="43.40982" lon="4.60619">
        <ele>48.187</ele>
        <time>2019-04-30T12:39:32Z</time>
      </trkpt>
      <trkpt lat="43.40956" lon="4.60583">
        <ele>48.29</ele>
        <time>2019-04-30T12:39:43Z</time>
      </trkpt>
      <trkpt lat="43.40918" lon="4.60568">
        <ele>49.727</ele>
        <time>2019-04-30T12:39:53Z</time>
      </trkpt>
      <trkpt lat="43.40901" lon="4.60532">
        <ele>49.551</ele>
        <time>2019-04-30T12:40:03Z</time>
      </trkpt>
      <trkpt lat="43.40915" lon="4.60489">
        <ele>49.628</ele>
        <time>2019-04-30T12:40:14Z</time>
      </trkpt>
      <trkpt lat="43.40939" lon="4.60451">
        <ele>49.411</ele>
        <time>2019-04-30T12:40:25Z</time>
      </trkpt>
      <trkpt lat="43.40942" lon="4.60407">
        <ele>49.293</ele>
        <time>2019-04-30T12:40:36Z</time>
      </trkpt>
      <trkpt lat="43.40924" lon="4.60373">
        <ele>49.155</ele>
        <time>2019-04-30T12:40:47Z</time>
      </trkpt>
      <trkpt lat="43.40896" lon="4.60324">
        <ele>49.402</ele>
        <time>2019-04-30T12:40:58Z</time>
      </trkpt>
      <trkpt lat="43.40874" lon="4.6027">
        <ele>50.145</ele>
        <time>2019-04-30T12:41:09Z</time>
      </trkpt>
      <trkpt lat="43.40853" lon="4.6021">
        <ele>50.691</ele>
        <time>2019-04-30T12:41:20Z</time>
      </trkpt>
      <trkpt lat="43.40834" lon="4.60146">
        <ele>49.972</ele>
        <time>2019-04-30T12:41:31Z</time>
      </trkpt>
      <trkpt lat="43.40822" lon="4.60088">
        <ele>49.899</ele>
        <time>2019-04-30T12:41:41Z</time>
      </trkpt>
      <trkpt lat="43.40809" lon="4.60027">
        <ele>49.561</ele>
        <time>2019-04-30T12:41:52Z</time>
      </trkpt>
      <trkpt lat="43.4079" lon="4.59969">
        <ele>50.023</ele>
        <time>2019-04-30T12:42:03Z</time>
      </trkpt>
      <trkpt lat="43.40779" lon="4.59913">
        <ele>50.39</ele>
        <time>2019-04-30T12:42:13Z</time>
      </trkpt>
      <trkpt lat="43.40762" lon="4.59858">
        <ele>49.998</ele>
        <time>2019-04-30T12:42:23Z</time>
      </trkpt>
      <trkpt lat="43.40752" lon="4.59798">
        <ele>49.062</ele>
        <time>2019-04-30T12:42:34Z</time>
      </trkpt>
      <trkpt lat="43.40742" lon="4.59741">
        <ele>48.754</ele>
        <time>2019-04-30T12:42:45Z</time>
      </trkpt>
      <trkpt lat="43.40734" lon="4.5969">
        <ele>48.807</ele>
        <time>2019-04-30T12:42:55Z</time>
      </trkpt>
      <trkpt lat="43.40726" lon="4.59644">
        <ele>49.017</ele>
        <time>2019-04-30T12:43:05Z</time>
      </trkpt>
      <trkpt lat="43.40735" lon="4.59601">
        <ele>49.156</ele>
        <time>2019-04-30T12:43:16Z</time>
      </trkpt>
      <trkpt lat="43.40741" lon="4.59567">
        <ele>49.353</ele>
        <time>2019-04-30T12:43:27Z</time>
      </trkpt>
      <trkpt lat="43.40744" lon="4.59556">
        <ele>49.498</ele>
        <time>2019-04-30T12:43:37Z</time>
      </trkpt>
      <trkpt lat="43.40743" lon="4.59543">
        <ele>49.52</ele>
        <time>2019-04-30T12:43:48Z</time>
      </trkpt>
      <trkpt lat="43.40735" lon="4.59535">
        <ele>49.979</ele>
        <time>2019-04-30T12:43:59Z</time>
      </trkpt>
      <trkpt lat="43.40735" lon="4.59535">
        <ele>49.992</ele>
        <time>2019-04-30T12:44:10Z</time>
      </trkpt>
      <trkpt lat="43.40735" lon="4.59535">
        <ele>49.97</ele>
        <time>2019-04-30T12:44:21Z</time>
      </trkpt>
      <trkpt lat="43.40735" lon="4.59535">
        <ele>49.947</ele>
        <time>2019-04-30T12:44:32Z</time>
      </trkpt>
      <trkpt lat="43.40736" lon="4.59535">
        <ele>49.924</ele>
        <time>2019-04-30T12:44:42Z</time>
      </trkpt>
      <trkpt lat="43.40736" lon="4.59534">
        <ele>49.887</ele>
        <time>2019-04-30T12:44:53Z</time>
      </trkpt>
      <trkpt lat="43.40737" lon="4.59534">
        <ele>49.86</ele>
        <time>2019-04-30T12:45:04Z</time>
      </trkpt>
      <trkpt lat="43.40737" lon="4.59533">
        <ele>49.82</ele>
        <time>2019-04-30T12:45:15Z</time>
      </trkpt>
      <trkpt lat="43.40737" lon="4.59533">
        <ele>49.783</ele>
        <time>2019-04-30T12:45:26Z</time>
      </trkpt>
      <trkpt lat="43.40737" lon="4.59533">
        <ele>49.773</ele>
        <time>2019-04-30T12:45:36Z</time>
      </trkpt>
      <trkpt lat="43.40737" lon="4.59534">
        <ele>49.792</ele>
        <time>2019-04-30T12:45:46Z</time>
      </trkpt>
      <trkpt lat="43.40737" lon="4.59534">
        <ele>49.831</ele>
        <time>2019-04-30T12:45:57Z</time>
      </trkpt>
      <trkpt lat="43.40737" lon="4.59534">
        <ele>49.878</ele>
        <time>2019-04-30T12:46:07Z</time>
      </trkpt>
      <trkpt lat="43.40737" lon="4.59535">
        <ele>49.904</ele>
        <time>2019-04-30T12:46:18Z</time>
      </trkpt>
      <trkpt lat="43.40737" lon="4.59535">
        <ele>49.931</ele>
        <time>2019-04-30T12:46:29Z</time>
      </trkpt>
      <trkpt lat="43.40737" lon="4.59535">
        <ele>49.956</ele>
        <time>2019-04-30T12:46:40Z</time>
      </trkpt>
      <trkpt lat="43.40736" lon="4.59535">
        <ele>49.973</ele>
        <time>2019-04-30T12:46:51Z</time>
      </trkpt>
      <trkpt lat="43.40736" lon="4.59535">
        <ele>49.973</ele>
        <time>2019-04-30T12:47:02Z</time>
      </trkpt>
      <trkpt lat="43.40736" lon="4.59535">
        <ele>49.963</ele>
        <time>2019-04-30T12:47:12Z</time>
      </trkpt>
      <trkpt lat="43.40734" lon="4.59538">
        <ele>49.858</ele>
        <time>2019-04-30T12:47:22Z</time>
      </trkpt>
      <trkpt lat="43.4073" lon="4.59548">
        <ele>49.648</ele>
        <time>2019-04-30T12:47:32Z</time>
      </trkpt>
      <trkpt lat="43.40723" lon="4.59558">
        <ele>49.51</ele>
        <time>2019-04-30T12:47:43Z</time>
      </trkpt>
      <trkpt lat="43.40722" lon="4.59563">
        <ele>49.42</ele>
        <time>2019-04-30T12:47:53Z</time>
      </trkpt>
      <trkpt lat="43.40722" lon="4.59562">
        <ele>49.43</ele>
        <time>2019-04-30T12:48:04Z</time>
      </trkpt>
      <trkpt lat="43.40722" lon="4.59562">
        <ele>49.434</ele>
        <time>2019-04-30T12:48:15Z</time>
      </trkpt>
      <trkpt lat="43.40726" lon="4.59554">
        <ele>49.636</ele>
        <time>2019-04-30T12:48:26Z</time>
      </trkpt>
      <trkpt lat="43.40736" lon="4.5955">
        <ele>49.235</ele>
        <time>2019-04-30T12:48:36Z</time>
      </trkpt>
      <trkpt lat="43.40746" lon="4.59534">
        <ele>48.176</ele>
        <time>2019-04-30T12:48:47Z</time>
      </trkpt>
      <trkpt lat="43.40752" lon="4.59524">
        <ele>47.805</ele>
        <time>2019-04-30T12:48:58Z</time>
      </trkpt>
      <trkpt lat="43.4076" lon="4.59519">
        <ele>48.098</ele>
        <time>2019-04-30T12:49:08Z</time>
      </trkpt>
      <trkpt lat="43.40765" lon="4.59504">
        <ele>48.667</ele>
        <time>2019-04-30T12:49:19Z</time>
      </trkpt>
      <trkpt lat="43.40764" lon="4.59487">
        <ele>49.039</ele>
        <time>2019-04-30T12:49:30Z</time>
      </trkpt>
      <trkpt lat="43.4076" lon="4.59474">
        <ele>48.893</ele>
        <time>2019-04-30T12:49:41Z</time>
      </trkpt>
      <trkpt lat="43.40759" lon="4.59471">
        <ele>48.94</ele>
        <time>2019-04-30T12:49:51Z</time>
      </trkpt>
      <trkpt lat="43.4075" lon="4.59458">
        <ele>48.861</ele>
        <time>2019-04-30T12:50:02Z</time>
      </trkpt>
      <trkpt lat="43.40748" lon="4.59455">
        <ele>48.804</ele>
        <time>2019-04-30T12:50:12Z</time>
      </trkpt>
      <trkpt lat="43.40754" lon="4.59441">
        <ele>48.989</ele>
        <time>2019-04-30T12:50:23Z</time>
      </trkpt>
      <trkpt lat="43.40754" lon="4.59426">
        <ele>49.104</ele>
        <time>2019-04-30T12:50:33Z</time>
      </trkpt>
      <trkpt lat="43.40749" lon="4.59407">
        <ele>48.778</ele>
        <time>2019-04-30T12:50:44Z</time>
      </trkpt>
      <trkpt lat="43.40747" lon="4.5939">
        <ele>48.173</ele>
        <time>2019-04-30T12:50:55Z</time>
      </trkpt>
      <trkpt lat="43.40745" lon="4.59372">
        <ele>47.661</ele>
        <time>2019-04-30T12:51:06Z</time>
      </trkpt>
      <trkpt lat="43.4074" lon="4.59357">
        <ele>47.42</ele>
        <time>2019-04-30T12:51:16Z</time>
      </trkpt>
      <trkpt lat="43.40739" lon="4.5934">
        <ele>47.346</ele>
        <time>2019-04-30T12:51:27Z</time>
      </trkpt>
      <trkpt lat="43.40736" lon="4.59325">
        <ele>47.141</ele>
        <time>2019-04-30T12:51:37Z</time>
      </trkpt>
      <trkpt lat="43.40743" lon="4.59316">
        <ele>47.34</ele>
        <time>2019-04-30T12:51:48Z</time>
      </trkpt>
      <trkpt lat="43.40749" lon="4.59309">
        <ele>47.223</ele>
        <time>2019-04-30T12:51:59Z</time>
      </trkpt>
      <trkpt lat="43.40749" lon="4.59309">
        <ele>47.223</ele>
        <time>2019-04-30T12:52:10Z</time>
      </trkpt>
      <trkpt lat="43.40749" lon="4.5931">
        <ele>47.246</ele>
        <time>2019-04-30T12:52:21Z</time>
      </trkpt>
      <trkpt lat="43.40748" lon="4.59309">
        <ele>47.264</ele>
        <time>2019-04-30T12:52:32Z</time>
      </trkpt>
      <trkpt lat="43.40748" lon="4.59309">
        <ele>47.257</ele>
        <time>2019-04-30T12:52:42Z</time>
      </trkpt>
      <trkpt lat="43.40747" lon="4.59309">
        <ele>47.245</ele>
        <time>2019-04-30T12:52:53Z</time>
      </trkpt>
      <trkpt lat="43.40748" lon="4.59309">
        <ele>47.1</ele>
        <time>2019-04-30T12:53:04Z</time>
      </trkpt>
      <trkpt lat="43.40749" lon="4.59309">
        <ele>46.764</ele>
        <time>2019-04-30T12:53:14Z</time>
      </trkpt>
      <trkpt lat="43.4075" lon="4.59299">
        <ele>46.573</ele>
        <time>2019-04-30T12:53:24Z</time>
      </trkpt>
      <trkpt lat="43.40756" lon="4.59284">
        <ele>46.722</ele>
        <time>2019-04-30T12:53:35Z</time>
      </trkpt>
      <trkpt lat="43.40759" lon="4.59277">
        <ele>46.978</ele>
        <time>2019-04-30T12:53:46Z</time>
      </trkpt>
      <trkpt lat="43.4076" lon="4.59279">
        <ele>47.093</ele>
        <time>2019-04-30T12:53:56Z</time>
      </trkpt>
      <trkpt lat="43.4076" lon="4.59275">
        <ele>47.041</ele>
        <time>2019-04-30T12:54:07Z</time>
      </trkpt>
      <trkpt lat="43.40763" lon="4.59262">
        <ele>47.246</ele>
        <time>2019-04-30T12:54:18Z</time>
      </trkpt>
      <trkpt lat="43.40764" lon="4.59262">
        <ele>47.308</ele>
        <time>2019-04-30T12:54:29Z</time>
      </trkpt>
      <trkpt lat="43.40764" lon="4.59261">
        <ele>47.32</ele>
        <time>2019-04-30T12:54:40Z</time>
      </trkpt>
      <trkpt lat="43.40766" lon="4.59259">
        <ele>47.536</ele>
        <time>2019-04-30T12:54:50Z</time>
      </trkpt>
      <trkpt lat="43.40766" lon="4.59259">
        <ele>47.605</ele>
        <time>2019-04-30T12:55:01Z</time>
      </trkpt>
      <trkpt lat="43.40767" lon="4.59243">
        <ele>47.369</ele>
        <time>2019-04-30T12:55:12Z</time>
      </trkpt>
      <trkpt lat="43.40772" lon="4.59229">
        <ele>47.575</ele>
        <time>2019-04-30T12:55:22Z</time>
      </trkpt>
      <trkpt lat="43.4078" lon="4.59217">
        <ele>47.589</ele>
        <time>2019-04-30T12:55:33Z</time>
      </trkpt>
      <trkpt lat="43.40785" lon="4.59208">
        <ele>47.994</ele>
        <time>2019-04-30T12:55:44Z</time>
      </trkpt>
      <trkpt lat="43.40788" lon="4.59198">
        <ele>48.471</ele>
        <time>2019-04-30T12:55:54Z</time>
      </trkpt>
      <trkpt lat="43.40793" lon="4.59186">
        <ele>48.582</ele>
        <time>2019-04-30T12:56:04Z</time>
      </trkpt>
      <trkpt lat="43.40798" lon="4.59178">
        <ele>48.546</ele>
        <time>2019-04-30T12:56:14Z</time>
      </trkpt>
      <trkpt lat="43.40802" lon="4.59168">
        <ele>48.756</ele>
        <time>2019-04-30T12:56:25Z</time>
      </trkpt>
      <trkpt lat="43.40808" lon="4.59153">
        <ele>48.371</ele>
        <time>2019-04-30T12:56:35Z</time>
      </trkpt>
      <trkpt lat="43.40813" lon="4.59141">
        <ele>47.898</ele>
        <time>2019-04-30T12:56:46Z</time>
      </trkpt>
      <trkpt lat="43.40815" lon="4.59138">
        <ele>47.728</ele>
        <time>2019-04-30T12:56:56Z</time>
      </trkpt>
      <trkpt lat="43.40815" lon="4.59138">
        <ele>47.709</ele>
        <time>2019-04-30T12:57:07Z</time>
      </trkpt>
      <trkpt lat="43.40815" lon="4.59138">
        <ele>47.697</ele>
        <time>2019-04-30T12:57:17Z</time>
      </trkpt>
      <trkpt lat="43.40815" lon="4.59138">
        <ele>47.698</ele>
        <time>2019-04-30T12:57:28Z</time>
      </trkpt>
      <trkpt lat="43.40815" lon="4.59138">
        <ele>47.687</ele>
        <time>2019-04-30T12:57:38Z</time>
      </trkpt>
      <trkpt lat="43.40815" lon="4.59137">
        <ele>47.652</ele>
        <time>2019-04-30T12:57:49Z</time>
      </trkpt>
      <trkpt lat="43.40818" lon="4.59137">
        <ele>47.695</ele>
        <time>2019-04-30T12:57:59Z</time>
      </trkpt>
      <trkpt lat="43.40817" lon="4.59138">
        <ele>47.54</ele>
        <time>2019-04-30T12:58:10Z</time>
      </trkpt>
      <trkpt lat="43.40811" lon="4.59148">
        <ele>47.101</ele>
        <time>2019-04-30T12:58:20Z</time>
      </trkpt>
      <trkpt lat="43.40806" lon="4.59156">
        <ele>47.287</ele>
        <time>2019-04-30T12:58:30Z</time>
      </trkpt>
      <trkpt lat="43.40801" lon="4.59166">
        <ele>47.118</ele>
        <time>2019-04-30T12:58:41Z</time>
      </trkpt>
      <trkpt lat="43.40794" lon="4.59177">
        <ele>47.168</ele>
        <time>2019-04-30T12:58:52Z</time>
      </trkpt>
      <trkpt lat="43.40785" lon="4.59188">
        <ele>47.153</ele>
        <time>2019-04-30T12:59:02Z</time>
      </trkpt>
      <trkpt lat="43.40777" lon="4.592">
        <ele>46.897</ele>
        <time>2019-04-30T12:59:13Z</time>
      </trkpt>
      <trkpt lat="43.40773" lon="4.59214">
        <ele>46.748</ele>
        <time>2019-04-30T12:59:24Z</time>
      </trkpt>
      <trkpt lat="43.40766" lon="4.59228">
        <ele>46.325</ele>
        <time>2019-04-30T12:59:35Z</time>
      </trkpt>
      <trkpt lat="43.4076" lon="4.59241">
        <ele>45.89</ele>
        <time>2019-04-30T12:59:45Z</time>
      </trkpt>
      <trkpt lat="43.40754" lon="4.59255">
        <ele>45.484</ele>
        <time>2019-04-30T12:59:56Z</time>
      </trkpt>
      <trkpt lat="43.40749" lon="4.59269">
        <ele>45.126</ele>
        <time>2019-04-30T13:00:07Z</time>
      </trkpt>
      <trkpt lat="43.40745" lon="4.59285">
        <ele>44.626</ele>
        <time>2019-04-30T13:00:18Z</time>
      </trkpt>
      <trkpt lat="43.4074" lon="4.59295">
        <ele>44.643</ele>
        <time>2019-04-30T13:00:29Z</time>
      </trkpt>
      <trkpt lat="43.40734" lon="4.59308">
        <ele>44.981</ele>
        <time>2019-04-30T13:00:40Z</time>
      </trkpt>
      <trkpt lat="43.4073" lon="4.59325">
        <ele>45.323</ele>
        <time>2019-04-30T13:00:51Z</time>
      </trkpt>
      <trkpt lat="43.40725" lon="4.59339">
        <ele>45.408</ele>
        <time>2019-04-30T13:01:01Z</time>
      </trkpt>
      <trkpt lat="43.40726" lon="4.59355">
        <ele>45.648</ele>
        <time>2019-04-30T13:01:12Z</time>
      </trkpt>
      <trkpt lat="43.40723" lon="4.59369">
        <ele>45.861</ele>
        <time>2019-04-30T13:01:22Z</time>
      </trkpt>
      <trkpt lat="43.40713" lon="4.5938">
        <ele>46.11</ele>
        <time>2019-04-30T13:01:33Z</time>
      </trkpt>
      <trkpt lat="43.40704" lon="4.59389">
        <ele>46.269</ele>
        <time>2019-04-30T13:01:43Z</time>
      </trkpt>
      <trkpt lat="43.40696" lon="4.594">
        <ele>46.342</ele>
        <time>2019-04-30T13:01:53Z</time>
      </trkpt>
      <trkpt lat="43.40687" lon="4.59412">
        <ele>46.313</ele>
        <time>2019-04-30T13:02:04Z</time>
      </trkpt>
      <trkpt lat="43.40688" lon="4.59425">
        <ele>46.394</ele>
        <time>2019-04-30T13:02:14Z</time>
      </trkpt>
      <trkpt lat="43.407" lon="4.59428">
        <ele>46.363</ele>
        <time>2019-04-30T13:02:25Z</time>
      </trkpt>
      <trkpt lat="43.40713" lon="4.59434">
        <ele>46.209</ele>
        <time>2019-04-30T13:02:36Z</time>
      </trkpt>
      <trkpt lat="43.40725" lon="4.59436">
        <ele>46.099</ele>
        <time>2019-04-30T13:02:46Z</time>
      </trkpt>
      <trkpt lat="43.40737" lon="4.59441">
        <ele>46.03</ele>
        <time>2019-04-30T13:02:57Z</time>
      </trkpt>
      <trkpt lat="43.40747" lon="4.59452">
        <ele>46.15</ele>
        <time>2019-04-30T13:03:08Z</time>
      </trkpt>
      <trkpt lat="43.40755" lon="4.59464">
        <ele>46.358</ele>
        <time>2019-04-30T13:03:18Z</time>
      </trkpt>
      <trkpt lat="43.40761" lon="4.59479">
        <ele>46.643</ele>
        <time>2019-04-30T13:03:29Z</time>
      </trkpt>
      <trkpt lat="43.40766" lon="4.59495">
        <ele>46.95</ele>
        <time>2019-04-30T13:03:39Z</time>
      </trkpt>
      <trkpt lat="43.40766" lon="4.59509">
        <ele>47.293</ele>
        <time>2019-04-30T13:03:49Z</time>
      </trkpt>
      <trkpt lat="43.40759" lon="4.5952">
        <ele>47.668</ele>
        <time>2019-04-30T13:04:00Z</time>
      </trkpt>
      <trkpt lat="43.40753" lon="4.59528">
        <ele>47.755</ele>
        <time>2019-04-30T13:04:11Z</time>
      </trkpt>
      <trkpt lat="43.40751" lon="4.59525">
        <ele>47.866</ele>
        <time>2019-04-30T13:04:22Z</time>
      </trkpt>
      <trkpt lat="43.40751" lon="4.59525">
        <ele>47.913</ele>
        <time>2019-04-30T13:04:33Z</time>
      </trkpt>
      <trkpt lat="43.40751" lon="4.59525">
        <ele>47.942</ele>
        <time>2019-04-30T13:04:43Z</time>
      </trkpt>
      <trkpt lat="43.40751" lon="4.59525">
        <ele>47.966</ele>
        <time>2019-04-30T13:04:54Z</time>
      </trkpt>
      <trkpt lat="43.40751" lon="4.59525">
        <ele>47.977</ele>
        <time>2019-04-30T13:05:05Z</time>
      </trkpt>
      <trkpt lat="43.40744" lon="4.59535">
        <ele>48.014</ele>
        <time>2019-04-30T13:05:16Z</time>
      </trkpt>
      <trkpt lat="43.40735" lon="4.59546">
        <ele>47.939</ele>
        <time>2019-04-30T13:05:27Z</time>
      </trkpt>
      <trkpt lat="43.40725" lon="4.59557">
        <ele>47.843</ele>
        <time>2019-04-30T13:05:38Z</time>
      </trkpt>
      <trkpt lat="43.40724" lon="4.59561">
        <ele>47.85</ele>
        <time>2019-04-30T13:05:49Z</time>
      </trkpt>
      <trkpt lat="43.40724" lon="4.59562">
        <ele>47.791</ele>
        <time>2019-04-30T13:06:00Z</time>
      </trkpt>
      <trkpt lat="43.40724" lon="4.59562">
        <ele>47.744</ele>
        <time>2019-04-30T13:06:10Z</time>
      </trkpt>
      <trkpt lat="43.40725" lon="4.59562">
        <ele>47.662</ele>
        <time>2019-04-30T13:06:21Z</time>
      </trkpt>
      <trkpt lat="43.40724" lon="4.59562">
        <ele>47.668</ele>
        <time>2019-04-30T13:06:31Z</time>
      </trkpt>
      <trkpt lat="43.40721" lon="4.59563">
        <ele>47.867</ele>
        <time>2019-04-30T13:06:42Z</time>
      </trkpt>
      <trkpt lat="43.40724" lon="4.59576">
        <ele>48.516</ele>
        <time>2019-04-30T13:06:53Z</time>
      </trkpt>
      <trkpt lat="43.40726" lon="4.59604">
        <ele>49.129</ele>
        <time>2019-04-30T13:07:04Z</time>
      </trkpt>
      <trkpt lat="43.40717" lon="4.59636">
        <ele>48.849</ele>
        <time>2019-04-30T13:07:15Z</time>
      </trkpt>
      <trkpt lat="43.407" lon="4.59665">
        <ele>48.779</ele>
        <time>2019-04-30T13:07:25Z</time>
      </trkpt>
      <trkpt lat="43.40683" lon="4.59681">
        <ele>48.561</ele>
        <time>2019-04-30T13:07:36Z</time>
      </trkpt>
      <trkpt lat="43.40667" lon="4.59685">
        <ele>48.09</ele>
        <time>2019-04-30T13:07:46Z</time>
      </trkpt>
      <trkpt lat="43.40646" lon="4.59685">
        <ele>47.585</ele>
        <time>2019-04-30T13:07:57Z</time>
      </trkpt>
      <trkpt lat="43.40621" lon="4.59683">
        <ele>47.462</ele>
        <time>2019-04-30T13:08:07Z</time>
      </trkpt>
      <trkpt lat="43.40583" lon="4.59683">
        <ele>46.928</ele>
        <time>2019-04-30T13:08:18Z</time>
      </trkpt>
      <trkpt lat="43.40553" lon="4.59694">
        <ele>46.767</ele>
        <time>2019-04-30T13:08:28Z</time>
      </trkpt>
      <trkpt lat="43.40518" lon="4.59721">
        <ele>46.437</ele>
        <time>2019-04-30T13:08:39Z</time>
      </trkpt>
      <trkpt lat="43.4049" lon="4.59736">
        <ele>46.237</ele>
        <time>2019-04-30T13:08:49Z</time>
      </trkpt>
      <trkpt lat="43.40462" lon="4.59762">
        <ele>46.249</ele>
        <time>2019-04-30T13:09:00Z</time>
      </trkpt>
      <trkpt lat="43.40445" lon="4.59806">
        <ele>46.265</ele>
        <time>2019-04-30T13:09:11Z</time>
      </trkpt>
      <trkpt lat="43.4042" lon="4.59848">
        <ele>46.031</ele>
        <time>2019-04-30T13:09:22Z</time>
      </trkpt>
      <trkpt lat="43.40389" lon="4.59882">
        <ele>45.493</ele>
        <time>2019-04-30T13:09:32Z</time>
      </trkpt>
      <trkpt lat="43.40363" lon="4.59909">
        <ele>45.548</ele>
        <time>2019-04-30T13:09:42Z</time>
      </trkpt>
      <trkpt lat="43.40333" lon="4.59933">
        <ele>45.895</ele>
        <time>2019-04-30T13:09:53Z</time>
      </trkpt>
      <trkpt lat="43.40329" lon="4.59935">
        <ele>45.971</ele>
        <time>2019-04-30T13:10:04Z</time>
      </trkpt>
      <trkpt lat="43.40329" lon="4.59935">
        <ele>45.971</ele>
        <time>2019-04-30T13:10:15Z</time>
      </trkpt>
      <trkpt lat="43.40329" lon="4.59935">
        <ele>45.978</ele>
        <time>2019-04-30T13:10:25Z</time>
      </trkpt>
      <trkpt lat="43.40329" lon="4.59935">
        <ele>46.04</ele>
        <time>2019-04-30T13:10:35Z</time>
      </trkpt>
      <trkpt lat="43.40329" lon="4.59935">
        <ele>46.044</ele>
        <time>2019-04-30T13:10:46Z</time>
      </trkpt>
      <trkpt lat="43.40329" lon="4.59933">
        <ele>46.117</ele>
        <time>2019-04-30T13:10:57Z</time>
      </trkpt>
      <trkpt lat="43.40329" lon="4.59933">
        <ele>46.172</ele>
        <time>2019-04-30T13:11:07Z</time>
      </trkpt>
      <trkpt lat="43.40329" lon="4.59936">
        <ele>46.348</ele>
        <time>2019-04-30T13:11:18Z</time>
      </trkpt>
      <trkpt lat="43.40328" lon="4.59937">
        <ele>46.428</ele>
        <time>2019-04-30T13:11:29Z</time>
      </trkpt>
      <trkpt lat="43.40332" lon="4.59938">
        <ele>46.64</ele>
        <time>2019-04-30T13:11:39Z</time>
      </trkpt>
      <trkpt lat="43.40331" lon="4.59938">
        <ele>46.745</ele>
        <time>2019-04-30T13:11:50Z</time>
      </trkpt>
      <trkpt lat="43.40331" lon="4.59936">
        <ele>45.897</ele>
        <time>2019-04-30T13:12:00Z</time>
      </trkpt>
      <trkpt lat="43.4033" lon="4.59936">
        <ele>45.906</ele>
        <time>2019-04-30T13:12:11Z</time>
      </trkpt>
      <trkpt lat="43.4033" lon="4.59936">
        <ele>46.083</ele>
        <time>2019-04-30T13:12:22Z</time>
      </trkpt>
      <trkpt lat="43.4033" lon="4.59936">
        <ele>46.524</ele>
        <time>2019-04-30T13:12:32Z</time>
      </trkpt>
      <trkpt lat="43.40329" lon="4.59933">
        <ele>46.853</ele>
        <time>2019-04-30T13:12:42Z</time>
      </trkpt>
      <trkpt lat="43.40329" lon="4.59934">
        <ele>46.851</ele>
        <time>2019-04-30T13:12:53Z</time>
      </trkpt>
      <trkpt lat="43.40329" lon="4.59934">
        <ele>46.839</ele>
        <time>2019-04-30T13:13:03Z</time>
      </trkpt>
      <trkpt lat="43.4033" lon="4.59934">
        <ele>46.795</ele>
        <time>2019-04-30T13:13:14Z</time>
      </trkpt>
      <trkpt lat="43.4033" lon="4.59934">
        <ele>46.736</ele>
        <time>2019-04-30T13:13:25Z</time>
      </trkpt>
      <trkpt lat="43.4033" lon="4.59936">
        <ele>46.686</ele>
        <time>2019-04-30T13:13:35Z</time>
      </trkpt>
      <trkpt lat="43.40329" lon="4.59934">
        <ele>45.953</ele>
        <time>2019-04-30T13:13:46Z</time>
      </trkpt>
      <trkpt lat="43.40329" lon="4.59934">
        <ele>45.917</ele>
        <time>2019-04-30T13:13:57Z</time>
      </trkpt>
      <trkpt lat="43.40329" lon="4.59936">
        <ele>46.124</ele>
        <time>2019-04-30T13:14:08Z</time>
      </trkpt>
      <trkpt lat="43.40308" lon="4.59936">
        <ele>45.615</ele>
        <time>2019-04-30T13:14:19Z</time>
      </trkpt>
      <trkpt lat="43.40277" lon="4.59939">
        <ele>45.497</ele>
        <time>2019-04-30T13:14:30Z</time>
      </trkpt>
      <trkpt lat="43.40244" lon="4.59955">
        <ele>45.461</ele>
        <time>2019-04-30T13:14:41Z</time>
      </trkpt>
      <trkpt lat="43.40216" lon="4.59951">
        <ele>45.409</ele>
        <time>2019-04-30T13:14:52Z</time>
      </trkpt>
      <trkpt lat="43.40179" lon="4.59933">
        <ele>43.773</ele>
        <time>2019-04-30T13:15:02Z</time>
      </trkpt>
      <trkpt lat="43.40139" lon="4.59915">
        <ele>43.4</ele>
        <time>2019-04-30T13:15:13Z</time>
      </trkpt>
      <trkpt lat="43.40101" lon="4.59898">
        <ele>43.577</ele>
        <time>2019-04-30T13:15:24Z</time>
      </trkpt>
      <trkpt lat="43.40065" lon="4.59871">
        <ele>44.258</ele>
        <time>2019-04-30T13:15:35Z</time>
      </trkpt>
      <trkpt lat="43.40033" lon="4.59847">
        <ele>45.467</ele>
        <time>2019-04-30T13:15:45Z</time>
      </trkpt>
      <trkpt lat="43.39999" lon="4.59822">
        <ele>45.386</ele>
        <time>2019-04-30T13:15:56Z</time>
      </trkpt>
      <trkpt lat="43.39965" lon="4.59795">
        <ele>46.227</ele>
        <time>2019-04-30T13:16:07Z</time>
      </trkpt>
      <trkpt lat="43.39928" lon="4.59778">
        <ele>46.527</ele>
        <time>2019-04-30T13:16:18Z</time>
      </trkpt>
      <trkpt lat="43.39892" lon="4.59761">
        <ele>46.768</ele>
        <time>2019-04-30T13:16:29Z</time>
      </trkpt>
      <trkpt lat="43.39861" lon="4.59739">
        <ele>47.076</ele>
        <time>2019-04-30T13:16:39Z</time>
      </trkpt>
      <trkpt lat="43.39827" lon="4.59719">
        <ele>46.854</ele>
        <time>2019-04-30T13:16:50Z</time>
      </trkpt>
      <trkpt lat="43.39801" lon="4.59697">
        <ele>46.874</ele>
        <time>2019-04-30T13:17:00Z</time>
      </trkpt>
      <trkpt lat="43.39771" lon="4.59675">
        <ele>47.174</ele>
        <time>2019-04-30T13:17:11Z</time>
      </trkpt>
      <trkpt lat="43.39739" lon="4.59662">
        <ele>47.234</ele>
        <time>2019-04-30T13:17:21Z</time>
      </trkpt>
      <trkpt lat="43.39707" lon="4.59654">
        <ele>47.09</ele>
        <time>2019-04-30T13:17:31Z</time>
      </trkpt>
      <trkpt lat="43.39684" lon="4.59641">
        <ele>46.954</ele>
        <time>2019-04-30T13:17:41Z</time>
      </trkpt>
      <trkpt lat="43.39674" lon="4.59633">
        <ele>46.921</ele>
        <time>2019-04-30T13:17:52Z</time>
      </trkpt>
      <trkpt lat="43.39674" lon="4.59633">
        <ele>46.927</ele>
        <time>2019-04-30T13:18:03Z</time>
      </trkpt>
      <trkpt lat="43.39673" lon="4.59633">
        <ele>46.917</ele>
        <time>2019-04-30T13:18:13Z</time>
      </trkpt>
      <trkpt lat="43.39673" lon="4.59633">
        <ele>46.987</ele>
        <time>2019-04-30T13:18:24Z</time>
      </trkpt>
      <trkpt lat="43.39673" lon="4.59631">
        <ele>47.083</ele>
        <time>2019-04-30T13:18:34Z</time>
      </trkpt>
      <trkpt lat="43.39673" lon="4.59631">
        <ele>47.018</ele>
        <time>2019-04-30T13:18:44Z</time>
      </trkpt>
      <trkpt lat="43.39673" lon="4.59632">
        <ele>46.802</ele>
        <time>2019-04-30T13:18:55Z</time>
      </trkpt>
      <trkpt lat="43.39673" lon="4.59632">
        <ele>46.784</ele>
        <time>2019-04-30T13:19:06Z</time>
      </trkpt>
      <trkpt lat="43.39672" lon="4.59632">
        <ele>46.598</ele>
        <time>2019-04-30T13:19:16Z</time>
      </trkpt>
      <trkpt lat="43.39654" lon="4.59616">
        <ele>46.427</ele>
        <time>2019-04-30T13:19:27Z</time>
      </trkpt>
      <trkpt lat="43.39648" lon="4.59589">
        <ele>46.463</ele>
        <time>2019-04-30T13:19:37Z</time>
      </trkpt>
      <trkpt lat="43.39651" lon="4.59565">
        <ele>46.519</ele>
        <time>2019-04-30T13:19:47Z</time>
      </trkpt>
      <trkpt lat="43.39642" lon="4.59554">
        <ele>46.49</ele>
        <time>2019-04-30T13:19:58Z</time>
      </trkpt>
      <trkpt lat="43.39643" lon="4.59554">
        <ele>46.479</ele>
        <time>2019-04-30T13:20:08Z</time>
      </trkpt>
      <trkpt lat="43.39643" lon="4.59554">
        <ele>46.505</ele>
        <time>2019-04-30T13:20:19Z</time>
      </trkpt>
      <trkpt lat="43.39643" lon="4.59553">
        <ele>46.559</ele>
        <time>2019-04-30T13:20:29Z</time>
      </trkpt>
      <trkpt lat="43.39644" lon="4.59554">
        <ele>46.615</ele>
        <time>2019-04-30T13:20:39Z</time>
      </trkpt>
      <trkpt lat="43.39644" lon="4.59554">
        <ele>46.691</ele>
        <time>2019-04-30T13:20:49Z</time>
      </trkpt>
      <trkpt lat="43.39642" lon="4.59556">
        <ele>46.813</ele>
        <time>2019-04-30T13:21:00Z</time>
      </trkpt>
      <trkpt lat="43.39641" lon="4.59557">
        <ele>47.448</ele>
        <time>2019-04-30T13:21:10Z</time>
      </trkpt>
      <trkpt lat="43.39638" lon="4.59556">
        <ele>48.144</ele>
        <time>2019-04-30T13:21:20Z</time>
      </trkpt>
      <trkpt lat="43.39617" lon="4.59542">
        <ele>47.952</ele>
        <time>2019-04-30T13:21:31Z</time>
      </trkpt>
      <trkpt lat="43.39591" lon="4.59522">
        <ele>47.542</ele>
        <time>2019-04-30T13:21:42Z</time>
      </trkpt>
      <trkpt lat="43.39567" lon="4.59492">
        <ele>48.035</ele>
        <time>2019-04-30T13:21:53Z</time>
      </trkpt>
      <trkpt lat="43.39546" lon="4.59477">
        <ele>47.99</ele>
        <time>2019-04-30T13:22:04Z</time>
      </trkpt>
      <trkpt lat="43.39529" lon="4.59446">
        <ele>47.688</ele>
        <time>2019-04-30T13:22:14Z</time>
      </trkpt>
      <trkpt lat="43.39522" lon="4.59431">
        <ele>47.607</ele>
        <time>2019-04-30T13:22:25Z</time>
      </trkpt>
      <trkpt lat="43.39523" lon="4.59432">
        <ele>47.585</ele>
        <time>2019-04-30T13:22:36Z</time>
      </trkpt>
      <trkpt lat="43.39504" lon="4.59425">
        <ele>47.467</ele>
        <time>2019-04-30T13:22:47Z</time>
      </trkpt>
      <trkpt lat="43.39485" lon="4.59425">
        <ele>47.538</ele>
        <time>2019-04-30T13:22:58Z</time>
      </trkpt>
      <trkpt lat="43.39468" lon="4.59438">
        <ele>47.643</ele>
        <time>2019-04-30T13:23:08Z</time>
      </trkpt>
      <trkpt lat="43.39467" lon="4.59459">
        <ele>46.831</ele>
        <time>2019-04-30T13:23:18Z</time>
      </trkpt>
      <trkpt lat="43.3948" lon="4.59478">
        <ele>46.538</ele>
        <time>2019-04-30T13:23:29Z</time>
      </trkpt>
      <trkpt lat="43.39496" lon="4.59504">
        <ele>46.691</ele>
        <time>2019-04-30T13:23:39Z</time>
      </trkpt>
      <trkpt lat="43.39508" lon="4.59541">
        <ele>46.914</ele>
        <time>2019-04-30T13:23:50Z</time>
      </trkpt>
      <trkpt lat="43.39518" lon="4.59578">
        <ele>47.106</ele>
        <time>2019-04-30T13:24:01Z</time>
      </trkpt>
      <trkpt lat="43.39538" lon="4.59602">
        <ele>47.158</ele>
        <time>2019-04-30T13:24:11Z</time>
      </trkpt>
      <trkpt lat="43.39553" lon="4.59625">
        <ele>47.331</ele>
        <time>2019-04-30T13:24:21Z</time>
      </trkpt>
      <trkpt lat="43.39555" lon="4.59628">
        <ele>47.353</ele>
        <time>2019-04-30T13:24:32Z</time>
      </trkpt>
      <trkpt lat="43.39555" lon="4.59629">
        <ele>47.362</ele>
        <time>2019-04-30T13:24:42Z</time>
      </trkpt>
      <trkpt lat="43.39555" lon="4.59629">
        <ele>47.37</ele>
        <time>2019-04-30T13:24:53Z</time>
      </trkpt>
      <trkpt lat="43.39555" lon="4.59629">
        <ele>47.377</ele>
        <time>2019-04-30T13:25:04Z</time>
      </trkpt>
      <trkpt lat="43.39555" lon="4.59629">
        <ele>47.379</ele>
        <time>2019-04-30T13:25:14Z</time>
      </trkpt>
      <trkpt lat="43.39555" lon="4.59629">
        <ele>47.381</ele>
        <time>2019-04-30T13:25:25Z</time>
      </trkpt>
      <trkpt lat="43.39555" lon="4.59629">
        <ele>47.386</ele>
        <time>2019-04-30T13:25:35Z</time>
      </trkpt>
      <trkpt lat="43.39555" lon="4.59629">
        <ele>47.395</ele>
        <time>2019-04-30T13:25:46Z</time>
      </trkpt>
      <trkpt lat="43.39555" lon="4.59629">
        <ele>47.403</ele>
        <time>2019-04-30T13:25:56Z</time>
      </trkpt>
      <trkpt lat="43.39565" lon="4.5965">
        <ele>47.379</ele>
        <time>2019-04-30T13:26:07Z</time>
      </trkpt>
      <trkpt lat="43.39587" lon="4.59676">
        <ele>47.37</ele>
        <time>2019-04-30T13:26:17Z</time>
      </trkpt>
      <trkpt lat="43.39618" lon="4.59668">
        <ele>47.545</ele>
        <time>2019-04-30T13:26:28Z</time>
      </trkpt>
      <trkpt lat="43.39644" lon="4.59661">
        <ele>47.552</ele>
        <time>2019-04-30T13:26:38Z</time>
      </trkpt>
      <trkpt lat="43.39669" lon="4.59644">
        <ele>47.552</ele>
        <time>2019-04-30T13:26:49Z</time>
      </trkpt>
      <trkpt lat="43.39695" lon="4.59648">
        <ele>47.435</ele>
        <time>2019-04-30T13:27:00Z</time>
      </trkpt>
      <trkpt lat="43.3972" lon="4.59659">
        <ele>47.563</ele>
        <time>2019-04-30T13:27:10Z</time>
      </trkpt>
      <trkpt lat="43.3975" lon="4.59665">
        <ele>47.76</ele>
        <time>2019-04-30T13:27:21Z</time>
      </trkpt>
      <trkpt lat="43.3978" lon="4.59678">
        <ele>47.668</ele>
        <time>2019-04-30T13:27:32Z</time>
      </trkpt>
      <trkpt lat="43.39802" lon="4.597">
        <ele>47.674</ele>
        <time>2019-04-30T13:27:42Z</time>
      </trkpt>
      <trkpt lat="43.39826" lon="4.59722">
        <ele>47.98</ele>
        <time>2019-04-30T13:27:53Z</time>
      </trkpt>
      <trkpt lat="43.39849" lon="4.59736">
        <ele>48.298</ele>
        <time>2019-04-30T13:28:04Z</time>
      </trkpt>
      <trkpt lat="43.39871" lon="4.59754">
        <ele>48.639</ele>
        <time>2019-04-30T13:28:14Z</time>
      </trkpt>
      <trkpt lat="43.39894" lon="4.59769">
        <ele>48.862</ele>
        <time>2019-04-30T13:28:25Z</time>
      </trkpt>
      <trkpt lat="43.39926" lon="4.59778">
        <ele>49.642</ele>
        <time>2019-04-30T13:28:36Z</time>
      </trkpt>
      <trkpt lat="43.39957" lon="4.59792">
        <ele>49.777</ele>
        <time>2019-04-30T13:28:47Z</time>
      </trkpt>
      <trkpt lat="43.39988" lon="4.59811">
        <ele>49.422</ele>
        <time>2019-04-30T13:28:57Z</time>
      </trkpt>
      <trkpt lat="43.40016" lon="4.59833">
        <ele>49.111</ele>
        <time>2019-04-30T13:29:08Z</time>
      </trkpt>
      <trkpt lat="43.40042" lon="4.59852">
        <ele>49.003</ele>
        <time>2019-04-30T13:29:18Z</time>
      </trkpt>
      <trkpt lat="43.40064" lon="4.59872">
        <ele>49.138</ele>
        <time>2019-04-30T13:29:28Z</time>
      </trkpt>
      <trkpt lat="43.40094" lon="4.59893">
        <ele>49.225</ele>
        <time>2019-04-30T13:29:39Z</time>
      </trkpt>
      <trkpt lat="43.40123" lon="4.59907">
        <ele>49.214</ele>
        <time>2019-04-30T13:29:50Z</time>
      </trkpt>
      <trkpt lat="43.40152" lon="4.5992">
        <ele>49.03</ele>
        <time>2019-04-30T13:30:01Z</time>
      </trkpt>
      <trkpt lat="43.40177" lon="4.59929">
        <ele>48.93</ele>
        <time>2019-04-30T13:30:11Z</time>
      </trkpt>
      <trkpt lat="43.40208" lon="4.59935">
        <ele>48.742</ele>
        <time>2019-04-30T13:30:22Z</time>
      </trkpt>
      <trkpt lat="43.40237" lon="4.59937">
        <ele>48.909</ele>
        <time>2019-04-30T13:30:32Z</time>
      </trkpt>
      <trkpt lat="43.40271" lon="4.59935">
        <ele>49.276</ele>
        <time>2019-04-30T13:30:43Z</time>
      </trkpt>
      <trkpt lat="43.40305" lon="4.5993">
        <ele>49.235</ele>
        <time>2019-04-30T13:30:54Z</time>
      </trkpt>
      <trkpt lat="43.40337" lon="4.59919">
        <ele>48.951</ele>
        <time>2019-04-30T13:31:05Z</time>
      </trkpt>
      <trkpt lat="43.40368" lon="4.59902">
        <ele>48.756</ele>
        <time>2019-04-30T13:31:15Z</time>
      </trkpt>
      <trkpt lat="43.40399" lon="4.5988">
        <ele>48.525</ele>
        <time>2019-04-30T13:31:25Z</time>
      </trkpt>
      <trkpt lat="43.40432" lon="4.5986">
        <ele>48.244</ele>
        <time>2019-04-30T13:31:36Z</time>
      </trkpt>
      <trkpt lat="43.40463" lon="4.59844">
        <ele>48.229</ele>
        <time>2019-04-30T13:31:46Z</time>
      </trkpt>
      <trkpt lat="43.4049" lon="4.59813">
        <ele>48.386</ele>
        <time>2019-04-30T13:31:57Z</time>
      </trkpt>
      <trkpt lat="43.40515" lon="4.59778">
        <ele>48.654</ele>
        <time>2019-04-30T13:32:07Z</time>
      </trkpt>
      <trkpt lat="43.40541" lon="4.59738">
        <ele>48.58</ele>
        <time>2019-04-30T13:32:18Z</time>
      </trkpt>
      <trkpt lat="43.40571" lon="4.59706">
        <ele>48.67</ele>
        <time>2019-04-30T13:32:29Z</time>
      </trkpt>
      <trkpt lat="43.40598" lon="4.59682">
        <ele>48.645</ele>
        <time>2019-04-30T13:32:39Z</time>
      </trkpt>
      <trkpt lat="43.40622" lon="4.59685">
        <ele>48.898</ele>
        <time>2019-04-30T13:32:49Z</time>
      </trkpt>
      <trkpt lat="43.40651" lon="4.59685">
        <ele>49.124</ele>
        <time>2019-04-30T13:33:00Z</time>
      </trkpt>
      <trkpt lat="43.40679" lon="4.59693">
        <ele>48.689</ele>
        <time>2019-04-30T13:33:11Z</time>
      </trkpt>
      <trkpt lat="43.40696" lon="4.59715">
        <ele>48.574</ele>
        <time>2019-04-30T13:33:21Z</time>
      </trkpt>
      <trkpt lat="43.40719" lon="4.59741">
        <ele>48.764</ele>
        <time>2019-04-30T13:33:32Z</time>
      </trkpt>
      <trkpt lat="43.40737" lon="4.59774">
        <ele>48.917</ele>
        <time>2019-04-30T13:33:43Z</time>
      </trkpt>
      <trkpt lat="43.40751" lon="4.5981">
        <ele>49.003</ele>
        <time>2019-04-30T13:33:53Z</time>
      </trkpt>
      <trkpt lat="43.40765" lon="4.5985">
        <ele>48.946</ele>
        <time>2019-04-30T13:34:04Z</time>
      </trkpt>
      <trkpt lat="43.40775" lon="4.59889">
        <ele>48.929</ele>
        <time>2019-04-30T13:34:15Z</time>
      </trkpt>
      <trkpt lat="43.40782" lon="4.59927">
        <ele>49.085</ele>
        <time>2019-04-30T13:34:25Z</time>
      </trkpt>
      <trkpt lat="43.40794" lon="4.59968">
        <ele>49.799</ele>
        <time>2019-04-30T13:34:36Z</time>
      </trkpt>
      <trkpt lat="43.40805" lon="4.60008">
        <ele>49.894</ele>
        <time>2019-04-30T13:34:46Z</time>
      </trkpt>
      <trkpt lat="43.40815" lon="4.60044">
        <ele>49.871</ele>
        <time>2019-04-30T13:34:56Z</time>
      </trkpt>
      <trkpt lat="43.40825" lon="4.60086">
        <ele>50.262</ele>
        <time>2019-04-30T13:35:07Z</time>
      </trkpt>
      <trkpt lat="43.40835" lon="4.60132">
        <ele>50.394</ele>
        <time>2019-04-30T13:35:18Z</time>
      </trkpt>
      <trkpt lat="43.40844" lon="4.60176">
        <ele>50.446</ele>
        <time>2019-04-30T13:35:28Z</time>
      </trkpt>
      <trkpt lat="43.40859" lon="4.6022">
        <ele>50.586</ele>
        <time>2019-04-30T13:35:39Z</time>
      </trkpt>
      <trkpt lat="43.40872" lon="4.60261">
        <ele>50.358</ele>
        <time>2019-04-30T13:35:49Z</time>
      </trkpt>
      <trkpt lat="43.40889" lon="4.60301">
        <ele>49.969</ele>
        <time>2019-04-30T13:36:00Z</time>
      </trkpt>
      <trkpt lat="43.40903" lon="4.60336">
        <ele>49.663</ele>
        <time>2019-04-30T13:36:10Z</time>
      </trkpt>
      <trkpt lat="43.40925" lon="4.60375">
        <ele>49.268</ele>
        <time>2019-04-30T13:36:21Z</time>
      </trkpt>
      <trkpt lat="43.4094" lon="4.60403">
        <ele>49.007</ele>
        <time>2019-04-30T13:36:32Z</time>
      </trkpt>
      <trkpt lat="43.40937" lon="4.6045">
        <ele>47.144</ele>
        <time>2019-04-30T13:36:42Z</time>
      </trkpt>
      <trkpt lat="43.40912" lon="4.60493">
        <ele>47.274</ele>
        <time>2019-04-30T13:36:53Z</time>
      </trkpt>
      <trkpt lat="43.40906" lon="4.60543">
        <ele>46.903</ele>
        <time>2019-04-30T13:37:03Z</time>
      </trkpt>
      <trkpt lat="43.40927" lon="4.6058">
        <ele>47.229</ele>
        <time>2019-04-30T13:37:14Z</time>
      </trkpt>
      <trkpt lat="43.40951" lon="4.6059">
        <ele>48.129</ele>
        <time>2019-04-30T13:37:25Z</time>
      </trkpt>
      <trkpt lat="43.40976" lon="4.60614">
        <ele>48.828</ele>
        <time>2019-04-30T13:37:36Z</time>
      </trkpt>
      <trkpt lat="43.40998" lon="4.60648">
        <ele>49.361</ele>
        <time>2019-04-30T13:37:47Z</time>
      </trkpt>
      <trkpt lat="43.41022" lon="4.60682">
        <ele>49.449</ele>
        <time>2019-04-30T13:37:58Z</time>
      </trkpt>
      <trkpt lat="43.41045" lon="4.60716">
        <ele>49.202</ele>
        <time>2019-04-30T13:38:09Z</time>
      </trkpt>
      <trkpt lat="43.41066" lon="4.60754">
        <ele>48.934</ele>
        <time>2019-04-30T13:38:20Z</time>
      </trkpt>
      <trkpt lat="43.41068" lon="4.60758">
        <ele>48.809</ele>
        <time>2019-04-30T13:38:31Z</time>
      </trkpt>
      <trkpt lat="43.41068" lon="4.60758">
        <ele>48.769</ele>
        <time>2019-04-30T13:38:41Z</time>
      </trkpt>
      <trkpt lat="43.41068" lon="4.60758">
        <ele>48.736</ele>
        <time>2019-04-30T13:38:51Z</time>
      </trkpt>
      <trkpt lat="43.41077" lon="4.60768">
        <ele>48.763</ele>
        <time>2019-04-30T13:39:02Z</time>
      </trkpt>
      <trkpt lat="43.41098" lon="4.60805">
        <ele>48.976</ele>
        <time>2019-04-30T13:39:13Z</time>
      </trkpt>
      <trkpt lat="43.41113" lon="4.60841">
        <ele>49.235</ele>
        <time>2019-04-30T13:39:24Z</time>
      </trkpt>
      <trkpt lat="43.41127" lon="4.60883">
        <ele>49.286</ele>
        <time>2019-04-30T13:39:35Z</time>
      </trkpt>
      <trkpt lat="43.41145" lon="4.60917">
        <ele>49.405</ele>
        <time>2019-04-30T13:39:45Z</time>
      </trkpt>
      <trkpt lat="43.41175" lon="4.60936">
        <ele>49.838</ele>
        <time>2019-04-30T13:39:56Z</time>
      </trkpt>
      <trkpt lat="43.41204" lon="4.60961">
        <ele>50.165</ele>
        <time>2019-04-30T13:40:07Z</time>
      </trkpt>
      <trkpt lat="43.41229" lon="4.60986">
        <ele>50.11</ele>
        <time>2019-04-30T13:40:17Z</time>
      </trkpt>
      <trkpt lat="43.41256" lon="4.61014">
        <ele>50.063</ele>
        <time>2019-04-30T13:40:28Z</time>
      </trkpt>
      <trkpt lat="43.41281" lon="4.61044">
        <ele>50.261</ele>
        <time>2019-04-30T13:40:39Z</time>
      </trkpt>
      <trkpt lat="43.41299" lon="4.61076">
        <ele>50.482</ele>
        <time>2019-04-30T13:40:50Z</time>
      </trkpt>
      <trkpt lat="43.41321" lon="4.61106">
        <ele>51.017</ele>
        <time>2019-04-30T13:41:00Z</time>
      </trkpt>
      <trkpt lat="43.41347" lon="4.61134">
        <ele>51.555</ele>
        <time>2019-04-30T13:41:11Z</time>
      </trkpt>
      <trkpt lat="43.41366" lon="4.61166">
        <ele>51.461</ele>
        <time>2019-04-30T13:41:21Z</time>
      </trkpt>
      <trkpt lat="43.41391" lon="4.61196">
        <ele>50.893</ele>
        <time>2019-04-30T13:41:31Z</time>
      </trkpt>
      <trkpt lat="43.41413" lon="4.61234">
        <ele>50.425</ele>
        <time>2019-04-30T13:41:42Z</time>
      </trkpt>
      <trkpt lat="43.41434" lon="4.61265">
        <ele>50.186</ele>
        <time>2019-04-30T13:41:52Z</time>
      </trkpt>
      <trkpt lat="43.41453" lon="4.61305">
        <ele>50.012</ele>
        <time>2019-04-30T13:42:03Z</time>
      </trkpt>
      <trkpt lat="43.41472" lon="4.61341">
        <ele>49.996</ele>
        <time>2019-04-30T13:42:13Z</time>
      </trkpt>
      <trkpt lat="43.41491" lon="4.6139">
        <ele>49.782</ele>
        <time>2019-04-30T13:42:24Z</time>
      </trkpt>
      <trkpt lat="43.41486" lon="4.61423">
        <ele>49.342</ele>
        <time>2019-04-30T13:42:34Z</time>
      </trkpt>
      <trkpt lat="43.41479" lon="4.61456">
        <ele>48.657</ele>
        <time>2019-04-30T13:42:44Z</time>
      </trkpt>
      <trkpt lat="43.41467" lon="4.61503">
        <ele>48.063</ele>
        <time>2019-04-30T13:42:55Z</time>
      </trkpt>
      <trkpt lat="43.41451" lon="4.61553">
        <ele>46.926</ele>
        <time>2019-04-30T13:43:06Z</time>
      </trkpt>
      <trkpt lat="43.41464" lon="4.61591">
        <ele>46.941</ele>
        <time>2019-04-30T13:43:16Z</time>
      </trkpt>
      <trkpt lat="43.41485" lon="4.61619">
        <ele>47.54</ele>
        <time>2019-04-30T13:43:26Z</time>
      </trkpt>
      <trkpt lat="43.41477" lon="4.6167">
        <ele>47.8</ele>
        <time>2019-04-30T13:43:37Z</time>
      </trkpt>
      <trkpt lat="43.41474" lon="4.61718">
        <ele>48.037</ele>
        <time>2019-04-30T13:43:48Z</time>
      </trkpt>
      <trkpt lat="43.41482" lon="4.61769">
        <ele>48.118</ele>
        <time>2019-04-30T13:43:59Z</time>
      </trkpt>
      <trkpt lat="43.41504" lon="4.61809">
        <ele>48.27</ele>
        <time>2019-04-30T13:44:10Z</time>
      </trkpt>
      <trkpt lat="43.41524" lon="4.61842">
        <ele>48.354</ele>
        <time>2019-04-30T13:44:20Z</time>
      </trkpt>
      <trkpt lat="43.41553" lon="4.61874">
        <ele>49.249</ele>
        <time>2019-04-30T13:44:31Z</time>
      </trkpt>
      <trkpt lat="43.41578" lon="4.61904">
        <ele>50.471</ele>
        <time>2019-04-30T13:44:42Z</time>
      </trkpt>
      <trkpt lat="43.41604" lon="4.6193">
        <ele>51.631</ele>
        <time>2019-04-30T13:44:53Z</time>
      </trkpt>
      <trkpt lat="43.41633" lon="4.6196">
        <ele>51.488</ele>
        <time>2019-04-30T13:45:04Z</time>
      </trkpt>
      <trkpt lat="43.4166" lon="4.61991">
        <ele>51.094</ele>
        <time>2019-04-30T13:45:14Z</time>
      </trkpt>
      <trkpt lat="43.41689" lon="4.62023">
        <ele>50.642</ele>
        <time>2019-04-30T13:45:25Z</time>
      </trkpt>
      <trkpt lat="43.41719" lon="4.62059">
        <ele>50.37</ele>
        <time>2019-04-30T13:45:36Z</time>
      </trkpt>
      <trkpt lat="43.41747" lon="4.62091">
        <ele>50.259</ele>
        <time>2019-04-30T13:45:46Z</time>
      </trkpt>
      <trkpt lat="43.41773" lon="4.62123">
        <ele>50.02</ele>
        <time>2019-04-30T13:45:57Z</time>
      </trkpt>
      <trkpt lat="43.41799" lon="4.62153">
        <ele>50.22</ele>
        <time>2019-04-30T13:46:08Z</time>
      </trkpt>
      <trkpt lat="43.41819" lon="4.62186">
        <ele>50.266</ele>
        <time>2019-04-30T13:46:19Z</time>
      </trkpt>
      <trkpt lat="43.41806" lon="4.6223">
        <ele>49.958</ele>
        <time>2019-04-30T13:46:30Z</time>
      </trkpt>
      <trkpt lat="43.41786" lon="4.62279">
        <ele>49.063</ele>
        <time>2019-04-30T13:46:41Z</time>
      </trkpt>
      <trkpt lat="43.41766" lon="4.62329">
        <ele>48.415</ele>
        <time>2019-04-30T13:46:51Z</time>
      </trkpt>
      <trkpt lat="43.41742" lon="4.62382">
        <ele>47.858</ele>
        <time>2019-04-30T13:47:02Z</time>
      </trkpt>
      <trkpt lat="43.41717" lon="4.6244">
        <ele>47.782</ele>
        <time>2019-04-30T13:47:13Z</time>
      </trkpt>
      <trkpt lat="43.41691" lon="4.62501">
        <ele>47.489</ele>
        <time>2019-04-30T13:47:24Z</time>
      </trkpt>
      <trkpt lat="43.41666" lon="4.62559">
        <ele>47.86</ele>
        <time>2019-04-30T13:47:35Z</time>
      </trkpt>
      <trkpt lat="43.41643" lon="4.62612">
        <ele>48.036</ele>
        <time>2019-04-30T13:47:45Z</time>
      </trkpt>
      <trkpt lat="43.41616" lon="4.62675">
        <ele>47.776</ele>
        <time>2019-04-30T13:47:56Z</time>
      </trkpt>
      <trkpt lat="43.41589" lon="4.62737">
        <ele>47.854</ele>
        <time>2019-04-30T13:48:07Z</time>
      </trkpt>
      <trkpt lat="43.41567" lon="4.62792">
        <ele>47.861</ele>
        <time>2019-04-30T13:48:17Z</time>
      </trkpt>
      <trkpt lat="43.41551" lon="4.62848">
        <ele>46.957</ele>
        <time>2019-04-30T13:48:28Z</time>
      </trkpt>
      <trkpt lat="43.41535" lon="4.62906">
        <ele>46.847</ele>
        <time>2019-04-30T13:48:39Z</time>
      </trkpt>
      <trkpt lat="43.41515" lon="4.62965">
        <ele>47.077</ele>
        <time>2019-04-30T13:48:50Z</time>
      </trkpt>
      <trkpt lat="43.41498" lon="4.63023">
        <ele>47.252</ele>
        <time>2019-04-30T13:49:00Z</time>
      </trkpt>
      <trkpt lat="43.41482" lon="4.6308">
        <ele>47.094</ele>
        <time>2019-04-30T13:49:10Z</time>
      </trkpt>
      <trkpt lat="43.41465" lon="4.63143">
        <ele>46.828</ele>
        <time>2019-04-30T13:49:21Z</time>
      </trkpt>
      <trkpt lat="43.41448" lon="4.63205">
        <ele>46.819</ele>
        <time>2019-04-30T13:49:31Z</time>
      </trkpt>
      <trkpt lat="43.4143" lon="4.63272">
        <ele>47.186</ele>
        <time>2019-04-30T13:49:42Z</time>
      </trkpt>
      <trkpt lat="43.41414" lon="4.63336">
        <ele>47.763</ele>
        <time>2019-04-30T13:49:53Z</time>
      </trkpt>
      <trkpt lat="43.41398" lon="4.63397">
        <ele>49.835</ele>
        <time>2019-04-30T13:50:04Z</time>
      </trkpt>
      <trkpt lat="43.41388" lon="4.6346">
        <ele>51.481</ele>
        <time>2019-04-30T13:50:15Z</time>
      </trkpt>
      <trkpt lat="43.41382" lon="4.63516">
        <ele>54.631</ele>
        <time>2019-04-30T13:50:26Z</time>
      </trkpt>
      <trkpt lat="43.41374" lon="4.63574">
        <ele>51.581</ele>
        <time>2019-04-30T13:50:37Z</time>
      </trkpt>
      <trkpt lat="43.41365" lon="4.63636">
        <ele>49.655</ele>
        <time>2019-04-30T13:50:48Z</time>
      </trkpt>
      <trkpt lat="43.41357" lon="4.63699">
        <ele>48.454</ele>
        <time>2019-04-30T13:50:59Z</time>
      </trkpt>
      <trkpt lat="43.4135" lon="4.63759">
        <ele>49.461</ele>
        <time>2019-04-30T13:51:09Z</time>
      </trkpt>
      <trkpt lat="43.41341" lon="4.63829">
        <ele>49.895</ele>
        <time>2019-04-30T13:51:20Z</time>
      </trkpt>
      <trkpt lat="43.41333" lon="4.63894">
        <ele>49.325</ele>
        <time>2019-04-30T13:51:30Z</time>
      </trkpt>
      <trkpt lat="43.41322" lon="4.63962">
        <ele>47.092</ele>
        <time>2019-04-30T13:51:40Z</time>
      </trkpt>
      <trkpt lat="43.41305" lon="4.64036">
        <ele>47.35</ele>
        <time>2019-04-30T13:51:51Z</time>
      </trkpt>
      <trkpt lat="43.41289" lon="4.64109">
        <ele>47.064</ele>
        <time>2019-04-30T13:52:01Z</time>
      </trkpt>
      <trkpt lat="43.41273" lon="4.64187">
        <ele>46.519</ele>
        <time>2019-04-30T13:52:12Z</time>
      </trkpt>
      <trkpt lat="43.41256" lon="4.64259">
        <ele>46.5</ele>
        <time>2019-04-30T13:52:23Z</time>
      </trkpt>
      <trkpt lat="43.4124" lon="4.64333">
        <ele>47.319</ele>
        <time>2019-04-30T13:52:34Z</time>
      </trkpt>
      <trkpt lat="43.41225" lon="4.644">
        <ele>47.126</ele>
        <time>2019-04-30T13:52:44Z</time>
      </trkpt>
      <trkpt lat="43.41208" lon="4.64475">
        <ele>47.219</ele>
        <time>2019-04-30T13:52:55Z</time>
      </trkpt>
      <trkpt lat="43.41192" lon="4.64549">
        <ele>47.3</ele>
        <time>2019-04-30T13:53:06Z</time>
      </trkpt>
      <trkpt lat="43.41181" lon="4.64615">
        <ele>47.718</ele>
        <time>2019-04-30T13:53:16Z</time>
      </trkpt>
      <trkpt lat="43.41163" lon="4.64681">
        <ele>48.505</ele>
        <time>2019-04-30T13:53:27Z</time>
      </trkpt>
      <trkpt lat="43.41141" lon="4.64751">
        <ele>48.701</ele>
        <time>2019-04-30T13:53:38Z</time>
      </trkpt>
      <trkpt lat="43.41122" lon="4.64815">
        <ele>48.71</ele>
        <time>2019-04-30T13:53:48Z</time>
      </trkpt>
      <trkpt lat="43.41102" lon="4.64885">
        <ele>49.185</ele>
        <time>2019-04-30T13:53:59Z</time>
      </trkpt>
      <trkpt lat="43.41082" lon="4.6495">
        <ele>49.829</ele>
        <time>2019-04-30T13:54:10Z</time>
      </trkpt>
      <trkpt lat="43.41066" lon="4.65002">
        <ele>51.949</ele>
        <time>2019-04-30T13:54:20Z</time>
      </trkpt>
      <trkpt lat="43.4105" lon="4.65058">
        <ele>52.41</ele>
        <time>2019-04-30T13:54:31Z</time>
      </trkpt>
      <trkpt lat="43.41032" lon="4.65118">
        <ele>51.945</ele>
        <time>2019-04-30T13:54:42Z</time>
      </trkpt>
      <trkpt lat="43.41015" lon="4.65178">
        <ele>51.837</ele>
        <time>2019-04-30T13:54:53Z</time>
      </trkpt>
      <trkpt lat="43.40999" lon="4.65236">
        <ele>51.804</ele>
        <time>2019-04-30T13:55:03Z</time>
      </trkpt>
      <trkpt lat="43.40985" lon="4.65292">
        <ele>52.118</ele>
        <time>2019-04-30T13:55:13Z</time>
      </trkpt>
      <trkpt lat="43.40968" lon="4.65354">
        <ele>53.22</ele>
        <time>2019-04-30T13:55:24Z</time>
      </trkpt>
      <trkpt lat="43.40951" lon="4.65414">
        <ele>51.963</ele>
        <time>2019-04-30T13:55:35Z</time>
      </trkpt>
      <trkpt lat="43.40933" lon="4.65476">
        <ele>52.683</ele>
        <time>2019-04-30T13:55:46Z</time>
      </trkpt>
      <trkpt lat="43.40916" lon="4.65534">
        <ele>53.699</ele>
        <time>2019-04-30T13:55:56Z</time>
      </trkpt>
      <trkpt lat="43.40899" lon="4.65596">
        <ele>53.031</ele>
        <time>2019-04-30T13:56:07Z</time>
      </trkpt>
      <trkpt lat="43.40883" lon="4.65658">
        <ele>51.484</ele>
        <time>2019-04-30T13:56:18Z</time>
      </trkpt>
      <trkpt lat="43.40868" lon="4.65718">
        <ele>50.835</ele>
        <time>2019-04-30T13:56:29Z</time>
      </trkpt>
      <trkpt lat="43.40851" lon="4.65777">
        <ele>50.346</ele>
        <time>2019-04-30T13:56:40Z</time>
      </trkpt>
      <trkpt lat="43.40838" lon="4.65827">
        <ele>49.798</ele>
        <time>2019-04-30T13:56:51Z</time>
      </trkpt>
      <trkpt lat="43.4082" lon="4.65887">
        <ele>49.043</ele>
        <time>2019-04-30T13:57:02Z</time>
      </trkpt>
      <trkpt lat="43.40795" lon="4.65947">
        <ele>50.421</ele>
        <time>2019-04-30T13:57:13Z</time>
      </trkpt>
      <trkpt lat="43.40767" lon="4.66006">
        <ele>50.11</ele>
        <time>2019-04-30T13:57:24Z</time>
      </trkpt>
      <trkpt lat="43.40737" lon="4.66067">
        <ele>49.668</ele>
        <time>2019-04-30T13:57:35Z</time>
      </trkpt>
      <trkpt lat="43.40711" lon="4.66125">
        <ele>48.217</ele>
        <time>2019-04-30T13:57:45Z</time>
      </trkpt>
      <trkpt lat="43.40684" lon="4.66186">
        <ele>47.176</ele>
        <time>2019-04-30T13:57:56Z</time>
      </trkpt>
      <trkpt lat="43.4066" lon="4.66234">
        <ele>47.217</ele>
        <time>2019-04-30T13:58:07Z</time>
      </trkpt>
      <trkpt lat="43.40637" lon="4.66288">
        <ele>45.96</ele>
        <time>2019-04-30T13:58:17Z</time>
      </trkpt>
      <trkpt lat="43.40609" lon="4.66343">
        <ele>42.179</ele>
        <time>2019-04-30T13:58:27Z</time>
      </trkpt>
      <trkpt lat="43.40583" lon="4.66408">
        <ele>40.519</ele>
        <time>2019-04-30T13:58:38Z</time>
      </trkpt>
      <trkpt lat="43.40553" lon="4.66466">
        <ele>39.185</ele>
        <time>2019-04-30T13:58:48Z</time>
      </trkpt>
      <trkpt lat="43.40523" lon="4.66535">
        <ele>39.411</ele>
        <time>2019-04-30T13:58:59Z</time>
      </trkpt>
      <trkpt lat="43.40492" lon="4.66603">
        <ele>43.224</ele>
        <time>2019-04-30T13:59:10Z</time>
      </trkpt>
      <trkpt lat="43.4046" lon="4.66674">
        <ele>46.248</ele>
        <time>2019-04-30T13:59:21Z</time>
      </trkpt>
      <trkpt lat="43.40427" lon="4.66745">
        <ele>46.453</ele>
        <time>2019-04-30T13:59:32Z</time>
      </trkpt>
      <trkpt lat="43.40399" lon="4.66809">
        <ele>46.356</ele>
        <time>2019-04-30T13:59:42Z</time>
      </trkpt>
      <trkpt lat="43.40365" lon="4.66871">
        <ele>45.57</ele>
        <time>2019-04-30T13:59:52Z</time>
      </trkpt>
      <trkpt lat="43.40314" lon="4.6692">
        <ele>41.906</ele>
        <time>2019-04-30T14:00:03Z</time>
      </trkpt>
      <trkpt lat="43.40298" lon="4.66951">
        <ele>41.944</ele>
        <time>2019-04-30T14:00:14Z</time>
      </trkpt>
      <trkpt lat="43.40298" lon="4.6695">
        <ele>42.051</ele>
        <time>2019-04-30T14:00:24Z</time>
      </trkpt>
      <trkpt lat="43.40298" lon="4.6695">
        <ele>42.233</ele>
        <time>2019-04-30T14:00:35Z</time>
      </trkpt>
      <trkpt lat="43.40305" lon="4.66964">
        <ele>44.108</ele>
        <time>2019-04-30T14:00:46Z</time>
      </trkpt>
      <trkpt lat="43.40315" lon="4.66978">
        <ele>45.336</ele>
        <time>2019-04-30T14:00:57Z</time>
      </trkpt>
      <trkpt lat="43.40316" lon="4.66979">
        <ele>45.566</ele>
        <time>2019-04-30T14:01:08Z</time>
      </trkpt>
      <trkpt lat="43.40316" lon="4.66979">
        <ele>45.615</ele>
        <time>2019-04-30T14:01:18Z</time>
      </trkpt>
      <trkpt lat="43.40316" lon="4.66979">
        <ele>45.65</ele>
        <time>2019-04-30T14:01:28Z</time>
      </trkpt>
      <trkpt lat="43.40316" lon="4.66979">
        <ele>45.68</ele>
        <time>2019-04-30T14:01:38Z</time>
      </trkpt>
      <trkpt lat="43.40316" lon="4.66979">
        <ele>45.701</ele>
        <time>2019-04-30T14:01:49Z</time>
      </trkpt>
      <trkpt lat="43.40316" lon="4.66979">
        <ele>45.712</ele>
        <time>2019-04-30T14:02:00Z</time>
      </trkpt>
      <trkpt lat="43.40317" lon="4.6698">
        <ele>45.8</ele>
        <time>2019-04-30T14:02:11Z</time>
      </trkpt>
      <trkpt lat="43.40316" lon="4.66982">
        <ele>46.049</ele>
        <time>2019-04-30T14:02:21Z</time>
      </trkpt>
      <trkpt lat="43.40318" lon="4.6698">
        <ele>46.367</ele>
        <time>2019-04-30T14:02:32Z</time>
      </trkpt>
      <trkpt lat="43.40317" lon="4.66979">
        <ele>46.544</ele>
        <time>2019-04-30T14:02:43Z</time>
      </trkpt>
      <trkpt lat="43.40317" lon="4.66979">
        <ele>46.605</ele>
        <time>2019-04-30T14:02:54Z</time>
      </trkpt>
      <trkpt lat="43.40317" lon="4.66979">
        <ele>46.652</ele>
        <time>2019-04-30T14:03:05Z</time>
      </trkpt>
      <trkpt lat="43.40314" lon="4.66976">
        <ele>46.512</ele>
        <time>2019-04-30T14:03:15Z</time>
      </trkpt>
      <trkpt lat="43.40314" lon="4.66977">
        <ele>46.118</ele>
        <time>2019-04-30T14:03:26Z</time>
      </trkpt>
      <trkpt lat="43.40314" lon="4.66978">
        <ele>46.042</ele>
        <time>2019-04-30T14:03:37Z</time>
      </trkpt>
      <trkpt lat="43.40315" lon="4.66978">
        <ele>46.007</ele>
        <time>2019-04-30T14:03:48Z</time>
      </trkpt>
      <trkpt lat="43.40315" lon="4.66978">
        <ele>45.984</ele>
        <time>2019-04-30T14:03:58Z</time>
      </trkpt>
      <trkpt lat="43.40315" lon="4.66979">
        <ele>46.027</ele>
        <time>2019-04-30T14:04:09Z</time>
      </trkpt>
      <trkpt lat="43.40315" lon="4.66979">
        <ele>46.2</ele>
        <time>2019-04-30T14:04:20Z</time>
      </trkpt>
      <trkpt lat="43.40314" lon="4.66979">
        <ele>46.742</ele>
        <time>2019-04-30T14:04:30Z</time>
      </trkpt>
      <trkpt lat="43.40318" lon="4.66979">
        <ele>47.308</ele>
        <time>2019-04-30T14:04:41Z</time>
      </trkpt>
      <trkpt lat="43.40318" lon="4.66979">
        <ele>47.4</ele>
        <time>2019-04-30T14:04:51Z</time>
      </trkpt>
      <trkpt lat="43.40318" lon="4.66979">
        <ele>47.469</ele>
        <time>2019-04-30T14:05:01Z</time>
      </trkpt>
      <trkpt lat="43.40317" lon="4.66979">
        <ele>47.519</ele>
        <time>2019-04-30T14:05:12Z</time>
      </trkpt>
      <trkpt lat="43.40316" lon="4.6698">
        <ele>47.679</ele>
        <time>2019-04-30T14:05:23Z</time>
      </trkpt>
      <trkpt lat="43.40315" lon="4.6698">
        <ele>47.693</ele>
        <time>2019-04-30T14:05:33Z</time>
      </trkpt>
      <trkpt lat="43.40316" lon="4.66981">
        <ele>47.391</ele>
        <time>2019-04-30T14:05:43Z</time>
      </trkpt>
      <trkpt lat="43.40316" lon="4.66981">
        <ele>47.179</ele>
        <time>2019-04-30T14:05:54Z</time>
      </trkpt>
      <trkpt lat="43.40316" lon="4.66981">
        <ele>46.962</ele>
        <time>2019-04-30T14:06:05Z</time>
      </trkpt>
      <trkpt lat="43.40317" lon="4.66981">
        <ele>46.691</ele>
        <time>2019-04-30T14:06:15Z</time>
      </trkpt>
      <trkpt lat="43.40317" lon="4.66981">
        <ele>46.669</ele>
        <time>2019-04-30T14:06:26Z</time>
      </trkpt>
      <trkpt lat="43.40317" lon="4.6698">
        <ele>46.68</ele>
        <time>2019-04-30T14:06:36Z</time>
      </trkpt>
      <trkpt lat="43.40316" lon="4.6698">
        <ele>46.694</ele>
        <time>2019-04-30T14:06:46Z</time>
      </trkpt>
      <trkpt lat="43.40316" lon="4.6698">
        <ele>46.706</ele>
        <time>2019-04-30T14:06:57Z</time>
      </trkpt>
      <trkpt lat="43.40316" lon="4.6698">
        <ele>46.7</ele>
        <time>2019-04-30T14:07:08Z</time>
      </trkpt>
      <trkpt lat="43.40316" lon="4.6698">
        <ele>46.34</ele>
        <time>2019-04-30T14:07:19Z</time>
      </trkpt>
      <trkpt lat="43.40318" lon="4.6698">
        <ele>46.22</ele>
        <time>2019-04-30T14:07:29Z</time>
      </trkpt>
      <trkpt lat="43.40318" lon="4.66978">
        <ele>46.143</ele>
        <time>2019-04-30T14:07:39Z</time>
      </trkpt>
      <trkpt lat="43.40319" lon="4.6699">
        <ele>46.329</ele>
        <time>2019-04-30T14:07:50Z</time>
      </trkpt>
      <trkpt lat="43.40328" lon="4.67016">
        <ele>47.234</ele>
        <time>2019-04-30T14:08:00Z</time>
      </trkpt>
      <trkpt lat="43.40351" lon="4.67056">
        <ele>46.712</ele>
        <time>2019-04-30T14:08:12Z</time>
      </trkpt>
      <trkpt lat="43.40367" lon="4.67093">
        <ele>46.288</ele>
        <time>2019-04-30T14:08:22Z</time>
      </trkpt>
      <trkpt lat="43.40391" lon="4.67136">
        <ele>47.199</ele>
        <time>2019-04-30T14:08:33Z</time>
      </trkpt>
      <trkpt lat="43.40414" lon="4.67173">
        <ele>46.758</ele>
        <time>2019-04-30T14:08:44Z</time>
      </trkpt>
      <trkpt lat="43.40434" lon="4.67213">
        <ele>46.125</ele>
        <time>2019-04-30T14:08:54Z</time>
      </trkpt>
      <trkpt lat="43.40455" lon="4.67251">
        <ele>45.556</ele>
        <time>2019-04-30T14:09:05Z</time>
      </trkpt>
      <trkpt lat="43.40474" lon="4.67292">
        <ele>45.045</ele>
        <time>2019-04-30T14:09:15Z</time>
      </trkpt>
      <trkpt lat="43.40495" lon="4.67336">
        <ele>43.597</ele>
        <time>2019-04-30T14:09:25Z</time>
      </trkpt>
      <trkpt lat="43.4052" lon="4.67384">
        <ele>42.86</ele>
        <time>2019-04-30T14:09:36Z</time>
      </trkpt>
      <trkpt lat="43.40544" lon="4.67432">
        <ele>41.764</ele>
        <time>2019-04-30T14:09:47Z</time>
      </trkpt>
      <trkpt lat="43.40568" lon="4.67478">
        <ele>41.531</ele>
        <time>2019-04-30T14:09:58Z</time>
      </trkpt>
      <trkpt lat="43.40591" lon="4.67519">
        <ele>41.648</ele>
        <time>2019-04-30T14:10:08Z</time>
      </trkpt>
      <trkpt lat="43.40612" lon="4.67562">
        <ele>41.62</ele>
        <time>2019-04-30T14:10:19Z</time>
      </trkpt>
      <trkpt lat="43.40635" lon="4.67597">
        <ele>41.356</ele>
        <time>2019-04-30T14:10:29Z</time>
      </trkpt>
      <trkpt lat="43.40659" lon="4.67631">
        <ele>41.118</ele>
        <time>2019-04-30T14:10:40Z</time>
      </trkpt>
      <trkpt lat="43.40686" lon="4.67664">
        <ele>41.466</ele>
        <time>2019-04-30T14:10:51Z</time>
      </trkpt>
      <trkpt lat="43.4071" lon="4.67691">
        <ele>43.052</ele>
        <time>2019-04-30T14:11:01Z</time>
      </trkpt>
      <trkpt lat="43.40747" lon="4.67695">
        <ele>43.827</ele>
        <time>2019-04-30T14:11:12Z</time>
      </trkpt>
      <trkpt lat="43.40758" lon="4.67693">
        <ele>44.136</ele>
        <time>2019-04-30T14:11:23Z</time>
      </trkpt>
      <trkpt lat="43.40758" lon="4.67692">
        <ele>44.261</ele>
        <time>2019-04-30T14:11:34Z</time>
      </trkpt>
      <trkpt lat="43.40757" lon="4.67691">
        <ele>44.246</ele>
        <time>2019-04-30T14:11:45Z</time>
      </trkpt>
      <trkpt lat="43.40784" lon="4.67692">
        <ele>44.324</ele>
        <time>2019-04-30T14:11:55Z</time>
      </trkpt>
      <trkpt lat="43.40824" lon="4.67692">
        <ele>44.391</ele>
        <time>2019-04-30T14:12:06Z</time>
      </trkpt>
      <trkpt lat="43.40865" lon="4.67691">
        <ele>44.867</ele>
        <time>2019-04-30T14:12:17Z</time>
      </trkpt>
      <trkpt lat="43.40907" lon="4.67689">
        <ele>44.401</ele>
        <time>2019-04-30T14:12:28Z</time>
      </trkpt>
      <trkpt lat="43.4095" lon="4.67694">
        <ele>43.698</ele>
        <time>2019-04-30T14:12:39Z</time>
      </trkpt>
      <trkpt lat="43.40987" lon="4.67693">
        <ele>40.113</ele>
        <time>2019-04-30T14:12:49Z</time>
      </trkpt>
      <trkpt lat="43.41032" lon="4.67693">
        <ele>39.133</ele>
        <time>2019-04-30T14:13:00Z</time>
      </trkpt>
      <trkpt lat="43.41074" lon="4.67689">
        <ele>38.76</ele>
        <time>2019-04-30T14:13:11Z</time>
      </trkpt>
      <trkpt lat="43.41109" lon="4.67692">
        <ele>38.615</ele>
        <time>2019-04-30T14:13:21Z</time>
      </trkpt>
      <trkpt lat="43.4113" lon="4.67699">
        <ele>38.465</ele>
        <time>2019-04-30T14:13:31Z</time>
      </trkpt>
      <trkpt lat="43.41137" lon="4.67697">
        <ele>38.33</ele>
        <time>2019-04-30T14:13:42Z</time>
      </trkpt>
      <trkpt lat="43.41131" lon="4.67694">
        <ele>36.881</ele>
        <time>2019-04-30T14:13:52Z</time>
      </trkpt>
      <trkpt lat="43.41131" lon="4.67694">
        <ele>36.256</ele>
        <time>2019-04-30T14:14:03Z</time>
      </trkpt>
      <trkpt lat="43.41128" lon="4.67697">
        <ele>32.99</ele>
        <time>2019-04-30T14:14:14Z</time>
      </trkpt>
      <trkpt lat="43.41128" lon="4.67697">
        <ele>32.975</ele>
        <time>2019-04-30T14:14:25Z</time>
      </trkpt>
      <trkpt lat="43.41133" lon="4.67697">
        <ele>33.523</ele>
        <time>2019-04-30T14:14:36Z</time>
      </trkpt>
      <trkpt lat="43.41136" lon="4.67694">
        <ele>34.133</ele>
        <time>2019-04-30T14:14:47Z</time>
      </trkpt>
      <trkpt lat="43.41138" lon="4.67695">
        <ele>34.327</ele>
        <time>2019-04-30T14:14:58Z</time>
      </trkpt>
      <trkpt lat="43.41133" lon="4.67698">
        <ele>35.022</ele>
        <time>2019-04-30T14:15:08Z</time>
      </trkpt>
      <trkpt lat="43.41133" lon="4.67698">
        <ele>35.248</ele>
        <time>2019-04-30T14:15:19Z</time>
      </trkpt>
      <trkpt lat="43.41133" lon="4.67697">
        <ele>35.513</ele>
        <time>2019-04-30T14:15:30Z</time>
      </trkpt>
      <trkpt lat="43.41133" lon="4.67697">
        <ele>35.806</ele>
        <time>2019-04-30T14:15:40Z</time>
      </trkpt>
      <trkpt lat="43.41134" lon="4.67697">
        <ele>36.148</ele>
        <time>2019-04-30T14:15:51Z</time>
      </trkpt>
      <trkpt lat="43.41133" lon="4.67697">
        <ele>36.356</ele>
        <time>2019-04-30T14:16:02Z</time>
      </trkpt>
      <trkpt lat="43.41133" lon="4.67697">
        <ele>36.563</ele>
        <time>2019-04-30T14:16:12Z</time>
      </trkpt>
      <trkpt lat="43.41133" lon="4.67697">
        <ele>37.016</ele>
        <time>2019-04-30T14:16:23Z</time>
      </trkpt>
      <trkpt lat="43.41133" lon="4.67698">
        <ele>37.212</ele>
        <time>2019-04-30T14:16:33Z</time>
      </trkpt>
      <trkpt lat="43.41133" lon="4.67698">
        <ele>37.423</ele>
        <time>2019-04-30T14:16:43Z</time>
      </trkpt>
      <trkpt lat="43.41133" lon="4.67698">
        <ele>37.812</ele>
        <time>2019-04-30T14:16:54Z</time>
      </trkpt>
      <trkpt lat="43.41133" lon="4.67698">
        <ele>38.196</ele>
        <time>2019-04-30T14:17:05Z</time>
      </trkpt>
      <trkpt lat="43.41133" lon="4.67698">
        <ele>38.383</ele>
        <time>2019-04-30T14:17:15Z</time>
      </trkpt>
      <trkpt lat="43.41133" lon="4.67697">
        <ele>38.808</ele>
        <time>2019-04-30T14:17:26Z</time>
      </trkpt>
      <trkpt lat="43.41137" lon="4.67696">
        <ele>40.235</ele>
        <time>2019-04-30T14:17:37Z</time>
      </trkpt>
      <trkpt lat="43.41138" lon="4.67694">
        <ele>41.149</ele>
        <time>2019-04-30T14:17:49Z</time>
      </trkpt>
      <trkpt lat="43.41141" lon="4.67698">
        <ele>41.983</ele>
        <time>2019-04-30T14:18:00Z</time>
      </trkpt>
      <trkpt lat="43.41139" lon="4.67697">
        <ele>42.115</ele>
        <time>2019-04-30T14:18:11Z</time>
      </trkpt>
      <trkpt lat="43.41138" lon="4.67695">
        <ele>43.178</ele>
        <time>2019-04-30T14:18:22Z</time>
      </trkpt>
      <trkpt lat="43.4114" lon="4.67701">
        <ele>42.877</ele>
        <time>2019-04-30T14:18:32Z</time>
      </trkpt>
      <trkpt lat="43.4114" lon="4.677">
        <ele>42.895</ele>
        <time>2019-04-30T14:18:42Z</time>
      </trkpt>
      <trkpt lat="43.4114" lon="4.677">
        <ele>42.914</ele>
        <time>2019-04-30T14:18:53Z</time>
      </trkpt>
      <trkpt lat="43.41139" lon="4.67699">
        <ele>42.948</ele>
        <time>2019-04-30T14:19:03Z</time>
      </trkpt>
      <trkpt lat="43.41139" lon="4.67699">
        <ele>42.953</ele>
        <time>2019-04-30T14:19:13Z</time>
      </trkpt>
      <trkpt lat="43.41139" lon="4.67699">
        <ele>42.924</ele>
        <time>2019-04-30T14:19:24Z</time>
      </trkpt>
      <trkpt lat="43.41139" lon="4.67699">
        <ele>42.874</ele>
        <time>2019-04-30T14:19:35Z</time>
      </trkpt>
      <trkpt lat="43.41139" lon="4.67698">
        <ele>42.817</ele>
        <time>2019-04-30T14:19:45Z</time>
      </trkpt>
      <trkpt lat="43.41139" lon="4.67698">
        <ele>42.747</ele>
        <time>2019-04-30T14:19:56Z</time>
      </trkpt>
      <trkpt lat="43.41139" lon="4.67698">
        <ele>42.676</ele>
        <time>2019-04-30T14:20:07Z</time>
      </trkpt>
      <trkpt lat="43.41139" lon="4.67698">
        <ele>42.609</ele>
        <time>2019-04-30T14:20:18Z</time>
      </trkpt>
      <trkpt lat="43.41139" lon="4.67697">
        <ele>42.545</ele>
        <time>2019-04-30T14:20:29Z</time>
      </trkpt>
      <trkpt lat="43.41138" lon="4.67697">
        <ele>42.422</ele>
        <time>2019-04-30T14:20:39Z</time>
      </trkpt>
      <trkpt lat="43.41138" lon="4.67697">
        <ele>42.379</ele>
        <time>2019-04-30T14:20:49Z</time>
      </trkpt>
      <trkpt lat="43.4114" lon="4.67694">
        <ele>42.599</ele>
        <time>2019-04-30T14:21:00Z</time>
      </trkpt>
      <trkpt lat="43.41131" lon="4.67697">
        <ele>41.569</ele>
        <time>2019-04-30T14:21:11Z</time>
      </trkpt>
      <trkpt lat="43.4113" lon="4.67696">
        <ele>41.611</ele>
        <time>2019-04-30T14:21:21Z</time>
      </trkpt>
      <trkpt lat="43.41131" lon="4.67697">
        <ele>41.855</ele>
        <time>2019-04-30T14:21:32Z</time>
      </trkpt>
      <trkpt lat="43.41131" lon="4.67698">
        <ele>42.185</ele>
        <time>2019-04-30T14:21:43Z</time>
      </trkpt>
      <trkpt lat="43.41131" lon="4.67699">
        <ele>42.775</ele>
        <time>2019-04-30T14:21:53Z</time>
      </trkpt>
      <trkpt lat="43.4113" lon="4.677">
        <ele>43.156</ele>
        <time>2019-04-30T14:22:04Z</time>
      </trkpt>
      <trkpt lat="43.4113" lon="4.67701">
        <ele>43.514</ele>
        <time>2019-04-30T14:22:15Z</time>
      </trkpt>
      <trkpt lat="43.41129" lon="4.67701">
        <ele>43.873</ele>
        <time>2019-04-30T14:22:26Z</time>
      </trkpt>
      <trkpt lat="43.41131" lon="4.67699">
        <ele>44.832</ele>
        <time>2019-04-30T14:22:36Z</time>
      </trkpt>
      <trkpt lat="43.41135" lon="4.67697">
        <ele>45.215</ele>
        <time>2019-04-30T14:22:47Z</time>
      </trkpt>
      <trkpt lat="43.41134" lon="4.67697">
        <ele>45.075</ele>
        <time>2019-04-30T14:22:57Z</time>
      </trkpt>
      <trkpt lat="43.41134" lon="4.67697">
        <ele>45.097</ele>
        <time>2019-04-30T14:23:08Z</time>
      </trkpt>
      <trkpt lat="43.41134" lon="4.67696">
        <ele>45.083</ele>
        <time>2019-04-30T14:23:19Z</time>
      </trkpt>
      <trkpt lat="43.41134" lon="4.67696">
        <ele>45.131</ele>
        <time>2019-04-30T14:23:30Z</time>
      </trkpt>
      <trkpt lat="43.41136" lon="4.67696">
        <ele>45.228</ele>
        <time>2019-04-30T14:23:41Z</time>
      </trkpt>
      <trkpt lat="43.41138" lon="4.67696">
        <ele>45.128</ele>
        <time>2019-04-30T14:23:52Z</time>
      </trkpt>
      <trkpt lat="43.41138" lon="4.67693">
        <ele>45.498</ele>
        <time>2019-04-30T14:24:03Z</time>
      </trkpt>
      <trkpt lat="43.41139" lon="4.67696">
        <ele>44.938</ele>
        <time>2019-04-30T14:24:13Z</time>
      </trkpt>
      <trkpt lat="43.4114" lon="4.67697">
        <ele>44.995</ele>
        <time>2019-04-30T14:24:23Z</time>
      </trkpt>
      <trkpt lat="43.41144" lon="4.67697">
        <ele>44.721</ele>
        <time>2019-04-30T14:24:34Z</time>
      </trkpt>
      <trkpt lat="43.41171" lon="4.67721">
        <ele>44.251</ele>
        <time>2019-04-30T14:24:45Z</time>
      </trkpt>
      <trkpt lat="43.41177" lon="4.67743">
        <ele>44.196</ele>
        <time>2019-04-30T14:24:55Z</time>
      </trkpt>
      <trkpt lat="43.41183" lon="4.67753">
        <ele>44.063</ele>
        <time>2019-04-30T14:25:06Z</time>
      </trkpt>
      <trkpt lat="43.41173" lon="4.67724">
        <ele>44.157</ele>
        <time>2019-04-30T14:25:17Z</time>
      </trkpt>
      <trkpt lat="43.41152" lon="4.67708">
        <ele>43.947</ele>
        <time>2019-04-30T14:25:28Z</time>
      </trkpt>
      <trkpt lat="43.41128" lon="4.67702">
        <ele>43.307</ele>
        <time>2019-04-30T14:25:38Z</time>
      </trkpt>
      <trkpt lat="43.41101" lon="4.67692">
        <ele>43.029</ele>
        <time>2019-04-30T14:25:48Z</time>
      </trkpt>
      <trkpt lat="43.41066" lon="4.67689">
        <ele>41.783</ele>
        <time>2019-04-30T14:25:59Z</time>
      </trkpt>
      <trkpt lat="43.41025" lon="4.67687">
        <ele>40.355</ele>
        <time>2019-04-30T14:26:09Z</time>
      </trkpt>
      <trkpt lat="43.40984" lon="4.67687">
        <ele>41.047</ele>
        <time>2019-04-30T14:26:20Z</time>
      </trkpt>
      <trkpt lat="43.40949" lon="4.67689">
        <ele>41.393</ele>
        <time>2019-04-30T14:26:30Z</time>
      </trkpt>
      <trkpt lat="43.40907" lon="4.67692">
        <ele>43.943</ele>
        <time>2019-04-30T14:26:41Z</time>
      </trkpt>
      <trkpt lat="43.40868" lon="4.67691">
        <ele>43.099</ele>
        <time>2019-04-30T14:26:51Z</time>
      </trkpt>
      <trkpt lat="43.40824" lon="4.67692">
        <ele>39.582</ele>
        <time>2019-04-30T14:27:02Z</time>
      </trkpt>
      <trkpt lat="43.40783" lon="4.6769">
        <ele>43.025</ele>
        <time>2019-04-30T14:27:12Z</time>
      </trkpt>
      <trkpt lat="43.4074" lon="4.67694">
        <ele>45.433</ele>
        <time>2019-04-30T14:27:23Z</time>
      </trkpt>
      <trkpt lat="43.40701" lon="4.67681">
        <ele>46.07</ele>
        <time>2019-04-30T14:27:34Z</time>
      </trkpt>
      <trkpt lat="43.40668" lon="4.67639">
        <ele>46.406</ele>
        <time>2019-04-30T14:27:45Z</time>
      </trkpt>
      <trkpt lat="43.40636" lon="4.67595">
        <ele>47.377</ele>
        <time>2019-04-30T14:27:56Z</time>
      </trkpt>
      <trkpt lat="43.40609" lon="4.67555">
        <ele>43.714</ele>
        <time>2019-04-30T14:28:06Z</time>
      </trkpt>
      <trkpt lat="43.40582" lon="4.67502">
        <ele>43.846</ele>
        <time>2019-04-30T14:28:17Z</time>
      </trkpt>
      <trkpt lat="43.40554" lon="4.6745">
        <ele>44.111</ele>
        <time>2019-04-30T14:28:28Z</time>
      </trkpt>
      <trkpt lat="43.40529" lon="4.67395">
        <ele>44.492</ele>
        <time>2019-04-30T14:28:39Z</time>
      </trkpt>
      <trkpt lat="43.40502" lon="4.67342">
        <ele>46.139</ele>
        <time>2019-04-30T14:28:50Z</time>
      </trkpt>
      <trkpt lat="43.40481" lon="4.67297">
        <ele>45.408</ele>
        <time>2019-04-30T14:29:00Z</time>
      </trkpt>
      <trkpt lat="43.40454" lon="4.67249">
        <ele>44.2</ele>
        <time>2019-04-30T14:29:11Z</time>
      </trkpt>
      <trkpt lat="43.40429" lon="4.67202">
        <ele>42.865</ele>
        <time>2019-04-30T14:29:21Z</time>
      </trkpt>
      <trkpt lat="43.40401" lon="4.6715">
        <ele>44.271</ele>
        <time>2019-04-30T14:29:32Z</time>
      </trkpt>
      <trkpt lat="43.40376" lon="4.67104">
        <ele>45.137</ele>
        <time>2019-04-30T14:29:42Z</time>
      </trkpt>
      <trkpt lat="43.4035" lon="4.67051">
        <ele>44.31</ele>
        <time>2019-04-30T14:29:53Z</time>
      </trkpt>
      <trkpt lat="43.40323" lon="4.66999">
        <ele>44.627</ele>
        <time>2019-04-30T14:30:04Z</time>
      </trkpt>
      <trkpt lat="43.40303" lon="4.66953">
        <ele>45.092</ele>
        <time>2019-04-30T14:30:15Z</time>
      </trkpt>
      <trkpt lat="43.40319" lon="4.66916">
        <ele>46.185</ele>
        <time>2019-04-30T14:30:25Z</time>
      </trkpt>
      <trkpt lat="43.40354" lon="4.66887">
        <ele>46.267</ele>
        <time>2019-04-30T14:30:36Z</time>
      </trkpt>
      <trkpt lat="43.40381" lon="4.66846">
        <ele>45.483</ele>
        <time>2019-04-30T14:30:47Z</time>
      </trkpt>
      <trkpt lat="43.40403" lon="4.66802">
        <ele>44.326</ele>
        <time>2019-04-30T14:30:57Z</time>
      </trkpt>
      <trkpt lat="43.40426" lon="4.6675">
        <ele>45.591</ele>
        <time>2019-04-30T14:31:08Z</time>
      </trkpt>
      <trkpt lat="43.40447" lon="4.66702">
        <ele>46.299</ele>
        <time>2019-04-30T14:31:18Z</time>
      </trkpt>
      <trkpt lat="43.4047" lon="4.66652">
        <ele>47.154</ele>
        <time>2019-04-30T14:31:29Z</time>
      </trkpt>
      <trkpt lat="43.40491" lon="4.66603">
        <ele>47.622</ele>
        <time>2019-04-30T14:31:40Z</time>
      </trkpt>
      <trkpt lat="43.40514" lon="4.66555">
        <ele>47.643</ele>
        <time>2019-04-30T14:31:51Z</time>
      </trkpt>
      <trkpt lat="43.40535" lon="4.66509">
        <ele>48.891</ele>
        <time>2019-04-30T14:32:01Z</time>
      </trkpt>
      <trkpt lat="43.40552" lon="4.66465">
        <ele>47.257</ele>
        <time>2019-04-30T14:32:11Z</time>
      </trkpt>
      <trkpt lat="43.40572" lon="4.66426">
        <ele>47.033</ele>
        <time>2019-04-30T14:32:21Z</time>
      </trkpt>
      <trkpt lat="43.40592" lon="4.66385">
        <ele>46.818</ele>
        <time>2019-04-30T14:32:31Z</time>
      </trkpt>
      <trkpt lat="43.40612" lon="4.66338">
        <ele>46.123</ele>
        <time>2019-04-30T14:32:42Z</time>
      </trkpt>
      <trkpt lat="43.4063" lon="4.66294">
        <ele>45.594</ele>
        <time>2019-04-30T14:32:52Z</time>
      </trkpt>
      <trkpt lat="43.4065" lon="4.66252">
        <ele>45.523</ele>
        <time>2019-04-30T14:33:03Z</time>
      </trkpt>
      <trkpt lat="43.40667" lon="4.66218">
        <ele>45.562</ele>
        <time>2019-04-30T14:33:14Z</time>
      </trkpt>
      <trkpt lat="43.40685" lon="4.66175">
        <ele>45.085</ele>
        <time>2019-04-30T14:33:24Z</time>
      </trkpt>
      <trkpt lat="43.40707" lon="4.6613">
        <ele>44.974</ele>
        <time>2019-04-30T14:33:35Z</time>
      </trkpt>
      <trkpt lat="43.40727" lon="4.66084">
        <ele>45.155</ele>
        <time>2019-04-30T14:33:46Z</time>
      </trkpt>
      <trkpt lat="43.40748" lon="4.66041">
        <ele>44.536</ele>
        <time>2019-04-30T14:33:57Z</time>
      </trkpt>
      <trkpt lat="43.40768" lon="4.66">
        <ele>41.903</ele>
        <time>2019-04-30T14:34:07Z</time>
      </trkpt>
      <trkpt lat="43.4079" lon="4.65956">
        <ele>40.999</ele>
        <time>2019-04-30T14:34:17Z</time>
      </trkpt>
      <trkpt lat="43.40809" lon="4.65913">
        <ele>41.231</ele>
        <time>2019-04-30T14:34:28Z</time>
      </trkpt>
      <trkpt lat="43.40827" lon="4.65865">
        <ele>41.834</ele>
        <time>2019-04-30T14:34:39Z</time>
      </trkpt>
      <trkpt lat="43.40843" lon="4.65826">
        <ele>42.442</ele>
        <time>2019-04-30T14:34:50Z</time>
      </trkpt>
      <trkpt lat="43.40847" lon="4.65785">
        <ele>43.143</ele>
        <time>2019-04-30T14:35:00Z</time>
      </trkpt>
      <trkpt lat="43.40822" lon="4.65778">
        <ele>43.316</ele>
        <time>2019-04-30T14:35:11Z</time>
      </trkpt>
      <trkpt lat="43.40797" lon="4.6578">
        <ele>43.914</ele>
        <time>2019-04-30T14:35:21Z</time>
      </trkpt>
      <trkpt lat="43.40763" lon="4.65776">
        <ele>43.987</ele>
        <time>2019-04-30T14:35:32Z</time>
      </trkpt>
      <trkpt lat="43.40726" lon="4.65774">
        <ele>42.93</ele>
        <time>2019-04-30T14:35:42Z</time>
      </trkpt>
      <trkpt lat="43.40682" lon="4.65772">
        <ele>45.746</ele>
        <time>2019-04-30T14:35:53Z</time>
      </trkpt>
      <trkpt lat="43.40638" lon="4.6577">
        <ele>47.058</ele>
        <time>2019-04-30T14:36:04Z</time>
      </trkpt>
      <trkpt lat="43.40593" lon="4.65766">
        <ele>46.45</ele>
        <time>2019-04-30T14:36:15Z</time>
      </trkpt>
      <trkpt lat="43.40552" lon="4.65763">
        <ele>44.657</ele>
        <time>2019-04-30T14:36:25Z</time>
      </trkpt>
      <trkpt lat="43.40512" lon="4.65764">
        <ele>45.596</ele>
        <time>2019-04-30T14:36:35Z</time>
      </trkpt>
      <trkpt lat="43.40472" lon="4.65732">
        <ele>47.527</ele>
        <time>2019-04-30T14:36:46Z</time>
      </trkpt>
      <trkpt lat="43.40438" lon="4.65693">
        <ele>46.461</ele>
        <time>2019-04-30T14:36:57Z</time>
      </trkpt>
      <trkpt lat="43.40411" lon="4.65656">
        <ele>46.431</ele>
        <time>2019-04-30T14:37:07Z</time>
      </trkpt>
      <trkpt lat="43.40373" lon="4.65635">
        <ele>45.914</ele>
        <time>2019-04-30T14:37:18Z</time>
      </trkpt>
      <trkpt lat="43.40342" lon="4.65614">
        <ele>45.841</ele>
        <time>2019-04-30T14:37:29Z</time>
      </trkpt>
      <trkpt lat="43.40318" lon="4.65601">
        <ele>45.532</ele>
        <time>2019-04-30T14:37:39Z</time>
      </trkpt>
      <trkpt lat="43.40315" lon="4.65573">
        <ele>44.558</ele>
        <time>2019-04-30T14:37:50Z</time>
      </trkpt>
      <trkpt lat="43.40319" lon="4.65545">
        <ele>44.196</ele>
        <time>2019-04-30T14:38:01Z</time>
      </trkpt>
      <trkpt lat="43.40321" lon="4.65547">
        <ele>44.621</ele>
        <time>2019-04-30T14:38:12Z</time>
      </trkpt>
      <trkpt lat="43.40318" lon="4.6555">
        <ele>44.572</ele>
        <time>2019-04-30T14:38:23Z</time>
      </trkpt>
      <trkpt lat="43.40315" lon="4.65567">
        <ele>44.614</ele>
        <time>2019-04-30T14:38:34Z</time>
      </trkpt>
      <trkpt lat="43.40306" lon="4.65569">
        <ele>44.651</ele>
        <time>2019-04-30T14:38:44Z</time>
      </trkpt>
      <trkpt lat="43.40297" lon="4.65559">
        <ele>44.778</ele>
        <time>2019-04-30T14:38:55Z</time>
      </trkpt>
      <trkpt lat="43.40296" lon="4.65547">
        <ele>45.136</ele>
        <time>2019-04-30T14:39:06Z</time>
      </trkpt>
      <trkpt lat="43.40297" lon="4.65543">
        <ele>45.426</ele>
        <time>2019-04-30T14:39:17Z</time>
      </trkpt>
      <trkpt lat="43.40298" lon="4.65543">
        <ele>45.403</ele>
        <time>2019-04-30T14:39:27Z</time>
      </trkpt>
      <trkpt lat="43.40298" lon="4.65543">
        <ele>45.342</ele>
        <time>2019-04-30T14:39:38Z</time>
      </trkpt>
      <trkpt lat="43.40298" lon="4.65544">
        <ele>45.315</ele>
        <time>2019-04-30T14:39:48Z</time>
      </trkpt>
      <trkpt lat="43.40298" lon="4.65543">
        <ele>45.421</ele>
        <time>2019-04-30T14:39:59Z</time>
      </trkpt>
      <trkpt lat="43.40293" lon="4.65551">
        <ele>45.753</ele>
        <time>2019-04-30T14:40:10Z</time>
      </trkpt>
      <trkpt lat="43.4029" lon="4.65551">
        <ele>46.456</ele>
        <time>2019-04-30T14:40:20Z</time>
      </trkpt>
      <trkpt lat="43.40298" lon="4.65566">
        <ele>46.765</ele>
        <time>2019-04-30T14:40:31Z</time>
      </trkpt>
      <trkpt lat="43.40306" lon="4.65578">
        <ele>46.69</ele>
        <time>2019-04-30T14:40:42Z</time>
      </trkpt>
      <trkpt lat="43.40304" lon="4.65578">
        <ele>46.621</ele>
        <time>2019-04-30T14:40:53Z</time>
      </trkpt>
      <trkpt lat="43.40306" lon="4.65591">
        <ele>46.452</ele>
        <time>2019-04-30T14:41:04Z</time>
      </trkpt>
      <trkpt lat="43.40303" lon="4.65625">
        <ele>46.731</ele>
        <time>2019-04-30T14:41:15Z</time>
      </trkpt>
      <trkpt lat="43.40301" lon="4.65653">
        <ele>46.725</ele>
        <time>2019-04-30T14:41:26Z</time>
      </trkpt>
      <trkpt lat="43.40301" lon="4.65653">
        <ele>46.735</ele>
        <time>2019-04-30T14:41:37Z</time>
      </trkpt>
      <trkpt lat="43.40301" lon="4.65653">
        <ele>46.699</ele>
        <time>2019-04-30T14:41:47Z</time>
      </trkpt>
      <trkpt lat="43.403" lon="4.65671">
        <ele>45.835</ele>
        <time>2019-04-30T14:41:58Z</time>
      </trkpt>
      <trkpt lat="43.40296" lon="4.65711">
        <ele>46.192</ele>
        <time>2019-04-30T14:42:08Z</time>
      </trkpt>
      <trkpt lat="43.40291" lon="4.65756">
        <ele>46.749</ele>
        <time>2019-04-30T14:42:19Z</time>
      </trkpt>
      <trkpt lat="43.40287" lon="4.65799">
        <ele>47.254</ele>
        <time>2019-04-30T14:42:29Z</time>
      </trkpt>
      <trkpt lat="43.40284" lon="4.65847">
        <ele>47.363</ele>
        <time>2019-04-30T14:42:40Z</time>
      </trkpt>
      <trkpt lat="43.4028" lon="4.65894">
        <ele>46.803</ele>
        <time>2019-04-30T14:42:50Z</time>
      </trkpt>
      <trkpt lat="43.40275" lon="4.65941">
        <ele>46.724</ele>
        <time>2019-04-30T14:43:00Z</time>
      </trkpt>
      <trkpt lat="43.40271" lon="4.65992">
        <ele>46.667</ele>
        <time>2019-04-30T14:43:11Z</time>
      </trkpt>
      <trkpt lat="43.40262" lon="4.66026">
        <ele>46.521</ele>
        <time>2019-04-30T14:43:22Z</time>
      </trkpt>
      <trkpt lat="43.40237" lon="4.6602">
        <ele>46.088</ele>
        <time>2019-04-30T14:43:32Z</time>
      </trkpt>
      <trkpt lat="43.4021" lon="4.66016">
        <ele>45.573</ele>
        <time>2019-04-30T14:43:43Z</time>
      </trkpt>
      <trkpt lat="43.40185" lon="4.66007">
        <ele>45.324</ele>
        <time>2019-04-30T14:43:54Z</time>
      </trkpt>
      <trkpt lat="43.4015" lon="4.66">
        <ele>45.41</ele>
        <time>2019-04-30T14:44:05Z</time>
      </trkpt>
      <trkpt lat="43.40115" lon="4.65989">
        <ele>45.563</ele>
        <time>2019-04-30T14:44:15Z</time>
      </trkpt>
      <trkpt lat="43.40084" lon="4.65985">
        <ele>46.105</ele>
        <time>2019-04-30T14:44:26Z</time>
      </trkpt>
      <trkpt lat="43.40052" lon="4.65979">
        <ele>46.157</ele>
        <time>2019-04-30T14:44:36Z</time>
      </trkpt>
      <trkpt lat="43.40021" lon="4.65974">
        <ele>46.036</ele>
        <time>2019-04-30T14:44:46Z</time>
      </trkpt>
      <trkpt lat="43.39986" lon="4.65956">
        <ele>46.142</ele>
        <time>2019-04-30T14:44:57Z</time>
      </trkpt>
      <trkpt lat="43.39953" lon="4.65924">
        <ele>46.39</ele>
        <time>2019-04-30T14:45:08Z</time>
      </trkpt>
      <trkpt lat="43.39924" lon="4.65896">
        <ele>46.89</ele>
        <time>2019-04-30T14:45:19Z</time>
      </trkpt>
      <trkpt lat="43.39894" lon="4.65865">
        <ele>46.809</ele>
        <time>2019-04-30T14:45:29Z</time>
      </trkpt>
      <trkpt lat="43.39862" lon="4.65833">
        <ele>46.652</ele>
        <time>2019-04-30T14:45:40Z</time>
      </trkpt>
      <trkpt lat="43.39834" lon="4.65803">
        <ele>46.421</ele>
        <time>2019-04-30T14:45:51Z</time>
      </trkpt>
      <trkpt lat="43.39804" lon="4.65775">
        <ele>45.583</ele>
        <time>2019-04-30T14:46:01Z</time>
      </trkpt>
      <trkpt lat="43.39778" lon="4.65749">
        <ele>45.656</ele>
        <time>2019-04-30T14:46:11Z</time>
      </trkpt>
      <trkpt lat="43.39754" lon="4.65725">
        <ele>46.001</ele>
        <time>2019-04-30T14:46:21Z</time>
      </trkpt>
      <trkpt lat="43.39725" lon="4.65692">
        <ele>44.928</ele>
        <time>2019-04-30T14:46:32Z</time>
      </trkpt>
      <trkpt lat="43.39699" lon="4.65665">
        <ele>44.744</ele>
        <time>2019-04-30T14:46:42Z</time>
      </trkpt>
      <trkpt lat="43.39669" lon="4.65635">
        <ele>44.683</ele>
        <time>2019-04-30T14:46:52Z</time>
      </trkpt>
      <trkpt lat="43.3964" lon="4.65604">
        <ele>44.499</ele>
        <time>2019-04-30T14:47:02Z</time>
      </trkpt>
      <trkpt lat="43.39612" lon="4.65574">
        <ele>44.701</ele>
        <time>2019-04-30T14:47:12Z</time>
      </trkpt>
      <trkpt lat="43.39607" lon="4.65567">
        <ele>44.772</ele>
        <time>2019-04-30T14:47:23Z</time>
      </trkpt>
      <trkpt lat="43.39607" lon="4.65567">
        <ele>44.814</ele>
        <time>2019-04-30T14:47:33Z</time>
      </trkpt>
      <trkpt lat="43.39607" lon="4.65567">
        <ele>44.844</ele>
        <time>2019-04-30T14:47:43Z</time>
      </trkpt>
      <trkpt lat="43.39607" lon="4.65567">
        <ele>44.884</ele>
        <time>2019-04-30T14:47:54Z</time>
      </trkpt>
      <trkpt lat="43.39607" lon="4.65568">
        <ele>44.927</ele>
        <time>2019-04-30T14:48:05Z</time>
      </trkpt>
      <trkpt lat="43.39607" lon="4.65568">
        <ele>44.966</ele>
        <time>2019-04-30T14:48:16Z</time>
      </trkpt>
      <trkpt lat="43.39607" lon="4.65568">
        <ele>44.999</ele>
        <time>2019-04-30T14:48:27Z</time>
      </trkpt>
      <trkpt lat="43.39607" lon="4.65568">
        <ele>45.022</ele>
        <time>2019-04-30T14:48:37Z</time>
      </trkpt>
      <trkpt lat="43.39607" lon="4.65568">
        <ele>45.043</ele>
        <time>2019-04-30T14:48:47Z</time>
      </trkpt>
      <trkpt lat="43.39603" lon="4.65564">
        <ele>45.24</ele>
        <time>2019-04-30T14:48:58Z</time>
      </trkpt>
      <trkpt lat="43.3958" lon="4.65539">
        <ele>45.834</ele>
        <time>2019-04-30T14:49:08Z</time>
      </trkpt>
      <trkpt lat="43.39552" lon="4.65505">
        <ele>46.14</ele>
        <time>2019-04-30T14:49:19Z</time>
      </trkpt>
      <trkpt lat="43.39523" lon="4.65474">
        <ele>46.688</ele>
        <time>2019-04-30T14:49:30Z</time>
      </trkpt>
      <trkpt lat="43.39492" lon="4.65442">
        <ele>46.48</ele>
        <time>2019-04-30T14:49:41Z</time>
      </trkpt>
      <trkpt lat="43.39464" lon="4.65406">
        <ele>44.643</ele>
        <time>2019-04-30T14:49:51Z</time>
      </trkpt>
      <trkpt lat="43.39429" lon="4.65372">
        <ele>45.631</ele>
        <time>2019-04-30T14:50:02Z</time>
      </trkpt>
      <trkpt lat="43.39398" lon="4.65337">
        <ele>46.477</ele>
        <time>2019-04-30T14:50:13Z</time>
      </trkpt>
      <trkpt lat="43.39374" lon="4.65308">
        <ele>46.654</ele>
        <time>2019-04-30T14:50:23Z</time>
      </trkpt>
      <trkpt lat="43.39342" lon="4.65272">
        <ele>47.274</ele>
        <time>2019-04-30T14:50:34Z</time>
      </trkpt>
      <trkpt lat="43.39317" lon="4.65233">
        <ele>44.285</ele>
        <time>2019-04-30T14:50:45Z</time>
      </trkpt>
      <trkpt lat="43.39307" lon="4.65182">
        <ele>41.087</ele>
        <time>2019-04-30T14:50:55Z</time>
      </trkpt>
      <trkpt lat="43.39288" lon="4.65135">
        <ele>41.812</ele>
        <time>2019-04-30T14:51:06Z</time>
      </trkpt>
      <trkpt lat="43.39262" lon="4.65097">
        <ele>42.755</ele>
        <time>2019-04-30T14:51:16Z</time>
      </trkpt>
      <trkpt lat="43.39239" lon="4.65055">
        <ele>42.918</ele>
        <time>2019-04-30T14:51:26Z</time>
      </trkpt>
      <trkpt lat="43.39215" lon="4.65009">
        <ele>44.452</ele>
        <time>2019-04-30T14:51:37Z</time>
      </trkpt>
      <trkpt lat="43.39192" lon="4.64962">
        <ele>44.475</ele>
        <time>2019-04-30T14:51:48Z</time>
      </trkpt>
      <trkpt lat="43.39161" lon="4.64939">
        <ele>44.476</ele>
        <time>2019-04-30T14:51:58Z</time>
      </trkpt>
      <trkpt lat="43.39136" lon="4.64942">
        <ele>44.698</ele>
        <time>2019-04-30T14:52:09Z</time>
      </trkpt>
      <trkpt lat="43.39136" lon="4.64941">
        <ele>45.059</ele>
        <time>2019-04-30T14:52:20Z</time>
      </trkpt>
      <trkpt lat="43.39137" lon="4.64942">
        <ele>45.5</ele>
        <time>2019-04-30T14:52:31Z</time>
      </trkpt>
      <trkpt lat="43.39137" lon="4.64942">
        <ele>45.544</ele>
        <time>2019-04-30T14:52:42Z</time>
      </trkpt>
      <trkpt lat="43.39137" lon="4.64942">
        <ele>45.56</ele>
        <time>2019-04-30T14:52:53Z</time>
      </trkpt>
      <trkpt lat="43.39137" lon="4.64942">
        <ele>45.563</ele>
        <time>2019-04-30T14:53:04Z</time>
      </trkpt>
      <trkpt lat="43.3912" lon="4.64942">
        <ele>45.729</ele>
        <time>2019-04-30T14:53:15Z</time>
      </trkpt>
      <trkpt lat="43.3908" lon="4.64944">
        <ele>45.114</ele>
        <time>2019-04-30T14:53:26Z</time>
      </trkpt>
      <trkpt lat="43.39043" lon="4.64944">
        <ele>44.582</ele>
        <time>2019-04-30T14:53:36Z</time>
      </trkpt>
      <trkpt lat="43.39" lon="4.6495">
        <ele>45.154</ele>
        <time>2019-04-30T14:53:47Z</time>
      </trkpt>
      <trkpt lat="43.38956" lon="4.64952">
        <ele>46.281</ele>
        <time>2019-04-30T14:53:58Z</time>
      </trkpt>
      <trkpt lat="43.38916" lon="4.64954">
        <ele>46.19</ele>
        <time>2019-04-30T14:54:08Z</time>
      </trkpt>
      <trkpt lat="43.38874" lon="4.64961">
        <ele>45.202</ele>
        <time>2019-04-30T14:54:19Z</time>
      </trkpt>
      <trkpt lat="43.38846" lon="4.64962">
        <ele>46.057</ele>
        <time>2019-04-30T14:54:29Z</time>
      </trkpt>
      <trkpt lat="43.38845" lon="4.64961">
        <ele>46.385</ele>
        <time>2019-04-30T14:54:40Z</time>
      </trkpt>
      <trkpt lat="43.38845" lon="4.64961">
        <ele>46.362</ele>
        <time>2019-04-30T14:54:50Z</time>
      </trkpt>
      <trkpt lat="43.38846" lon="4.64961">
        <ele>46.351</ele>
        <time>2019-04-30T14:55:01Z</time>
      </trkpt>
      <trkpt lat="43.38846" lon="4.64961">
        <ele>46.333</ele>
        <time>2019-04-30T14:55:12Z</time>
      </trkpt>
      <trkpt lat="43.38825" lon="4.64964">
        <ele>46.164</ele>
        <time>2019-04-30T14:55:23Z</time>
      </trkpt>
      <trkpt lat="43.38791" lon="4.64968">
        <ele>45.847</ele>
        <time>2019-04-30T14:55:33Z</time>
      </trkpt>
      <trkpt lat="43.38751" lon="4.64973">
        <ele>45.975</ele>
        <time>2019-04-30T14:55:44Z</time>
      </trkpt>
      <trkpt lat="43.38708" lon="4.64977">
        <ele>44.671</ele>
        <time>2019-04-30T14:55:55Z</time>
      </trkpt>
      <trkpt lat="43.38673" lon="4.64992">
        <ele>42.472</ele>
        <time>2019-04-30T14:56:05Z</time>
      </trkpt>
      <trkpt lat="43.38633" lon="4.65002">
        <ele>44.864</ele>
        <time>2019-04-30T14:56:15Z</time>
      </trkpt>
      <trkpt lat="43.3859" lon="4.64999">
        <ele>44.348</ele>
        <time>2019-04-30T14:56:26Z</time>
      </trkpt>
      <trkpt lat="43.38543" lon="4.64995">
        <ele>44.126</ele>
        <time>2019-04-30T14:56:37Z</time>
      </trkpt>
      <trkpt lat="43.385" lon="4.64993">
        <ele>43.441</ele>
        <time>2019-04-30T14:56:47Z</time>
      </trkpt>
      <trkpt lat="43.38449" lon="4.64981">
        <ele>41.055</ele>
        <time>2019-04-30T14:56:58Z</time>
      </trkpt>
      <trkpt lat="43.38401" lon="4.64996">
        <ele>41.772</ele>
        <time>2019-04-30T14:57:09Z</time>
      </trkpt>
      <trkpt lat="43.38355" lon="4.65014">
        <ele>44.339</ele>
        <time>2019-04-30T14:57:19Z</time>
      </trkpt>
      <trkpt lat="43.38308" lon="4.6503">
        <ele>42.178</ele>
        <time>2019-04-30T14:57:29Z</time>
      </trkpt>
      <trkpt lat="43.38258" lon="4.65047">
        <ele>42.265</ele>
        <time>2019-04-30T14:57:40Z</time>
      </trkpt>
      <trkpt lat="43.38209" lon="4.65077">
        <ele>42.591</ele>
        <time>2019-04-30T14:57:51Z</time>
      </trkpt>
      <trkpt lat="43.38167" lon="4.65117">
        <ele>43.161</ele>
        <time>2019-04-30T14:58:02Z</time>
      </trkpt>
      <trkpt lat="43.38123" lon="4.65148">
        <ele>45.666</ele>
        <time>2019-04-30T14:58:13Z</time>
      </trkpt>
      <trkpt lat="43.38077" lon="4.65168">
        <ele>45.945</ele>
        <time>2019-04-30T14:58:24Z</time>
      </trkpt>
      <trkpt lat="43.38034" lon="4.65196">
        <ele>43.947</ele>
        <time>2019-04-30T14:58:34Z</time>
      </trkpt>
      <trkpt lat="43.37998" lon="4.65232">
        <ele>42.861</ele>
        <time>2019-04-30T14:58:44Z</time>
      </trkpt>
      <trkpt lat="43.37963" lon="4.65262">
        <ele>41.755</ele>
        <time>2019-04-30T14:58:55Z</time>
      </trkpt>
      <trkpt lat="43.37922" lon="4.65298">
        <ele>44.075</ele>
        <time>2019-04-30T14:59:06Z</time>
      </trkpt>
      <trkpt lat="43.37882" lon="4.65326">
        <ele>44.362</ele>
        <time>2019-04-30T14:59:16Z</time>
      </trkpt>
      <trkpt lat="43.3784" lon="4.65363">
        <ele>45.475</ele>
        <time>2019-04-30T14:59:27Z</time>
      </trkpt>
      <trkpt lat="43.37797" lon="4.65389">
        <ele>45.669</ele>
        <time>2019-04-30T14:59:38Z</time>
      </trkpt>
      <trkpt lat="43.3775" lon="4.65411">
        <ele>46.877</ele>
        <time>2019-04-30T14:59:49Z</time>
      </trkpt>
      <trkpt lat="43.37707" lon="4.65436">
        <ele>45.974</ele>
        <time>2019-04-30T14:59:59Z</time>
      </trkpt>
      <trkpt lat="43.37669" lon="4.65477">
        <ele>46.538</ele>
        <time>2019-04-30T15:00:09Z</time>
      </trkpt>
      <trkpt lat="43.37629" lon="4.65506">
        <ele>45.693</ele>
        <time>2019-04-30T15:00:19Z</time>
      </trkpt>
      <trkpt lat="43.37582" lon="4.65525">
        <ele>45.805</ele>
        <time>2019-04-30T15:00:30Z</time>
      </trkpt>
      <trkpt lat="43.37567" lon="4.65567">
        <ele>45.979</ele>
        <time>2019-04-30T15:00:41Z</time>
      </trkpt>
      <trkpt lat="43.37567" lon="4.65597">
        <ele>45.879</ele>
        <time>2019-04-30T15:00:52Z</time>
      </trkpt>
      <trkpt lat="43.37568" lon="4.65597">
        <ele>45.868</ele>
        <time>2019-04-30T15:01:03Z</time>
      </trkpt>
      <trkpt lat="43.37568" lon="4.65597">
        <ele>45.835</ele>
        <time>2019-04-30T15:01:14Z</time>
      </trkpt>
      <trkpt lat="43.37568" lon="4.65597">
        <ele>45.806</ele>
        <time>2019-04-30T15:01:25Z</time>
      </trkpt>
      <trkpt lat="43.37568" lon="4.65597">
        <ele>45.811</ele>
        <time>2019-04-30T15:01:35Z</time>
      </trkpt>
      <trkpt lat="43.3757" lon="4.65597">
        <ele>45.78</ele>
        <time>2019-04-30T15:01:46Z</time>
      </trkpt>
      <trkpt lat="43.37569" lon="4.65596">
        <ele>45.731</ele>
        <time>2019-04-30T15:01:56Z</time>
      </trkpt>
      <trkpt lat="43.37567" lon="4.65598">
        <ele>45.802</ele>
        <time>2019-04-30T15:02:07Z</time>
      </trkpt>
      <trkpt lat="43.37567" lon="4.65598">
        <ele>45.874</ele>
        <time>2019-04-30T15:02:18Z</time>
      </trkpt>
      <trkpt lat="43.37567" lon="4.65597">
        <ele>45.941</ele>
        <time>2019-04-30T15:02:29Z</time>
      </trkpt>
      <trkpt lat="43.37568" lon="4.65595">
        <ele>46.126</ele>
        <time>2019-04-30T15:02:39Z</time>
      </trkpt>
      <trkpt lat="43.3757" lon="4.65601">
        <ele>46.161</ele>
        <time>2019-04-30T15:02:50Z</time>
      </trkpt>
      <trkpt lat="43.37573" lon="4.65605">
        <ele>46.364</ele>
        <time>2019-04-30T15:03:00Z</time>
      </trkpt>
      <trkpt lat="43.37573" lon="4.65605">
        <ele>46.383</ele>
        <time>2019-04-30T15:03:11Z</time>
      </trkpt>
      <trkpt lat="43.37573" lon="4.65606">
        <ele>46.397</ele>
        <time>2019-04-30T15:03:21Z</time>
      </trkpt>
      <trkpt lat="43.37573" lon="4.65606">
        <ele>46.452</ele>
        <time>2019-04-30T15:03:31Z</time>
      </trkpt>
      <trkpt lat="43.37573" lon="4.65606">
        <ele>46.545</ele>
        <time>2019-04-30T15:03:42Z</time>
      </trkpt>
      <trkpt lat="43.37573" lon="4.65606">
        <ele>46.632</ele>
        <time>2019-04-30T15:03:53Z</time>
      </trkpt>
      <trkpt lat="43.37573" lon="4.65607">
        <ele>46.72</ele>
        <time>2019-04-30T15:04:03Z</time>
      </trkpt>
      <trkpt lat="43.37573" lon="4.65607">
        <ele>46.796</ele>
        <time>2019-04-30T15:04:13Z</time>
      </trkpt>
      <trkpt lat="43.37572" lon="4.65605">
        <ele>46.965</ele>
        <time>2019-04-30T15:04:24Z</time>
      </trkpt>
      <trkpt lat="43.37569" lon="4.65598">
        <ele>46.94</ele>
        <time>2019-04-30T15:04:34Z</time>
      </trkpt>
      <trkpt lat="43.37568" lon="4.65596">
        <ele>46.943</ele>
        <time>2019-04-30T15:04:44Z</time>
      </trkpt>
      <trkpt lat="43.37568" lon="4.65596">
        <ele>46.966</ele>
        <time>2019-04-30T15:04:55Z</time>
      </trkpt>
      <trkpt lat="43.37568" lon="4.65598">
        <ele>47.052</ele>
        <time>2019-04-30T15:05:05Z</time>
      </trkpt>
      <trkpt lat="43.37566" lon="4.65596">
        <ele>47.317</ele>
        <time>2019-04-30T15:05:16Z</time>
      </trkpt>
      <trkpt lat="43.37568" lon="4.65594">
        <ele>47.038</ele>
        <time>2019-04-30T15:05:27Z</time>
      </trkpt>
      <trkpt lat="43.37567" lon="4.65558">
        <ele>47.465</ele>
        <time>2019-04-30T15:05:38Z</time>
      </trkpt>
      <trkpt lat="43.37576" lon="4.65525">
        <ele>47.324</ele>
        <time>2019-04-30T15:05:48Z</time>
      </trkpt>
      <trkpt lat="43.37607" lon="4.65516">
        <ele>47.21</ele>
        <time>2019-04-30T15:05:59Z</time>
      </trkpt>
      <trkpt lat="43.37639" lon="4.65501">
        <ele>47.211</ele>
        <time>2019-04-30T15:06:10Z</time>
      </trkpt>
      <trkpt lat="43.37665" lon="4.65481">
        <ele>47.313</ele>
        <time>2019-04-30T15:06:20Z</time>
      </trkpt>
      <trkpt lat="43.37689" lon="4.65456">
        <ele>47.491</ele>
        <time>2019-04-30T15:06:30Z</time>
      </trkpt>
      <trkpt lat="43.37717" lon="4.65429">
        <ele>47.731</ele>
        <time>2019-04-30T15:06:41Z</time>
      </trkpt>
      <trkpt lat="43.37751" lon="4.65411">
        <ele>48.364</ele>
        <time>2019-04-30T15:06:52Z</time>
      </trkpt>
      <trkpt lat="43.37784" lon="4.65396">
        <ele>48.604</ele>
        <time>2019-04-30T15:07:03Z</time>
      </trkpt>
      <trkpt lat="43.37813" lon="4.65378">
        <ele>48.865</ele>
        <time>2019-04-30T15:07:13Z</time>
      </trkpt>
      <trkpt lat="43.37847" lon="4.65357">
        <ele>49.044</ele>
        <time>2019-04-30T15:07:24Z</time>
      </trkpt>
      <trkpt lat="43.37876" lon="4.65334">
        <ele>49.063</ele>
        <time>2019-04-30T15:07:34Z</time>
      </trkpt>
      <trkpt lat="43.37903" lon="4.65314">
        <ele>49.031</ele>
        <time>2019-04-30T15:07:44Z</time>
      </trkpt>
      <trkpt lat="43.37931" lon="4.65294">
        <ele>49.067</ele>
        <time>2019-04-30T15:07:55Z</time>
      </trkpt>
      <trkpt lat="43.37956" lon="4.65274">
        <ele>49.135</ele>
        <time>2019-04-30T15:08:05Z</time>
      </trkpt>
      <trkpt lat="43.37981" lon="4.65251">
        <ele>49.187</ele>
        <time>2019-04-30T15:08:16Z</time>
      </trkpt>
      <trkpt lat="43.38005" lon="4.65229">
        <ele>49.199</ele>
        <time>2019-04-30T15:08:26Z</time>
      </trkpt>
      <trkpt lat="43.3803" lon="4.65205">
        <ele>49.157</ele>
        <time>2019-04-30T15:08:37Z</time>
      </trkpt>
      <trkpt lat="43.38056" lon="4.65183">
        <ele>49.08</ele>
        <time>2019-04-30T15:08:48Z</time>
      </trkpt>
      <trkpt lat="43.38084" lon="4.65168">
        <ele>48.96</ele>
        <time>2019-04-30T15:08:59Z</time>
      </trkpt>
      <trkpt lat="43.38114" lon="4.65155">
        <ele>48.965</ele>
        <time>2019-04-30T15:09:10Z</time>
      </trkpt>
      <trkpt lat="43.38142" lon="4.65141">
        <ele>49.04</ele>
        <time>2019-04-30T15:09:20Z</time>
      </trkpt>
      <trkpt lat="43.38169" lon="4.65119">
        <ele>49.314</ele>
        <time>2019-04-30T15:09:31Z</time>
      </trkpt>
      <trkpt lat="43.38196" lon="4.65095">
        <ele>49.443</ele>
        <time>2019-04-30T15:09:42Z</time>
      </trkpt>
      <trkpt lat="43.38222" lon="4.6507">
        <ele>49.415</ele>
        <time>2019-04-30T15:09:53Z</time>
      </trkpt>
      <trkpt lat="43.38252" lon="4.65051">
        <ele>49.314</ele>
        <time>2019-04-30T15:10:04Z</time>
      </trkpt>
      <trkpt lat="43.3828" lon="4.65042">
        <ele>49.254</ele>
        <time>2019-04-30T15:10:14Z</time>
      </trkpt>
      <trkpt lat="43.3831" lon="4.65031">
        <ele>49.172</ele>
        <time>2019-04-30T15:10:25Z</time>
      </trkpt>
      <trkpt lat="43.3834" lon="4.6502">
        <ele>49.384</ele>
        <time>2019-04-30T15:10:36Z</time>
      </trkpt>
      <trkpt lat="43.38372" lon="4.65008">
        <ele>49.389</ele>
        <time>2019-04-30T15:10:47Z</time>
      </trkpt>
      <trkpt lat="43.38404" lon="4.64997">
        <ele>49.297</ele>
        <time>2019-04-30T15:10:58Z</time>
      </trkpt>
      <trkpt lat="43.38437" lon="4.64985">
        <ele>49.125</ele>
        <time>2019-04-30T15:11:09Z</time>
      </trkpt>
      <trkpt lat="43.38469" lon="4.64984">
        <ele>48.909</ele>
        <time>2019-04-30T15:11:20Z</time>
      </trkpt>
      <trkpt lat="43.38502" lon="4.6499">
        <ele>48.868</ele>
        <time>2019-04-30T15:11:31Z</time>
      </trkpt>
      <trkpt lat="43.38535" lon="4.64995">
        <ele>48.568</ele>
        <time>2019-04-30T15:11:42Z</time>
      </trkpt>
      <trkpt lat="43.38564" lon="4.64995">
        <ele>48.419</ele>
        <time>2019-04-30T15:11:53Z</time>
      </trkpt>
      <trkpt lat="43.38592" lon="4.64997">
        <ele>48.273</ele>
        <time>2019-04-30T15:12:03Z</time>
      </trkpt>
      <trkpt lat="43.38624" lon="4.64999">
        <ele>48.035</ele>
        <time>2019-04-30T15:12:14Z</time>
      </trkpt>
      <trkpt lat="43.38657" lon="4.64998">
        <ele>47.954</ele>
        <time>2019-04-30T15:12:25Z</time>
      </trkpt>
      <trkpt lat="43.38685" lon="4.64981">
        <ele>47.811</ele>
        <time>2019-04-30T15:12:36Z</time>
      </trkpt>
      <trkpt lat="43.38715" lon="4.64975">
        <ele>47.936</ele>
        <time>2019-04-30T15:12:47Z</time>
      </trkpt>
      <trkpt lat="43.38745" lon="4.64973">
        <ele>47.846</ele>
        <time>2019-04-30T15:12:58Z</time>
      </trkpt>
      <trkpt lat="43.38776" lon="4.64968">
        <ele>47.801</ele>
        <time>2019-04-30T15:13:09Z</time>
      </trkpt>
      <trkpt lat="43.38808" lon="4.64961">
        <ele>47.723</ele>
        <time>2019-04-30T15:13:20Z</time>
      </trkpt>
      <trkpt lat="43.38838" lon="4.64959">
        <ele>47.812</ele>
        <time>2019-04-30T15:13:30Z</time>
      </trkpt>
      <trkpt lat="43.38869" lon="4.64958">
        <ele>47.818</ele>
        <time>2019-04-30T15:13:41Z</time>
      </trkpt>
      <trkpt lat="43.38895" lon="4.64955">
        <ele>47.837</ele>
        <time>2019-04-30T15:13:51Z</time>
      </trkpt>
      <trkpt lat="43.38921" lon="4.64955">
        <ele>47.818</ele>
        <time>2019-04-30T15:14:02Z</time>
      </trkpt>
      <trkpt lat="43.38946" lon="4.64952">
        <ele>47.799</ele>
        <time>2019-04-30T15:14:13Z</time>
      </trkpt>
      <trkpt lat="43.38972" lon="4.6495">
        <ele>47.701</ele>
        <time>2019-04-30T15:14:24Z</time>
      </trkpt>
      <trkpt lat="43.38998" lon="4.6495">
        <ele>47.485</ele>
        <time>2019-04-30T15:14:35Z</time>
      </trkpt>
      <trkpt lat="43.3902" lon="4.64948">
        <ele>47.19</ele>
        <time>2019-04-30T15:14:45Z</time>
      </trkpt>
      <trkpt lat="43.39043" lon="4.64945">
        <ele>46.861</ele>
        <time>2019-04-30T15:14:55Z</time>
      </trkpt>
      <trkpt lat="43.39069" lon="4.64944">
        <ele>46.716</ele>
        <time>2019-04-30T15:15:06Z</time>
      </trkpt>
      <trkpt lat="43.39087" lon="4.64955">
        <ele>46.495</ele>
        <time>2019-04-30T15:15:16Z</time>
      </trkpt>
      <trkpt lat="43.39089" lon="4.64989">
        <ele>46.554</ele>
        <time>2019-04-30T15:15:27Z</time>
      </trkpt>
      <trkpt lat="43.39089" lon="4.65025">
        <ele>46.468</ele>
        <time>2019-04-30T15:15:38Z</time>
      </trkpt>
      <trkpt lat="43.39092" lon="4.65059">
        <ele>46.396</ele>
        <time>2019-04-30T15:15:49Z</time>
      </trkpt>
      <trkpt lat="43.39092" lon="4.6506">
        <ele>46.395</ele>
        <time>2019-04-30T15:16:00Z</time>
      </trkpt>
      <trkpt lat="43.39092" lon="4.6506">
        <ele>46.404</ele>
        <time>2019-04-30T15:16:11Z</time>
      </trkpt>
      <trkpt lat="43.39092" lon="4.6506">
        <ele>46.407</ele>
        <time>2019-04-30T15:16:22Z</time>
      </trkpt>
      <trkpt lat="43.39092" lon="4.6506">
        <ele>46.401</ele>
        <time>2019-04-30T15:16:32Z</time>
      </trkpt>
      <trkpt lat="43.39092" lon="4.6506">
        <ele>46.35</ele>
        <time>2019-04-30T15:16:43Z</time>
      </trkpt>
      <trkpt lat="43.39092" lon="4.6506">
        <ele>46.307</ele>
        <time>2019-04-30T15:16:53Z</time>
      </trkpt>
      <trkpt lat="43.39092" lon="4.6506">
        <ele>46.264</ele>
        <time>2019-04-30T15:17:04Z</time>
      </trkpt>
      <trkpt lat="43.39092" lon="4.6506">
        <ele>46.224</ele>
        <time>2019-04-30T15:17:15Z</time>
      </trkpt>
      <trkpt lat="43.39092" lon="4.6506">
        <ele>46.185</ele>
        <time>2019-04-30T15:17:26Z</time>
      </trkpt>
      <trkpt lat="43.39092" lon="4.6506">
        <ele>46.15</ele>
        <time>2019-04-30T15:17:36Z</time>
      </trkpt>
      <trkpt lat="43.39092" lon="4.6506">
        <ele>46.112</ele>
        <time>2019-04-30T15:17:47Z</time>
      </trkpt>
      <trkpt lat="43.39092" lon="4.6506">
        <ele>46.076</ele>
        <time>2019-04-30T15:17:57Z</time>
      </trkpt>
      <trkpt lat="43.39092" lon="4.6506">
        <ele>46.04</ele>
        <time>2019-04-30T15:18:07Z</time>
      </trkpt>
      <trkpt lat="43.39092" lon="4.6506">
        <ele>46.005</ele>
        <time>2019-04-30T15:18:17Z</time>
      </trkpt>
      <trkpt lat="43.39092" lon="4.6506">
        <ele>45.967</ele>
        <time>2019-04-30T15:18:28Z</time>
      </trkpt>
      <trkpt lat="43.39092" lon="4.6506">
        <ele>45.934</ele>
        <time>2019-04-30T15:18:38Z</time>
      </trkpt>
      <trkpt lat="43.39093" lon="4.6506">
        <ele>45.895</ele>
        <time>2019-04-30T15:18:49Z</time>
      </trkpt>
      <trkpt lat="43.39093" lon="4.6506">
        <ele>45.855</ele>
        <time>2019-04-30T15:19:00Z</time>
      </trkpt>
      <trkpt lat="43.39093" lon="4.6506">
        <ele>45.815</ele>
        <time>2019-04-30T15:19:11Z</time>
      </trkpt>
      <trkpt lat="43.39093" lon="4.6506">
        <ele>45.775</ele>
        <time>2019-04-30T15:19:21Z</time>
      </trkpt>
      <trkpt lat="43.39093" lon="4.6506">
        <ele>45.731</ele>
        <time>2019-04-30T15:19:32Z</time>
      </trkpt>
      <trkpt lat="43.39093" lon="4.6506">
        <ele>45.688</ele>
        <time>2019-04-30T15:19:43Z</time>
      </trkpt>
      <trkpt lat="43.39093" lon="4.6506">
        <ele>45.649</ele>
        <time>2019-04-30T15:19:53Z</time>
      </trkpt>
      <trkpt lat="43.39093" lon="4.6506">
        <ele>45.606</ele>
        <time>2019-04-30T15:20:04Z</time>
      </trkpt>
      <trkpt lat="43.39093" lon="4.6506">
        <ele>45.567</ele>
        <time>2019-04-30T15:20:14Z</time>
      </trkpt>
      <trkpt lat="43.39093" lon="4.6506">
        <ele>45.525</ele>
        <time>2019-04-30T15:20:25Z</time>
      </trkpt>
      <trkpt lat="43.39093" lon="4.6506">
        <ele>45.488</ele>
        <time>2019-04-30T15:20:35Z</time>
      </trkpt>
      <trkpt lat="43.39092" lon="4.65055">
        <ele>45.29</ele>
        <time>2019-04-30T15:20:45Z</time>
      </trkpt>
      <trkpt lat="43.39092" lon="4.65049">
        <ele>44.95</ele>
        <time>2019-04-30T15:20:56Z</time>
      </trkpt>
      <trkpt lat="43.39089" lon="4.6502">
        <ele>44.447</ele>
        <time>2019-04-30T15:21:06Z</time>
      </trkpt>
      <trkpt lat="43.39087" lon="4.64987">
        <ele>43.975</ele>
        <time>2019-04-30T15:21:17Z</time>
      </trkpt>
      <trkpt lat="43.39087" lon="4.64956">
        <ele>43.566</ele>
        <time>2019-04-30T15:21:28Z</time>
      </trkpt>
      <trkpt lat="43.39104" lon="4.64941">
        <ele>43.369</ele>
        <time>2019-04-30T15:21:39Z</time>
      </trkpt>
      <trkpt lat="43.3913" lon="4.6494">
        <ele>43.938</ele>
        <time>2019-04-30T15:21:50Z</time>
      </trkpt>
      <trkpt lat="43.39157" lon="4.64939">
        <ele>44.436</ele>
        <time>2019-04-30T15:22:00Z</time>
      </trkpt>
      <trkpt lat="43.39185" lon="4.64949">
        <ele>44.925</ele>
        <time>2019-04-30T15:22:11Z</time>
      </trkpt>
      <trkpt lat="43.39201" lon="4.64982">
        <ele>45.393</ele>
        <time>2019-04-30T15:22:22Z</time>
      </trkpt>
      <trkpt lat="43.39216" lon="4.65012">
        <ele>45.973</ele>
        <time>2019-04-30T15:22:33Z</time>
      </trkpt>
      <trkpt lat="43.39216" lon="4.65012">
        <ele>46.044</ele>
        <time>2019-04-30T15:22:44Z</time>
      </trkpt>
      <trkpt lat="43.39216" lon="4.65012">
        <ele>46.043</ele>
        <time>2019-04-30T15:22:54Z</time>
      </trkpt>
      <trkpt lat="43.39216" lon="4.65012">
        <ele>46.024</ele>
        <time>2019-04-30T15:23:05Z</time>
      </trkpt>
      <trkpt lat="43.39216" lon="4.65012">
        <ele>45.999</ele>
        <time>2019-04-30T15:23:16Z</time>
      </trkpt>
      <trkpt lat="43.39216" lon="4.65012">
        <ele>45.975</ele>
        <time>2019-04-30T15:23:27Z</time>
      </trkpt>
      <trkpt lat="43.39217" lon="4.65012">
        <ele>45.951</ele>
        <time>2019-04-30T15:23:37Z</time>
      </trkpt>
      <trkpt lat="43.39217" lon="4.65012">
        <ele>45.928</ele>
        <time>2019-04-30T15:23:48Z</time>
      </trkpt>
      <trkpt lat="43.39217" lon="4.65012">
        <ele>45.908</ele>
        <time>2019-04-30T15:23:59Z</time>
      </trkpt>
      <trkpt lat="43.39217" lon="4.65012">
        <ele>45.848</ele>
        <time>2019-04-30T15:24:09Z</time>
      </trkpt>
      <trkpt lat="43.3923" lon="4.65037">
        <ele>45.747</ele>
        <time>2019-04-30T15:24:20Z</time>
      </trkpt>
      <trkpt lat="43.39243" lon="4.65063">
        <ele>45.83</ele>
        <time>2019-04-30T15:24:30Z</time>
      </trkpt>
      <trkpt lat="43.3926" lon="4.65096">
        <ele>45.96</ele>
        <time>2019-04-30T15:24:41Z</time>
      </trkpt>
      <trkpt lat="43.39279" lon="4.65122">
        <ele>46.122</ele>
        <time>2019-04-30T15:24:51Z</time>
      </trkpt>
      <trkpt lat="43.39297" lon="4.65155">
        <ele>46.319</ele>
        <time>2019-04-30T15:25:02Z</time>
      </trkpt>
      <trkpt lat="43.3931" lon="4.65193">
        <ele>46.432</ele>
        <time>2019-04-30T15:25:13Z</time>
      </trkpt>
      <trkpt lat="43.39319" lon="4.65229">
        <ele>46.352</ele>
        <time>2019-04-30T15:25:23Z</time>
      </trkpt>
      <trkpt lat="43.39331" lon="4.65258">
        <ele>46.31</ele>
        <time>2019-04-30T15:25:34Z</time>
      </trkpt>
      <trkpt lat="43.39331" lon="4.65257">
        <ele>46.272</ele>
        <time>2019-04-30T15:25:45Z</time>
      </trkpt>
      <trkpt lat="43.39326" lon="4.65252">
        <ele>45.895</ele>
        <time>2019-04-30T15:25:56Z</time>
      </trkpt>
      <trkpt lat="43.39314" lon="4.65209">
        <ele>45.244</ele>
        <time>2019-04-30T15:26:07Z</time>
      </trkpt>
      <trkpt lat="43.39299" lon="4.65156">
        <ele>42.681</ele>
        <time>2019-04-30T15:26:18Z</time>
      </trkpt>
      <trkpt lat="43.39273" lon="4.65115">
        <ele>42.981</ele>
        <time>2019-04-30T15:26:28Z</time>
      </trkpt>
      <trkpt lat="43.39246" lon="4.65067">
        <ele>43.971</ele>
        <time>2019-04-30T15:26:39Z</time>
      </trkpt>
      <trkpt lat="43.39222" lon="4.6502">
        <ele>43.999</ele>
        <time>2019-04-30T15:26:49Z</time>
      </trkpt>
      <trkpt lat="43.39199" lon="4.64973">
        <ele>44.393</ele>
        <time>2019-04-30T15:26:59Z</time>
      </trkpt>
      <trkpt lat="43.39165" lon="4.6494">
        <ele>44.428</ele>
        <time>2019-04-30T15:27:10Z</time>
      </trkpt>
      <trkpt lat="43.39116" lon="4.64942">
        <ele>42.466</ele>
        <time>2019-04-30T15:27:21Z</time>
      </trkpt>
      <trkpt lat="43.39061" lon="4.64946">
        <ele>41.66</ele>
        <time>2019-04-30T15:27:32Z</time>
      </trkpt>
      <trkpt lat="43.39007" lon="4.64949">
        <ele>41.77</ele>
        <time>2019-04-30T15:27:43Z</time>
      </trkpt>
      <trkpt lat="43.38953" lon="4.64952">
        <ele>42.088</ele>
        <time>2019-04-30T15:27:54Z</time>
      </trkpt>
      <trkpt lat="43.389" lon="4.64957">
        <ele>41.666</ele>
        <time>2019-04-30T15:28:05Z</time>
      </trkpt>
      <trkpt lat="43.38852" lon="4.64961">
        <ele>41.373</ele>
        <time>2019-04-30T15:28:15Z</time>
      </trkpt>
      <trkpt lat="43.38804" lon="4.64964">
        <ele>41.266</ele>
        <time>2019-04-30T15:28:26Z</time>
      </trkpt>
      <trkpt lat="43.38757" lon="4.64971">
        <ele>40.231</ele>
        <time>2019-04-30T15:28:36Z</time>
      </trkpt>
      <trkpt lat="43.38702" lon="4.64977">
        <ele>40.101</ele>
        <time>2019-04-30T15:28:47Z</time>
      </trkpt>
      <trkpt lat="43.38657" lon="4.65002">
        <ele>40.822</ele>
        <time>2019-04-30T15:28:57Z</time>
      </trkpt>
      <trkpt lat="43.38601" lon="4.65">
        <ele>42.559</ele>
        <time>2019-04-30T15:29:08Z</time>
      </trkpt>
      <trkpt lat="43.38544" lon="4.64996">
        <ele>42.236</ele>
        <time>2019-04-30T15:29:19Z</time>
      </trkpt>
      <trkpt lat="43.38491" lon="4.6499">
        <ele>42.098</ele>
        <time>2019-04-30T15:29:29Z</time>
      </trkpt>
      <trkpt lat="43.3843" lon="4.6499">
        <ele>42.142</ele>
        <time>2019-04-30T15:29:40Z</time>
      </trkpt>
      <trkpt lat="43.38374" lon="4.6501">
        <ele>42.997</ele>
        <time>2019-04-30T15:29:50Z</time>
      </trkpt>
      <trkpt lat="43.3831" lon="4.65031">
        <ele>43.439</ele>
        <time>2019-04-30T15:30:01Z</time>
      </trkpt>
      <trkpt lat="43.38246" lon="4.65054">
        <ele>44.384</ele>
        <time>2019-04-30T15:30:12Z</time>
      </trkpt>
      <trkpt lat="43.38187" lon="4.65102">
        <ele>44.737</ele>
        <time>2019-04-30T15:30:23Z</time>
      </trkpt>
      <trkpt lat="43.38131" lon="4.65146">
        <ele>44.182</ele>
        <time>2019-04-30T15:30:34Z</time>
      </trkpt>
      <trkpt lat="43.38074" lon="4.65172">
        <ele>43.115</ele>
        <time>2019-04-30T15:30:45Z</time>
      </trkpt>
      <trkpt lat="43.38026" lon="4.65206">
        <ele>42.384</ele>
        <time>2019-04-30T15:30:55Z</time>
      </trkpt>
      <trkpt lat="43.37983" lon="4.65248">
        <ele>43.235</ele>
        <time>2019-04-30T15:31:05Z</time>
      </trkpt>
      <trkpt lat="43.37938" lon="4.65288">
        <ele>42.928</ele>
        <time>2019-04-30T15:31:15Z</time>
      </trkpt>
      <trkpt lat="43.37886" lon="4.65325">
        <ele>42.827</ele>
        <time>2019-04-30T15:31:26Z</time>
      </trkpt>
      <trkpt lat="43.37836" lon="4.65363">
        <ele>41.919</ele>
        <time>2019-04-30T15:31:37Z</time>
      </trkpt>
      <trkpt lat="43.37789" lon="4.65391">
        <ele>41.057</ele>
        <time>2019-04-30T15:31:47Z</time>
      </trkpt>
      <trkpt lat="43.37743" lon="4.65413">
        <ele>40.484</ele>
        <time>2019-04-30T15:31:57Z</time>
      </trkpt>
      <trkpt lat="43.37693" lon="4.65451">
        <ele>39.756</ele>
        <time>2019-04-30T15:32:08Z</time>
      </trkpt>
      <trkpt lat="43.37652" lon="4.65492">
        <ele>40.464</ele>
        <time>2019-04-30T15:32:18Z</time>
      </trkpt>
      <trkpt lat="43.37599" lon="4.65518">
        <ele>40.654</ele>
        <time>2019-04-30T15:32:29Z</time>
      </trkpt>
      <trkpt lat="43.3756" lon="4.65498">
        <ele>41.208</ele>
        <time>2019-04-30T15:32:39Z</time>
      </trkpt>
      <trkpt lat="43.37512" lon="4.65474">
        <ele>42.109</ele>
        <time>2019-04-30T15:32:50Z</time>
      </trkpt>
      <trkpt lat="43.37459" lon="4.65464">
        <ele>43.232</ele>
        <time>2019-04-30T15:33:01Z</time>
      </trkpt>
      <trkpt lat="43.37403" lon="4.65455">
        <ele>41.755</ele>
        <time>2019-04-30T15:33:12Z</time>
      </trkpt>
      <trkpt lat="43.3735" lon="4.65445">
        <ele>41.493</ele>
        <time>2019-04-30T15:33:22Z</time>
      </trkpt>
      <trkpt lat="43.37295" lon="4.65435">
        <ele>42.222</ele>
        <time>2019-04-30T15:33:32Z</time>
      </trkpt>
      <trkpt lat="43.37241" lon="4.65425">
        <ele>42.368</ele>
        <time>2019-04-30T15:33:42Z</time>
      </trkpt>
      <trkpt lat="43.37189" lon="4.65416">
        <ele>42.186</ele>
        <time>2019-04-30T15:33:52Z</time>
      </trkpt>
      <trkpt lat="43.37135" lon="4.65403">
        <ele>41.937</ele>
        <time>2019-04-30T15:34:03Z</time>
      </trkpt>
      <trkpt lat="43.37105" lon="4.65398">
        <ele>41.781</ele>
        <time>2019-04-30T15:34:13Z</time>
      </trkpt>
      <trkpt lat="43.37066" lon="4.65392">
        <ele>41.502</ele>
        <time>2019-04-30T15:34:23Z</time>
      </trkpt>
      <trkpt lat="43.37029" lon="4.65381">
        <ele>41.497</ele>
        <time>2019-04-30T15:34:34Z</time>
      </trkpt>
      <trkpt lat="43.37008" lon="4.65371">
        <ele>41.792</ele>
        <time>2019-04-30T15:34:45Z</time>
      </trkpt>
      <trkpt lat="43.37005" lon="4.6538">
        <ele>41.985</ele>
        <time>2019-04-30T15:34:56Z</time>
      </trkpt>
      <trkpt lat="43.37001" lon="4.65386">
        <ele>42.389</ele>
        <time>2019-04-30T15:35:06Z</time>
      </trkpt>
      <trkpt lat="43.36995" lon="4.65396">
        <ele>42.776</ele>
        <time>2019-04-30T15:35:17Z</time>
      </trkpt>
      <trkpt lat="43.36995" lon="4.65396">
        <ele>42.894</ele>
        <time>2019-04-30T15:35:27Z</time>
      </trkpt>
      <trkpt lat="43.37002" lon="4.65383">
        <ele>43.328</ele>
        <time>2019-04-30T15:35:37Z</time>
      </trkpt>
      <trkpt lat="43.37011" lon="4.6537">
        <ele>43.651</ele>
        <time>2019-04-30T15:35:48Z</time>
      </trkpt>
      <trkpt lat="43.37023" lon="4.65378">
        <ele>44.16</ele>
        <time>2019-04-30T15:35:59Z</time>
      </trkpt>
      <trkpt lat="43.37028" lon="4.65392">
        <ele>44.6</ele>
        <time>2019-04-30T15:36:10Z</time>
      </trkpt>
      <trkpt lat="43.3702" lon="4.65408">
        <ele>45.047</ele>
        <time>2019-04-30T15:36:21Z</time>
      </trkpt>
      <trkpt lat="43.37011" lon="4.65422">
        <ele>45.261</ele>
        <time>2019-04-30T15:36:31Z</time>
      </trkpt>
      <trkpt lat="43.37001" lon="4.65431">
        <ele>45.254</ele>
        <time>2019-04-30T15:36:41Z</time>
      </trkpt>
      <trkpt lat="43.36988" lon="4.65421">
        <ele>45.803</ele>
        <time>2019-04-30T15:36:52Z</time>
      </trkpt>
      <trkpt lat="43.36977" lon="4.65413">
        <ele>46.091</ele>
        <time>2019-04-30T15:37:03Z</time>
      </trkpt>
      <trkpt lat="43.36967" lon="4.65415">
        <ele>45.96</ele>
        <time>2019-04-30T15:37:14Z</time>
      </trkpt>
      <trkpt lat="43.36964" lon="4.6542">
        <ele>45.835</ele>
        <time>2019-04-30T15:37:24Z</time>
      </trkpt>
      <trkpt lat="43.36965" lon="4.65422">
        <ele>45.901</ele>
        <time>2019-04-30T15:37:34Z</time>
      </trkpt>
      <trkpt lat="43.36968" lon="4.6542">
        <ele>45.97</ele>
        <time>2019-04-30T15:37:44Z</time>
      </trkpt>
      <trkpt lat="43.36968" lon="4.65419">
        <ele>45.992</ele>
        <time>2019-04-30T15:37:55Z</time>
      </trkpt>
      <trkpt lat="43.36967" lon="4.65418">
        <ele>46.066</ele>
        <time>2019-04-30T15:38:05Z</time>
      </trkpt>
      <trkpt lat="43.36967" lon="4.65418">
        <ele>46.083</ele>
        <time>2019-04-30T15:38:15Z</time>
      </trkpt>
      <trkpt lat="43.36966" lon="4.65418">
        <ele>46.126</ele>
        <time>2019-04-30T15:38:26Z</time>
      </trkpt>
      <trkpt lat="43.36966" lon="4.65418">
        <ele>46.185</ele>
        <time>2019-04-30T15:38:37Z</time>
      </trkpt>
      <trkpt lat="43.36966" lon="4.65418">
        <ele>46.218</ele>
        <time>2019-04-30T15:38:48Z</time>
      </trkpt>
      <trkpt lat="43.36966" lon="4.65418">
        <ele>46.19</ele>
        <time>2019-04-30T15:38:59Z</time>
      </trkpt>
      <trkpt lat="43.36967" lon="4.65418">
        <ele>46.162</ele>
        <time>2019-04-30T15:39:09Z</time>
      </trkpt>
      <trkpt lat="43.36967" lon="4.65418">
        <ele>46.135</ele>
        <time>2019-04-30T15:39:20Z</time>
      </trkpt>
      <trkpt lat="43.36967" lon="4.65419">
        <ele>46.122</ele>
        <time>2019-04-30T15:39:30Z</time>
      </trkpt>
      <trkpt lat="43.36967" lon="4.65419">
        <ele>46.121</ele>
        <time>2019-04-30T15:39:41Z</time>
      </trkpt>
      <trkpt lat="43.36967" lon="4.65419">
        <ele>46.117</ele>
        <time>2019-04-30T15:39:52Z</time>
      </trkpt>
      <trkpt lat="43.36967" lon="4.65419">
        <ele>46.112</ele>
        <time>2019-04-30T15:40:03Z</time>
      </trkpt>
      <trkpt lat="43.36967" lon="4.65419">
        <ele>46.101</ele>
        <time>2019-04-30T15:40:13Z</time>
      </trkpt>
      <trkpt lat="43.36967" lon="4.65419">
        <ele>46.094</ele>
        <time>2019-04-30T15:40:24Z</time>
      </trkpt>
      <trkpt lat="43.36967" lon="4.65419">
        <ele>46.094</ele>
        <time>2019-04-30T15:40:35Z</time>
      </trkpt>
      <trkpt lat="43.36967" lon="4.65419">
        <ele>46.093</ele>
        <time>2019-04-30T15:40:46Z</time>
      </trkpt>
      <trkpt lat="43.36967" lon="4.65419">
        <ele>46.093</ele>
        <time>2019-04-30T15:40:56Z</time>
      </trkpt>
      <trkpt lat="43.36967" lon="4.65419">
        <ele>46.091</ele>
        <time>2019-04-30T15:41:06Z</time>
      </trkpt>
      <trkpt lat="43.36968" lon="4.65419">
        <ele>46.083</ele>
        <time>2019-04-30T15:41:17Z</time>
      </trkpt>
      <trkpt lat="43.36967" lon="4.65419">
        <ele>46.122</ele>
        <time>2019-04-30T15:41:27Z</time>
      </trkpt>
      <trkpt lat="43.36967" lon="4.65419">
        <ele>46.157</ele>
        <time>2019-04-30T15:41:38Z</time>
      </trkpt>
      <trkpt lat="43.36968" lon="4.65419">
        <ele>46.118</ele>
        <time>2019-04-30T15:41:48Z</time>
      </trkpt>
      <trkpt lat="43.36968" lon="4.65419">
        <ele>46.047</ele>
        <time>2019-04-30T15:41:59Z</time>
      </trkpt>
      <trkpt lat="43.36968" lon="4.65419">
        <ele>45.952</ele>
        <time>2019-04-30T15:42:09Z</time>
      </trkpt>
      <trkpt lat="43.36969" lon="4.6542">
        <ele>45.828</ele>
        <time>2019-04-30T15:42:20Z</time>
      </trkpt>
      <trkpt lat="43.36969" lon="4.6542">
        <ele>45.695</ele>
        <time>2019-04-30T15:42:31Z</time>
      </trkpt>
      <trkpt lat="43.3697" lon="4.65421">
        <ele>45.553</ele>
        <time>2019-04-30T15:42:42Z</time>
      </trkpt>
      <trkpt lat="43.3697" lon="4.65421">
        <ele>45.418</ele>
        <time>2019-04-30T15:42:53Z</time>
      </trkpt>
      <trkpt lat="43.3697" lon="4.65422">
        <ele>45.288</ele>
        <time>2019-04-30T15:43:04Z</time>
      </trkpt>
      <trkpt lat="43.3697" lon="4.65422">
        <ele>45.257</ele>
        <time>2019-04-30T15:43:15Z</time>
      </trkpt>
      <trkpt lat="43.36969" lon="4.65421">
        <ele>45.254</ele>
        <time>2019-04-30T15:43:25Z</time>
      </trkpt>
      <trkpt lat="43.36969" lon="4.65421">
        <ele>45.278</ele>
        <time>2019-04-30T15:43:36Z</time>
      </trkpt>
      <trkpt lat="43.36968" lon="4.6542">
        <ele>45.346</ele>
        <time>2019-04-30T15:43:47Z</time>
      </trkpt>
      <trkpt lat="43.36968" lon="4.6542">
        <ele>45.431</ele>
        <time>2019-04-30T15:43:58Z</time>
      </trkpt>
      <trkpt lat="43.36967" lon="4.65419">
        <ele>45.487</ele>
        <time>2019-04-30T15:44:09Z</time>
      </trkpt>
      <trkpt lat="43.36967" lon="4.65419">
        <ele>45.516</ele>
        <time>2019-04-30T15:44:19Z</time>
      </trkpt>
      <trkpt lat="43.36967" lon="4.65419">
        <ele>45.552</ele>
        <time>2019-04-30T15:44:30Z</time>
      </trkpt>
      <trkpt lat="43.36967" lon="4.65419">
        <ele>45.606</ele>
        <time>2019-04-30T15:44:41Z</time>
      </trkpt>
      <trkpt lat="43.36967" lon="4.65419">
        <ele>45.658</ele>
        <time>2019-04-30T15:44:51Z</time>
      </trkpt>
      <trkpt lat="43.36967" lon="4.65419">
        <ele>45.709</ele>
        <time>2019-04-30T15:45:02Z</time>
      </trkpt>
      <trkpt lat="43.36967" lon="4.65418">
        <ele>45.764</ele>
        <time>2019-04-30T15:45:12Z</time>
      </trkpt>
      <trkpt lat="43.36967" lon="4.65418">
        <ele>45.815</ele>
        <time>2019-04-30T15:45:23Z</time>
      </trkpt>
      <trkpt lat="43.36967" lon="4.65418">
        <ele>45.853</ele>
        <time>2019-04-30T15:45:33Z</time>
      </trkpt>
      <trkpt lat="43.36967" lon="4.65419">
        <ele>45.886</ele>
        <time>2019-04-30T15:45:44Z</time>
      </trkpt>
      <trkpt lat="43.36967" lon="4.65419">
        <ele>45.92</ele>
        <time>2019-04-30T15:45:54Z</time>
      </trkpt>
      <trkpt lat="43.36967" lon="4.65419">
        <ele>45.962</ele>
        <time>2019-04-30T15:46:05Z</time>
      </trkpt>
      <trkpt lat="43.36967" lon="4.65419">
        <ele>46.001</ele>
        <time>2019-04-30T15:46:16Z</time>
      </trkpt>
      <trkpt lat="43.36967" lon="4.65419">
        <ele>46.038</ele>
        <time>2019-04-30T15:46:27Z</time>
      </trkpt>
      <trkpt lat="43.36967" lon="4.65419">
        <ele>46.068</ele>
        <time>2019-04-30T15:46:38Z</time>
      </trkpt>
      <trkpt lat="43.36967" lon="4.65419">
        <ele>46.092</ele>
        <time>2019-04-30T15:46:48Z</time>
      </trkpt>
      <trkpt lat="43.36967" lon="4.65419">
        <ele>46.101</ele>
        <time>2019-04-30T15:46:58Z</time>
      </trkpt>
      <trkpt lat="43.36967" lon="4.65419">
        <ele>46.075</ele>
        <time>2019-04-30T15:47:09Z</time>
      </trkpt>
      <trkpt lat="43.36967" lon="4.65419">
        <ele>46.044</ele>
        <time>2019-04-30T15:47:19Z</time>
      </trkpt>
      <trkpt lat="43.36967" lon="4.65419">
        <ele>46.009</ele>
        <time>2019-04-30T15:47:30Z</time>
      </trkpt>
      <trkpt lat="43.36967" lon="4.65419">
        <ele>45.977</ele>
        <time>2019-04-30T15:47:41Z</time>
      </trkpt>
      <trkpt lat="43.36967" lon="4.65419">
        <ele>45.959</ele>
        <time>2019-04-30T15:47:52Z</time>
      </trkpt>
      <trkpt lat="43.36966" lon="4.65422">
        <ele>46.38</ele>
        <time>2019-04-30T15:48:03Z</time>
      </trkpt>
      <trkpt lat="43.36972" lon="4.65419">
        <ele>46.897</ele>
        <time>2019-04-30T15:48:14Z</time>
      </trkpt>
      <trkpt lat="43.36972" lon="4.65419">
        <ele>46.928</ele>
        <time>2019-04-30T15:48:24Z</time>
      </trkpt>
      <trkpt lat="43.36972" lon="4.65419">
        <ele>46.985</ele>
        <time>2019-04-30T15:48:35Z</time>
      </trkpt>
      <trkpt lat="43.36972" lon="4.65419">
        <ele>47.04</ele>
        <time>2019-04-30T15:48:45Z</time>
      </trkpt>
      <trkpt lat="43.36972" lon="4.65419">
        <ele>47.07</ele>
        <time>2019-04-30T15:48:56Z</time>
      </trkpt>
      <trkpt lat="43.36972" lon="4.65419">
        <ele>47.075</ele>
        <time>2019-04-30T15:49:06Z</time>
      </trkpt>
      <trkpt lat="43.36972" lon="4.65418">
        <ele>47.031</ele>
        <time>2019-04-30T15:49:17Z</time>
      </trkpt>
    </trkseg>
  </trk>
</gpx>